<?xml version="1.0" encoding="UTF-8" standalone="no" ?>
<gpx xmlns="http://www.topografix.com/GPX/1/1" xmlns:xsi="http://www.w3.org/2001/XMLSchema-instance" xsi:schemaLocation="http://www.topografix.com/GPX/1/1 http://www.topografix.com/GPX/1/1/gpx.xsd" version="1.1" creator="VisuGPX - https://www.visugpx.com">
  <metadata>
    <name>Pont de Metz</name>
    <desc><![CDATA[Sportez-vous bien]]></desc>
  </metadata>
  <trk>
    <name><![CDATA[Pont de Metz_1]]></name>
    <trkseg>
      <trkpt lat="49.883" lon="2.24265">
        <ele>40.5</ele>
        <time>2021-09-05T09:14:03Z</time>
      </trkpt>
      <trkpt lat="49.883" lon="2.24265">
        <ele>40.5</ele>
        <time>2021-09-05T09:14:04Z</time>
      </trkpt>
      <trkpt lat="49.883" lon="2.24265">
        <ele>40.5</ele>
        <time>2021-09-05T09:14:06Z</time>
      </trkpt>
      <trkpt lat="49.883" lon="2.24265">
        <ele>40.5</ele>
        <time>2021-09-05T09:14:08Z</time>
      </trkpt>
      <trkpt lat="49.883" lon="2.24265">
        <ele>40.5</ele>
        <time>2021-09-05T09:14:09Z</time>
      </trkpt>
      <trkpt lat="49.883" lon="2.24265">
        <ele>40.5</ele>
        <time>2021-09-05T09:14:10Z</time>
      </trkpt>
      <trkpt lat="49.883" lon="2.24265">
        <ele>40.5</ele>
        <time>2021-09-05T09:14:12Z</time>
      </trkpt>
      <trkpt lat="49.883" lon="2.24265">
        <ele>40.5</ele>
        <time>2021-09-05T09:14:14Z</time>
      </trkpt>
      <trkpt lat="49.883" lon="2.24265">
        <ele>40.5</ele>
        <time>2021-09-05T09:14:15Z</time>
      </trkpt>
      <trkpt lat="49.883" lon="2.24265">
        <ele>40.5</ele>
        <time>2021-09-05T09:14:17Z</time>
      </trkpt>
      <trkpt lat="49.883" lon="2.24265">
        <ele>40.5</ele>
        <time>2021-09-05T09:14:18Z</time>
      </trkpt>
      <trkpt lat="49.883" lon="2.24265">
        <ele>40.5</ele>
        <time>2021-09-05T09:14:19Z</time>
      </trkpt>
      <trkpt lat="49.883" lon="2.24265">
        <ele>40.5</ele>
        <time>2021-09-05T09:14:20Z</time>
      </trkpt>
      <trkpt lat="49.883" lon="2.24265">
        <ele>40.5</ele>
        <time>2021-09-05T09:14:22Z</time>
      </trkpt>
      <trkpt lat="49.883" lon="2.24265">
        <ele>40.5</ele>
        <time>2021-09-05T09:14:24Z</time>
      </trkpt>
      <trkpt lat="49.883" lon="2.24265">
        <ele>40.5</ele>
        <time>2021-09-05T09:14:26Z</time>
      </trkpt>
      <trkpt lat="49.883" lon="2.24265">
        <ele>40.5</ele>
        <time>2021-09-05T09:14:27Z</time>
      </trkpt>
      <trkpt lat="49.883" lon="2.24265">
        <ele>40.5</ele>
        <time>2021-09-05T09:14:29Z</time>
      </trkpt>
      <trkpt lat="49.883" lon="2.24265">
        <ele>40.5</ele>
        <time>2021-09-05T09:14:30Z</time>
      </trkpt>
      <trkpt lat="49.883" lon="2.24265">
        <ele>40.5</ele>
        <time>2021-09-05T09:14:32Z</time>
      </trkpt>
      <trkpt lat="49.883" lon="2.24265">
        <ele>40.5</ele>
        <time>2021-09-05T09:14:34Z</time>
      </trkpt>
      <trkpt lat="49.883" lon="2.24265">
        <ele>40.5</ele>
        <time>2021-09-05T09:14:35Z</time>
      </trkpt>
      <trkpt lat="49.88301" lon="2.24264">
        <ele>40.6</ele>
        <time>2021-09-05T09:14:37Z</time>
      </trkpt>
      <trkpt lat="49.88302" lon="2.24263">
        <ele>40.7</ele>
        <time>2021-09-05T09:14:38Z</time>
      </trkpt>
      <trkpt lat="49.88304" lon="2.24263">
        <ele>40.8</ele>
        <time>2021-09-05T09:14:39Z</time>
      </trkpt>
      <trkpt lat="49.88305" lon="2.24263">
        <ele>40.8</ele>
        <time>2021-09-05T09:14:41Z</time>
      </trkpt>
      <trkpt lat="49.88306" lon="2.24265">
        <ele>40.9</ele>
        <time>2021-09-05T09:14:42Z</time>
      </trkpt>
      <trkpt lat="49.88308" lon="2.24268">
        <ele>41</ele>
        <time>2021-09-05T09:14:44Z</time>
      </trkpt>
      <trkpt lat="49.88309" lon="2.24269">
        <ele>41.1</ele>
        <time>2021-09-05T09:14:45Z</time>
      </trkpt>
      <trkpt lat="49.88309" lon="2.2427">
        <ele>41.1</ele>
        <time>2021-09-05T09:14:46Z</time>
      </trkpt>
      <trkpt lat="49.88309" lon="2.24271">
        <ele>41.2</ele>
        <time>2021-09-05T09:14:48Z</time>
      </trkpt>
      <trkpt lat="49.8831" lon="2.24272">
        <ele>41.2</ele>
        <time>2021-09-05T09:14:49Z</time>
      </trkpt>
      <trkpt lat="49.8831" lon="2.24274">
        <ele>41.3</ele>
        <time>2021-09-05T09:14:50Z</time>
      </trkpt>
      <trkpt lat="49.88311" lon="2.24275">
        <ele>41.3</ele>
        <time>2021-09-05T09:14:51Z</time>
      </trkpt>
      <trkpt lat="49.88312" lon="2.24276">
        <ele>41.4</ele>
        <time>2021-09-05T09:14:53Z</time>
      </trkpt>
      <trkpt lat="49.88313" lon="2.24277">
        <ele>41.4</ele>
        <time>2021-09-05T09:14:55Z</time>
      </trkpt>
      <trkpt lat="49.88313" lon="2.24278">
        <ele>41.4</ele>
        <time>2021-09-05T09:14:56Z</time>
      </trkpt>
      <trkpt lat="49.88313" lon="2.24279">
        <ele>41.5</ele>
        <time>2021-09-05T09:14:58Z</time>
      </trkpt>
      <trkpt lat="49.88313" lon="2.2428">
        <ele>41.5</ele>
        <time>2021-09-05T09:14:59Z</time>
      </trkpt>
      <trkpt lat="49.88313" lon="2.24281">
        <ele>41.5</ele>
        <time>2021-09-05T09:15:00Z</time>
      </trkpt>
      <trkpt lat="49.88314" lon="2.24281">
        <ele>41.5</ele>
        <time>2021-09-05T09:15:01Z</time>
      </trkpt>
      <trkpt lat="49.88314" lon="2.24282">
        <ele>41.6</ele>
        <time>2021-09-05T09:15:03Z</time>
      </trkpt>
      <trkpt lat="49.88315" lon="2.24284">
        <ele>41.6</ele>
        <time>2021-09-05T09:15:04Z</time>
      </trkpt>
      <trkpt lat="49.88316" lon="2.24286">
        <ele>41.7</ele>
        <time>2021-09-05T09:15:05Z</time>
      </trkpt>
      <trkpt lat="49.88317" lon="2.24287">
        <ele>41.7</ele>
        <time>2021-09-05T09:15:07Z</time>
      </trkpt>
      <trkpt lat="49.88318" lon="2.24288">
        <ele>41.8</ele>
        <time>2021-09-05T09:15:08Z</time>
      </trkpt>
      <trkpt lat="49.8832" lon="2.2429">
        <ele>41.8</ele>
        <time>2021-09-05T09:15:09Z</time>
      </trkpt>
      <trkpt lat="49.8832" lon="2.24291">
        <ele>41.9</ele>
        <time>2021-09-05T09:15:11Z</time>
      </trkpt>
      <trkpt lat="49.88321" lon="2.24292">
        <ele>41.9</ele>
        <time>2021-09-05T09:15:12Z</time>
      </trkpt>
      <trkpt lat="49.88322" lon="2.24293">
        <ele>41.9</ele>
        <time>2021-09-05T09:15:14Z</time>
      </trkpt>
      <trkpt lat="49.88323" lon="2.24294">
        <ele>42</ele>
        <time>2021-09-05T09:15:15Z</time>
      </trkpt>
      <trkpt lat="49.88324" lon="2.24295">
        <ele>42</ele>
        <time>2021-09-05T09:15:16Z</time>
      </trkpt>
      <trkpt lat="49.88325" lon="2.24296">
        <ele>42</ele>
        <time>2021-09-05T09:15:17Z</time>
      </trkpt>
      <trkpt lat="49.88326" lon="2.24298">
        <ele>42</ele>
        <time>2021-09-05T09:15:18Z</time>
      </trkpt>
      <trkpt lat="49.88327" lon="2.243">
        <ele>42.1</ele>
        <time>2021-09-05T09:15:20Z</time>
      </trkpt>
      <trkpt lat="49.88328" lon="2.24301">
        <ele>42.1</ele>
        <time>2021-09-05T09:15:21Z</time>
      </trkpt>
      <trkpt lat="49.88329" lon="2.24302">
        <ele>42.1</ele>
        <time>2021-09-05T09:15:22Z</time>
      </trkpt>
      <trkpt lat="49.88329" lon="2.24303">
        <ele>42.1</ele>
        <time>2021-09-05T09:15:23Z</time>
      </trkpt>
      <trkpt lat="49.88329" lon="2.24303">
        <ele>42.1</ele>
        <time>2021-09-05T09:15:24Z</time>
      </trkpt>
      <trkpt lat="49.88331" lon="2.24304">
        <ele>42.1</ele>
        <time>2021-09-05T09:15:26Z</time>
      </trkpt>
      <trkpt lat="49.88332" lon="2.24305">
        <ele>42.2</ele>
        <time>2021-09-05T09:15:27Z</time>
      </trkpt>
      <trkpt lat="49.88333" lon="2.24307">
        <ele>42.2</ele>
        <time>2021-09-05T09:15:28Z</time>
      </trkpt>
      <trkpt lat="49.88335" lon="2.24311">
        <ele>42.2</ele>
        <time>2021-09-05T09:15:30Z</time>
      </trkpt>
      <trkpt lat="49.88336" lon="2.24312">
        <ele>42.2</ele>
        <time>2021-09-05T09:15:31Z</time>
      </trkpt>
      <trkpt lat="49.88337" lon="2.24313">
        <ele>42.2</ele>
        <time>2021-09-05T09:15:32Z</time>
      </trkpt>
      <trkpt lat="49.88337" lon="2.24315">
        <ele>42.2</ele>
        <time>2021-09-05T09:15:33Z</time>
      </trkpt>
      <trkpt lat="49.88339" lon="2.24319">
        <ele>42.3</ele>
        <time>2021-09-05T09:15:34Z</time>
      </trkpt>
      <trkpt lat="49.8834" lon="2.2432">
        <ele>42.3</ele>
        <time>2021-09-05T09:15:36Z</time>
      </trkpt>
      <trkpt lat="49.88341" lon="2.24322">
        <ele>42.3</ele>
        <time>2021-09-05T09:15:37Z</time>
      </trkpt>
      <trkpt lat="49.88342" lon="2.24323">
        <ele>42.3</ele>
        <time>2021-09-05T09:15:38Z</time>
      </trkpt>
      <trkpt lat="49.88342" lon="2.24324">
        <ele>42.3</ele>
        <time>2021-09-05T09:15:39Z</time>
      </trkpt>
      <trkpt lat="49.88343" lon="2.24325">
        <ele>42.3</ele>
        <time>2021-09-05T09:15:41Z</time>
      </trkpt>
      <trkpt lat="49.88343" lon="2.24326">
        <ele>42.3</ele>
        <time>2021-09-05T09:15:42Z</time>
      </trkpt>
      <trkpt lat="49.88344" lon="2.24327">
        <ele>42.3</ele>
        <time>2021-09-05T09:15:43Z</time>
      </trkpt>
      <trkpt lat="49.88346" lon="2.24329">
        <ele>42.3</ele>
        <time>2021-09-05T09:15:45Z</time>
      </trkpt>
      <trkpt lat="49.88346" lon="2.24329">
        <ele>42.3</ele>
        <time>2021-09-05T09:15:47Z</time>
      </trkpt>
      <trkpt lat="49.88346" lon="2.24329">
        <ele>42.3</ele>
        <time>2021-09-05T09:15:48Z</time>
      </trkpt>
      <trkpt lat="49.88345" lon="2.24329">
        <ele>42.3</ele>
        <time>2021-09-05T09:15:50Z</time>
      </trkpt>
      <trkpt lat="49.88345" lon="2.24328">
        <ele>42.3</ele>
        <time>2021-09-05T09:15:52Z</time>
      </trkpt>
      <trkpt lat="49.88345" lon="2.24328">
        <ele>42.3</ele>
        <time>2021-09-05T09:15:53Z</time>
      </trkpt>
      <trkpt lat="49.88345" lon="2.24328">
        <ele>42.3</ele>
        <time>2021-09-05T09:15:55Z</time>
      </trkpt>
      <trkpt lat="49.88345" lon="2.24328">
        <ele>42.3</ele>
        <time>2021-09-05T09:15:56Z</time>
      </trkpt>
      <trkpt lat="49.88345" lon="2.24328">
        <ele>42.3</ele>
        <time>2021-09-05T09:15:58Z</time>
      </trkpt>
      <trkpt lat="49.88345" lon="2.24328">
        <ele>42.3</ele>
        <time>2021-09-05T09:15:59Z</time>
      </trkpt>
      <trkpt lat="49.88345" lon="2.24328">
        <ele>42.3</ele>
        <time>2021-09-05T09:16:01Z</time>
      </trkpt>
      <trkpt lat="49.88345" lon="2.24328">
        <ele>42.3</ele>
        <time>2021-09-05T09:16:02Z</time>
      </trkpt>
      <trkpt lat="49.88345" lon="2.24328">
        <ele>42.3</ele>
        <time>2021-09-05T09:16:03Z</time>
      </trkpt>
      <trkpt lat="49.88345" lon="2.24327">
        <ele>42.3</ele>
        <time>2021-09-05T09:16:05Z</time>
      </trkpt>
      <trkpt lat="49.88345" lon="2.24327">
        <ele>42.3</ele>
        <time>2021-09-05T09:16:06Z</time>
      </trkpt>
      <trkpt lat="49.88345" lon="2.24327">
        <ele>42.3</ele>
        <time>2021-09-05T09:16:08Z</time>
      </trkpt>
      <trkpt lat="49.88345" lon="2.24327">
        <ele>42.3</ele>
        <time>2021-09-05T09:16:10Z</time>
      </trkpt>
      <trkpt lat="49.88345" lon="2.24327">
        <ele>42.3</ele>
        <time>2021-09-05T09:16:11Z</time>
      </trkpt>
      <trkpt lat="49.88345" lon="2.24327">
        <ele>42.3</ele>
        <time>2021-09-05T09:16:12Z</time>
      </trkpt>
      <trkpt lat="49.88345" lon="2.24327">
        <ele>42.3</ele>
        <time>2021-09-05T09:16:14Z</time>
      </trkpt>
      <trkpt lat="49.88345" lon="2.24327">
        <ele>42.3</ele>
        <time>2021-09-05T09:16:15Z</time>
      </trkpt>
      <trkpt lat="49.88345" lon="2.24327">
        <ele>42.3</ele>
        <time>2021-09-05T09:16:17Z</time>
      </trkpt>
      <trkpt lat="49.88345" lon="2.24327">
        <ele>42.3</ele>
        <time>2021-09-05T09:16:19Z</time>
      </trkpt>
      <trkpt lat="49.88345" lon="2.24327">
        <ele>42.3</ele>
        <time>2021-09-05T09:16:21Z</time>
      </trkpt>
      <trkpt lat="49.88345" lon="2.24327">
        <ele>42.3</ele>
        <time>2021-09-05T09:16:22Z</time>
      </trkpt>
      <trkpt lat="49.88345" lon="2.24327">
        <ele>42.3</ele>
        <time>2021-09-05T09:16:23Z</time>
      </trkpt>
      <trkpt lat="49.88345" lon="2.24327">
        <ele>42.3</ele>
        <time>2021-09-05T09:16:25Z</time>
      </trkpt>
      <trkpt lat="49.88345" lon="2.24327">
        <ele>42.3</ele>
        <time>2021-09-05T09:16:26Z</time>
      </trkpt>
      <trkpt lat="49.88345" lon="2.24327">
        <ele>42.3</ele>
        <time>2021-09-05T09:16:28Z</time>
      </trkpt>
      <trkpt lat="49.88345" lon="2.24327">
        <ele>42.3</ele>
        <time>2021-09-05T09:16:30Z</time>
      </trkpt>
      <trkpt lat="49.88345" lon="2.24327">
        <ele>42.3</ele>
        <time>2021-09-05T09:16:31Z</time>
      </trkpt>
      <trkpt lat="49.88345" lon="2.24327">
        <ele>42.3</ele>
        <time>2021-09-05T09:16:32Z</time>
      </trkpt>
      <trkpt lat="49.88345" lon="2.24327">
        <ele>42.3</ele>
        <time>2021-09-05T09:16:34Z</time>
      </trkpt>
      <trkpt lat="49.88345" lon="2.24327">
        <ele>42.3</ele>
        <time>2021-09-05T09:16:35Z</time>
      </trkpt>
      <trkpt lat="49.88345" lon="2.24327">
        <ele>42.3</ele>
        <time>2021-09-05T09:16:37Z</time>
      </trkpt>
      <trkpt lat="49.88345" lon="2.24327">
        <ele>42.3</ele>
        <time>2021-09-05T09:16:38Z</time>
      </trkpt>
      <trkpt lat="49.88345" lon="2.24327">
        <ele>42.3</ele>
        <time>2021-09-05T09:16:40Z</time>
      </trkpt>
      <trkpt lat="49.88345" lon="2.24327">
        <ele>42.3</ele>
        <time>2021-09-05T09:16:41Z</time>
      </trkpt>
      <trkpt lat="49.88345" lon="2.24327">
        <ele>42.3</ele>
        <time>2021-09-05T09:16:42Z</time>
      </trkpt>
      <trkpt lat="49.88345" lon="2.24327">
        <ele>42.3</ele>
        <time>2021-09-05T09:16:44Z</time>
      </trkpt>
      <trkpt lat="49.88345" lon="2.24327">
        <ele>42.3</ele>
        <time>2021-09-05T09:16:46Z</time>
      </trkpt>
      <trkpt lat="49.88345" lon="2.24327">
        <ele>42.3</ele>
        <time>2021-09-05T09:16:47Z</time>
      </trkpt>
      <trkpt lat="49.88345" lon="2.24327">
        <ele>42.3</ele>
        <time>2021-09-05T09:16:49Z</time>
      </trkpt>
      <trkpt lat="49.88345" lon="2.24327">
        <ele>42.3</ele>
        <time>2021-09-05T09:16:50Z</time>
      </trkpt>
      <trkpt lat="49.88345" lon="2.24327">
        <ele>42.3</ele>
        <time>2021-09-05T09:16:52Z</time>
      </trkpt>
      <trkpt lat="49.88345" lon="2.24327">
        <ele>42.3</ele>
        <time>2021-09-05T09:16:54Z</time>
      </trkpt>
      <trkpt lat="49.88345" lon="2.24327">
        <ele>42.3</ele>
        <time>2021-09-05T09:16:55Z</time>
      </trkpt>
      <trkpt lat="49.88345" lon="2.24327">
        <ele>42.3</ele>
        <time>2021-09-05T09:16:56Z</time>
      </trkpt>
      <trkpt lat="49.88345" lon="2.24327">
        <ele>42.3</ele>
        <time>2021-09-05T09:16:58Z</time>
      </trkpt>
      <trkpt lat="49.88345" lon="2.24327">
        <ele>42.3</ele>
        <time>2021-09-05T09:17:00Z</time>
      </trkpt>
      <trkpt lat="49.88345" lon="2.24327">
        <ele>42.3</ele>
        <time>2021-09-05T09:17:01Z</time>
      </trkpt>
      <trkpt lat="49.88345" lon="2.24327">
        <ele>42.3</ele>
        <time>2021-09-05T09:17:02Z</time>
      </trkpt>
      <trkpt lat="49.88345" lon="2.24327">
        <ele>42.3</ele>
        <time>2021-09-05T09:17:03Z</time>
      </trkpt>
      <trkpt lat="49.88345" lon="2.24327">
        <ele>42.3</ele>
        <time>2021-09-05T09:17:05Z</time>
      </trkpt>
      <trkpt lat="49.88345" lon="2.24327">
        <ele>42.3</ele>
        <time>2021-09-05T09:17:06Z</time>
      </trkpt>
      <trkpt lat="49.88345" lon="2.24327">
        <ele>42.3</ele>
        <time>2021-09-05T09:17:07Z</time>
      </trkpt>
      <trkpt lat="49.88345" lon="2.24327">
        <ele>42.3</ele>
        <time>2021-09-05T09:17:09Z</time>
      </trkpt>
      <trkpt lat="49.88345" lon="2.24327">
        <ele>42.3</ele>
        <time>2021-09-05T09:17:10Z</time>
      </trkpt>
      <trkpt lat="49.88345" lon="2.24327">
        <ele>42.3</ele>
        <time>2021-09-05T09:17:11Z</time>
      </trkpt>
      <trkpt lat="49.88345" lon="2.24327">
        <ele>42.3</ele>
        <time>2021-09-05T09:17:13Z</time>
      </trkpt>
      <trkpt lat="49.88345" lon="2.24327">
        <ele>42.3</ele>
        <time>2021-09-05T09:17:14Z</time>
      </trkpt>
      <trkpt lat="49.88345" lon="2.24327">
        <ele>42.3</ele>
        <time>2021-09-05T09:17:15Z</time>
      </trkpt>
      <trkpt lat="49.88345" lon="2.24327">
        <ele>42.3</ele>
        <time>2021-09-05T09:17:17Z</time>
      </trkpt>
      <trkpt lat="49.88345" lon="2.24327">
        <ele>42.3</ele>
        <time>2021-09-05T09:17:18Z</time>
      </trkpt>
      <trkpt lat="49.88345" lon="2.24327">
        <ele>42.3</ele>
        <time>2021-09-05T09:17:19Z</time>
      </trkpt>
      <trkpt lat="49.88344" lon="2.24327">
        <ele>42.3</ele>
        <time>2021-09-05T09:17:21Z</time>
      </trkpt>
      <trkpt lat="49.88344" lon="2.24327">
        <ele>42.3</ele>
        <time>2021-09-05T09:17:22Z</time>
      </trkpt>
      <trkpt lat="49.88345" lon="2.24327">
        <ele>42.3</ele>
        <time>2021-09-05T09:17:23Z</time>
      </trkpt>
      <trkpt lat="49.88346" lon="2.24328">
        <ele>42.3</ele>
        <time>2021-09-05T09:17:25Z</time>
      </trkpt>
      <trkpt lat="49.88346" lon="2.24329">
        <ele>42.3</ele>
        <time>2021-09-05T09:17:26Z</time>
      </trkpt>
      <trkpt lat="49.88347" lon="2.2433">
        <ele>42.3</ele>
        <time>2021-09-05T09:17:27Z</time>
      </trkpt>
      <trkpt lat="49.88347" lon="2.2433">
        <ele>42.3</ele>
        <time>2021-09-05T09:17:28Z</time>
      </trkpt>
      <trkpt lat="49.88348" lon="2.24331">
        <ele>42.3</ele>
        <time>2021-09-05T09:17:30Z</time>
      </trkpt>
      <trkpt lat="49.88349" lon="2.24331">
        <ele>42.3</ele>
        <time>2021-09-05T09:17:31Z</time>
      </trkpt>
      <trkpt lat="49.8835" lon="2.24332">
        <ele>42.3</ele>
        <time>2021-09-05T09:17:32Z</time>
      </trkpt>
      <trkpt lat="49.88353" lon="2.24333">
        <ele>42.3</ele>
        <time>2021-09-05T09:17:34Z</time>
      </trkpt>
      <trkpt lat="49.88356" lon="2.24336">
        <ele>42.3</ele>
        <time>2021-09-05T09:17:35Z</time>
      </trkpt>
      <trkpt lat="49.88356" lon="2.24336">
        <ele>42.3</ele>
        <time>2021-09-05T09:17:37Z</time>
      </trkpt>
      <trkpt lat="49.88357" lon="2.24337">
        <ele>42.2</ele>
        <time>2021-09-05T09:17:38Z</time>
      </trkpt>
      <trkpt lat="49.88358" lon="2.24338">
        <ele>42.2</ele>
        <time>2021-09-05T09:17:39Z</time>
      </trkpt>
      <trkpt lat="49.88359" lon="2.24339">
        <ele>42.2</ele>
        <time>2021-09-05T09:17:40Z</time>
      </trkpt>
      <trkpt lat="49.8836" lon="2.24339">
        <ele>42.2</ele>
        <time>2021-09-05T09:17:42Z</time>
      </trkpt>
      <trkpt lat="49.88361" lon="2.2434">
        <ele>42.2</ele>
        <time>2021-09-05T09:17:43Z</time>
      </trkpt>
      <trkpt lat="49.88362" lon="2.2434">
        <ele>42.2</ele>
        <time>2021-09-05T09:17:44Z</time>
      </trkpt>
      <trkpt lat="49.88364" lon="2.24341">
        <ele>42.2</ele>
        <time>2021-09-05T09:17:45Z</time>
      </trkpt>
      <trkpt lat="49.88364" lon="2.24342">
        <ele>42.2</ele>
        <time>2021-09-05T09:17:47Z</time>
      </trkpt>
      <trkpt lat="49.88365" lon="2.24343">
        <ele>42.2</ele>
        <time>2021-09-05T09:17:48Z</time>
      </trkpt>
      <trkpt lat="49.88365" lon="2.24345">
        <ele>42.2</ele>
        <time>2021-09-05T09:17:50Z</time>
      </trkpt>
      <trkpt lat="49.88367" lon="2.24346">
        <ele>42.2</ele>
        <time>2021-09-05T09:17:51Z</time>
      </trkpt>
      <trkpt lat="49.88368" lon="2.24347">
        <ele>42.2</ele>
        <time>2021-09-05T09:17:53Z</time>
      </trkpt>
      <trkpt lat="49.88369" lon="2.24348">
        <ele>42.1</ele>
        <time>2021-09-05T09:17:54Z</time>
      </trkpt>
      <trkpt lat="49.8837" lon="2.2435">
        <ele>42.1</ele>
        <time>2021-09-05T09:17:55Z</time>
      </trkpt>
      <trkpt lat="49.88371" lon="2.2435">
        <ele>42.1</ele>
        <time>2021-09-05T09:17:56Z</time>
      </trkpt>
      <trkpt lat="49.88372" lon="2.24351">
        <ele>42.1</ele>
        <time>2021-09-05T09:17:57Z</time>
      </trkpt>
      <trkpt lat="49.88375" lon="2.24352">
        <ele>42.1</ele>
        <time>2021-09-05T09:17:58Z</time>
      </trkpt>
      <trkpt lat="49.88375" lon="2.24353">
        <ele>42.1</ele>
        <time>2021-09-05T09:18:00Z</time>
      </trkpt>
      <trkpt lat="49.88376" lon="2.24353">
        <ele>42.1</ele>
        <time>2021-09-05T09:18:01Z</time>
      </trkpt>
      <trkpt lat="49.88378" lon="2.24355">
        <ele>42.1</ele>
        <time>2021-09-05T09:18:02Z</time>
      </trkpt>
      <trkpt lat="49.88379" lon="2.24355">
        <ele>42.1</ele>
        <time>2021-09-05T09:18:03Z</time>
      </trkpt>
      <trkpt lat="49.8838" lon="2.24356">
        <ele>42</ele>
        <time>2021-09-05T09:18:04Z</time>
      </trkpt>
      <trkpt lat="49.88382" lon="2.24357">
        <ele>42</ele>
        <time>2021-09-05T09:18:06Z</time>
      </trkpt>
      <trkpt lat="49.88383" lon="2.24358">
        <ele>42</ele>
        <time>2021-09-05T09:18:07Z</time>
      </trkpt>
      <trkpt lat="49.88384" lon="2.24359">
        <ele>42</ele>
        <time>2021-09-05T09:18:09Z</time>
      </trkpt>
      <trkpt lat="49.88386" lon="2.24361">
        <ele>42</ele>
        <time>2021-09-05T09:18:10Z</time>
      </trkpt>
      <trkpt lat="49.88387" lon="2.24362">
        <ele>42</ele>
        <time>2021-09-05T09:18:11Z</time>
      </trkpt>
      <trkpt lat="49.88388" lon="2.24363">
        <ele>42</ele>
        <time>2021-09-05T09:18:13Z</time>
      </trkpt>
      <trkpt lat="49.88389" lon="2.24363">
        <ele>41.9</ele>
        <time>2021-09-05T09:18:14Z</time>
      </trkpt>
      <trkpt lat="49.88391" lon="2.24364">
        <ele>41.9</ele>
        <time>2021-09-05T09:18:15Z</time>
      </trkpt>
      <trkpt lat="49.88392" lon="2.24365">
        <ele>41.9</ele>
        <time>2021-09-05T09:18:16Z</time>
      </trkpt>
      <trkpt lat="49.88393" lon="2.24365">
        <ele>41.9</ele>
        <time>2021-09-05T09:18:18Z</time>
      </trkpt>
      <trkpt lat="49.88395" lon="2.24367">
        <ele>41.9</ele>
        <time>2021-09-05T09:18:20Z</time>
      </trkpt>
      <trkpt lat="49.88395" lon="2.2437">
        <ele>41.9</ele>
        <time>2021-09-05T09:18:21Z</time>
      </trkpt>
      <trkpt lat="49.88397" lon="2.24371">
        <ele>41.9</ele>
        <time>2021-09-05T09:18:23Z</time>
      </trkpt>
      <trkpt lat="49.88398" lon="2.24371">
        <ele>41.9</ele>
        <time>2021-09-05T09:18:24Z</time>
      </trkpt>
      <trkpt lat="49.88399" lon="2.24371">
        <ele>41.9</ele>
        <time>2021-09-05T09:18:25Z</time>
      </trkpt>
      <trkpt lat="49.884" lon="2.24371">
        <ele>41.9</ele>
        <time>2021-09-05T09:18:26Z</time>
      </trkpt>
      <trkpt lat="49.88401" lon="2.24372">
        <ele>41.9</ele>
        <time>2021-09-05T09:18:28Z</time>
      </trkpt>
      <trkpt lat="49.88401" lon="2.24372">
        <ele>41.9</ele>
        <time>2021-09-05T09:18:30Z</time>
      </trkpt>
      <trkpt lat="49.88401" lon="2.24372">
        <ele>41.9</ele>
        <time>2021-09-05T09:18:32Z</time>
      </trkpt>
      <trkpt lat="49.884" lon="2.24372">
        <ele>41.9</ele>
        <time>2021-09-05T09:18:34Z</time>
      </trkpt>
      <trkpt lat="49.884" lon="2.24372">
        <ele>41.9</ele>
        <time>2021-09-05T09:18:36Z</time>
      </trkpt>
      <trkpt lat="49.884" lon="2.24372">
        <ele>41.9</ele>
        <time>2021-09-05T09:18:37Z</time>
      </trkpt>
      <trkpt lat="49.884" lon="2.24372">
        <ele>41.9</ele>
        <time>2021-09-05T09:18:39Z</time>
      </trkpt>
      <trkpt lat="49.884" lon="2.24372">
        <ele>41.9</ele>
        <time>2021-09-05T09:18:41Z</time>
      </trkpt>
      <trkpt lat="49.884" lon="2.24372">
        <ele>41.9</ele>
        <time>2021-09-05T09:18:42Z</time>
      </trkpt>
      <trkpt lat="49.884" lon="2.24372">
        <ele>41.9</ele>
        <time>2021-09-05T09:18:43Z</time>
      </trkpt>
      <trkpt lat="49.884" lon="2.24371">
        <ele>41.9</ele>
        <time>2021-09-05T09:18:45Z</time>
      </trkpt>
      <trkpt lat="49.884" lon="2.24371">
        <ele>41.9</ele>
        <time>2021-09-05T09:18:46Z</time>
      </trkpt>
      <trkpt lat="49.884" lon="2.24371">
        <ele>41.9</ele>
        <time>2021-09-05T09:18:48Z</time>
      </trkpt>
      <trkpt lat="49.884" lon="2.24371">
        <ele>41.9</ele>
        <time>2021-09-05T09:18:50Z</time>
      </trkpt>
      <trkpt lat="49.884" lon="2.24371">
        <ele>41.9</ele>
        <time>2021-09-05T09:18:51Z</time>
      </trkpt>
      <trkpt lat="49.884" lon="2.24371">
        <ele>41.9</ele>
        <time>2021-09-05T09:18:53Z</time>
      </trkpt>
      <trkpt lat="49.884" lon="2.24371">
        <ele>41.9</ele>
        <time>2021-09-05T09:18:54Z</time>
      </trkpt>
      <trkpt lat="49.884" lon="2.24371">
        <ele>41.9</ele>
        <time>2021-09-05T09:18:55Z</time>
      </trkpt>
      <trkpt lat="49.884" lon="2.24371">
        <ele>41.9</ele>
        <time>2021-09-05T09:18:57Z</time>
      </trkpt>
      <trkpt lat="49.884" lon="2.24371">
        <ele>41.9</ele>
        <time>2021-09-05T09:18:59Z</time>
      </trkpt>
      <trkpt lat="49.884" lon="2.24371">
        <ele>41.9</ele>
        <time>2021-09-05T09:19:00Z</time>
      </trkpt>
      <trkpt lat="49.884" lon="2.24371">
        <ele>41.9</ele>
        <time>2021-09-05T09:19:01Z</time>
      </trkpt>
      <trkpt lat="49.884" lon="2.24371">
        <ele>41.9</ele>
        <time>2021-09-05T09:19:03Z</time>
      </trkpt>
      <trkpt lat="49.884" lon="2.24371">
        <ele>41.9</ele>
        <time>2021-09-05T09:19:04Z</time>
      </trkpt>
      <trkpt lat="49.884" lon="2.24371">
        <ele>41.9</ele>
        <time>2021-09-05T09:19:06Z</time>
      </trkpt>
      <trkpt lat="49.884" lon="2.24371">
        <ele>41.9</ele>
        <time>2021-09-05T09:19:07Z</time>
      </trkpt>
      <trkpt lat="49.884" lon="2.24371">
        <ele>41.9</ele>
        <time>2021-09-05T09:19:09Z</time>
      </trkpt>
      <trkpt lat="49.884" lon="2.24371">
        <ele>41.9</ele>
        <time>2021-09-05T09:19:11Z</time>
      </trkpt>
      <trkpt lat="49.884" lon="2.24371">
        <ele>41.9</ele>
        <time>2021-09-05T09:19:12Z</time>
      </trkpt>
      <trkpt lat="49.884" lon="2.24371">
        <ele>41.9</ele>
        <time>2021-09-05T09:19:14Z</time>
      </trkpt>
      <trkpt lat="49.884" lon="2.24371">
        <ele>41.9</ele>
        <time>2021-09-05T09:19:15Z</time>
      </trkpt>
      <trkpt lat="49.884" lon="2.24371">
        <ele>41.9</ele>
        <time>2021-09-05T09:19:16Z</time>
      </trkpt>
      <trkpt lat="49.884" lon="2.24371">
        <ele>41.9</ele>
        <time>2021-09-05T09:19:18Z</time>
      </trkpt>
      <trkpt lat="49.884" lon="2.24371">
        <ele>41.9</ele>
        <time>2021-09-05T09:19:19Z</time>
      </trkpt>
      <trkpt lat="49.884" lon="2.24371">
        <ele>41.9</ele>
        <time>2021-09-05T09:19:20Z</time>
      </trkpt>
      <trkpt lat="49.884" lon="2.24371">
        <ele>41.9</ele>
        <time>2021-09-05T09:19:22Z</time>
      </trkpt>
      <trkpt lat="49.884" lon="2.24371">
        <ele>41.9</ele>
        <time>2021-09-05T09:19:24Z</time>
      </trkpt>
      <trkpt lat="49.884" lon="2.24371">
        <ele>41.9</ele>
        <time>2021-09-05T09:19:25Z</time>
      </trkpt>
      <trkpt lat="49.884" lon="2.24371">
        <ele>41.9</ele>
        <time>2021-09-05T09:19:26Z</time>
      </trkpt>
      <trkpt lat="49.88397" lon="2.24369">
        <ele>41.8</ele>
        <time>2021-09-05T09:19:27Z</time>
      </trkpt>
      <trkpt lat="49.88398" lon="2.24369">
        <ele>41.8</ele>
        <time>2021-09-05T09:19:28Z</time>
      </trkpt>
      <trkpt lat="49.88398" lon="2.24369">
        <ele>41.8</ele>
        <time>2021-09-05T09:19:30Z</time>
      </trkpt>
      <trkpt lat="49.88399" lon="2.24369">
        <ele>41.8</ele>
        <time>2021-09-05T09:19:31Z</time>
      </trkpt>
      <trkpt lat="49.88399" lon="2.24371">
        <ele>41.8</ele>
        <time>2021-09-05T09:19:32Z</time>
      </trkpt>
      <trkpt lat="49.884" lon="2.24371">
        <ele>41.8</ele>
        <time>2021-09-05T09:19:34Z</time>
      </trkpt>
      <trkpt lat="49.88399" lon="2.2437">
        <ele>41.8</ele>
        <time>2021-09-05T09:19:36Z</time>
      </trkpt>
      <trkpt lat="49.88399" lon="2.24372">
        <ele>41.8</ele>
        <time>2021-09-05T09:19:37Z</time>
      </trkpt>
      <trkpt lat="49.88399" lon="2.24372">
        <ele>41.8</ele>
        <time>2021-09-05T09:19:39Z</time>
      </trkpt>
      <trkpt lat="49.88399" lon="2.24372">
        <ele>41.8</ele>
        <time>2021-09-05T09:19:41Z</time>
      </trkpt>
      <trkpt lat="49.88398" lon="2.24373">
        <ele>41.8</ele>
        <time>2021-09-05T09:19:42Z</time>
      </trkpt>
      <trkpt lat="49.88398" lon="2.24373">
        <ele>41.8</ele>
        <time>2021-09-05T09:19:43Z</time>
      </trkpt>
      <trkpt lat="49.88398" lon="2.24373">
        <ele>41.8</ele>
        <time>2021-09-05T09:19:45Z</time>
      </trkpt>
      <trkpt lat="49.88398" lon="2.24373">
        <ele>41.8</ele>
        <time>2021-09-05T09:19:46Z</time>
      </trkpt>
      <trkpt lat="49.88399" lon="2.24372">
        <ele>41.8</ele>
        <time>2021-09-05T09:19:48Z</time>
      </trkpt>
      <trkpt lat="49.88399" lon="2.24371">
        <ele>41.8</ele>
        <time>2021-09-05T09:19:50Z</time>
      </trkpt>
      <trkpt lat="49.88399" lon="2.24371">
        <ele>41.8</ele>
        <time>2021-09-05T09:19:51Z</time>
      </trkpt>
      <trkpt lat="49.88399" lon="2.24373">
        <ele>41.8</ele>
        <time>2021-09-05T09:19:52Z</time>
      </trkpt>
      <trkpt lat="49.88398" lon="2.24374">
        <ele>41.8</ele>
        <time>2021-09-05T09:19:54Z</time>
      </trkpt>
      <trkpt lat="49.88398" lon="2.24374">
        <ele>41.8</ele>
        <time>2021-09-05T09:19:55Z</time>
      </trkpt>
      <trkpt lat="49.88399" lon="2.24375">
        <ele>41.8</ele>
        <time>2021-09-05T09:19:57Z</time>
      </trkpt>
      <trkpt lat="49.884" lon="2.24379">
        <ele>41.8</ele>
        <time>2021-09-05T09:19:58Z</time>
      </trkpt>
      <trkpt lat="49.88401" lon="2.2438">
        <ele>41.8</ele>
        <time>2021-09-05T09:19:59Z</time>
      </trkpt>
      <trkpt lat="49.88402" lon="2.24381">
        <ele>41.8</ele>
        <time>2021-09-05T09:20:01Z</time>
      </trkpt>
      <trkpt lat="49.88403" lon="2.24382">
        <ele>41.8</ele>
        <time>2021-09-05T09:20:02Z</time>
      </trkpt>
      <trkpt lat="49.88404" lon="2.24383">
        <ele>41.8</ele>
        <time>2021-09-05T09:20:03Z</time>
      </trkpt>
      <trkpt lat="49.88405" lon="2.24384">
        <ele>41.7</ele>
        <time>2021-09-05T09:20:04Z</time>
      </trkpt>
      <trkpt lat="49.88407" lon="2.24385">
        <ele>41.7</ele>
        <time>2021-09-05T09:20:06Z</time>
      </trkpt>
      <trkpt lat="49.8841" lon="2.24385">
        <ele>41.7</ele>
        <time>2021-09-05T09:20:07Z</time>
      </trkpt>
      <trkpt lat="49.88411" lon="2.24385">
        <ele>41.7</ele>
        <time>2021-09-05T09:20:08Z</time>
      </trkpt>
      <trkpt lat="49.88412" lon="2.24385">
        <ele>41.7</ele>
        <time>2021-09-05T09:20:10Z</time>
      </trkpt>
      <trkpt lat="49.88413" lon="2.24385">
        <ele>41.7</ele>
        <time>2021-09-05T09:20:11Z</time>
      </trkpt>
      <trkpt lat="49.88415" lon="2.24385">
        <ele>41.7</ele>
        <time>2021-09-05T09:20:12Z</time>
      </trkpt>
      <trkpt lat="49.88416" lon="2.24385">
        <ele>41.7</ele>
        <time>2021-09-05T09:20:14Z</time>
      </trkpt>
      <trkpt lat="49.88417" lon="2.24385">
        <ele>41.7</ele>
        <time>2021-09-05T09:20:15Z</time>
      </trkpt>
      <trkpt lat="49.88418" lon="2.24385">
        <ele>41.7</ele>
        <time>2021-09-05T09:20:16Z</time>
      </trkpt>
      <trkpt lat="49.88419" lon="2.24385">
        <ele>41.7</ele>
        <time>2021-09-05T09:20:17Z</time>
      </trkpt>
      <trkpt lat="49.8842" lon="2.24385">
        <ele>41.6</ele>
        <time>2021-09-05T09:20:18Z</time>
      </trkpt>
      <trkpt lat="49.88421" lon="2.24385">
        <ele>41.6</ele>
        <time>2021-09-05T09:20:19Z</time>
      </trkpt>
      <trkpt lat="49.88422" lon="2.24386">
        <ele>41.6</ele>
        <time>2021-09-05T09:20:21Z</time>
      </trkpt>
      <trkpt lat="49.88424" lon="2.24387">
        <ele>41.6</ele>
        <time>2021-09-05T09:20:23Z</time>
      </trkpt>
      <trkpt lat="49.88425" lon="2.24388">
        <ele>41.6</ele>
        <time>2021-09-05T09:20:24Z</time>
      </trkpt>
      <trkpt lat="49.88426" lon="2.24388">
        <ele>41.6</ele>
        <time>2021-09-05T09:20:25Z</time>
      </trkpt>
      <trkpt lat="49.88427" lon="2.24389">
        <ele>41.6</ele>
        <time>2021-09-05T09:20:27Z</time>
      </trkpt>
      <trkpt lat="49.88428" lon="2.24394">
        <ele>41.6</ele>
        <time>2021-09-05T09:20:29Z</time>
      </trkpt>
      <trkpt lat="49.88429" lon="2.24395">
        <ele>41.6</ele>
        <time>2021-09-05T09:20:30Z</time>
      </trkpt>
      <trkpt lat="49.8843" lon="2.24395">
        <ele>41.6</ele>
        <time>2021-09-05T09:20:31Z</time>
      </trkpt>
      <trkpt lat="49.88431" lon="2.24397">
        <ele>41.6</ele>
        <time>2021-09-05T09:20:33Z</time>
      </trkpt>
      <trkpt lat="49.88432" lon="2.24399">
        <ele>41.5</ele>
        <time>2021-09-05T09:20:35Z</time>
      </trkpt>
      <trkpt lat="49.88433" lon="2.24399">
        <ele>41.5</ele>
        <time>2021-09-05T09:20:36Z</time>
      </trkpt>
      <trkpt lat="49.88435" lon="2.24399">
        <ele>41.5</ele>
        <time>2021-09-05T09:20:37Z</time>
      </trkpt>
      <trkpt lat="49.88435" lon="2.24401">
        <ele>41.5</ele>
        <time>2021-09-05T09:20:38Z</time>
      </trkpt>
      <trkpt lat="49.88436" lon="2.24401">
        <ele>41.5</ele>
        <time>2021-09-05T09:20:39Z</time>
      </trkpt>
      <trkpt lat="49.88437" lon="2.24401">
        <ele>41.5</ele>
        <time>2021-09-05T09:20:40Z</time>
      </trkpt>
      <trkpt lat="49.88439" lon="2.24402">
        <ele>41.5</ele>
        <time>2021-09-05T09:20:42Z</time>
      </trkpt>
      <trkpt lat="49.8844" lon="2.24405">
        <ele>41.5</ele>
        <time>2021-09-05T09:20:43Z</time>
      </trkpt>
      <trkpt lat="49.8844" lon="2.24405">
        <ele>41.5</ele>
        <time>2021-09-05T09:20:44Z</time>
      </trkpt>
      <trkpt lat="49.88441" lon="2.24404">
        <ele>41.5</ele>
        <time>2021-09-05T09:20:45Z</time>
      </trkpt>
      <trkpt lat="49.88441" lon="2.24404">
        <ele>41.5</ele>
        <time>2021-09-05T09:20:47Z</time>
      </trkpt>
      <trkpt lat="49.88441" lon="2.24403">
        <ele>41.4</ele>
        <time>2021-09-05T09:20:48Z</time>
      </trkpt>
      <trkpt lat="49.88442" lon="2.24402">
        <ele>41.4</ele>
        <time>2021-09-05T09:20:49Z</time>
      </trkpt>
      <trkpt lat="49.88443" lon="2.24401">
        <ele>41.4</ele>
        <time>2021-09-05T09:20:51Z</time>
      </trkpt>
      <trkpt lat="49.88446" lon="2.24404">
        <ele>41.4</ele>
        <time>2021-09-05T09:20:53Z</time>
      </trkpt>
      <trkpt lat="49.88447" lon="2.24405">
        <ele>41.4</ele>
        <time>2021-09-05T09:20:54Z</time>
      </trkpt>
      <trkpt lat="49.88449" lon="2.24407">
        <ele>41.4</ele>
        <time>2021-09-05T09:20:56Z</time>
      </trkpt>
      <trkpt lat="49.8845" lon="2.24409">
        <ele>41.3</ele>
        <time>2021-09-05T09:20:57Z</time>
      </trkpt>
      <trkpt lat="49.88452" lon="2.24411">
        <ele>41.3</ele>
        <time>2021-09-05T09:20:59Z</time>
      </trkpt>
      <trkpt lat="49.88453" lon="2.24412">
        <ele>41.3</ele>
        <time>2021-09-05T09:21:00Z</time>
      </trkpt>
      <trkpt lat="49.88453" lon="2.24413">
        <ele>41.3</ele>
        <time>2021-09-05T09:21:01Z</time>
      </trkpt>
      <trkpt lat="49.88454" lon="2.24415">
        <ele>41.3</ele>
        <time>2021-09-05T09:21:02Z</time>
      </trkpt>
      <trkpt lat="49.88455" lon="2.24417">
        <ele>41.2</ele>
        <time>2021-09-05T09:21:04Z</time>
      </trkpt>
      <trkpt lat="49.88456" lon="2.24418">
        <ele>41.2</ele>
        <time>2021-09-05T09:21:05Z</time>
      </trkpt>
      <trkpt lat="49.88457" lon="2.2442">
        <ele>41.2</ele>
        <time>2021-09-05T09:21:06Z</time>
      </trkpt>
      <trkpt lat="49.88458" lon="2.24422">
        <ele>41.2</ele>
        <time>2021-09-05T09:21:08Z</time>
      </trkpt>
      <trkpt lat="49.88458" lon="2.24423">
        <ele>41.2</ele>
        <time>2021-09-05T09:21:09Z</time>
      </trkpt>
      <trkpt lat="49.8846" lon="2.24425">
        <ele>41.1</ele>
        <time>2021-09-05T09:21:11Z</time>
      </trkpt>
      <trkpt lat="49.88461" lon="2.24426">
        <ele>41.1</ele>
        <time>2021-09-05T09:21:12Z</time>
      </trkpt>
      <trkpt lat="49.88464" lon="2.24427">
        <ele>41</ele>
        <time>2021-09-05T09:21:14Z</time>
      </trkpt>
      <trkpt lat="49.88465" lon="2.24428">
        <ele>41</ele>
        <time>2021-09-05T09:21:15Z</time>
      </trkpt>
      <trkpt lat="49.88466" lon="2.2443">
        <ele>41</ele>
        <time>2021-09-05T09:21:16Z</time>
      </trkpt>
      <trkpt lat="49.88468" lon="2.24432">
        <ele>40.9</ele>
        <time>2021-09-05T09:21:18Z</time>
      </trkpt>
      <trkpt lat="49.8847" lon="2.24433">
        <ele>40.9</ele>
        <time>2021-09-05T09:21:19Z</time>
      </trkpt>
      <trkpt lat="49.88472" lon="2.24434">
        <ele>40.8</ele>
        <time>2021-09-05T09:21:21Z</time>
      </trkpt>
      <trkpt lat="49.88475" lon="2.24435">
        <ele>40.7</ele>
        <time>2021-09-05T09:21:22Z</time>
      </trkpt>
      <trkpt lat="49.88476" lon="2.24435">
        <ele>40.7</ele>
        <time>2021-09-05T09:21:23Z</time>
      </trkpt>
      <trkpt lat="49.88477" lon="2.24436">
        <ele>40.7</ele>
        <time>2021-09-05T09:21:24Z</time>
      </trkpt>
      <trkpt lat="49.88479" lon="2.24437">
        <ele>40.6</ele>
        <time>2021-09-05T09:21:25Z</time>
      </trkpt>
      <trkpt lat="49.8848" lon="2.24439">
        <ele>40.6</ele>
        <time>2021-09-05T09:21:26Z</time>
      </trkpt>
      <trkpt lat="49.88481" lon="2.2444">
        <ele>40.5</ele>
        <time>2021-09-05T09:21:27Z</time>
      </trkpt>
      <trkpt lat="49.88483" lon="2.24442">
        <ele>40.4</ele>
        <time>2021-09-05T09:21:29Z</time>
      </trkpt>
      <trkpt lat="49.88484" lon="2.24442">
        <ele>40.4</ele>
        <time>2021-09-05T09:21:30Z</time>
      </trkpt>
      <trkpt lat="49.88485" lon="2.24443">
        <ele>40.4</ele>
        <time>2021-09-05T09:21:31Z</time>
      </trkpt>
      <trkpt lat="49.88487" lon="2.24444">
        <ele>40.3</ele>
        <time>2021-09-05T09:21:32Z</time>
      </trkpt>
      <trkpt lat="49.8849" lon="2.24446">
        <ele>40.2</ele>
        <time>2021-09-05T09:21:34Z</time>
      </trkpt>
      <trkpt lat="49.8849" lon="2.24446">
        <ele>40.2</ele>
        <time>2021-09-05T09:21:35Z</time>
      </trkpt>
      <trkpt lat="49.88492" lon="2.24448">
        <ele>40.1</ele>
        <time>2021-09-05T09:21:36Z</time>
      </trkpt>
      <trkpt lat="49.88493" lon="2.24449">
        <ele>40.1</ele>
        <time>2021-09-05T09:21:37Z</time>
      </trkpt>
      <trkpt lat="49.88493" lon="2.24449">
        <ele>40</ele>
        <time>2021-09-05T09:21:38Z</time>
      </trkpt>
      <trkpt lat="49.88495" lon="2.2445">
        <ele>40</ele>
        <time>2021-09-05T09:21:39Z</time>
      </trkpt>
      <trkpt lat="49.88496" lon="2.24452">
        <ele>39.9</ele>
        <time>2021-09-05T09:21:41Z</time>
      </trkpt>
      <trkpt lat="49.88497" lon="2.24453">
        <ele>39.8</ele>
        <time>2021-09-05T09:21:42Z</time>
      </trkpt>
      <trkpt lat="49.885" lon="2.24455">
        <ele>39.7</ele>
        <time>2021-09-05T09:21:44Z</time>
      </trkpt>
      <trkpt lat="49.88501" lon="2.24456">
        <ele>39.7</ele>
        <time>2021-09-05T09:21:45Z</time>
      </trkpt>
      <trkpt lat="49.88502" lon="2.24457">
        <ele>39.6</ele>
        <time>2021-09-05T09:21:46Z</time>
      </trkpt>
      <trkpt lat="49.88503" lon="2.24458">
        <ele>39.6</ele>
        <time>2021-09-05T09:21:48Z</time>
      </trkpt>
      <trkpt lat="49.88504" lon="2.24459">
        <ele>39.5</ele>
        <time>2021-09-05T09:21:49Z</time>
      </trkpt>
      <trkpt lat="49.88505" lon="2.2446">
        <ele>39.5</ele>
        <time>2021-09-05T09:21:50Z</time>
      </trkpt>
      <trkpt lat="49.88507" lon="2.24462">
        <ele>39.4</ele>
        <time>2021-09-05T09:21:52Z</time>
      </trkpt>
      <trkpt lat="49.88508" lon="2.24463">
        <ele>39.3</ele>
        <time>2021-09-05T09:21:53Z</time>
      </trkpt>
      <trkpt lat="49.88509" lon="2.24463">
        <ele>39.3</ele>
        <time>2021-09-05T09:21:54Z</time>
      </trkpt>
      <trkpt lat="49.88511" lon="2.24464">
        <ele>39.2</ele>
        <time>2021-09-05T09:21:55Z</time>
      </trkpt>
      <trkpt lat="49.88511" lon="2.24464">
        <ele>39.2</ele>
        <time>2021-09-05T09:21:56Z</time>
      </trkpt>
      <trkpt lat="49.88512" lon="2.24465">
        <ele>39.1</ele>
        <time>2021-09-05T09:21:57Z</time>
      </trkpt>
      <trkpt lat="49.88513" lon="2.24465">
        <ele>39.1</ele>
        <time>2021-09-05T09:21:58Z</time>
      </trkpt>
      <trkpt lat="49.88515" lon="2.24466">
        <ele>39</ele>
        <time>2021-09-05T09:21:59Z</time>
      </trkpt>
      <trkpt lat="49.88516" lon="2.24467">
        <ele>39</ele>
        <time>2021-09-05T09:22:00Z</time>
      </trkpt>
      <trkpt lat="49.88517" lon="2.24468">
        <ele>38.9</ele>
        <time>2021-09-05T09:22:02Z</time>
      </trkpt>
      <trkpt lat="49.88517" lon="2.24467">
        <ele>38.9</ele>
        <time>2021-09-05T09:22:03Z</time>
      </trkpt>
      <trkpt lat="49.88518" lon="2.24468">
        <ele>38.9</ele>
        <time>2021-09-05T09:22:04Z</time>
      </trkpt>
      <trkpt lat="49.8852" lon="2.24469">
        <ele>38.8</ele>
        <time>2021-09-05T09:22:06Z</time>
      </trkpt>
      <trkpt lat="49.88521" lon="2.2447">
        <ele>38.8</ele>
        <time>2021-09-05T09:22:07Z</time>
      </trkpt>
      <trkpt lat="49.88522" lon="2.24471">
        <ele>38.7</ele>
        <time>2021-09-05T09:22:08Z</time>
      </trkpt>
      <trkpt lat="49.88525" lon="2.24472">
        <ele>38.7</ele>
        <time>2021-09-05T09:22:09Z</time>
      </trkpt>
      <trkpt lat="49.88526" lon="2.24473">
        <ele>38.7</ele>
        <time>2021-09-05T09:22:10Z</time>
      </trkpt>
      <trkpt lat="49.88527" lon="2.24474">
        <ele>38.6</ele>
        <time>2021-09-05T09:22:11Z</time>
      </trkpt>
      <trkpt lat="49.88529" lon="2.24475">
        <ele>38.6</ele>
        <time>2021-09-05T09:22:12Z</time>
      </trkpt>
      <trkpt lat="49.88531" lon="2.24476">
        <ele>38.5</ele>
        <time>2021-09-05T09:22:14Z</time>
      </trkpt>
      <trkpt lat="49.88532" lon="2.24476">
        <ele>38.5</ele>
        <time>2021-09-05T09:22:15Z</time>
      </trkpt>
      <trkpt lat="49.88535" lon="2.24478">
        <ele>38.4</ele>
        <time>2021-09-05T09:22:17Z</time>
      </trkpt>
      <trkpt lat="49.88536" lon="2.24478">
        <ele>38.4</ele>
        <time>2021-09-05T09:22:18Z</time>
      </trkpt>
      <trkpt lat="49.88538" lon="2.24478">
        <ele>38.4</ele>
        <time>2021-09-05T09:22:19Z</time>
      </trkpt>
      <trkpt lat="49.88539" lon="2.24479">
        <ele>38.4</ele>
        <time>2021-09-05T09:22:20Z</time>
      </trkpt>
      <trkpt lat="49.88541" lon="2.2448">
        <ele>38.3</ele>
        <time>2021-09-05T09:22:22Z</time>
      </trkpt>
      <trkpt lat="49.88543" lon="2.24481">
        <ele>38.3</ele>
        <time>2021-09-05T09:22:23Z</time>
      </trkpt>
      <trkpt lat="49.88544" lon="2.24482">
        <ele>38.3</ele>
        <time>2021-09-05T09:22:24Z</time>
      </trkpt>
      <trkpt lat="49.88546" lon="2.24483">
        <ele>38.3</ele>
        <time>2021-09-05T09:22:26Z</time>
      </trkpt>
      <trkpt lat="49.88547" lon="2.24484">
        <ele>38.2</ele>
        <time>2021-09-05T09:22:27Z</time>
      </trkpt>
      <trkpt lat="49.8855" lon="2.24485">
        <ele>38.2</ele>
        <time>2021-09-05T09:22:29Z</time>
      </trkpt>
      <trkpt lat="49.88551" lon="2.24486">
        <ele>38.2</ele>
        <time>2021-09-05T09:22:30Z</time>
      </trkpt>
      <trkpt lat="49.88552" lon="2.24487">
        <ele>38.2</ele>
        <time>2021-09-05T09:22:31Z</time>
      </trkpt>
      <trkpt lat="49.88554" lon="2.24488">
        <ele>38.1</ele>
        <time>2021-09-05T09:22:33Z</time>
      </trkpt>
      <trkpt lat="49.88556" lon="2.24489">
        <ele>38.1</ele>
        <time>2021-09-05T09:22:34Z</time>
      </trkpt>
      <trkpt lat="49.88557" lon="2.2449">
        <ele>38.1</ele>
        <time>2021-09-05T09:22:35Z</time>
      </trkpt>
      <trkpt lat="49.88558" lon="2.24492">
        <ele>38</ele>
        <time>2021-09-05T09:22:36Z</time>
      </trkpt>
      <trkpt lat="49.88559" lon="2.24493">
        <ele>38</ele>
        <time>2021-09-05T09:22:38Z</time>
      </trkpt>
      <trkpt lat="49.88561" lon="2.24493">
        <ele>38</ele>
        <time>2021-09-05T09:22:39Z</time>
      </trkpt>
      <trkpt lat="49.88561" lon="2.24494">
        <ele>38</ele>
        <time>2021-09-05T09:22:40Z</time>
      </trkpt>
      <trkpt lat="49.88562" lon="2.24495">
        <ele>38</ele>
        <time>2021-09-05T09:22:41Z</time>
      </trkpt>
      <trkpt lat="49.88563" lon="2.24496">
        <ele>38</ele>
        <time>2021-09-05T09:22:42Z</time>
      </trkpt>
      <trkpt lat="49.88565" lon="2.24498">
        <ele>37.9</ele>
        <time>2021-09-05T09:22:43Z</time>
      </trkpt>
      <trkpt lat="49.88566" lon="2.24499">
        <ele>37.9</ele>
        <time>2021-09-05T09:22:45Z</time>
      </trkpt>
      <trkpt lat="49.88567" lon="2.245">
        <ele>37.9</ele>
        <time>2021-09-05T09:22:47Z</time>
      </trkpt>
      <trkpt lat="49.88568" lon="2.24501">
        <ele>37.9</ele>
        <time>2021-09-05T09:22:48Z</time>
      </trkpt>
      <trkpt lat="49.8857" lon="2.24502">
        <ele>37.9</ele>
        <time>2021-09-05T09:22:49Z</time>
      </trkpt>
      <trkpt lat="49.88571" lon="2.24503">
        <ele>37.9</ele>
        <time>2021-09-05T09:22:50Z</time>
      </trkpt>
      <trkpt lat="49.88572" lon="2.24505">
        <ele>37.8</ele>
        <time>2021-09-05T09:22:51Z</time>
      </trkpt>
      <trkpt lat="49.88573" lon="2.24506">
        <ele>37.8</ele>
        <time>2021-09-05T09:22:53Z</time>
      </trkpt>
      <trkpt lat="49.88575" lon="2.24508">
        <ele>37.8</ele>
        <time>2021-09-05T09:22:54Z</time>
      </trkpt>
      <trkpt lat="49.88576" lon="2.24509">
        <ele>37.8</ele>
        <time>2021-09-05T09:22:55Z</time>
      </trkpt>
      <trkpt lat="49.88577" lon="2.2451">
        <ele>37.8</ele>
        <time>2021-09-05T09:22:56Z</time>
      </trkpt>
      <trkpt lat="49.88579" lon="2.24512">
        <ele>37.8</ele>
        <time>2021-09-05T09:22:58Z</time>
      </trkpt>
      <trkpt lat="49.8858" lon="2.24514">
        <ele>37.7</ele>
        <time>2021-09-05T09:22:59Z</time>
      </trkpt>
      <trkpt lat="49.88581" lon="2.24515">
        <ele>37.7</ele>
        <time>2021-09-05T09:23:00Z</time>
      </trkpt>
      <trkpt lat="49.88582" lon="2.24516">
        <ele>37.7</ele>
        <time>2021-09-05T09:23:01Z</time>
      </trkpt>
      <trkpt lat="49.88582" lon="2.24518">
        <ele>37.7</ele>
        <time>2021-09-05T09:23:02Z</time>
      </trkpt>
      <trkpt lat="49.88584" lon="2.24521">
        <ele>37.7</ele>
        <time>2021-09-05T09:23:04Z</time>
      </trkpt>
      <trkpt lat="49.88585" lon="2.24521">
        <ele>37.7</ele>
        <time>2021-09-05T09:23:05Z</time>
      </trkpt>
      <trkpt lat="49.88586" lon="2.24522">
        <ele>37.7</ele>
        <time>2021-09-05T09:23:06Z</time>
      </trkpt>
      <trkpt lat="49.88587" lon="2.24523">
        <ele>37.7</ele>
        <time>2021-09-05T09:23:07Z</time>
      </trkpt>
      <trkpt lat="49.88588" lon="2.24524">
        <ele>37.7</ele>
        <time>2021-09-05T09:23:08Z</time>
      </trkpt>
      <trkpt lat="49.88589" lon="2.24525">
        <ele>37.7</ele>
        <time>2021-09-05T09:23:10Z</time>
      </trkpt>
      <trkpt lat="49.8859" lon="2.24526">
        <ele>37.6</ele>
        <time>2021-09-05T09:23:11Z</time>
      </trkpt>
      <trkpt lat="49.88591" lon="2.24527">
        <ele>37.6</ele>
        <time>2021-09-05T09:23:12Z</time>
      </trkpt>
      <trkpt lat="49.88593" lon="2.24528">
        <ele>37.6</ele>
        <time>2021-09-05T09:23:13Z</time>
      </trkpt>
      <trkpt lat="49.88596" lon="2.24529">
        <ele>37.6</ele>
        <time>2021-09-05T09:23:15Z</time>
      </trkpt>
      <trkpt lat="49.88596" lon="2.24529">
        <ele>37.6</ele>
        <time>2021-09-05T09:23:16Z</time>
      </trkpt>
      <trkpt lat="49.88598" lon="2.2453">
        <ele>37.6</ele>
        <time>2021-09-05T09:23:17Z</time>
      </trkpt>
      <trkpt lat="49.886" lon="2.24531">
        <ele>37.6</ele>
        <time>2021-09-05T09:23:19Z</time>
      </trkpt>
      <trkpt lat="49.88602" lon="2.24532">
        <ele>37.6</ele>
        <time>2021-09-05T09:23:20Z</time>
      </trkpt>
      <trkpt lat="49.88603" lon="2.24532">
        <ele>37.6</ele>
        <time>2021-09-05T09:23:21Z</time>
      </trkpt>
      <trkpt lat="49.88605" lon="2.24533">
        <ele>37.6</ele>
        <time>2021-09-05T09:23:23Z</time>
      </trkpt>
      <trkpt lat="49.88608" lon="2.24535">
        <ele>37.6</ele>
        <time>2021-09-05T09:23:25Z</time>
      </trkpt>
      <trkpt lat="49.88609" lon="2.24536">
        <ele>37.6</ele>
        <time>2021-09-05T09:23:26Z</time>
      </trkpt>
      <trkpt lat="49.8861" lon="2.24536">
        <ele>37.6</ele>
        <time>2021-09-05T09:23:27Z</time>
      </trkpt>
      <trkpt lat="49.88611" lon="2.24537">
        <ele>37.6</ele>
        <time>2021-09-05T09:23:28Z</time>
      </trkpt>
      <trkpt lat="49.88613" lon="2.24538">
        <ele>37.6</ele>
        <time>2021-09-05T09:23:29Z</time>
      </trkpt>
      <trkpt lat="49.88614" lon="2.24539">
        <ele>37.6</ele>
        <time>2021-09-05T09:23:30Z</time>
      </trkpt>
      <trkpt lat="49.88616" lon="2.2454">
        <ele>37.6</ele>
        <time>2021-09-05T09:23:32Z</time>
      </trkpt>
      <trkpt lat="49.88617" lon="2.2454">
        <ele>37.6</ele>
        <time>2021-09-05T09:23:33Z</time>
      </trkpt>
      <trkpt lat="49.88619" lon="2.24542">
        <ele>37.6</ele>
        <time>2021-09-05T09:23:34Z</time>
      </trkpt>
      <trkpt lat="49.8862" lon="2.24542">
        <ele>37.6</ele>
        <time>2021-09-05T09:23:35Z</time>
      </trkpt>
      <trkpt lat="49.88621" lon="2.24543">
        <ele>37.6</ele>
        <time>2021-09-05T09:23:36Z</time>
      </trkpt>
      <trkpt lat="49.88622" lon="2.24544">
        <ele>37.6</ele>
        <time>2021-09-05T09:23:38Z</time>
      </trkpt>
      <trkpt lat="49.88625" lon="2.24546">
        <ele>37.6</ele>
        <time>2021-09-05T09:23:39Z</time>
      </trkpt>
      <trkpt lat="49.88626" lon="2.24547">
        <ele>37.6</ele>
        <time>2021-09-05T09:23:40Z</time>
      </trkpt>
      <trkpt lat="49.88627" lon="2.24548">
        <ele>37.6</ele>
        <time>2021-09-05T09:23:42Z</time>
      </trkpt>
      <trkpt lat="49.88629" lon="2.24549">
        <ele>37.7</ele>
        <time>2021-09-05T09:23:43Z</time>
      </trkpt>
      <trkpt lat="49.88631" lon="2.24551">
        <ele>37.7</ele>
        <time>2021-09-05T09:23:45Z</time>
      </trkpt>
      <trkpt lat="49.88632" lon="2.24551">
        <ele>37.7</ele>
        <time>2021-09-05T09:23:46Z</time>
      </trkpt>
      <trkpt lat="49.88633" lon="2.24552">
        <ele>37.7</ele>
        <time>2021-09-05T09:23:47Z</time>
      </trkpt>
      <trkpt lat="49.88636" lon="2.24554">
        <ele>37.7</ele>
        <time>2021-09-05T09:23:49Z</time>
      </trkpt>
      <trkpt lat="49.88637" lon="2.24555">
        <ele>37.7</ele>
        <time>2021-09-05T09:23:50Z</time>
      </trkpt>
      <trkpt lat="49.88638" lon="2.24556">
        <ele>37.7</ele>
        <time>2021-09-05T09:23:51Z</time>
      </trkpt>
      <trkpt lat="49.8864" lon="2.24557">
        <ele>37.7</ele>
        <time>2021-09-05T09:23:53Z</time>
      </trkpt>
      <trkpt lat="49.88642" lon="2.24557">
        <ele>37.7</ele>
        <time>2021-09-05T09:23:54Z</time>
      </trkpt>
      <trkpt lat="49.88643" lon="2.24558">
        <ele>37.7</ele>
        <time>2021-09-05T09:23:55Z</time>
      </trkpt>
      <trkpt lat="49.88645" lon="2.24559">
        <ele>37.8</ele>
        <time>2021-09-05T09:23:57Z</time>
      </trkpt>
      <trkpt lat="49.88646" lon="2.24559">
        <ele>37.8</ele>
        <time>2021-09-05T09:23:58Z</time>
      </trkpt>
      <trkpt lat="49.88648" lon="2.24561">
        <ele>37.8</ele>
        <time>2021-09-05T09:23:59Z</time>
      </trkpt>
      <trkpt lat="49.8865" lon="2.24562">
        <ele>37.8</ele>
        <time>2021-09-05T09:24:01Z</time>
      </trkpt>
      <trkpt lat="49.88652" lon="2.24563">
        <ele>37.8</ele>
        <time>2021-09-05T09:24:02Z</time>
      </trkpt>
      <trkpt lat="49.88653" lon="2.24564">
        <ele>37.8</ele>
        <time>2021-09-05T09:24:03Z</time>
      </trkpt>
      <trkpt lat="49.88655" lon="2.24565">
        <ele>37.8</ele>
        <time>2021-09-05T09:24:05Z</time>
      </trkpt>
      <trkpt lat="49.88656" lon="2.24566">
        <ele>37.8</ele>
        <time>2021-09-05T09:24:06Z</time>
      </trkpt>
      <trkpt lat="49.88657" lon="2.24566">
        <ele>37.8</ele>
        <time>2021-09-05T09:24:07Z</time>
      </trkpt>
      <trkpt lat="49.88659" lon="2.24567">
        <ele>37.9</ele>
        <time>2021-09-05T09:24:08Z</time>
      </trkpt>
      <trkpt lat="49.88661" lon="2.24569">
        <ele>37.9</ele>
        <time>2021-09-05T09:24:10Z</time>
      </trkpt>
      <trkpt lat="49.88663" lon="2.2457">
        <ele>37.9</ele>
        <time>2021-09-05T09:24:11Z</time>
      </trkpt>
      <trkpt lat="49.88664" lon="2.24571">
        <ele>37.9</ele>
        <time>2021-09-05T09:24:12Z</time>
      </trkpt>
      <trkpt lat="49.88666" lon="2.24571">
        <ele>37.9</ele>
        <time>2021-09-05T09:24:13Z</time>
      </trkpt>
      <trkpt lat="49.88667" lon="2.24572">
        <ele>37.9</ele>
        <time>2021-09-05T09:24:14Z</time>
      </trkpt>
      <trkpt lat="49.88668" lon="2.24573">
        <ele>37.9</ele>
        <time>2021-09-05T09:24:15Z</time>
      </trkpt>
      <trkpt lat="49.88669" lon="2.24573">
        <ele>37.9</ele>
        <time>2021-09-05T09:24:17Z</time>
      </trkpt>
      <trkpt lat="49.8867" lon="2.24573">
        <ele>37.9</ele>
        <time>2021-09-05T09:24:18Z</time>
      </trkpt>
      <trkpt lat="49.88673" lon="2.24574">
        <ele>38</ele>
        <time>2021-09-05T09:24:19Z</time>
      </trkpt>
      <trkpt lat="49.88674" lon="2.24574">
        <ele>38</ele>
        <time>2021-09-05T09:24:20Z</time>
      </trkpt>
      <trkpt lat="49.88676" lon="2.24575">
        <ele>38</ele>
        <time>2021-09-05T09:24:22Z</time>
      </trkpt>
      <trkpt lat="49.88677" lon="2.24575">
        <ele>38</ele>
        <time>2021-09-05T09:24:23Z</time>
      </trkpt>
      <trkpt lat="49.8868" lon="2.24576">
        <ele>38</ele>
        <time>2021-09-05T09:24:24Z</time>
      </trkpt>
      <trkpt lat="49.88682" lon="2.24577">
        <ele>38</ele>
        <time>2021-09-05T09:24:26Z</time>
      </trkpt>
      <trkpt lat="49.88683" lon="2.24577">
        <ele>38</ele>
        <time>2021-09-05T09:24:27Z</time>
      </trkpt>
      <trkpt lat="49.88684" lon="2.24578">
        <ele>38</ele>
        <time>2021-09-05T09:24:28Z</time>
      </trkpt>
      <trkpt lat="49.88686" lon="2.24579">
        <ele>38</ele>
        <time>2021-09-05T09:24:29Z</time>
      </trkpt>
      <trkpt lat="49.88686" lon="2.24579">
        <ele>38</ele>
        <time>2021-09-05T09:24:31Z</time>
      </trkpt>
      <trkpt lat="49.88688" lon="2.24579">
        <ele>38.1</ele>
        <time>2021-09-05T09:24:32Z</time>
      </trkpt>
      <trkpt lat="49.88689" lon="2.24581">
        <ele>38.1</ele>
        <time>2021-09-05T09:24:33Z</time>
      </trkpt>
      <trkpt lat="49.88691" lon="2.24581">
        <ele>38.1</ele>
        <time>2021-09-05T09:24:34Z</time>
      </trkpt>
      <trkpt lat="49.88692" lon="2.24582">
        <ele>38.1</ele>
        <time>2021-09-05T09:24:36Z</time>
      </trkpt>
      <trkpt lat="49.88694" lon="2.24583">
        <ele>38.1</ele>
        <time>2021-09-05T09:24:37Z</time>
      </trkpt>
      <trkpt lat="49.88695" lon="2.24584">
        <ele>38.1</ele>
        <time>2021-09-05T09:24:38Z</time>
      </trkpt>
      <trkpt lat="49.88697" lon="2.24585">
        <ele>38.2</ele>
        <time>2021-09-05T09:24:40Z</time>
      </trkpt>
      <trkpt lat="49.88698" lon="2.24585">
        <ele>38.2</ele>
        <time>2021-09-05T09:24:41Z</time>
      </trkpt>
      <trkpt lat="49.88699" lon="2.24586">
        <ele>38.2</ele>
        <time>2021-09-05T09:24:42Z</time>
      </trkpt>
      <trkpt lat="49.88701" lon="2.24587">
        <ele>38.2</ele>
        <time>2021-09-05T09:24:43Z</time>
      </trkpt>
      <trkpt lat="49.88705" lon="2.2459">
        <ele>38.3</ele>
        <time>2021-09-05T09:24:45Z</time>
      </trkpt>
      <trkpt lat="49.88706" lon="2.24591">
        <ele>38.3</ele>
        <time>2021-09-05T09:24:47Z</time>
      </trkpt>
      <trkpt lat="49.88708" lon="2.24592">
        <ele>38.3</ele>
        <time>2021-09-05T09:24:48Z</time>
      </trkpt>
      <trkpt lat="49.8871" lon="2.24593">
        <ele>38.3</ele>
        <time>2021-09-05T09:24:50Z</time>
      </trkpt>
      <trkpt lat="49.8871" lon="2.24594">
        <ele>38.3</ele>
        <time>2021-09-05T09:24:51Z</time>
      </trkpt>
      <trkpt lat="49.88711" lon="2.24594">
        <ele>38.3</ele>
        <time>2021-09-05T09:24:52Z</time>
      </trkpt>
      <trkpt lat="49.88713" lon="2.24596">
        <ele>38.4</ele>
        <time>2021-09-05T09:24:53Z</time>
      </trkpt>
      <trkpt lat="49.88714" lon="2.24596">
        <ele>38.4</ele>
        <time>2021-09-05T09:24:54Z</time>
      </trkpt>
      <trkpt lat="49.88716" lon="2.24597">
        <ele>38.4</ele>
        <time>2021-09-05T09:24:55Z</time>
      </trkpt>
      <trkpt lat="49.88717" lon="2.24598">
        <ele>38.4</ele>
        <time>2021-09-05T09:24:56Z</time>
      </trkpt>
      <trkpt lat="49.88718" lon="2.24598">
        <ele>38.4</ele>
        <time>2021-09-05T09:24:57Z</time>
      </trkpt>
      <trkpt lat="49.8872" lon="2.24599">
        <ele>38.5</ele>
        <time>2021-09-05T09:24:58Z</time>
      </trkpt>
      <trkpt lat="49.8872" lon="2.246">
        <ele>38.5</ele>
        <time>2021-09-05T09:24:59Z</time>
      </trkpt>
      <trkpt lat="49.88721" lon="2.246">
        <ele>38.5</ele>
        <time>2021-09-05T09:25:00Z</time>
      </trkpt>
      <trkpt lat="49.88723" lon="2.24601">
        <ele>38.5</ele>
        <time>2021-09-05T09:25:01Z</time>
      </trkpt>
      <trkpt lat="49.88725" lon="2.24602">
        <ele>38.6</ele>
        <time>2021-09-05T09:25:03Z</time>
      </trkpt>
      <trkpt lat="49.88726" lon="2.24603">
        <ele>38.6</ele>
        <time>2021-09-05T09:25:04Z</time>
      </trkpt>
      <trkpt lat="49.88727" lon="2.24603">
        <ele>38.6</ele>
        <time>2021-09-05T09:25:05Z</time>
      </trkpt>
      <trkpt lat="49.88729" lon="2.24604">
        <ele>38.6</ele>
        <time>2021-09-05T09:25:07Z</time>
      </trkpt>
      <trkpt lat="49.88732" lon="2.24605">
        <ele>38.7</ele>
        <time>2021-09-05T09:25:08Z</time>
      </trkpt>
      <trkpt lat="49.88733" lon="2.24606">
        <ele>38.7</ele>
        <time>2021-09-05T09:25:09Z</time>
      </trkpt>
      <trkpt lat="49.88734" lon="2.24606">
        <ele>38.7</ele>
        <time>2021-09-05T09:25:11Z</time>
      </trkpt>
      <trkpt lat="49.88736" lon="2.24607">
        <ele>38.8</ele>
        <time>2021-09-05T09:25:12Z</time>
      </trkpt>
      <trkpt lat="49.88737" lon="2.24608">
        <ele>38.8</ele>
        <time>2021-09-05T09:25:13Z</time>
      </trkpt>
      <trkpt lat="49.88738" lon="2.24609">
        <ele>38.8</ele>
        <time>2021-09-05T09:25:14Z</time>
      </trkpt>
      <trkpt lat="49.88739" lon="2.2461">
        <ele>38.9</ele>
        <time>2021-09-05T09:25:15Z</time>
      </trkpt>
      <trkpt lat="49.8874" lon="2.24611">
        <ele>38.9</ele>
        <time>2021-09-05T09:25:17Z</time>
      </trkpt>
      <trkpt lat="49.88742" lon="2.24612">
        <ele>38.9</ele>
        <time>2021-09-05T09:25:19Z</time>
      </trkpt>
      <trkpt lat="49.88744" lon="2.24613">
        <ele>38.9</ele>
        <time>2021-09-05T09:25:20Z</time>
      </trkpt>
      <trkpt lat="49.88745" lon="2.24613">
        <ele>39</ele>
        <time>2021-09-05T09:25:21Z</time>
      </trkpt>
      <trkpt lat="49.88746" lon="2.24614">
        <ele>39</ele>
        <time>2021-09-05T09:25:22Z</time>
      </trkpt>
      <trkpt lat="49.88749" lon="2.24616">
        <ele>39.1</ele>
        <time>2021-09-05T09:25:24Z</time>
      </trkpt>
      <trkpt lat="49.8875" lon="2.24616">
        <ele>39.1</ele>
        <time>2021-09-05T09:25:25Z</time>
      </trkpt>
      <trkpt lat="49.88751" lon="2.24617">
        <ele>39.1</ele>
        <time>2021-09-05T09:25:26Z</time>
      </trkpt>
      <trkpt lat="49.88754" lon="2.24619">
        <ele>39.2</ele>
        <time>2021-09-05T09:25:28Z</time>
      </trkpt>
      <trkpt lat="49.88754" lon="2.24619">
        <ele>39.2</ele>
        <time>2021-09-05T09:25:29Z</time>
      </trkpt>
      <trkpt lat="49.88756" lon="2.24619">
        <ele>39.2</ele>
        <time>2021-09-05T09:25:30Z</time>
      </trkpt>
      <trkpt lat="49.88757" lon="2.2462">
        <ele>39.2</ele>
        <time>2021-09-05T09:25:32Z</time>
      </trkpt>
      <trkpt lat="49.88759" lon="2.2462">
        <ele>39.3</ele>
        <time>2021-09-05T09:25:33Z</time>
      </trkpt>
      <trkpt lat="49.8876" lon="2.24621">
        <ele>39.3</ele>
        <time>2021-09-05T09:25:34Z</time>
      </trkpt>
      <trkpt lat="49.88762" lon="2.24621">
        <ele>39.4</ele>
        <time>2021-09-05T09:25:35Z</time>
      </trkpt>
      <trkpt lat="49.88763" lon="2.24622">
        <ele>39.4</ele>
        <time>2021-09-05T09:25:36Z</time>
      </trkpt>
      <trkpt lat="49.88764" lon="2.24622">
        <ele>39.4</ele>
        <time>2021-09-05T09:25:37Z</time>
      </trkpt>
      <trkpt lat="49.88766" lon="2.24623">
        <ele>39.5</ele>
        <time>2021-09-05T09:25:38Z</time>
      </trkpt>
      <trkpt lat="49.88767" lon="2.24623">
        <ele>39.5</ele>
        <time>2021-09-05T09:25:39Z</time>
      </trkpt>
      <trkpt lat="49.88768" lon="2.24624">
        <ele>39.5</ele>
        <time>2021-09-05T09:25:40Z</time>
      </trkpt>
      <trkpt lat="49.8877" lon="2.24625">
        <ele>39.5</ele>
        <time>2021-09-05T09:25:41Z</time>
      </trkpt>
      <trkpt lat="49.88771" lon="2.24626">
        <ele>39.6</ele>
        <time>2021-09-05T09:25:43Z</time>
      </trkpt>
      <trkpt lat="49.88772" lon="2.24626">
        <ele>39.6</ele>
        <time>2021-09-05T09:25:44Z</time>
      </trkpt>
      <trkpt lat="49.88774" lon="2.24627">
        <ele>39.7</ele>
        <time>2021-09-05T09:25:45Z</time>
      </trkpt>
      <trkpt lat="49.88775" lon="2.24628">
        <ele>39.7</ele>
        <time>2021-09-05T09:25:46Z</time>
      </trkpt>
      <trkpt lat="49.88776" lon="2.24628">
        <ele>39.7</ele>
        <time>2021-09-05T09:25:47Z</time>
      </trkpt>
      <trkpt lat="49.88777" lon="2.24629">
        <ele>39.8</ele>
        <time>2021-09-05T09:25:48Z</time>
      </trkpt>
      <trkpt lat="49.88778" lon="2.24629">
        <ele>39.8</ele>
        <time>2021-09-05T09:25:50Z</time>
      </trkpt>
      <trkpt lat="49.8878" lon="2.24629">
        <ele>39.9</ele>
        <time>2021-09-05T09:25:51Z</time>
      </trkpt>
      <trkpt lat="49.88781" lon="2.24629">
        <ele>39.9</ele>
        <time>2021-09-05T09:25:52Z</time>
      </trkpt>
      <trkpt lat="49.88782" lon="2.24628">
        <ele>40</ele>
        <time>2021-09-05T09:25:53Z</time>
      </trkpt>
      <trkpt lat="49.88781" lon="2.24626">
        <ele>40</ele>
        <time>2021-09-05T09:25:54Z</time>
      </trkpt>
      <trkpt lat="49.88781" lon="2.24626">
        <ele>40</ele>
        <time>2021-09-05T09:25:55Z</time>
      </trkpt>
      <trkpt lat="49.88781" lon="2.24626">
        <ele>40</ele>
        <time>2021-09-05T09:25:56Z</time>
      </trkpt>
      <trkpt lat="49.88782" lon="2.24627">
        <ele>40</ele>
        <time>2021-09-05T09:25:57Z</time>
      </trkpt>
      <trkpt lat="49.88784" lon="2.24628">
        <ele>40.1</ele>
        <time>2021-09-05T09:25:59Z</time>
      </trkpt>
      <trkpt lat="49.88785" lon="2.24628">
        <ele>40.1</ele>
        <time>2021-09-05T09:26:00Z</time>
      </trkpt>
      <trkpt lat="49.88786" lon="2.24629">
        <ele>40.1</ele>
        <time>2021-09-05T09:26:01Z</time>
      </trkpt>
      <trkpt lat="49.88787" lon="2.24629">
        <ele>40.2</ele>
        <time>2021-09-05T09:26:02Z</time>
      </trkpt>
      <trkpt lat="49.88789" lon="2.2463">
        <ele>40.2</ele>
        <time>2021-09-05T09:26:03Z</time>
      </trkpt>
      <trkpt lat="49.8879" lon="2.2463">
        <ele>40.2</ele>
        <time>2021-09-05T09:26:04Z</time>
      </trkpt>
      <trkpt lat="49.88791" lon="2.2463">
        <ele>40.2</ele>
        <time>2021-09-05T09:26:05Z</time>
      </trkpt>
      <trkpt lat="49.88792" lon="2.24631">
        <ele>40.3</ele>
        <time>2021-09-05T09:26:06Z</time>
      </trkpt>
      <trkpt lat="49.88794" lon="2.24631">
        <ele>40.3</ele>
        <time>2021-09-05T09:26:07Z</time>
      </trkpt>
      <trkpt lat="49.88796" lon="2.24631">
        <ele>40.3</ele>
        <time>2021-09-05T09:26:09Z</time>
      </trkpt>
      <trkpt lat="49.88797" lon="2.24632">
        <ele>40.3</ele>
        <time>2021-09-05T09:26:10Z</time>
      </trkpt>
      <trkpt lat="49.88798" lon="2.24632">
        <ele>40.3</ele>
        <time>2021-09-05T09:26:11Z</time>
      </trkpt>
      <trkpt lat="49.88799" lon="2.24632">
        <ele>40.3</ele>
        <time>2021-09-05T09:26:12Z</time>
      </trkpt>
      <trkpt lat="49.88801" lon="2.24632">
        <ele>40.4</ele>
        <time>2021-09-05T09:26:13Z</time>
      </trkpt>
      <trkpt lat="49.88801" lon="2.24633">
        <ele>40.4</ele>
        <time>2021-09-05T09:26:14Z</time>
      </trkpt>
      <trkpt lat="49.88803" lon="2.24634">
        <ele>40.4</ele>
        <time>2021-09-05T09:26:15Z</time>
      </trkpt>
      <trkpt lat="49.88804" lon="2.24634">
        <ele>40.4</ele>
        <time>2021-09-05T09:26:16Z</time>
      </trkpt>
      <trkpt lat="49.88805" lon="2.24634">
        <ele>40.4</ele>
        <time>2021-09-05T09:26:17Z</time>
      </trkpt>
      <trkpt lat="49.88807" lon="2.24635">
        <ele>40.4</ele>
        <time>2021-09-05T09:26:18Z</time>
      </trkpt>
      <trkpt lat="49.88808" lon="2.24636">
        <ele>40.4</ele>
        <time>2021-09-05T09:26:19Z</time>
      </trkpt>
      <trkpt lat="49.8881" lon="2.24637">
        <ele>40.5</ele>
        <time>2021-09-05T09:26:20Z</time>
      </trkpt>
      <trkpt lat="49.88811" lon="2.24637">
        <ele>40.5</ele>
        <time>2021-09-05T09:26:22Z</time>
      </trkpt>
      <trkpt lat="49.88812" lon="2.24638">
        <ele>40.5</ele>
        <time>2021-09-05T09:26:23Z</time>
      </trkpt>
      <trkpt lat="49.88813" lon="2.24638">
        <ele>40.5</ele>
        <time>2021-09-05T09:26:24Z</time>
      </trkpt>
      <trkpt lat="49.88814" lon="2.24638">
        <ele>40.5</ele>
        <time>2021-09-05T09:26:25Z</time>
      </trkpt>
      <trkpt lat="49.88815" lon="2.24639">
        <ele>40.5</ele>
        <time>2021-09-05T09:26:26Z</time>
      </trkpt>
      <trkpt lat="49.88817" lon="2.24639">
        <ele>40.5</ele>
        <time>2021-09-05T09:26:27Z</time>
      </trkpt>
      <trkpt lat="49.88818" lon="2.2464">
        <ele>40.5</ele>
        <time>2021-09-05T09:26:28Z</time>
      </trkpt>
      <trkpt lat="49.8882" lon="2.2464">
        <ele>40.5</ele>
        <time>2021-09-05T09:26:29Z</time>
      </trkpt>
      <trkpt lat="49.88821" lon="2.24641">
        <ele>40.5</ele>
        <time>2021-09-05T09:26:31Z</time>
      </trkpt>
      <trkpt lat="49.88822" lon="2.24641">
        <ele>40.5</ele>
        <time>2021-09-05T09:26:32Z</time>
      </trkpt>
      <trkpt lat="49.88825" lon="2.24642">
        <ele>40.6</ele>
        <time>2021-09-05T09:26:33Z</time>
      </trkpt>
      <trkpt lat="49.88826" lon="2.24642">
        <ele>40.6</ele>
        <time>2021-09-05T09:26:34Z</time>
      </trkpt>
      <trkpt lat="49.88828" lon="2.24643">
        <ele>40.6</ele>
        <time>2021-09-05T09:26:36Z</time>
      </trkpt>
      <trkpt lat="49.88829" lon="2.24643">
        <ele>40.6</ele>
        <time>2021-09-05T09:26:37Z</time>
      </trkpt>
      <trkpt lat="49.88831" lon="2.24644">
        <ele>40.6</ele>
        <time>2021-09-05T09:26:38Z</time>
      </trkpt>
      <trkpt lat="49.88833" lon="2.24645">
        <ele>40.6</ele>
        <time>2021-09-05T09:26:39Z</time>
      </trkpt>
      <trkpt lat="49.88834" lon="2.24646">
        <ele>40.6</ele>
        <time>2021-09-05T09:26:41Z</time>
      </trkpt>
      <trkpt lat="49.88836" lon="2.24647">
        <ele>40.6</ele>
        <time>2021-09-05T09:26:42Z</time>
      </trkpt>
      <trkpt lat="49.88837" lon="2.24647">
        <ele>40.6</ele>
        <time>2021-09-05T09:26:43Z</time>
      </trkpt>
      <trkpt lat="49.88839" lon="2.24648">
        <ele>40.6</ele>
        <time>2021-09-05T09:26:44Z</time>
      </trkpt>
      <trkpt lat="49.8884" lon="2.24648">
        <ele>40.6</ele>
        <time>2021-09-05T09:26:45Z</time>
      </trkpt>
      <trkpt lat="49.88842" lon="2.24649">
        <ele>40.6</ele>
        <time>2021-09-05T09:26:47Z</time>
      </trkpt>
      <trkpt lat="49.88844" lon="2.24649">
        <ele>40.6</ele>
        <time>2021-09-05T09:26:48Z</time>
      </trkpt>
      <trkpt lat="49.88845" lon="2.24648">
        <ele>40.6</ele>
        <time>2021-09-05T09:26:49Z</time>
      </trkpt>
      <trkpt lat="49.88847" lon="2.24646">
        <ele>40.6</ele>
        <time>2021-09-05T09:26:50Z</time>
      </trkpt>
      <trkpt lat="49.88848" lon="2.24646">
        <ele>40.6</ele>
        <time>2021-09-05T09:26:51Z</time>
      </trkpt>
      <trkpt lat="49.88849" lon="2.24646">
        <ele>40.6</ele>
        <time>2021-09-05T09:26:52Z</time>
      </trkpt>
      <trkpt lat="49.8885" lon="2.24646">
        <ele>40.6</ele>
        <time>2021-09-05T09:26:53Z</time>
      </trkpt>
      <trkpt lat="49.88851" lon="2.24647">
        <ele>40.6</ele>
        <time>2021-09-05T09:26:54Z</time>
      </trkpt>
      <trkpt lat="49.88853" lon="2.24647">
        <ele>40.6</ele>
        <time>2021-09-05T09:26:56Z</time>
      </trkpt>
      <trkpt lat="49.88856" lon="2.24648">
        <ele>40.6</ele>
        <time>2021-09-05T09:26:57Z</time>
      </trkpt>
      <trkpt lat="49.88858" lon="2.2465">
        <ele>40.6</ele>
        <time>2021-09-05T09:26:58Z</time>
      </trkpt>
      <trkpt lat="49.88859" lon="2.2465">
        <ele>40.6</ele>
        <time>2021-09-05T09:27:00Z</time>
      </trkpt>
      <trkpt lat="49.8886" lon="2.24651">
        <ele>40.6</ele>
        <time>2021-09-05T09:27:01Z</time>
      </trkpt>
      <trkpt lat="49.88862" lon="2.24652">
        <ele>40.6</ele>
        <time>2021-09-05T09:27:02Z</time>
      </trkpt>
      <trkpt lat="49.88863" lon="2.24653">
        <ele>40.6</ele>
        <time>2021-09-05T09:27:04Z</time>
      </trkpt>
      <trkpt lat="49.88864" lon="2.24653">
        <ele>40.5</ele>
        <time>2021-09-05T09:27:05Z</time>
      </trkpt>
      <trkpt lat="49.88865" lon="2.24654">
        <ele>40.5</ele>
        <time>2021-09-05T09:27:06Z</time>
      </trkpt>
      <trkpt lat="49.88866" lon="2.24655">
        <ele>40.5</ele>
        <time>2021-09-05T09:27:07Z</time>
      </trkpt>
      <trkpt lat="49.88868" lon="2.24657">
        <ele>40.5</ele>
        <time>2021-09-05T09:27:08Z</time>
      </trkpt>
      <trkpt lat="49.88869" lon="2.24658">
        <ele>40.5</ele>
        <time>2021-09-05T09:27:10Z</time>
      </trkpt>
      <trkpt lat="49.8887" lon="2.24658">
        <ele>40.5</ele>
        <time>2021-09-05T09:27:11Z</time>
      </trkpt>
      <trkpt lat="49.88871" lon="2.24659">
        <ele>40.5</ele>
        <time>2021-09-05T09:27:12Z</time>
      </trkpt>
      <trkpt lat="49.88872" lon="2.24659">
        <ele>40.5</ele>
        <time>2021-09-05T09:27:13Z</time>
      </trkpt>
      <trkpt lat="49.88874" lon="2.2466">
        <ele>40.5</ele>
        <time>2021-09-05T09:27:14Z</time>
      </trkpt>
      <trkpt lat="49.88875" lon="2.2466">
        <ele>40.5</ele>
        <time>2021-09-05T09:27:15Z</time>
      </trkpt>
      <trkpt lat="49.88876" lon="2.2466">
        <ele>40.5</ele>
        <time>2021-09-05T09:27:16Z</time>
      </trkpt>
      <trkpt lat="49.88878" lon="2.24661">
        <ele>40.5</ele>
        <time>2021-09-05T09:27:17Z</time>
      </trkpt>
      <trkpt lat="49.88878" lon="2.24661">
        <ele>40.5</ele>
        <time>2021-09-05T09:27:19Z</time>
      </trkpt>
      <trkpt lat="49.8888" lon="2.24663">
        <ele>40.5</ele>
        <time>2021-09-05T09:27:20Z</time>
      </trkpt>
      <trkpt lat="49.88882" lon="2.24664">
        <ele>40.5</ele>
        <time>2021-09-05T09:27:22Z</time>
      </trkpt>
      <trkpt lat="49.88884" lon="2.24664">
        <ele>40.5</ele>
        <time>2021-09-05T09:27:23Z</time>
      </trkpt>
      <trkpt lat="49.88886" lon="2.24665">
        <ele>40.5</ele>
        <time>2021-09-05T09:27:25Z</time>
      </trkpt>
      <trkpt lat="49.88887" lon="2.24665">
        <ele>40.5</ele>
        <time>2021-09-05T09:27:26Z</time>
      </trkpt>
      <trkpt lat="49.88889" lon="2.24666">
        <ele>40.5</ele>
        <time>2021-09-05T09:27:27Z</time>
      </trkpt>
      <trkpt lat="49.88891" lon="2.24667">
        <ele>40.5</ele>
        <time>2021-09-05T09:27:28Z</time>
      </trkpt>
      <trkpt lat="49.88892" lon="2.24667">
        <ele>40.4</ele>
        <time>2021-09-05T09:27:30Z</time>
      </trkpt>
      <trkpt lat="49.88893" lon="2.24668">
        <ele>40.4</ele>
        <time>2021-09-05T09:27:31Z</time>
      </trkpt>
      <trkpt lat="49.88895" lon="2.24668">
        <ele>40.4</ele>
        <time>2021-09-05T09:27:32Z</time>
      </trkpt>
      <trkpt lat="49.88896" lon="2.24669">
        <ele>40.4</ele>
        <time>2021-09-05T09:27:33Z</time>
      </trkpt>
      <trkpt lat="49.88898" lon="2.2467">
        <ele>40.4</ele>
        <time>2021-09-05T09:27:35Z</time>
      </trkpt>
      <trkpt lat="49.88901" lon="2.2467">
        <ele>40.4</ele>
        <time>2021-09-05T09:27:36Z</time>
      </trkpt>
      <trkpt lat="49.88902" lon="2.2467">
        <ele>40.4</ele>
        <time>2021-09-05T09:27:37Z</time>
      </trkpt>
      <trkpt lat="49.88903" lon="2.2467">
        <ele>40.4</ele>
        <time>2021-09-05T09:27:38Z</time>
      </trkpt>
      <trkpt lat="49.88905" lon="2.24671">
        <ele>40.4</ele>
        <time>2021-09-05T09:27:39Z</time>
      </trkpt>
      <trkpt lat="49.88906" lon="2.24672">
        <ele>40.4</ele>
        <time>2021-09-05T09:27:41Z</time>
      </trkpt>
      <trkpt lat="49.88908" lon="2.24673">
        <ele>40.4</ele>
        <time>2021-09-05T09:27:43Z</time>
      </trkpt>
      <trkpt lat="49.88909" lon="2.24673">
        <ele>40.4</ele>
        <time>2021-09-05T09:27:44Z</time>
      </trkpt>
      <trkpt lat="49.88911" lon="2.24675">
        <ele>40.4</ele>
        <time>2021-09-05T09:27:45Z</time>
      </trkpt>
      <trkpt lat="49.88912" lon="2.24675">
        <ele>40.4</ele>
        <time>2021-09-05T09:27:47Z</time>
      </trkpt>
      <trkpt lat="49.88913" lon="2.24676">
        <ele>40.4</ele>
        <time>2021-09-05T09:27:48Z</time>
      </trkpt>
      <trkpt lat="49.88915" lon="2.24677">
        <ele>40.4</ele>
        <time>2021-09-05T09:27:49Z</time>
      </trkpt>
      <trkpt lat="49.88916" lon="2.24678">
        <ele>40.4</ele>
        <time>2021-09-05T09:27:50Z</time>
      </trkpt>
      <trkpt lat="49.88917" lon="2.24678">
        <ele>40.4</ele>
        <time>2021-09-05T09:27:51Z</time>
      </trkpt>
      <trkpt lat="49.88918" lon="2.24679">
        <ele>40.4</ele>
        <time>2021-09-05T09:27:52Z</time>
      </trkpt>
      <trkpt lat="49.88919" lon="2.24681">
        <ele>40.4</ele>
        <time>2021-09-05T09:27:53Z</time>
      </trkpt>
      <trkpt lat="49.88921" lon="2.24682">
        <ele>40.3</ele>
        <time>2021-09-05T09:27:55Z</time>
      </trkpt>
      <trkpt lat="49.88922" lon="2.24683">
        <ele>40.3</ele>
        <time>2021-09-05T09:27:56Z</time>
      </trkpt>
      <trkpt lat="49.88922" lon="2.24684">
        <ele>40.3</ele>
        <time>2021-09-05T09:27:57Z</time>
      </trkpt>
      <trkpt lat="49.88924" lon="2.24685">
        <ele>40.3</ele>
        <time>2021-09-05T09:27:58Z</time>
      </trkpt>
      <trkpt lat="49.88925" lon="2.24686">
        <ele>40.3</ele>
        <time>2021-09-05T09:27:59Z</time>
      </trkpt>
      <trkpt lat="49.88926" lon="2.24687">
        <ele>40.3</ele>
        <time>2021-09-05T09:28:00Z</time>
      </trkpt>
      <trkpt lat="49.88926" lon="2.24688">
        <ele>40.3</ele>
        <time>2021-09-05T09:28:01Z</time>
      </trkpt>
      <trkpt lat="49.88928" lon="2.24689">
        <ele>40.3</ele>
        <time>2021-09-05T09:28:03Z</time>
      </trkpt>
      <trkpt lat="49.88929" lon="2.24689">
        <ele>40.3</ele>
        <time>2021-09-05T09:28:04Z</time>
      </trkpt>
      <trkpt lat="49.8893" lon="2.2469">
        <ele>40.3</ele>
        <time>2021-09-05T09:28:05Z</time>
      </trkpt>
      <trkpt lat="49.88932" lon="2.24691">
        <ele>40.3</ele>
        <time>2021-09-05T09:28:06Z</time>
      </trkpt>
      <trkpt lat="49.88933" lon="2.24692">
        <ele>40.3</ele>
        <time>2021-09-05T09:28:07Z</time>
      </trkpt>
      <trkpt lat="49.88934" lon="2.24693">
        <ele>40.3</ele>
        <time>2021-09-05T09:28:09Z</time>
      </trkpt>
      <trkpt lat="49.88935" lon="2.24693">
        <ele>40.3</ele>
        <time>2021-09-05T09:28:10Z</time>
      </trkpt>
      <trkpt lat="49.88937" lon="2.24694">
        <ele>40.3</ele>
        <time>2021-09-05T09:28:11Z</time>
      </trkpt>
      <trkpt lat="49.88939" lon="2.24696">
        <ele>40.3</ele>
        <time>2021-09-05T09:28:13Z</time>
      </trkpt>
      <trkpt lat="49.8894" lon="2.24697">
        <ele>40.3</ele>
        <time>2021-09-05T09:28:14Z</time>
      </trkpt>
      <trkpt lat="49.88942" lon="2.24698">
        <ele>40.3</ele>
        <time>2021-09-05T09:28:16Z</time>
      </trkpt>
      <trkpt lat="49.88943" lon="2.24698">
        <ele>40.3</ele>
        <time>2021-09-05T09:28:17Z</time>
      </trkpt>
      <trkpt lat="49.88945" lon="2.24699">
        <ele>40.3</ele>
        <time>2021-09-05T09:28:18Z</time>
      </trkpt>
      <trkpt lat="49.88946" lon="2.247">
        <ele>40.3</ele>
        <time>2021-09-05T09:28:19Z</time>
      </trkpt>
      <trkpt lat="49.88947" lon="2.247">
        <ele>40.3</ele>
        <time>2021-09-05T09:28:20Z</time>
      </trkpt>
      <trkpt lat="49.88949" lon="2.24701">
        <ele>40.2</ele>
        <time>2021-09-05T09:28:21Z</time>
      </trkpt>
      <trkpt lat="49.88951" lon="2.24703">
        <ele>40.2</ele>
        <time>2021-09-05T09:28:23Z</time>
      </trkpt>
      <trkpt lat="49.88953" lon="2.24704">
        <ele>40.2</ele>
        <time>2021-09-05T09:28:25Z</time>
      </trkpt>
      <trkpt lat="49.88954" lon="2.24705">
        <ele>40.2</ele>
        <time>2021-09-05T09:28:26Z</time>
      </trkpt>
      <trkpt lat="49.88956" lon="2.24706">
        <ele>40.2</ele>
        <time>2021-09-05T09:28:27Z</time>
      </trkpt>
      <trkpt lat="49.88958" lon="2.24707">
        <ele>40.2</ele>
        <time>2021-09-05T09:28:29Z</time>
      </trkpt>
      <trkpt lat="49.88958" lon="2.24708">
        <ele>40.2</ele>
        <time>2021-09-05T09:28:30Z</time>
      </trkpt>
      <trkpt lat="49.8896" lon="2.24709">
        <ele>40.1</ele>
        <time>2021-09-05T09:28:31Z</time>
      </trkpt>
      <trkpt lat="49.88961" lon="2.2471">
        <ele>40.1</ele>
        <time>2021-09-05T09:28:33Z</time>
      </trkpt>
      <trkpt lat="49.88963" lon="2.24711">
        <ele>40.1</ele>
        <time>2021-09-05T09:28:34Z</time>
      </trkpt>
      <trkpt lat="49.88963" lon="2.24712">
        <ele>40.1</ele>
        <time>2021-09-05T09:28:35Z</time>
      </trkpt>
      <trkpt lat="49.88964" lon="2.24714">
        <ele>40.1</ele>
        <time>2021-09-05T09:28:36Z</time>
      </trkpt>
      <trkpt lat="49.88965" lon="2.24715">
        <ele>40.1</ele>
        <time>2021-09-05T09:28:37Z</time>
      </trkpt>
      <trkpt lat="49.88966" lon="2.24718">
        <ele>40.1</ele>
        <time>2021-09-05T09:28:39Z</time>
      </trkpt>
      <trkpt lat="49.88967" lon="2.24719">
        <ele>40</ele>
        <time>2021-09-05T09:28:40Z</time>
      </trkpt>
      <trkpt lat="49.88968" lon="2.24721">
        <ele>40</ele>
        <time>2021-09-05T09:28:41Z</time>
      </trkpt>
      <trkpt lat="49.88969" lon="2.24723">
        <ele>40</ele>
        <time>2021-09-05T09:28:42Z</time>
      </trkpt>
      <trkpt lat="49.8897" lon="2.24725">
        <ele>40</ele>
        <time>2021-09-05T09:28:43Z</time>
      </trkpt>
      <trkpt lat="49.88971" lon="2.24726">
        <ele>40</ele>
        <time>2021-09-05T09:28:44Z</time>
      </trkpt>
      <trkpt lat="49.88973" lon="2.2473">
        <ele>39.9</ele>
        <time>2021-09-05T09:28:46Z</time>
      </trkpt>
      <trkpt lat="49.88974" lon="2.24731">
        <ele>39.9</ele>
        <time>2021-09-05T09:28:47Z</time>
      </trkpt>
      <trkpt lat="49.88975" lon="2.24732">
        <ele>39.9</ele>
        <time>2021-09-05T09:28:48Z</time>
      </trkpt>
      <trkpt lat="49.88976" lon="2.24733">
        <ele>39.9</ele>
        <time>2021-09-05T09:28:49Z</time>
      </trkpt>
      <trkpt lat="49.88977" lon="2.24734">
        <ele>39.9</ele>
        <time>2021-09-05T09:28:50Z</time>
      </trkpt>
      <trkpt lat="49.88978" lon="2.24735">
        <ele>39.9</ele>
        <time>2021-09-05T09:28:51Z</time>
      </trkpt>
      <trkpt lat="49.88978" lon="2.24737">
        <ele>39.9</ele>
        <time>2021-09-05T09:28:52Z</time>
      </trkpt>
      <trkpt lat="49.8898" lon="2.24739">
        <ele>39.9</ele>
        <time>2021-09-05T09:28:54Z</time>
      </trkpt>
      <trkpt lat="49.88981" lon="2.24737">
        <ele>39.9</ele>
        <time>2021-09-05T09:28:56Z</time>
      </trkpt>
      <trkpt lat="49.88982" lon="2.24736">
        <ele>39.9</ele>
        <time>2021-09-05T09:28:57Z</time>
      </trkpt>
      <trkpt lat="49.88982" lon="2.24733">
        <ele>39.8</ele>
        <time>2021-09-05T09:28:58Z</time>
      </trkpt>
      <trkpt lat="49.88982" lon="2.24731">
        <ele>39.8</ele>
        <time>2021-09-05T09:29:00Z</time>
      </trkpt>
      <trkpt lat="49.88981" lon="2.2473">
        <ele>39.8</ele>
        <time>2021-09-05T09:29:01Z</time>
      </trkpt>
      <trkpt lat="49.88981" lon="2.24731">
        <ele>39.8</ele>
        <time>2021-09-05T09:29:02Z</time>
      </trkpt>
      <trkpt lat="49.88982" lon="2.24732">
        <ele>39.8</ele>
        <time>2021-09-05T09:29:04Z</time>
      </trkpt>
      <trkpt lat="49.88982" lon="2.24734">
        <ele>39.8</ele>
        <time>2021-09-05T09:29:06Z</time>
      </trkpt>
      <trkpt lat="49.88981" lon="2.24734">
        <ele>39.8</ele>
        <time>2021-09-05T09:29:07Z</time>
      </trkpt>
      <trkpt lat="49.8898" lon="2.24735">
        <ele>39.8</ele>
        <time>2021-09-05T09:29:09Z</time>
      </trkpt>
      <trkpt lat="49.8898" lon="2.24735">
        <ele>39.8</ele>
        <time>2021-09-05T09:29:10Z</time>
      </trkpt>
      <trkpt lat="49.88979" lon="2.24734">
        <ele>39.8</ele>
        <time>2021-09-05T09:29:12Z</time>
      </trkpt>
      <trkpt lat="49.8898" lon="2.24733">
        <ele>39.8</ele>
        <time>2021-09-05T09:29:13Z</time>
      </trkpt>
      <trkpt lat="49.8898" lon="2.24732">
        <ele>39.8</ele>
        <time>2021-09-05T09:29:14Z</time>
      </trkpt>
      <trkpt lat="49.8898" lon="2.24731">
        <ele>39.7</ele>
        <time>2021-09-05T09:29:16Z</time>
      </trkpt>
      <trkpt lat="49.8898" lon="2.24731">
        <ele>39.7</ele>
        <time>2021-09-05T09:29:17Z</time>
      </trkpt>
      <trkpt lat="49.8898" lon="2.2473">
        <ele>39.7</ele>
        <time>2021-09-05T09:29:19Z</time>
      </trkpt>
      <trkpt lat="49.8898" lon="2.2473">
        <ele>39.7</ele>
        <time>2021-09-05T09:29:20Z</time>
      </trkpt>
      <trkpt lat="49.8898" lon="2.24731">
        <ele>39.7</ele>
        <time>2021-09-05T09:29:21Z</time>
      </trkpt>
      <trkpt lat="49.8898" lon="2.24731">
        <ele>39.7</ele>
        <time>2021-09-05T09:29:23Z</time>
      </trkpt>
      <trkpt lat="49.8898" lon="2.24731">
        <ele>39.7</ele>
        <time>2021-09-05T09:29:24Z</time>
      </trkpt>
      <trkpt lat="49.8898" lon="2.24731">
        <ele>39.7</ele>
        <time>2021-09-05T09:29:26Z</time>
      </trkpt>
      <trkpt lat="49.8898" lon="2.24731">
        <ele>39.7</ele>
        <time>2021-09-05T09:29:27Z</time>
      </trkpt>
      <trkpt lat="49.8898" lon="2.24731">
        <ele>39.7</ele>
        <time>2021-09-05T09:29:29Z</time>
      </trkpt>
      <trkpt lat="49.8898" lon="2.24731">
        <ele>39.7</ele>
        <time>2021-09-05T09:29:30Z</time>
      </trkpt>
      <trkpt lat="49.8898" lon="2.24731">
        <ele>39.7</ele>
        <time>2021-09-05T09:29:31Z</time>
      </trkpt>
      <trkpt lat="49.8898" lon="2.24731">
        <ele>39.7</ele>
        <time>2021-09-05T09:29:32Z</time>
      </trkpt>
      <trkpt lat="49.8898" lon="2.24731">
        <ele>39.7</ele>
        <time>2021-09-05T09:29:34Z</time>
      </trkpt>
      <trkpt lat="49.8898" lon="2.24732">
        <ele>39.7</ele>
        <time>2021-09-05T09:29:36Z</time>
      </trkpt>
      <trkpt lat="49.8898" lon="2.24732">
        <ele>39.7</ele>
        <time>2021-09-05T09:29:37Z</time>
      </trkpt>
      <trkpt lat="49.8898" lon="2.24732">
        <ele>39.7</ele>
        <time>2021-09-05T09:29:39Z</time>
      </trkpt>
      <trkpt lat="49.8898" lon="2.24732">
        <ele>39.7</ele>
        <time>2021-09-05T09:29:40Z</time>
      </trkpt>
      <trkpt lat="49.8898" lon="2.24732">
        <ele>39.7</ele>
        <time>2021-09-05T09:29:41Z</time>
      </trkpt>
      <trkpt lat="49.8898" lon="2.24732">
        <ele>39.7</ele>
        <time>2021-09-05T09:29:43Z</time>
      </trkpt>
      <trkpt lat="49.8898" lon="2.24732">
        <ele>39.7</ele>
        <time>2021-09-05T09:29:45Z</time>
      </trkpt>
      <trkpt lat="49.8898" lon="2.24732">
        <ele>39.7</ele>
        <time>2021-09-05T09:29:47Z</time>
      </trkpt>
      <trkpt lat="49.8898" lon="2.24732">
        <ele>39.7</ele>
        <time>2021-09-05T09:29:48Z</time>
      </trkpt>
      <trkpt lat="49.8898" lon="2.24733">
        <ele>39.7</ele>
        <time>2021-09-05T09:29:49Z</time>
      </trkpt>
      <trkpt lat="49.8898" lon="2.24733">
        <ele>39.7</ele>
        <time>2021-09-05T09:29:51Z</time>
      </trkpt>
      <trkpt lat="49.8898" lon="2.24733">
        <ele>39.7</ele>
        <time>2021-09-05T09:29:52Z</time>
      </trkpt>
      <trkpt lat="49.8898" lon="2.24733">
        <ele>39.7</ele>
        <time>2021-09-05T09:29:54Z</time>
      </trkpt>
      <trkpt lat="49.88981" lon="2.24733">
        <ele>39.7</ele>
        <time>2021-09-05T09:29:55Z</time>
      </trkpt>
      <trkpt lat="49.88981" lon="2.24733">
        <ele>39.7</ele>
        <time>2021-09-05T09:29:57Z</time>
      </trkpt>
      <trkpt lat="49.88981" lon="2.24733">
        <ele>39.7</ele>
        <time>2021-09-05T09:29:59Z</time>
      </trkpt>
      <trkpt lat="49.88981" lon="2.24733">
        <ele>39.7</ele>
        <time>2021-09-05T09:30:00Z</time>
      </trkpt>
      <trkpt lat="49.88981" lon="2.24733">
        <ele>39.7</ele>
        <time>2021-09-05T09:30:01Z</time>
      </trkpt>
      <trkpt lat="49.88981" lon="2.24733">
        <ele>39.7</ele>
        <time>2021-09-05T09:30:03Z</time>
      </trkpt>
      <trkpt lat="49.88981" lon="2.24734">
        <ele>39.7</ele>
        <time>2021-09-05T09:30:04Z</time>
      </trkpt>
      <trkpt lat="49.88981" lon="2.24734">
        <ele>39.7</ele>
        <time>2021-09-05T09:30:06Z</time>
      </trkpt>
      <trkpt lat="49.88981" lon="2.24734">
        <ele>39.7</ele>
        <time>2021-09-05T09:30:08Z</time>
      </trkpt>
      <trkpt lat="49.88981" lon="2.24734">
        <ele>39.7</ele>
        <time>2021-09-05T09:30:09Z</time>
      </trkpt>
      <trkpt lat="49.88981" lon="2.24734">
        <ele>39.7</ele>
        <time>2021-09-05T09:30:10Z</time>
      </trkpt>
      <trkpt lat="49.88981" lon="2.24734">
        <ele>39.7</ele>
        <time>2021-09-05T09:30:11Z</time>
      </trkpt>
      <trkpt lat="49.88981" lon="2.24734">
        <ele>39.7</ele>
        <time>2021-09-05T09:30:13Z</time>
      </trkpt>
      <trkpt lat="49.88981" lon="2.24734">
        <ele>39.7</ele>
        <time>2021-09-05T09:30:14Z</time>
      </trkpt>
      <trkpt lat="49.88981" lon="2.24734">
        <ele>39.7</ele>
        <time>2021-09-05T09:30:16Z</time>
      </trkpt>
      <trkpt lat="49.88981" lon="2.24734">
        <ele>39.7</ele>
        <time>2021-09-05T09:30:18Z</time>
      </trkpt>
      <trkpt lat="49.88981" lon="2.24735">
        <ele>39.7</ele>
        <time>2021-09-05T09:30:20Z</time>
      </trkpt>
      <trkpt lat="49.88981" lon="2.24735">
        <ele>39.7</ele>
        <time>2021-09-05T09:30:22Z</time>
      </trkpt>
      <trkpt lat="49.88981" lon="2.24735">
        <ele>39.7</ele>
        <time>2021-09-05T09:30:24Z</time>
      </trkpt>
      <trkpt lat="49.88981" lon="2.24735">
        <ele>39.7</ele>
        <time>2021-09-05T09:30:25Z</time>
      </trkpt>
      <trkpt lat="49.88981" lon="2.24735">
        <ele>39.7</ele>
        <time>2021-09-05T09:30:27Z</time>
      </trkpt>
      <trkpt lat="49.88981" lon="2.24735">
        <ele>39.7</ele>
        <time>2021-09-05T09:30:28Z</time>
      </trkpt>
      <trkpt lat="49.88981" lon="2.24735">
        <ele>39.7</ele>
        <time>2021-09-05T09:30:30Z</time>
      </trkpt>
      <trkpt lat="49.88981" lon="2.24735">
        <ele>39.7</ele>
        <time>2021-09-05T09:30:31Z</time>
      </trkpt>
      <trkpt lat="49.88981" lon="2.24735">
        <ele>39.7</ele>
        <time>2021-09-05T09:30:33Z</time>
      </trkpt>
      <trkpt lat="49.88981" lon="2.24735">
        <ele>39.7</ele>
        <time>2021-09-05T09:30:34Z</time>
      </trkpt>
      <trkpt lat="49.88981" lon="2.24736">
        <ele>39.7</ele>
        <time>2021-09-05T09:30:36Z</time>
      </trkpt>
      <trkpt lat="49.88981" lon="2.24736">
        <ele>39.7</ele>
        <time>2021-09-05T09:30:38Z</time>
      </trkpt>
      <trkpt lat="49.88981" lon="2.24736">
        <ele>39.7</ele>
        <time>2021-09-05T09:30:40Z</time>
      </trkpt>
      <trkpt lat="49.88981" lon="2.24736">
        <ele>39.7</ele>
        <time>2021-09-05T09:30:42Z</time>
      </trkpt>
      <trkpt lat="49.88981" lon="2.24736">
        <ele>39.7</ele>
        <time>2021-09-05T09:30:44Z</time>
      </trkpt>
      <trkpt lat="49.88981" lon="2.24736">
        <ele>39.7</ele>
        <time>2021-09-05T09:30:45Z</time>
      </trkpt>
      <trkpt lat="49.88981" lon="2.24736">
        <ele>39.7</ele>
        <time>2021-09-05T09:30:47Z</time>
      </trkpt>
      <trkpt lat="49.88982" lon="2.24736">
        <ele>39.7</ele>
        <time>2021-09-05T09:30:48Z</time>
      </trkpt>
      <trkpt lat="49.88982" lon="2.24736">
        <ele>39.7</ele>
        <time>2021-09-05T09:30:50Z</time>
      </trkpt>
      <trkpt lat="49.88982" lon="2.24736">
        <ele>39.7</ele>
        <time>2021-09-05T09:30:51Z</time>
      </trkpt>
      <trkpt lat="49.88982" lon="2.24737">
        <ele>39.7</ele>
        <time>2021-09-05T09:30:52Z</time>
      </trkpt>
      <trkpt lat="49.88982" lon="2.24737">
        <ele>39.7</ele>
        <time>2021-09-05T09:30:54Z</time>
      </trkpt>
      <trkpt lat="49.88982" lon="2.24737">
        <ele>39.7</ele>
        <time>2021-09-05T09:30:56Z</time>
      </trkpt>
      <trkpt lat="49.88982" lon="2.24737">
        <ele>39.7</ele>
        <time>2021-09-05T09:30:57Z</time>
      </trkpt>
      <trkpt lat="49.88982" lon="2.24737">
        <ele>39.7</ele>
        <time>2021-09-05T09:30:58Z</time>
      </trkpt>
      <trkpt lat="49.88982" lon="2.24737">
        <ele>39.7</ele>
        <time>2021-09-05T09:31:00Z</time>
      </trkpt>
      <trkpt lat="49.88982" lon="2.24737">
        <ele>39.7</ele>
        <time>2021-09-05T09:31:02Z</time>
      </trkpt>
      <trkpt lat="49.88982" lon="2.24737">
        <ele>39.7</ele>
        <time>2021-09-05T09:31:04Z</time>
      </trkpt>
      <trkpt lat="49.88982" lon="2.24737">
        <ele>39.7</ele>
        <time>2021-09-05T09:31:05Z</time>
      </trkpt>
      <trkpt lat="49.88982" lon="2.24738">
        <ele>39.7</ele>
        <time>2021-09-05T09:31:07Z</time>
      </trkpt>
      <trkpt lat="49.88982" lon="2.24738">
        <ele>39.7</ele>
        <time>2021-09-05T09:31:09Z</time>
      </trkpt>
      <trkpt lat="49.88982" lon="2.24738">
        <ele>39.7</ele>
        <time>2021-09-05T09:31:10Z</time>
      </trkpt>
      <trkpt lat="49.88982" lon="2.24738">
        <ele>39.7</ele>
        <time>2021-09-05T09:31:12Z</time>
      </trkpt>
      <trkpt lat="49.88982" lon="2.24738">
        <ele>39.7</ele>
        <time>2021-09-05T09:31:14Z</time>
      </trkpt>
      <trkpt lat="49.88982" lon="2.24738">
        <ele>39.7</ele>
        <time>2021-09-05T09:31:16Z</time>
      </trkpt>
      <trkpt lat="49.88982" lon="2.24738">
        <ele>39.7</ele>
        <time>2021-09-05T09:31:17Z</time>
      </trkpt>
      <trkpt lat="49.88982" lon="2.24738">
        <ele>39.7</ele>
        <time>2021-09-05T09:31:19Z</time>
      </trkpt>
      <trkpt lat="49.88982" lon="2.24738">
        <ele>39.7</ele>
        <time>2021-09-05T09:31:21Z</time>
      </trkpt>
      <trkpt lat="49.88982" lon="2.24738">
        <ele>39.7</ele>
        <time>2021-09-05T09:31:22Z</time>
      </trkpt>
      <trkpt lat="49.88982" lon="2.24739">
        <ele>39.7</ele>
        <time>2021-09-05T09:31:23Z</time>
      </trkpt>
      <trkpt lat="49.88982" lon="2.24739">
        <ele>39.6</ele>
        <time>2021-09-05T09:31:25Z</time>
      </trkpt>
      <trkpt lat="49.88982" lon="2.24739">
        <ele>39.6</ele>
        <time>2021-09-05T09:31:26Z</time>
      </trkpt>
      <trkpt lat="49.88982" lon="2.24739">
        <ele>39.6</ele>
        <time>2021-09-05T09:31:27Z</time>
      </trkpt>
      <trkpt lat="49.88982" lon="2.24739">
        <ele>39.6</ele>
        <time>2021-09-05T09:31:28Z</time>
      </trkpt>
      <trkpt lat="49.88982" lon="2.24739">
        <ele>39.6</ele>
        <time>2021-09-05T09:31:30Z</time>
      </trkpt>
      <trkpt lat="49.88982" lon="2.24739">
        <ele>39.6</ele>
        <time>2021-09-05T09:31:31Z</time>
      </trkpt>
      <trkpt lat="49.88983" lon="2.24741">
        <ele>39.6</ele>
        <time>2021-09-05T09:31:32Z</time>
      </trkpt>
      <trkpt lat="49.88984" lon="2.24742">
        <ele>39.6</ele>
        <time>2021-09-05T09:31:33Z</time>
      </trkpt>
      <trkpt lat="49.88987" lon="2.24744">
        <ele>39.6</ele>
        <time>2021-09-05T09:31:34Z</time>
      </trkpt>
      <trkpt lat="49.88988" lon="2.24745">
        <ele>39.5</ele>
        <time>2021-09-05T09:31:35Z</time>
      </trkpt>
      <trkpt lat="49.8899" lon="2.24747">
        <ele>39.5</ele>
        <time>2021-09-05T09:31:36Z</time>
      </trkpt>
      <trkpt lat="49.88991" lon="2.24749">
        <ele>39.5</ele>
        <time>2021-09-05T09:31:38Z</time>
      </trkpt>
      <trkpt lat="49.88993" lon="2.24749">
        <ele>39.4</ele>
        <time>2021-09-05T09:31:39Z</time>
      </trkpt>
      <trkpt lat="49.88994" lon="2.24751">
        <ele>39.4</ele>
        <time>2021-09-05T09:31:40Z</time>
      </trkpt>
      <trkpt lat="49.88995" lon="2.24753">
        <ele>39.4</ele>
        <time>2021-09-05T09:31:42Z</time>
      </trkpt>
      <trkpt lat="49.88996" lon="2.24755">
        <ele>39.4</ele>
        <time>2021-09-05T09:31:43Z</time>
      </trkpt>
      <trkpt lat="49.88998" lon="2.24757">
        <ele>39.3</ele>
        <time>2021-09-05T09:31:45Z</time>
      </trkpt>
      <trkpt lat="49.88999" lon="2.24759">
        <ele>39.3</ele>
        <time>2021-09-05T09:31:46Z</time>
      </trkpt>
      <trkpt lat="49.89" lon="2.2476">
        <ele>39.3</ele>
        <time>2021-09-05T09:31:47Z</time>
      </trkpt>
      <trkpt lat="49.89002" lon="2.24764">
        <ele>39.2</ele>
        <time>2021-09-05T09:31:49Z</time>
      </trkpt>
      <trkpt lat="49.89002" lon="2.24765">
        <ele>39.2</ele>
        <time>2021-09-05T09:31:50Z</time>
      </trkpt>
      <trkpt lat="49.89005" lon="2.2477">
        <ele>39.1</ele>
        <time>2021-09-05T09:31:52Z</time>
      </trkpt>
      <trkpt lat="49.89006" lon="2.24771">
        <ele>39.1</ele>
        <time>2021-09-05T09:31:53Z</time>
      </trkpt>
      <trkpt lat="49.89009" lon="2.24775">
        <ele>39</ele>
        <time>2021-09-05T09:31:55Z</time>
      </trkpt>
      <trkpt lat="49.89009" lon="2.24776">
        <ele>39</ele>
        <time>2021-09-05T09:31:56Z</time>
      </trkpt>
      <trkpt lat="49.89012" lon="2.24779">
        <ele>39</ele>
        <time>2021-09-05T09:31:57Z</time>
      </trkpt>
      <trkpt lat="49.89012" lon="2.2478">
        <ele>38.9</ele>
        <time>2021-09-05T09:31:58Z</time>
      </trkpt>
      <trkpt lat="49.89013" lon="2.24782">
        <ele>38.9</ele>
        <time>2021-09-05T09:31:59Z</time>
      </trkpt>
      <trkpt lat="49.89015" lon="2.24784">
        <ele>38.9</ele>
        <time>2021-09-05T09:32:00Z</time>
      </trkpt>
      <trkpt lat="49.89016" lon="2.24786">
        <ele>38.8</ele>
        <time>2021-09-05T09:32:01Z</time>
      </trkpt>
      <trkpt lat="49.89017" lon="2.24787">
        <ele>38.8</ele>
        <time>2021-09-05T09:32:02Z</time>
      </trkpt>
      <trkpt lat="49.89019" lon="2.24788">
        <ele>38.7</ele>
        <time>2021-09-05T09:32:04Z</time>
      </trkpt>
      <trkpt lat="49.8902" lon="2.24789">
        <ele>38.7</ele>
        <time>2021-09-05T09:32:05Z</time>
      </trkpt>
      <trkpt lat="49.89022" lon="2.24791">
        <ele>38.6</ele>
        <time>2021-09-05T09:32:06Z</time>
      </trkpt>
      <trkpt lat="49.89023" lon="2.24793">
        <ele>38.6</ele>
        <time>2021-09-05T09:32:08Z</time>
      </trkpt>
      <trkpt lat="49.89025" lon="2.24795">
        <ele>38.5</ele>
        <time>2021-09-05T09:32:10Z</time>
      </trkpt>
      <trkpt lat="49.89026" lon="2.24797">
        <ele>38.5</ele>
        <time>2021-09-05T09:32:11Z</time>
      </trkpt>
      <trkpt lat="49.89027" lon="2.24799">
        <ele>38.5</ele>
        <time>2021-09-05T09:32:12Z</time>
      </trkpt>
      <trkpt lat="49.89028" lon="2.24801">
        <ele>38.4</ele>
        <time>2021-09-05T09:32:13Z</time>
      </trkpt>
      <trkpt lat="49.8903" lon="2.24804">
        <ele>38.3</ele>
        <time>2021-09-05T09:32:15Z</time>
      </trkpt>
      <trkpt lat="49.8903" lon="2.24805">
        <ele>38.3</ele>
        <time>2021-09-05T09:32:16Z</time>
      </trkpt>
      <trkpt lat="49.89032" lon="2.24808">
        <ele>38.3</ele>
        <time>2021-09-05T09:32:18Z</time>
      </trkpt>
      <trkpt lat="49.89033" lon="2.24809">
        <ele>38.2</ele>
        <time>2021-09-05T09:32:19Z</time>
      </trkpt>
      <trkpt lat="49.89034" lon="2.24811">
        <ele>38.2</ele>
        <time>2021-09-05T09:32:20Z</time>
      </trkpt>
      <trkpt lat="49.89035" lon="2.24813">
        <ele>38.1</ele>
        <time>2021-09-05T09:32:22Z</time>
      </trkpt>
      <trkpt lat="49.89036" lon="2.24815">
        <ele>38.1</ele>
        <time>2021-09-05T09:32:23Z</time>
      </trkpt>
      <trkpt lat="49.89037" lon="2.24816">
        <ele>38.1</ele>
        <time>2021-09-05T09:32:24Z</time>
      </trkpt>
      <trkpt lat="49.89038" lon="2.24818">
        <ele>38</ele>
        <time>2021-09-05T09:32:25Z</time>
      </trkpt>
      <trkpt lat="49.8904" lon="2.24821">
        <ele>38</ele>
        <time>2021-09-05T09:32:27Z</time>
      </trkpt>
      <trkpt lat="49.89041" lon="2.24823">
        <ele>37.9</ele>
        <time>2021-09-05T09:32:28Z</time>
      </trkpt>
      <trkpt lat="49.89043" lon="2.24825">
        <ele>37.9</ele>
        <time>2021-09-05T09:32:29Z</time>
      </trkpt>
      <trkpt lat="49.89044" lon="2.24827">
        <ele>37.9</ele>
        <time>2021-09-05T09:32:31Z</time>
      </trkpt>
      <trkpt lat="49.89045" lon="2.24829">
        <ele>37.8</ele>
        <time>2021-09-05T09:32:32Z</time>
      </trkpt>
      <trkpt lat="49.89046" lon="2.2483">
        <ele>37.8</ele>
        <time>2021-09-05T09:32:33Z</time>
      </trkpt>
      <trkpt lat="49.89047" lon="2.24832">
        <ele>37.8</ele>
        <time>2021-09-05T09:32:34Z</time>
      </trkpt>
      <trkpt lat="49.89047" lon="2.24833">
        <ele>37.8</ele>
        <time>2021-09-05T09:32:35Z</time>
      </trkpt>
      <trkpt lat="49.89048" lon="2.24834">
        <ele>37.8</ele>
        <time>2021-09-05T09:32:36Z</time>
      </trkpt>
      <trkpt lat="49.8905" lon="2.24836">
        <ele>37.8</ele>
        <time>2021-09-05T09:32:38Z</time>
      </trkpt>
      <trkpt lat="49.89051" lon="2.24838">
        <ele>37.7</ele>
        <time>2021-09-05T09:32:39Z</time>
      </trkpt>
      <trkpt lat="49.89053" lon="2.2484">
        <ele>37.7</ele>
        <time>2021-09-05T09:32:41Z</time>
      </trkpt>
      <trkpt lat="49.89055" lon="2.24843">
        <ele>37.7</ele>
        <time>2021-09-05T09:32:42Z</time>
      </trkpt>
      <trkpt lat="49.89055" lon="2.24844">
        <ele>37.7</ele>
        <time>2021-09-05T09:32:43Z</time>
      </trkpt>
      <trkpt lat="49.89057" lon="2.24846">
        <ele>37.6</ele>
        <time>2021-09-05T09:32:45Z</time>
      </trkpt>
      <trkpt lat="49.89057" lon="2.24847">
        <ele>37.6</ele>
        <time>2021-09-05T09:32:46Z</time>
      </trkpt>
      <trkpt lat="49.8906" lon="2.24849">
        <ele>37.6</ele>
        <time>2021-09-05T09:32:48Z</time>
      </trkpt>
      <trkpt lat="49.8906" lon="2.2485">
        <ele>37.6</ele>
        <time>2021-09-05T09:32:49Z</time>
      </trkpt>
      <trkpt lat="49.89062" lon="2.24851">
        <ele>37.6</ele>
        <time>2021-09-05T09:32:50Z</time>
      </trkpt>
      <trkpt lat="49.89063" lon="2.24852">
        <ele>37.6</ele>
        <time>2021-09-05T09:32:51Z</time>
      </trkpt>
      <trkpt lat="49.89065" lon="2.24853">
        <ele>37.5</ele>
        <time>2021-09-05T09:32:52Z</time>
      </trkpt>
      <trkpt lat="49.89066" lon="2.24855">
        <ele>37.5</ele>
        <time>2021-09-05T09:32:53Z</time>
      </trkpt>
      <trkpt lat="49.89068" lon="2.24858">
        <ele>37.5</ele>
        <time>2021-09-05T09:32:55Z</time>
      </trkpt>
      <trkpt lat="49.89068" lon="2.24859">
        <ele>37.5</ele>
        <time>2021-09-05T09:32:56Z</time>
      </trkpt>
      <trkpt lat="49.8907" lon="2.24862">
        <ele>37.5</ele>
        <time>2021-09-05T09:32:57Z</time>
      </trkpt>
      <trkpt lat="49.89071" lon="2.24863">
        <ele>37.5</ele>
        <time>2021-09-05T09:32:58Z</time>
      </trkpt>
      <trkpt lat="49.89072" lon="2.24864">
        <ele>37.5</ele>
        <time>2021-09-05T09:32:59Z</time>
      </trkpt>
      <trkpt lat="49.89073" lon="2.24865">
        <ele>37.4</ele>
        <time>2021-09-05T09:33:01Z</time>
      </trkpt>
      <trkpt lat="49.89074" lon="2.24865">
        <ele>37.4</ele>
        <time>2021-09-05T09:33:02Z</time>
      </trkpt>
      <trkpt lat="49.89075" lon="2.24867">
        <ele>37.4</ele>
        <time>2021-09-05T09:33:03Z</time>
      </trkpt>
      <trkpt lat="49.89076" lon="2.24868">
        <ele>37.4</ele>
        <time>2021-09-05T09:33:04Z</time>
      </trkpt>
      <trkpt lat="49.89077" lon="2.2487">
        <ele>37.4</ele>
        <time>2021-09-05T09:33:05Z</time>
      </trkpt>
      <trkpt lat="49.89078" lon="2.24871">
        <ele>37.4</ele>
        <time>2021-09-05T09:33:06Z</time>
      </trkpt>
      <trkpt lat="49.8908" lon="2.24872">
        <ele>37.4</ele>
        <time>2021-09-05T09:33:07Z</time>
      </trkpt>
      <trkpt lat="49.89081" lon="2.24874">
        <ele>37.4</ele>
        <time>2021-09-05T09:33:08Z</time>
      </trkpt>
      <trkpt lat="49.89082" lon="2.24876">
        <ele>37.4</ele>
        <time>2021-09-05T09:33:09Z</time>
      </trkpt>
      <trkpt lat="49.89083" lon="2.24876">
        <ele>37.4</ele>
        <time>2021-09-05T09:33:10Z</time>
      </trkpt>
      <trkpt lat="49.89084" lon="2.24877">
        <ele>37.4</ele>
        <time>2021-09-05T09:33:11Z</time>
      </trkpt>
      <trkpt lat="49.89086" lon="2.24881">
        <ele>37.4</ele>
        <time>2021-09-05T09:33:13Z</time>
      </trkpt>
      <trkpt lat="49.89086" lon="2.24882">
        <ele>37.4</ele>
        <time>2021-09-05T09:33:14Z</time>
      </trkpt>
      <trkpt lat="49.89087" lon="2.24884">
        <ele>37.4</ele>
        <time>2021-09-05T09:33:15Z</time>
      </trkpt>
      <trkpt lat="49.89088" lon="2.24885">
        <ele>37.4</ele>
        <time>2021-09-05T09:33:16Z</time>
      </trkpt>
      <trkpt lat="49.89089" lon="2.24887">
        <ele>37.4</ele>
        <time>2021-09-05T09:33:17Z</time>
      </trkpt>
      <trkpt lat="49.8909" lon="2.24889">
        <ele>37.4</ele>
        <time>2021-09-05T09:33:19Z</time>
      </trkpt>
      <trkpt lat="49.89091" lon="2.24891">
        <ele>37.3</ele>
        <time>2021-09-05T09:33:20Z</time>
      </trkpt>
      <trkpt lat="49.89091" lon="2.24894">
        <ele>37.3</ele>
        <time>2021-09-05T09:33:22Z</time>
      </trkpt>
      <trkpt lat="49.89093" lon="2.24896">
        <ele>37.3</ele>
        <time>2021-09-05T09:33:23Z</time>
      </trkpt>
      <trkpt lat="49.89094" lon="2.24898">
        <ele>37.3</ele>
        <time>2021-09-05T09:33:25Z</time>
      </trkpt>
      <trkpt lat="49.89095" lon="2.249">
        <ele>37.3</ele>
        <time>2021-09-05T09:33:26Z</time>
      </trkpt>
      <trkpt lat="49.89096" lon="2.24901">
        <ele>37.4</ele>
        <time>2021-09-05T09:33:27Z</time>
      </trkpt>
      <trkpt lat="49.89097" lon="2.24903">
        <ele>37.4</ele>
        <time>2021-09-05T09:33:28Z</time>
      </trkpt>
      <trkpt lat="49.89098" lon="2.24904">
        <ele>37.4</ele>
        <time>2021-09-05T09:33:29Z</time>
      </trkpt>
      <trkpt lat="49.89099" lon="2.24906">
        <ele>37.4</ele>
        <time>2021-09-05T09:33:30Z</time>
      </trkpt>
      <trkpt lat="49.891" lon="2.24908">
        <ele>37.4</ele>
        <time>2021-09-05T09:33:31Z</time>
      </trkpt>
      <trkpt lat="49.89101" lon="2.2491">
        <ele>37.4</ele>
        <time>2021-09-05T09:33:32Z</time>
      </trkpt>
      <trkpt lat="49.89102" lon="2.24911">
        <ele>37.4</ele>
        <time>2021-09-05T09:33:33Z</time>
      </trkpt>
      <trkpt lat="49.89103" lon="2.24913">
        <ele>37.4</ele>
        <time>2021-09-05T09:33:34Z</time>
      </trkpt>
      <trkpt lat="49.89103" lon="2.24915">
        <ele>37.4</ele>
        <time>2021-09-05T09:33:35Z</time>
      </trkpt>
      <trkpt lat="49.89104" lon="2.24917">
        <ele>37.4</ele>
        <time>2021-09-05T09:33:36Z</time>
      </trkpt>
      <trkpt lat="49.89105" lon="2.24918">
        <ele>37.4</ele>
        <time>2021-09-05T09:33:37Z</time>
      </trkpt>
      <trkpt lat="49.89107" lon="2.2492">
        <ele>37.4</ele>
        <time>2021-09-05T09:33:39Z</time>
      </trkpt>
      <trkpt lat="49.89108" lon="2.24921">
        <ele>37.4</ele>
        <time>2021-09-05T09:33:40Z</time>
      </trkpt>
      <trkpt lat="49.89111" lon="2.24924">
        <ele>37.4</ele>
        <time>2021-09-05T09:33:42Z</time>
      </trkpt>
      <trkpt lat="49.89112" lon="2.24925">
        <ele>37.4</ele>
        <time>2021-09-05T09:33:43Z</time>
      </trkpt>
      <trkpt lat="49.89114" lon="2.24927">
        <ele>37.4</ele>
        <time>2021-09-05T09:33:45Z</time>
      </trkpt>
      <trkpt lat="49.89115" lon="2.24928">
        <ele>37.4</ele>
        <time>2021-09-05T09:33:46Z</time>
      </trkpt>
      <trkpt lat="49.89115" lon="2.24929">
        <ele>37.4</ele>
        <time>2021-09-05T09:33:47Z</time>
      </trkpt>
      <trkpt lat="49.89117" lon="2.24932">
        <ele>37.5</ele>
        <time>2021-09-05T09:33:49Z</time>
      </trkpt>
      <trkpt lat="49.89118" lon="2.24933">
        <ele>37.5</ele>
        <time>2021-09-05T09:33:50Z</time>
      </trkpt>
      <trkpt lat="49.89118" lon="2.24934">
        <ele>37.5</ele>
        <time>2021-09-05T09:33:51Z</time>
      </trkpt>
      <trkpt lat="49.89119" lon="2.24936">
        <ele>37.5</ele>
        <time>2021-09-05T09:33:52Z</time>
      </trkpt>
      <trkpt lat="49.89121" lon="2.24938">
        <ele>37.5</ele>
        <time>2021-09-05T09:33:53Z</time>
      </trkpt>
      <trkpt lat="49.89121" lon="2.24939">
        <ele>37.5</ele>
        <time>2021-09-05T09:33:55Z</time>
      </trkpt>
      <trkpt lat="49.89122" lon="2.2494">
        <ele>37.5</ele>
        <time>2021-09-05T09:33:56Z</time>
      </trkpt>
      <trkpt lat="49.89123" lon="2.24942">
        <ele>37.5</ele>
        <time>2021-09-05T09:33:57Z</time>
      </trkpt>
      <trkpt lat="49.89124" lon="2.24944">
        <ele>37.5</ele>
        <time>2021-09-05T09:33:58Z</time>
      </trkpt>
      <trkpt lat="49.89126" lon="2.24946">
        <ele>37.5</ele>
        <time>2021-09-05T09:34:00Z</time>
      </trkpt>
      <trkpt lat="49.89127" lon="2.24948">
        <ele>37.5</ele>
        <time>2021-09-05T09:34:01Z</time>
      </trkpt>
      <trkpt lat="49.89129" lon="2.24952">
        <ele>37.5</ele>
        <time>2021-09-05T09:34:03Z</time>
      </trkpt>
      <trkpt lat="49.89129" lon="2.24953">
        <ele>37.5</ele>
        <time>2021-09-05T09:34:04Z</time>
      </trkpt>
      <trkpt lat="49.8913" lon="2.24956">
        <ele>37.5</ele>
        <time>2021-09-05T09:34:05Z</time>
      </trkpt>
      <trkpt lat="49.89131" lon="2.24957">
        <ele>37.5</ele>
        <time>2021-09-05T09:34:06Z</time>
      </trkpt>
      <trkpt lat="49.89131" lon="2.24958">
        <ele>37.5</ele>
        <time>2021-09-05T09:34:07Z</time>
      </trkpt>
      <trkpt lat="49.89132" lon="2.2496">
        <ele>37.5</ele>
        <time>2021-09-05T09:34:08Z</time>
      </trkpt>
      <trkpt lat="49.89134" lon="2.24961">
        <ele>37.5</ele>
        <time>2021-09-05T09:34:10Z</time>
      </trkpt>
      <trkpt lat="49.89136" lon="2.24961">
        <ele>37.5</ele>
        <time>2021-09-05T09:34:11Z</time>
      </trkpt>
      <trkpt lat="49.89137" lon="2.24962">
        <ele>37.5</ele>
        <time>2021-09-05T09:34:12Z</time>
      </trkpt>
      <trkpt lat="49.89138" lon="2.24962">
        <ele>37.5</ele>
        <time>2021-09-05T09:34:13Z</time>
      </trkpt>
      <trkpt lat="49.89139" lon="2.24963">
        <ele>37.5</ele>
        <time>2021-09-05T09:34:14Z</time>
      </trkpt>
      <trkpt lat="49.8914" lon="2.24964">
        <ele>37.5</ele>
        <time>2021-09-05T09:34:16Z</time>
      </trkpt>
      <trkpt lat="49.89142" lon="2.24966">
        <ele>37.5</ele>
        <time>2021-09-05T09:34:17Z</time>
      </trkpt>
      <trkpt lat="49.89143" lon="2.24969">
        <ele>37.5</ele>
        <time>2021-09-05T09:34:19Z</time>
      </trkpt>
      <trkpt lat="49.89143" lon="2.24971">
        <ele>37.5</ele>
        <time>2021-09-05T09:34:20Z</time>
      </trkpt>
      <trkpt lat="49.89143" lon="2.24972">
        <ele>37.4</ele>
        <time>2021-09-05T09:34:21Z</time>
      </trkpt>
      <trkpt lat="49.89143" lon="2.24973">
        <ele>37.4</ele>
        <time>2021-09-05T09:34:22Z</time>
      </trkpt>
      <trkpt lat="49.89143" lon="2.24975">
        <ele>37.4</ele>
        <time>2021-09-05T09:34:23Z</time>
      </trkpt>
      <trkpt lat="49.89144" lon="2.24977">
        <ele>37.4</ele>
        <time>2021-09-05T09:34:25Z</time>
      </trkpt>
      <trkpt lat="49.89144" lon="2.24979">
        <ele>37.4</ele>
        <time>2021-09-05T09:34:26Z</time>
      </trkpt>
      <trkpt lat="49.89145" lon="2.24982">
        <ele>37.4</ele>
        <time>2021-09-05T09:34:27Z</time>
      </trkpt>
      <trkpt lat="49.89146" lon="2.24983">
        <ele>37.4</ele>
        <time>2021-09-05T09:34:28Z</time>
      </trkpt>
      <trkpt lat="49.89147" lon="2.24984">
        <ele>37.3</ele>
        <time>2021-09-05T09:34:29Z</time>
      </trkpt>
      <trkpt lat="49.89149" lon="2.24984">
        <ele>37.3</ele>
        <time>2021-09-05T09:34:30Z</time>
      </trkpt>
      <trkpt lat="49.8915" lon="2.24984">
        <ele>37.4</ele>
        <time>2021-09-05T09:34:31Z</time>
      </trkpt>
      <trkpt lat="49.89152" lon="2.24983">
        <ele>37.4</ele>
        <time>2021-09-05T09:34:32Z</time>
      </trkpt>
      <trkpt lat="49.89154" lon="2.24982">
        <ele>37.4</ele>
        <time>2021-09-05T09:34:33Z</time>
      </trkpt>
      <trkpt lat="49.89155" lon="2.2498">
        <ele>37.4</ele>
        <time>2021-09-05T09:34:35Z</time>
      </trkpt>
      <trkpt lat="49.89156" lon="2.24977">
        <ele>37.5</ele>
        <time>2021-09-05T09:34:37Z</time>
      </trkpt>
      <trkpt lat="49.89159" lon="2.24974">
        <ele>37.5</ele>
        <time>2021-09-05T09:34:38Z</time>
      </trkpt>
      <trkpt lat="49.89159" lon="2.24972">
        <ele>37.6</ele>
        <time>2021-09-05T09:34:39Z</time>
      </trkpt>
      <trkpt lat="49.89161" lon="2.2497">
        <ele>37.6</ele>
        <time>2021-09-05T09:34:40Z</time>
      </trkpt>
      <trkpt lat="49.89162" lon="2.24969">
        <ele>37.6</ele>
        <time>2021-09-05T09:34:41Z</time>
      </trkpt>
      <trkpt lat="49.89163" lon="2.24968">
        <ele>37.6</ele>
        <time>2021-09-05T09:34:42Z</time>
      </trkpt>
      <trkpt lat="49.89165" lon="2.24964">
        <ele>37.7</ele>
        <time>2021-09-05T09:34:43Z</time>
      </trkpt>
      <trkpt lat="49.89166" lon="2.24963">
        <ele>37.7</ele>
        <time>2021-09-05T09:34:44Z</time>
      </trkpt>
      <trkpt lat="49.89167" lon="2.24962">
        <ele>37.8</ele>
        <time>2021-09-05T09:34:45Z</time>
      </trkpt>
      <trkpt lat="49.89168" lon="2.2496">
        <ele>37.8</ele>
        <time>2021-09-05T09:34:46Z</time>
      </trkpt>
      <trkpt lat="49.89169" lon="2.24959">
        <ele>37.8</ele>
        <time>2021-09-05T09:34:48Z</time>
      </trkpt>
      <trkpt lat="49.89169" lon="2.24956">
        <ele>37.9</ele>
        <time>2021-09-05T09:34:49Z</time>
      </trkpt>
      <trkpt lat="49.89171" lon="2.24954">
        <ele>37.9</ele>
        <time>2021-09-05T09:34:50Z</time>
      </trkpt>
      <trkpt lat="49.89172" lon="2.24951">
        <ele>38</ele>
        <time>2021-09-05T09:34:51Z</time>
      </trkpt>
      <trkpt lat="49.89172" lon="2.2495">
        <ele>38</ele>
        <time>2021-09-05T09:34:52Z</time>
      </trkpt>
      <trkpt lat="49.89173" lon="2.24949">
        <ele>38</ele>
        <time>2021-09-05T09:34:53Z</time>
      </trkpt>
      <trkpt lat="49.89173" lon="2.24947">
        <ele>38.1</ele>
        <time>2021-09-05T09:34:54Z</time>
      </trkpt>
      <trkpt lat="49.89174" lon="2.24945">
        <ele>38.2</ele>
        <time>2021-09-05T09:34:55Z</time>
      </trkpt>
      <trkpt lat="49.89175" lon="2.24944">
        <ele>38.2</ele>
        <time>2021-09-05T09:34:56Z</time>
      </trkpt>
      <trkpt lat="49.89176" lon="2.24942">
        <ele>38.3</ele>
        <time>2021-09-05T09:34:58Z</time>
      </trkpt>
      <trkpt lat="49.89177" lon="2.24941">
        <ele>38.3</ele>
        <time>2021-09-05T09:34:59Z</time>
      </trkpt>
      <trkpt lat="49.89178" lon="2.24938">
        <ele>38.4</ele>
        <time>2021-09-05T09:35:00Z</time>
      </trkpt>
      <trkpt lat="49.89179" lon="2.24937">
        <ele>38.5</ele>
        <time>2021-09-05T09:35:01Z</time>
      </trkpt>
      <trkpt lat="49.8918" lon="2.24935">
        <ele>38.6</ele>
        <time>2021-09-05T09:35:02Z</time>
      </trkpt>
      <trkpt lat="49.89181" lon="2.24934">
        <ele>38.6</ele>
        <time>2021-09-05T09:35:03Z</time>
      </trkpt>
      <trkpt lat="49.89181" lon="2.24933">
        <ele>38.6</ele>
        <time>2021-09-05T09:35:04Z</time>
      </trkpt>
      <trkpt lat="49.89182" lon="2.24931">
        <ele>38.7</ele>
        <time>2021-09-05T09:35:05Z</time>
      </trkpt>
      <trkpt lat="49.89183" lon="2.2493">
        <ele>38.8</ele>
        <time>2021-09-05T09:35:06Z</time>
      </trkpt>
      <trkpt lat="49.89184" lon="2.24928">
        <ele>38.8</ele>
        <time>2021-09-05T09:35:08Z</time>
      </trkpt>
      <trkpt lat="49.89185" lon="2.24927">
        <ele>38.9</ele>
        <time>2021-09-05T09:35:09Z</time>
      </trkpt>
      <trkpt lat="49.89187" lon="2.24924">
        <ele>39</ele>
        <time>2021-09-05T09:35:10Z</time>
      </trkpt>
      <trkpt lat="49.89187" lon="2.24923">
        <ele>39</ele>
        <time>2021-09-05T09:35:11Z</time>
      </trkpt>
      <trkpt lat="49.89188" lon="2.24922">
        <ele>39.1</ele>
        <time>2021-09-05T09:35:12Z</time>
      </trkpt>
      <trkpt lat="49.89189" lon="2.2492">
        <ele>39.2</ele>
        <time>2021-09-05T09:35:13Z</time>
      </trkpt>
      <trkpt lat="49.8919" lon="2.24919">
        <ele>39.2</ele>
        <time>2021-09-05T09:35:14Z</time>
      </trkpt>
      <trkpt lat="49.8919" lon="2.24917">
        <ele>39.3</ele>
        <time>2021-09-05T09:35:15Z</time>
      </trkpt>
      <trkpt lat="49.89191" lon="2.24916">
        <ele>39.3</ele>
        <time>2021-09-05T09:35:16Z</time>
      </trkpt>
      <trkpt lat="49.89192" lon="2.24915">
        <ele>39.4</ele>
        <time>2021-09-05T09:35:17Z</time>
      </trkpt>
      <trkpt lat="49.89193" lon="2.24913">
        <ele>39.4</ele>
        <time>2021-09-05T09:35:18Z</time>
      </trkpt>
      <trkpt lat="49.89194" lon="2.24911">
        <ele>39.5</ele>
        <time>2021-09-05T09:35:19Z</time>
      </trkpt>
      <trkpt lat="49.89194" lon="2.2491">
        <ele>39.5</ele>
        <time>2021-09-05T09:35:20Z</time>
      </trkpt>
      <trkpt lat="49.89195" lon="2.24908">
        <ele>39.6</ele>
        <time>2021-09-05T09:35:21Z</time>
      </trkpt>
      <trkpt lat="49.89196" lon="2.24907">
        <ele>39.6</ele>
        <time>2021-09-05T09:35:23Z</time>
      </trkpt>
      <trkpt lat="49.89197" lon="2.24906">
        <ele>39.7</ele>
        <time>2021-09-05T09:35:24Z</time>
      </trkpt>
      <trkpt lat="49.89198" lon="2.24903">
        <ele>39.8</ele>
        <time>2021-09-05T09:35:25Z</time>
      </trkpt>
      <trkpt lat="49.89198" lon="2.24902">
        <ele>39.8</ele>
        <time>2021-09-05T09:35:26Z</time>
      </trkpt>
      <trkpt lat="49.89199" lon="2.24901">
        <ele>39.8</ele>
        <time>2021-09-05T09:35:27Z</time>
      </trkpt>
      <trkpt lat="49.892" lon="2.24899">
        <ele>39.9</ele>
        <time>2021-09-05T09:35:28Z</time>
      </trkpt>
      <trkpt lat="49.89201" lon="2.24896">
        <ele>40</ele>
        <time>2021-09-05T09:35:30Z</time>
      </trkpt>
      <trkpt lat="49.89201" lon="2.24896">
        <ele>40</ele>
        <time>2021-09-05T09:35:31Z</time>
      </trkpt>
      <trkpt lat="49.89202" lon="2.24894">
        <ele>40.1</ele>
        <time>2021-09-05T09:35:32Z</time>
      </trkpt>
      <trkpt lat="49.89203" lon="2.24893">
        <ele>40.1</ele>
        <time>2021-09-05T09:35:33Z</time>
      </trkpt>
      <trkpt lat="49.89203" lon="2.24891">
        <ele>40.2</ele>
        <time>2021-09-05T09:35:34Z</time>
      </trkpt>
      <trkpt lat="49.89204" lon="2.24889">
        <ele>40.3</ele>
        <time>2021-09-05T09:35:35Z</time>
      </trkpt>
      <trkpt lat="49.89205" lon="2.24887">
        <ele>40.3</ele>
        <time>2021-09-05T09:35:36Z</time>
      </trkpt>
      <trkpt lat="49.89205" lon="2.24885">
        <ele>40.4</ele>
        <time>2021-09-05T09:35:37Z</time>
      </trkpt>
      <trkpt lat="49.89206" lon="2.24884">
        <ele>40.5</ele>
        <time>2021-09-05T09:35:39Z</time>
      </trkpt>
      <trkpt lat="49.89207" lon="2.24881">
        <ele>40.6</ele>
        <time>2021-09-05T09:35:40Z</time>
      </trkpt>
      <trkpt lat="49.89208" lon="2.2488">
        <ele>40.6</ele>
        <time>2021-09-05T09:35:41Z</time>
      </trkpt>
      <trkpt lat="49.89208" lon="2.24879">
        <ele>40.6</ele>
        <time>2021-09-05T09:35:42Z</time>
      </trkpt>
      <trkpt lat="49.89209" lon="2.24876">
        <ele>40.8</ele>
        <time>2021-09-05T09:35:43Z</time>
      </trkpt>
      <trkpt lat="49.8921" lon="2.24874">
        <ele>40.8</ele>
        <time>2021-09-05T09:35:44Z</time>
      </trkpt>
      <trkpt lat="49.8921" lon="2.24873">
        <ele>40.9</ele>
        <time>2021-09-05T09:35:45Z</time>
      </trkpt>
      <trkpt lat="49.89211" lon="2.24871">
        <ele>40.9</ele>
        <time>2021-09-05T09:35:46Z</time>
      </trkpt>
      <trkpt lat="49.89211" lon="2.2487">
        <ele>41</ele>
        <time>2021-09-05T09:35:47Z</time>
      </trkpt>
      <trkpt lat="49.89212" lon="2.24869">
        <ele>41</ele>
        <time>2021-09-05T09:35:48Z</time>
      </trkpt>
      <trkpt lat="49.89212" lon="2.24867">
        <ele>41</ele>
        <time>2021-09-05T09:35:49Z</time>
      </trkpt>
      <trkpt lat="49.89214" lon="2.24865">
        <ele>41.2</ele>
        <time>2021-09-05T09:35:50Z</time>
      </trkpt>
      <trkpt lat="49.89214" lon="2.24864">
        <ele>41.2</ele>
        <time>2021-09-05T09:35:51Z</time>
      </trkpt>
      <trkpt lat="49.89214" lon="2.24863">
        <ele>41.2</ele>
        <time>2021-09-05T09:35:52Z</time>
      </trkpt>
      <trkpt lat="49.89215" lon="2.24861">
        <ele>41.3</ele>
        <time>2021-09-05T09:35:53Z</time>
      </trkpt>
      <trkpt lat="49.89216" lon="2.24859">
        <ele>41.3</ele>
        <time>2021-09-05T09:35:54Z</time>
      </trkpt>
      <trkpt lat="49.89217" lon="2.24858">
        <ele>41.4</ele>
        <time>2021-09-05T09:35:56Z</time>
      </trkpt>
      <trkpt lat="49.89217" lon="2.24856">
        <ele>41.4</ele>
        <time>2021-09-05T09:35:57Z</time>
      </trkpt>
      <trkpt lat="49.89218" lon="2.24855">
        <ele>41.5</ele>
        <time>2021-09-05T09:35:58Z</time>
      </trkpt>
      <trkpt lat="49.89218" lon="2.24853">
        <ele>41.6</ele>
        <time>2021-09-05T09:35:59Z</time>
      </trkpt>
      <trkpt lat="49.89219" lon="2.24851">
        <ele>41.6</ele>
        <time>2021-09-05T09:36:00Z</time>
      </trkpt>
      <trkpt lat="49.8922" lon="2.2485">
        <ele>41.7</ele>
        <time>2021-09-05T09:36:01Z</time>
      </trkpt>
      <trkpt lat="49.8922" lon="2.24848">
        <ele>41.7</ele>
        <time>2021-09-05T09:36:02Z</time>
      </trkpt>
      <trkpt lat="49.89221" lon="2.24847">
        <ele>41.8</ele>
        <time>2021-09-05T09:36:03Z</time>
      </trkpt>
      <trkpt lat="49.89222" lon="2.24846">
        <ele>41.8</ele>
        <time>2021-09-05T09:36:04Z</time>
      </trkpt>
      <trkpt lat="49.89223" lon="2.24843">
        <ele>41.9</ele>
        <time>2021-09-05T09:36:06Z</time>
      </trkpt>
      <trkpt lat="49.89223" lon="2.24841">
        <ele>42</ele>
        <time>2021-09-05T09:36:07Z</time>
      </trkpt>
      <trkpt lat="49.89224" lon="2.2484">
        <ele>42</ele>
        <time>2021-09-05T09:36:08Z</time>
      </trkpt>
      <trkpt lat="49.89225" lon="2.24838">
        <ele>42</ele>
        <time>2021-09-05T09:36:09Z</time>
      </trkpt>
      <trkpt lat="49.89225" lon="2.24836">
        <ele>42.1</ele>
        <time>2021-09-05T09:36:11Z</time>
      </trkpt>
      <trkpt lat="49.89226" lon="2.24835">
        <ele>42.2</ele>
        <time>2021-09-05T09:36:12Z</time>
      </trkpt>
      <trkpt lat="49.89227" lon="2.24832">
        <ele>42.3</ele>
        <time>2021-09-05T09:36:13Z</time>
      </trkpt>
      <trkpt lat="49.89228" lon="2.24831">
        <ele>42.3</ele>
        <time>2021-09-05T09:36:14Z</time>
      </trkpt>
      <trkpt lat="49.89228" lon="2.24829">
        <ele>42.3</ele>
        <time>2021-09-05T09:36:15Z</time>
      </trkpt>
      <trkpt lat="49.89228" lon="2.24829">
        <ele>42.4</ele>
        <time>2021-09-05T09:36:16Z</time>
      </trkpt>
      <trkpt lat="49.89229" lon="2.24828">
        <ele>42.4</ele>
        <time>2021-09-05T09:36:17Z</time>
      </trkpt>
      <trkpt lat="49.8923" lon="2.24826">
        <ele>42.4</ele>
        <time>2021-09-05T09:36:18Z</time>
      </trkpt>
      <trkpt lat="49.8923" lon="2.24825">
        <ele>42.5</ele>
        <time>2021-09-05T09:36:19Z</time>
      </trkpt>
      <trkpt lat="49.89231" lon="2.24823">
        <ele>42.6</ele>
        <time>2021-09-05T09:36:20Z</time>
      </trkpt>
      <trkpt lat="49.89232" lon="2.24822">
        <ele>42.6</ele>
        <time>2021-09-05T09:36:22Z</time>
      </trkpt>
      <trkpt lat="49.89232" lon="2.2482">
        <ele>42.7</ele>
        <time>2021-09-05T09:36:23Z</time>
      </trkpt>
      <trkpt lat="49.89233" lon="2.24819">
        <ele>42.7</ele>
        <time>2021-09-05T09:36:24Z</time>
      </trkpt>
      <trkpt lat="49.89234" lon="2.24816">
        <ele>42.8</ele>
        <time>2021-09-05T09:36:25Z</time>
      </trkpt>
      <trkpt lat="49.89234" lon="2.24815">
        <ele>42.8</ele>
        <time>2021-09-05T09:36:26Z</time>
      </trkpt>
      <trkpt lat="49.89235" lon="2.24814">
        <ele>42.8</ele>
        <time>2021-09-05T09:36:27Z</time>
      </trkpt>
      <trkpt lat="49.89235" lon="2.24813">
        <ele>42.9</ele>
        <time>2021-09-05T09:36:28Z</time>
      </trkpt>
      <trkpt lat="49.89236" lon="2.24812">
        <ele>42.9</ele>
        <time>2021-09-05T09:36:29Z</time>
      </trkpt>
      <trkpt lat="49.89236" lon="2.2481">
        <ele>43</ele>
        <time>2021-09-05T09:36:30Z</time>
      </trkpt>
      <trkpt lat="49.89237" lon="2.24808">
        <ele>43</ele>
        <time>2021-09-05T09:36:31Z</time>
      </trkpt>
      <trkpt lat="49.89237" lon="2.24807">
        <ele>43.1</ele>
        <time>2021-09-05T09:36:32Z</time>
      </trkpt>
      <trkpt lat="49.89238" lon="2.24805">
        <ele>43.1</ele>
        <time>2021-09-05T09:36:34Z</time>
      </trkpt>
      <trkpt lat="49.89238" lon="2.24804">
        <ele>43.2</ele>
        <time>2021-09-05T09:36:35Z</time>
      </trkpt>
      <trkpt lat="49.89239" lon="2.24802">
        <ele>43.2</ele>
        <time>2021-09-05T09:36:36Z</time>
      </trkpt>
      <trkpt lat="49.8924" lon="2.248">
        <ele>43.3</ele>
        <time>2021-09-05T09:36:37Z</time>
      </trkpt>
      <trkpt lat="49.89241" lon="2.24799">
        <ele>43.4</ele>
        <time>2021-09-05T09:36:38Z</time>
      </trkpt>
      <trkpt lat="49.89241" lon="2.24798">
        <ele>43.4</ele>
        <time>2021-09-05T09:36:39Z</time>
      </trkpt>
      <trkpt lat="49.89241" lon="2.24797">
        <ele>43.4</ele>
        <time>2021-09-05T09:36:40Z</time>
      </trkpt>
      <trkpt lat="49.89242" lon="2.24796">
        <ele>43.5</ele>
        <time>2021-09-05T09:36:41Z</time>
      </trkpt>
      <trkpt lat="49.89243" lon="2.24795">
        <ele>43.5</ele>
        <time>2021-09-05T09:36:42Z</time>
      </trkpt>
      <trkpt lat="49.89243" lon="2.24794">
        <ele>43.6</ele>
        <time>2021-09-05T09:36:43Z</time>
      </trkpt>
      <trkpt lat="49.89244" lon="2.24792">
        <ele>43.6</ele>
        <time>2021-09-05T09:36:45Z</time>
      </trkpt>
      <trkpt lat="49.89245" lon="2.24791">
        <ele>43.7</ele>
        <time>2021-09-05T09:36:46Z</time>
      </trkpt>
      <trkpt lat="49.89246" lon="2.24789">
        <ele>43.7</ele>
        <time>2021-09-05T09:36:47Z</time>
      </trkpt>
      <trkpt lat="49.89246" lon="2.24788">
        <ele>43.8</ele>
        <time>2021-09-05T09:36:48Z</time>
      </trkpt>
      <trkpt lat="49.89247" lon="2.24787">
        <ele>43.8</ele>
        <time>2021-09-05T09:36:49Z</time>
      </trkpt>
      <trkpt lat="49.89248" lon="2.24786">
        <ele>43.9</ele>
        <time>2021-09-05T09:36:50Z</time>
      </trkpt>
      <trkpt lat="49.89249" lon="2.24785">
        <ele>43.9</ele>
        <time>2021-09-05T09:36:51Z</time>
      </trkpt>
      <trkpt lat="49.8925" lon="2.24784">
        <ele>43.9</ele>
        <time>2021-09-05T09:36:52Z</time>
      </trkpt>
      <trkpt lat="49.89251" lon="2.24783">
        <ele>44</ele>
        <time>2021-09-05T09:36:53Z</time>
      </trkpt>
      <trkpt lat="49.89252" lon="2.24782">
        <ele>44.1</ele>
        <time>2021-09-05T09:36:54Z</time>
      </trkpt>
      <trkpt lat="49.89253" lon="2.2478">
        <ele>44.2</ele>
        <time>2021-09-05T09:36:55Z</time>
      </trkpt>
      <trkpt lat="49.89254" lon="2.24779">
        <ele>44.2</ele>
        <time>2021-09-05T09:36:56Z</time>
      </trkpt>
      <trkpt lat="49.89255" lon="2.24778">
        <ele>44.3</ele>
        <time>2021-09-05T09:36:58Z</time>
      </trkpt>
      <trkpt lat="49.89255" lon="2.24776">
        <ele>44.3</ele>
        <time>2021-09-05T09:36:59Z</time>
      </trkpt>
      <trkpt lat="49.89256" lon="2.24774">
        <ele>44.4</ele>
        <time>2021-09-05T09:37:00Z</time>
      </trkpt>
      <trkpt lat="49.89257" lon="2.24772">
        <ele>44.5</ele>
        <time>2021-09-05T09:37:01Z</time>
      </trkpt>
      <trkpt lat="49.89258" lon="2.24771">
        <ele>44.5</ele>
        <time>2021-09-05T09:37:02Z</time>
      </trkpt>
      <trkpt lat="49.89258" lon="2.24769">
        <ele>44.6</ele>
        <time>2021-09-05T09:37:03Z</time>
      </trkpt>
      <trkpt lat="49.89259" lon="2.24768">
        <ele>44.6</ele>
        <time>2021-09-05T09:37:04Z</time>
      </trkpt>
      <trkpt lat="49.8926" lon="2.24765">
        <ele>44.7</ele>
        <time>2021-09-05T09:37:06Z</time>
      </trkpt>
      <trkpt lat="49.8926" lon="2.24764">
        <ele>44.8</ele>
        <time>2021-09-05T09:37:07Z</time>
      </trkpt>
      <trkpt lat="49.89261" lon="2.24763">
        <ele>44.8</ele>
        <time>2021-09-05T09:37:08Z</time>
      </trkpt>
      <trkpt lat="49.89262" lon="2.24761">
        <ele>44.9</ele>
        <time>2021-09-05T09:37:09Z</time>
      </trkpt>
      <trkpt lat="49.89262" lon="2.24759">
        <ele>45</ele>
        <time>2021-09-05T09:37:10Z</time>
      </trkpt>
      <trkpt lat="49.89263" lon="2.24757">
        <ele>45</ele>
        <time>2021-09-05T09:37:11Z</time>
      </trkpt>
      <trkpt lat="49.89264" lon="2.24756">
        <ele>45.1</ele>
        <time>2021-09-05T09:37:12Z</time>
      </trkpt>
      <trkpt lat="49.89265" lon="2.24753">
        <ele>45.2</ele>
        <time>2021-09-05T09:37:13Z</time>
      </trkpt>
      <trkpt lat="49.89266" lon="2.24752">
        <ele>45.3</ele>
        <time>2021-09-05T09:37:14Z</time>
      </trkpt>
      <trkpt lat="49.89267" lon="2.2475">
        <ele>45.3</ele>
        <time>2021-09-05T09:37:15Z</time>
      </trkpt>
      <trkpt lat="49.89267" lon="2.24749">
        <ele>45.4</ele>
        <time>2021-09-05T09:37:16Z</time>
      </trkpt>
      <trkpt lat="49.89268" lon="2.24748">
        <ele>45.4</ele>
        <time>2021-09-05T09:37:17Z</time>
      </trkpt>
      <trkpt lat="49.89268" lon="2.24746">
        <ele>45.5</ele>
        <time>2021-09-05T09:37:18Z</time>
      </trkpt>
      <trkpt lat="49.89269" lon="2.24745">
        <ele>45.5</ele>
        <time>2021-09-05T09:37:19Z</time>
      </trkpt>
      <trkpt lat="49.8927" lon="2.24743">
        <ele>45.6</ele>
        <time>2021-09-05T09:37:20Z</time>
      </trkpt>
      <trkpt lat="49.89271" lon="2.24742">
        <ele>45.7</ele>
        <time>2021-09-05T09:37:22Z</time>
      </trkpt>
      <trkpt lat="49.89271" lon="2.24741">
        <ele>45.7</ele>
        <time>2021-09-05T09:37:23Z</time>
      </trkpt>
      <trkpt lat="49.89272" lon="2.24739">
        <ele>45.8</ele>
        <time>2021-09-05T09:37:24Z</time>
      </trkpt>
      <trkpt lat="49.89273" lon="2.24738">
        <ele>45.9</ele>
        <time>2021-09-05T09:37:25Z</time>
      </trkpt>
      <trkpt lat="49.89274" lon="2.24736">
        <ele>46</ele>
        <time>2021-09-05T09:37:26Z</time>
      </trkpt>
      <trkpt lat="49.89275" lon="2.24733">
        <ele>46.1</ele>
        <time>2021-09-05T09:37:27Z</time>
      </trkpt>
      <trkpt lat="49.89276" lon="2.24732">
        <ele>46.1</ele>
        <time>2021-09-05T09:37:28Z</time>
      </trkpt>
      <trkpt lat="49.89277" lon="2.24731">
        <ele>46.2</ele>
        <time>2021-09-05T09:37:29Z</time>
      </trkpt>
      <trkpt lat="49.89278" lon="2.24729">
        <ele>46.3</ele>
        <time>2021-09-05T09:37:30Z</time>
      </trkpt>
      <trkpt lat="49.89278" lon="2.24727">
        <ele>46.3</ele>
        <time>2021-09-05T09:37:31Z</time>
      </trkpt>
      <trkpt lat="49.89279" lon="2.24725">
        <ele>46.5</ele>
        <time>2021-09-05T09:37:32Z</time>
      </trkpt>
      <trkpt lat="49.8928" lon="2.24724">
        <ele>46.5</ele>
        <time>2021-09-05T09:37:33Z</time>
      </trkpt>
      <trkpt lat="49.8928" lon="2.24723">
        <ele>46.5</ele>
        <time>2021-09-05T09:37:34Z</time>
      </trkpt>
      <trkpt lat="49.89281" lon="2.2472">
        <ele>46.7</ele>
        <time>2021-09-05T09:37:36Z</time>
      </trkpt>
      <trkpt lat="49.89281" lon="2.24719">
        <ele>46.7</ele>
        <time>2021-09-05T09:37:37Z</time>
      </trkpt>
      <trkpt lat="49.89282" lon="2.24718">
        <ele>46.7</ele>
        <time>2021-09-05T09:37:38Z</time>
      </trkpt>
      <trkpt lat="49.89283" lon="2.24715">
        <ele>46.9</ele>
        <time>2021-09-05T09:37:39Z</time>
      </trkpt>
      <trkpt lat="49.89283" lon="2.24713">
        <ele>46.9</ele>
        <time>2021-09-05T09:37:40Z</time>
      </trkpt>
      <trkpt lat="49.89284" lon="2.24712">
        <ele>47</ele>
        <time>2021-09-05T09:37:41Z</time>
      </trkpt>
      <trkpt lat="49.89284" lon="2.2471">
        <ele>47</ele>
        <time>2021-09-05T09:37:42Z</time>
      </trkpt>
      <trkpt lat="49.89285" lon="2.24709">
        <ele>47.1</ele>
        <time>2021-09-05T09:37:43Z</time>
      </trkpt>
      <trkpt lat="49.89285" lon="2.24707">
        <ele>47.2</ele>
        <time>2021-09-05T09:37:44Z</time>
      </trkpt>
      <trkpt lat="49.89286" lon="2.24704">
        <ele>47.3</ele>
        <time>2021-09-05T09:37:45Z</time>
      </trkpt>
      <trkpt lat="49.89287" lon="2.24703">
        <ele>47.3</ele>
        <time>2021-09-05T09:37:46Z</time>
      </trkpt>
      <trkpt lat="49.89288" lon="2.247">
        <ele>47.4</ele>
        <time>2021-09-05T09:37:47Z</time>
      </trkpt>
      <trkpt lat="49.89288" lon="2.24699">
        <ele>47.5</ele>
        <time>2021-09-05T09:37:49Z</time>
      </trkpt>
      <trkpt lat="49.89288" lon="2.24698">
        <ele>47.5</ele>
        <time>2021-09-05T09:37:50Z</time>
      </trkpt>
      <trkpt lat="49.89289" lon="2.24695">
        <ele>47.6</ele>
        <time>2021-09-05T09:37:52Z</time>
      </trkpt>
      <trkpt lat="49.8929" lon="2.24694">
        <ele>47.7</ele>
        <time>2021-09-05T09:37:53Z</time>
      </trkpt>
      <trkpt lat="49.89291" lon="2.24691">
        <ele>47.8</ele>
        <time>2021-09-05T09:37:54Z</time>
      </trkpt>
      <trkpt lat="49.89292" lon="2.2469">
        <ele>47.8</ele>
        <time>2021-09-05T09:37:55Z</time>
      </trkpt>
      <trkpt lat="49.89293" lon="2.24688">
        <ele>47.9</ele>
        <time>2021-09-05T09:37:56Z</time>
      </trkpt>
      <trkpt lat="49.89293" lon="2.24687">
        <ele>47.9</ele>
        <time>2021-09-05T09:37:57Z</time>
      </trkpt>
      <trkpt lat="49.89294" lon="2.24685">
        <ele>48</ele>
        <time>2021-09-05T09:37:58Z</time>
      </trkpt>
      <trkpt lat="49.89295" lon="2.24684">
        <ele>48</ele>
        <time>2021-09-05T09:37:59Z</time>
      </trkpt>
      <trkpt lat="49.89296" lon="2.24682">
        <ele>48.1</ele>
        <time>2021-09-05T09:38:00Z</time>
      </trkpt>
      <trkpt lat="49.89297" lon="2.2468">
        <ele>48.2</ele>
        <time>2021-09-05T09:38:01Z</time>
      </trkpt>
      <trkpt lat="49.89297" lon="2.24679">
        <ele>48.2</ele>
        <time>2021-09-05T09:38:02Z</time>
      </trkpt>
      <trkpt lat="49.89298" lon="2.24677">
        <ele>48.3</ele>
        <time>2021-09-05T09:38:03Z</time>
      </trkpt>
      <trkpt lat="49.89299" lon="2.24675">
        <ele>48.4</ele>
        <time>2021-09-05T09:38:05Z</time>
      </trkpt>
      <trkpt lat="49.89299" lon="2.24672">
        <ele>48.4</ele>
        <time>2021-09-05T09:38:06Z</time>
      </trkpt>
      <trkpt lat="49.893" lon="2.24671">
        <ele>48.5</ele>
        <time>2021-09-05T09:38:07Z</time>
      </trkpt>
      <trkpt lat="49.893" lon="2.2467">
        <ele>48.5</ele>
        <time>2021-09-05T09:38:08Z</time>
      </trkpt>
      <trkpt lat="49.89301" lon="2.24667">
        <ele>48.6</ele>
        <time>2021-09-05T09:38:09Z</time>
      </trkpt>
      <trkpt lat="49.89302" lon="2.24665">
        <ele>48.7</ele>
        <time>2021-09-05T09:38:10Z</time>
      </trkpt>
      <trkpt lat="49.89302" lon="2.24664">
        <ele>48.7</ele>
        <time>2021-09-05T09:38:11Z</time>
      </trkpt>
      <trkpt lat="49.89303" lon="2.24662">
        <ele>48.8</ele>
        <time>2021-09-05T09:38:12Z</time>
      </trkpt>
      <trkpt lat="49.89304" lon="2.24661">
        <ele>48.8</ele>
        <time>2021-09-05T09:38:13Z</time>
      </trkpt>
      <trkpt lat="49.89304" lon="2.2466">
        <ele>48.9</ele>
        <time>2021-09-05T09:38:14Z</time>
      </trkpt>
      <trkpt lat="49.89306" lon="2.24656">
        <ele>49</ele>
        <time>2021-09-05T09:38:16Z</time>
      </trkpt>
      <trkpt lat="49.89306" lon="2.24656">
        <ele>49</ele>
        <time>2021-09-05T09:38:17Z</time>
      </trkpt>
      <trkpt lat="49.89307" lon="2.24655">
        <ele>49</ele>
        <time>2021-09-05T09:38:18Z</time>
      </trkpt>
      <trkpt lat="49.89308" lon="2.24653">
        <ele>49.1</ele>
        <time>2021-09-05T09:38:19Z</time>
      </trkpt>
      <trkpt lat="49.89309" lon="2.24651">
        <ele>49.2</ele>
        <time>2021-09-05T09:38:21Z</time>
      </trkpt>
      <trkpt lat="49.8931" lon="2.24649">
        <ele>49.2</ele>
        <time>2021-09-05T09:38:22Z</time>
      </trkpt>
      <trkpt lat="49.89311" lon="2.24648">
        <ele>49.3</ele>
        <time>2021-09-05T09:38:23Z</time>
      </trkpt>
      <trkpt lat="49.89312" lon="2.24647">
        <ele>49.3</ele>
        <time>2021-09-05T09:38:24Z</time>
      </trkpt>
      <trkpt lat="49.89313" lon="2.24644">
        <ele>49.4</ele>
        <time>2021-09-05T09:38:25Z</time>
      </trkpt>
      <trkpt lat="49.89314" lon="2.24643">
        <ele>49.5</ele>
        <time>2021-09-05T09:38:27Z</time>
      </trkpt>
      <trkpt lat="49.89315" lon="2.24641">
        <ele>49.5</ele>
        <time>2021-09-05T09:38:28Z</time>
      </trkpt>
      <trkpt lat="49.89315" lon="2.2464">
        <ele>49.6</ele>
        <time>2021-09-05T09:38:29Z</time>
      </trkpt>
      <trkpt lat="49.89316" lon="2.24639">
        <ele>49.6</ele>
        <time>2021-09-05T09:38:30Z</time>
      </trkpt>
      <trkpt lat="49.89317" lon="2.24637">
        <ele>49.7</ele>
        <time>2021-09-05T09:38:31Z</time>
      </trkpt>
      <trkpt lat="49.89318" lon="2.24635">
        <ele>49.7</ele>
        <time>2021-09-05T09:38:32Z</time>
      </trkpt>
      <trkpt lat="49.89318" lon="2.24634">
        <ele>49.8</ele>
        <time>2021-09-05T09:38:34Z</time>
      </trkpt>
      <trkpt lat="49.89319" lon="2.24633">
        <ele>49.8</ele>
        <time>2021-09-05T09:38:35Z</time>
      </trkpt>
      <trkpt lat="49.8932" lon="2.2463">
        <ele>49.9</ele>
        <time>2021-09-05T09:38:36Z</time>
      </trkpt>
      <trkpt lat="49.8932" lon="2.24629">
        <ele>49.9</ele>
        <time>2021-09-05T09:38:37Z</time>
      </trkpt>
      <trkpt lat="49.89321" lon="2.24628">
        <ele>50</ele>
        <time>2021-09-05T09:38:38Z</time>
      </trkpt>
      <trkpt lat="49.89321" lon="2.24626">
        <ele>50</ele>
        <time>2021-09-05T09:38:39Z</time>
      </trkpt>
      <trkpt lat="49.89322" lon="2.24624">
        <ele>50</ele>
        <time>2021-09-05T09:38:40Z</time>
      </trkpt>
      <trkpt lat="49.89323" lon="2.24622">
        <ele>50.1</ele>
        <time>2021-09-05T09:38:41Z</time>
      </trkpt>
      <trkpt lat="49.89323" lon="2.24621">
        <ele>50.2</ele>
        <time>2021-09-05T09:38:42Z</time>
      </trkpt>
      <trkpt lat="49.89324" lon="2.24619">
        <ele>50.2</ele>
        <time>2021-09-05T09:38:44Z</time>
      </trkpt>
      <trkpt lat="49.89325" lon="2.24617">
        <ele>50.3</ele>
        <time>2021-09-05T09:38:45Z</time>
      </trkpt>
      <trkpt lat="49.89325" lon="2.24615">
        <ele>50.3</ele>
        <time>2021-09-05T09:38:46Z</time>
      </trkpt>
      <trkpt lat="49.89326" lon="2.24614">
        <ele>50.4</ele>
        <time>2021-09-05T09:38:47Z</time>
      </trkpt>
      <trkpt lat="49.89327" lon="2.24612">
        <ele>50.4</ele>
        <time>2021-09-05T09:38:48Z</time>
      </trkpt>
      <trkpt lat="49.89327" lon="2.2461">
        <ele>50.5</ele>
        <time>2021-09-05T09:38:49Z</time>
      </trkpt>
      <trkpt lat="49.89329" lon="2.24607">
        <ele>50.6</ele>
        <time>2021-09-05T09:38:51Z</time>
      </trkpt>
      <trkpt lat="49.8933" lon="2.24604">
        <ele>50.7</ele>
        <time>2021-09-05T09:38:53Z</time>
      </trkpt>
      <trkpt lat="49.89331" lon="2.24603">
        <ele>50.7</ele>
        <time>2021-09-05T09:38:54Z</time>
      </trkpt>
      <trkpt lat="49.89331" lon="2.24602">
        <ele>50.7</ele>
        <time>2021-09-05T09:38:55Z</time>
      </trkpt>
      <trkpt lat="49.89332" lon="2.24599">
        <ele>50.8</ele>
        <time>2021-09-05T09:38:56Z</time>
      </trkpt>
      <trkpt lat="49.89333" lon="2.24598">
        <ele>50.9</ele>
        <time>2021-09-05T09:38:57Z</time>
      </trkpt>
      <trkpt lat="49.89334" lon="2.24596">
        <ele>50.9</ele>
        <time>2021-09-05T09:38:58Z</time>
      </trkpt>
      <trkpt lat="49.89334" lon="2.24595">
        <ele>51</ele>
        <time>2021-09-05T09:38:59Z</time>
      </trkpt>
      <trkpt lat="49.89335" lon="2.24594">
        <ele>51</ele>
        <time>2021-09-05T09:39:00Z</time>
      </trkpt>
      <trkpt lat="49.89336" lon="2.2459">
        <ele>51.1</ele>
        <time>2021-09-05T09:39:01Z</time>
      </trkpt>
      <trkpt lat="49.89337" lon="2.24589">
        <ele>51.2</ele>
        <time>2021-09-05T09:39:03Z</time>
      </trkpt>
      <trkpt lat="49.89338" lon="2.24587">
        <ele>51.2</ele>
        <time>2021-09-05T09:39:04Z</time>
      </trkpt>
      <trkpt lat="49.89338" lon="2.24586">
        <ele>51.3</ele>
        <time>2021-09-05T09:39:05Z</time>
      </trkpt>
      <trkpt lat="49.89339" lon="2.24584">
        <ele>51.3</ele>
        <time>2021-09-05T09:39:06Z</time>
      </trkpt>
      <trkpt lat="49.89339" lon="2.24583">
        <ele>51.4</ele>
        <time>2021-09-05T09:39:07Z</time>
      </trkpt>
      <trkpt lat="49.8934" lon="2.24581">
        <ele>51.4</ele>
        <time>2021-09-05T09:39:08Z</time>
      </trkpt>
      <trkpt lat="49.8934" lon="2.2458">
        <ele>51.5</ele>
        <time>2021-09-05T09:39:09Z</time>
      </trkpt>
      <trkpt lat="49.89341" lon="2.24578">
        <ele>51.5</ele>
        <time>2021-09-05T09:39:10Z</time>
      </trkpt>
      <trkpt lat="49.89342" lon="2.24576">
        <ele>51.6</ele>
        <time>2021-09-05T09:39:11Z</time>
      </trkpt>
      <trkpt lat="49.89343" lon="2.24575">
        <ele>51.6</ele>
        <time>2021-09-05T09:39:12Z</time>
      </trkpt>
      <trkpt lat="49.89344" lon="2.24573">
        <ele>51.7</ele>
        <time>2021-09-05T09:39:13Z</time>
      </trkpt>
      <trkpt lat="49.89344" lon="2.24572">
        <ele>51.7</ele>
        <time>2021-09-05T09:39:14Z</time>
      </trkpt>
      <trkpt lat="49.89345" lon="2.2457">
        <ele>51.8</ele>
        <time>2021-09-05T09:39:15Z</time>
      </trkpt>
      <trkpt lat="49.89346" lon="2.24568">
        <ele>51.8</ele>
        <time>2021-09-05T09:39:17Z</time>
      </trkpt>
      <trkpt lat="49.89347" lon="2.24567">
        <ele>51.9</ele>
        <time>2021-09-05T09:39:18Z</time>
      </trkpt>
      <trkpt lat="49.89348" lon="2.24564">
        <ele>52</ele>
        <time>2021-09-05T09:39:19Z</time>
      </trkpt>
      <trkpt lat="49.89348" lon="2.24563">
        <ele>52</ele>
        <time>2021-09-05T09:39:20Z</time>
      </trkpt>
      <trkpt lat="49.89349" lon="2.24562">
        <ele>52</ele>
        <time>2021-09-05T09:39:21Z</time>
      </trkpt>
      <trkpt lat="49.89349" lon="2.24561">
        <ele>52.1</ele>
        <time>2021-09-05T09:39:22Z</time>
      </trkpt>
      <trkpt lat="49.8935" lon="2.2456">
        <ele>52.1</ele>
        <time>2021-09-05T09:39:23Z</time>
      </trkpt>
      <trkpt lat="49.89351" lon="2.24559">
        <ele>52.1</ele>
        <time>2021-09-05T09:39:24Z</time>
      </trkpt>
      <trkpt lat="49.89351" lon="2.24557">
        <ele>52.2</ele>
        <time>2021-09-05T09:39:25Z</time>
      </trkpt>
      <trkpt lat="49.89352" lon="2.24556">
        <ele>52.2</ele>
        <time>2021-09-05T09:39:26Z</time>
      </trkpt>
      <trkpt lat="49.89353" lon="2.24555">
        <ele>52.3</ele>
        <time>2021-09-05T09:39:27Z</time>
      </trkpt>
      <trkpt lat="49.89354" lon="2.24554">
        <ele>52.3</ele>
        <time>2021-09-05T09:39:28Z</time>
      </trkpt>
      <trkpt lat="49.89355" lon="2.24552">
        <ele>52.3</ele>
        <time>2021-09-05T09:39:29Z</time>
      </trkpt>
      <trkpt lat="49.89355" lon="2.24551">
        <ele>52.4</ele>
        <time>2021-09-05T09:39:31Z</time>
      </trkpt>
      <trkpt lat="49.89356" lon="2.24549">
        <ele>52.4</ele>
        <time>2021-09-05T09:39:32Z</time>
      </trkpt>
      <trkpt lat="49.89357" lon="2.24548">
        <ele>52.5</ele>
        <time>2021-09-05T09:39:33Z</time>
      </trkpt>
      <trkpt lat="49.89357" lon="2.24546">
        <ele>52.5</ele>
        <time>2021-09-05T09:39:34Z</time>
      </trkpt>
      <trkpt lat="49.89358" lon="2.24545">
        <ele>52.5</ele>
        <time>2021-09-05T09:39:35Z</time>
      </trkpt>
      <trkpt lat="49.89359" lon="2.24543">
        <ele>52.6</ele>
        <time>2021-09-05T09:39:36Z</time>
      </trkpt>
      <trkpt lat="49.89359" lon="2.24542">
        <ele>52.6</ele>
        <time>2021-09-05T09:39:37Z</time>
      </trkpt>
      <trkpt lat="49.8936" lon="2.24541">
        <ele>52.6</ele>
        <time>2021-09-05T09:39:38Z</time>
      </trkpt>
      <trkpt lat="49.8936" lon="2.24539">
        <ele>52.7</ele>
        <time>2021-09-05T09:39:39Z</time>
      </trkpt>
      <trkpt lat="49.89361" lon="2.24537">
        <ele>52.7</ele>
        <time>2021-09-05T09:39:40Z</time>
      </trkpt>
      <trkpt lat="49.89362" lon="2.24535">
        <ele>52.8</ele>
        <time>2021-09-05T09:39:41Z</time>
      </trkpt>
      <trkpt lat="49.89363" lon="2.24533">
        <ele>52.8</ele>
        <time>2021-09-05T09:39:42Z</time>
      </trkpt>
      <trkpt lat="49.89363" lon="2.24532">
        <ele>52.8</ele>
        <time>2021-09-05T09:39:43Z</time>
      </trkpt>
      <trkpt lat="49.89364" lon="2.24531">
        <ele>52.9</ele>
        <time>2021-09-05T09:39:44Z</time>
      </trkpt>
      <trkpt lat="49.89364" lon="2.24529">
        <ele>52.9</ele>
        <time>2021-09-05T09:39:46Z</time>
      </trkpt>
      <trkpt lat="49.89365" lon="2.24528">
        <ele>53</ele>
        <time>2021-09-05T09:39:47Z</time>
      </trkpt>
      <trkpt lat="49.89366" lon="2.24526">
        <ele>53</ele>
        <time>2021-09-05T09:39:48Z</time>
      </trkpt>
      <trkpt lat="49.89367" lon="2.24524">
        <ele>53.1</ele>
        <time>2021-09-05T09:39:49Z</time>
      </trkpt>
      <trkpt lat="49.89368" lon="2.24523">
        <ele>53.1</ele>
        <time>2021-09-05T09:39:50Z</time>
      </trkpt>
      <trkpt lat="49.89369" lon="2.24522">
        <ele>53.1</ele>
        <time>2021-09-05T09:39:51Z</time>
      </trkpt>
      <trkpt lat="49.8937" lon="2.24519">
        <ele>53.2</ele>
        <time>2021-09-05T09:39:52Z</time>
      </trkpt>
      <trkpt lat="49.89371" lon="2.24518">
        <ele>53.2</ele>
        <time>2021-09-05T09:39:53Z</time>
      </trkpt>
      <trkpt lat="49.89371" lon="2.24518">
        <ele>53.2</ele>
        <time>2021-09-05T09:39:54Z</time>
      </trkpt>
      <trkpt lat="49.89372" lon="2.24516">
        <ele>53.3</ele>
        <time>2021-09-05T09:39:55Z</time>
      </trkpt>
      <trkpt lat="49.89373" lon="2.24514">
        <ele>53.3</ele>
        <time>2021-09-05T09:39:56Z</time>
      </trkpt>
      <trkpt lat="49.89374" lon="2.24512">
        <ele>53.3</ele>
        <time>2021-09-05T09:39:57Z</time>
      </trkpt>
      <trkpt lat="49.89375" lon="2.24511">
        <ele>53.4</ele>
        <time>2021-09-05T09:39:58Z</time>
      </trkpt>
      <trkpt lat="49.89375" lon="2.24509">
        <ele>53.4</ele>
        <time>2021-09-05T09:39:59Z</time>
      </trkpt>
      <trkpt lat="49.89376" lon="2.24508">
        <ele>53.4</ele>
        <time>2021-09-05T09:40:01Z</time>
      </trkpt>
      <trkpt lat="49.89377" lon="2.24506">
        <ele>53.5</ele>
        <time>2021-09-05T09:40:02Z</time>
      </trkpt>
      <trkpt lat="49.89377" lon="2.24505">
        <ele>53.5</ele>
        <time>2021-09-05T09:40:03Z</time>
      </trkpt>
      <trkpt lat="49.89378" lon="2.24503">
        <ele>53.5</ele>
        <time>2021-09-05T09:40:04Z</time>
      </trkpt>
      <trkpt lat="49.89378" lon="2.24502">
        <ele>53.5</ele>
        <time>2021-09-05T09:40:05Z</time>
      </trkpt>
      <trkpt lat="49.89379" lon="2.24501">
        <ele>53.6</ele>
        <time>2021-09-05T09:40:06Z</time>
      </trkpt>
      <trkpt lat="49.8938" lon="2.24499">
        <ele>53.6</ele>
        <time>2021-09-05T09:40:07Z</time>
      </trkpt>
      <trkpt lat="49.89381" lon="2.24497">
        <ele>53.6</ele>
        <time>2021-09-05T09:40:08Z</time>
      </trkpt>
      <trkpt lat="49.89382" lon="2.24496">
        <ele>53.6</ele>
        <time>2021-09-05T09:40:09Z</time>
      </trkpt>
      <trkpt lat="49.89383" lon="2.24494">
        <ele>53.7</ele>
        <time>2021-09-05T09:40:11Z</time>
      </trkpt>
      <trkpt lat="49.89384" lon="2.24492">
        <ele>53.7</ele>
        <time>2021-09-05T09:40:12Z</time>
      </trkpt>
      <trkpt lat="49.89384" lon="2.2449">
        <ele>53.7</ele>
        <time>2021-09-05T09:40:13Z</time>
      </trkpt>
      <trkpt lat="49.89385" lon="2.24489">
        <ele>53.8</ele>
        <time>2021-09-05T09:40:14Z</time>
      </trkpt>
      <trkpt lat="49.89386" lon="2.24487">
        <ele>53.8</ele>
        <time>2021-09-05T09:40:15Z</time>
      </trkpt>
      <trkpt lat="49.89386" lon="2.24486">
        <ele>53.8</ele>
        <time>2021-09-05T09:40:16Z</time>
      </trkpt>
      <trkpt lat="49.89387" lon="2.24484">
        <ele>53.8</ele>
        <time>2021-09-05T09:40:17Z</time>
      </trkpt>
      <trkpt lat="49.89387" lon="2.24484">
        <ele>53.8</ele>
        <time>2021-09-05T09:40:18Z</time>
      </trkpt>
      <trkpt lat="49.89388" lon="2.24482">
        <ele>53.9</ele>
        <time>2021-09-05T09:40:19Z</time>
      </trkpt>
      <trkpt lat="49.89388" lon="2.2448">
        <ele>53.9</ele>
        <time>2021-09-05T09:40:20Z</time>
      </trkpt>
      <trkpt lat="49.89389" lon="2.24478">
        <ele>53.9</ele>
        <time>2021-09-05T09:40:21Z</time>
      </trkpt>
      <trkpt lat="49.89389" lon="2.24477">
        <ele>53.9</ele>
        <time>2021-09-05T09:40:22Z</time>
      </trkpt>
      <trkpt lat="49.8939" lon="2.24475">
        <ele>53.9</ele>
        <time>2021-09-05T09:40:23Z</time>
      </trkpt>
      <trkpt lat="49.8939" lon="2.24473">
        <ele>53.9</ele>
        <time>2021-09-05T09:40:24Z</time>
      </trkpt>
      <trkpt lat="49.89391" lon="2.24471">
        <ele>53.9</ele>
        <time>2021-09-05T09:40:26Z</time>
      </trkpt>
      <trkpt lat="49.89391" lon="2.24469">
        <ele>53.9</ele>
        <time>2021-09-05T09:40:27Z</time>
      </trkpt>
      <trkpt lat="49.89391" lon="2.24465">
        <ele>53.9</ele>
        <time>2021-09-05T09:40:28Z</time>
      </trkpt>
      <trkpt lat="49.89391" lon="2.24464">
        <ele>53.9</ele>
        <time>2021-09-05T09:40:29Z</time>
      </trkpt>
      <trkpt lat="49.89391" lon="2.24462">
        <ele>53.9</ele>
        <time>2021-09-05T09:40:30Z</time>
      </trkpt>
      <trkpt lat="49.89391" lon="2.2446">
        <ele>53.9</ele>
        <time>2021-09-05T09:40:32Z</time>
      </trkpt>
      <trkpt lat="49.89391" lon="2.24459">
        <ele>53.9</ele>
        <time>2021-09-05T09:40:33Z</time>
      </trkpt>
      <trkpt lat="49.89391" lon="2.24457">
        <ele>53.9</ele>
        <time>2021-09-05T09:40:34Z</time>
      </trkpt>
      <trkpt lat="49.89392" lon="2.24456">
        <ele>53.9</ele>
        <time>2021-09-05T09:40:36Z</time>
      </trkpt>
      <trkpt lat="49.89392" lon="2.24455">
        <ele>53.9</ele>
        <time>2021-09-05T09:40:38Z</time>
      </trkpt>
      <trkpt lat="49.89391" lon="2.24457">
        <ele>53.9</ele>
        <time>2021-09-05T09:40:39Z</time>
      </trkpt>
      <trkpt lat="49.89391" lon="2.24457">
        <ele>53.9</ele>
        <time>2021-09-05T09:40:40Z</time>
      </trkpt>
      <trkpt lat="49.89391" lon="2.24456">
        <ele>53.9</ele>
        <time>2021-09-05T09:40:42Z</time>
      </trkpt>
      <trkpt lat="49.8939" lon="2.24456">
        <ele>53.9</ele>
        <time>2021-09-05T09:40:43Z</time>
      </trkpt>
      <trkpt lat="49.8939" lon="2.24454">
        <ele>53.9</ele>
        <time>2021-09-05T09:40:45Z</time>
      </trkpt>
      <trkpt lat="49.8939" lon="2.24454">
        <ele>53.9</ele>
        <time>2021-09-05T09:40:47Z</time>
      </trkpt>
      <trkpt lat="49.8939" lon="2.24454">
        <ele>53.9</ele>
        <time>2021-09-05T09:40:48Z</time>
      </trkpt>
      <trkpt lat="49.8939" lon="2.24453">
        <ele>54</ele>
        <time>2021-09-05T09:40:50Z</time>
      </trkpt>
      <trkpt lat="49.89389" lon="2.24452">
        <ele>54</ele>
        <time>2021-09-05T09:40:51Z</time>
      </trkpt>
      <trkpt lat="49.89389" lon="2.24452">
        <ele>54</ele>
        <time>2021-09-05T09:40:53Z</time>
      </trkpt>
      <trkpt lat="49.89388" lon="2.24451">
        <ele>54</ele>
        <time>2021-09-05T09:40:54Z</time>
      </trkpt>
      <trkpt lat="49.89387" lon="2.2445">
        <ele>54</ele>
        <time>2021-09-05T09:40:55Z</time>
      </trkpt>
      <trkpt lat="49.89386" lon="2.24448">
        <ele>54</ele>
        <time>2021-09-05T09:40:56Z</time>
      </trkpt>
      <trkpt lat="49.89385" lon="2.24447">
        <ele>54</ele>
        <time>2021-09-05T09:40:57Z</time>
      </trkpt>
      <trkpt lat="49.89385" lon="2.24446">
        <ele>54</ele>
        <time>2021-09-05T09:40:58Z</time>
      </trkpt>
      <trkpt lat="49.89384" lon="2.24444">
        <ele>54</ele>
        <time>2021-09-05T09:41:00Z</time>
      </trkpt>
      <trkpt lat="49.89382" lon="2.24443">
        <ele>54</ele>
        <time>2021-09-05T09:41:01Z</time>
      </trkpt>
      <trkpt lat="49.89381" lon="2.2444">
        <ele>54</ele>
        <time>2021-09-05T09:41:02Z</time>
      </trkpt>
      <trkpt lat="49.89379" lon="2.24438">
        <ele>54</ele>
        <time>2021-09-05T09:41:04Z</time>
      </trkpt>
      <trkpt lat="49.89378" lon="2.24436">
        <ele>54</ele>
        <time>2021-09-05T09:41:05Z</time>
      </trkpt>
      <trkpt lat="49.89377" lon="2.24434">
        <ele>54</ele>
        <time>2021-09-05T09:41:06Z</time>
      </trkpt>
      <trkpt lat="49.89376" lon="2.24432">
        <ele>54</ele>
        <time>2021-09-05T09:41:07Z</time>
      </trkpt>
      <trkpt lat="49.89376" lon="2.24431">
        <ele>54</ele>
        <time>2021-09-05T09:41:08Z</time>
      </trkpt>
      <trkpt lat="49.89375" lon="2.24429">
        <ele>54</ele>
        <time>2021-09-05T09:41:09Z</time>
      </trkpt>
      <trkpt lat="49.89374" lon="2.24427">
        <ele>54.1</ele>
        <time>2021-09-05T09:41:10Z</time>
      </trkpt>
      <trkpt lat="49.89373" lon="2.24425">
        <ele>54.1</ele>
        <time>2021-09-05T09:41:11Z</time>
      </trkpt>
      <trkpt lat="49.89372" lon="2.24424">
        <ele>54.1</ele>
        <time>2021-09-05T09:41:13Z</time>
      </trkpt>
      <trkpt lat="49.89372" lon="2.24423">
        <ele>54.1</ele>
        <time>2021-09-05T09:41:14Z</time>
      </trkpt>
      <trkpt lat="49.8937" lon="2.2442">
        <ele>54.1</ele>
        <time>2021-09-05T09:41:15Z</time>
      </trkpt>
      <trkpt lat="49.8937" lon="2.24419">
        <ele>54.1</ele>
        <time>2021-09-05T09:41:16Z</time>
      </trkpt>
      <trkpt lat="49.89369" lon="2.24417">
        <ele>54.1</ele>
        <time>2021-09-05T09:41:17Z</time>
      </trkpt>
      <trkpt lat="49.89368" lon="2.24415">
        <ele>54.1</ele>
        <time>2021-09-05T09:41:18Z</time>
      </trkpt>
      <trkpt lat="49.89368" lon="2.24414">
        <ele>54.1</ele>
        <time>2021-09-05T09:41:19Z</time>
      </trkpt>
      <trkpt lat="49.89367" lon="2.24412">
        <ele>54.1</ele>
        <time>2021-09-05T09:41:20Z</time>
      </trkpt>
      <trkpt lat="49.89366" lon="2.2441">
        <ele>54.1</ele>
        <time>2021-09-05T09:41:22Z</time>
      </trkpt>
      <trkpt lat="49.89365" lon="2.24407">
        <ele>54.1</ele>
        <time>2021-09-05T09:41:23Z</time>
      </trkpt>
      <trkpt lat="49.89364" lon="2.24406">
        <ele>54.1</ele>
        <time>2021-09-05T09:41:24Z</time>
      </trkpt>
      <trkpt lat="49.89363" lon="2.24403">
        <ele>54.1</ele>
        <time>2021-09-05T09:41:25Z</time>
      </trkpt>
      <trkpt lat="49.89362" lon="2.24401">
        <ele>54.1</ele>
        <time>2021-09-05T09:41:26Z</time>
      </trkpt>
      <trkpt lat="49.89361" lon="2.244">
        <ele>54.1</ele>
        <time>2021-09-05T09:41:27Z</time>
      </trkpt>
      <trkpt lat="49.8936" lon="2.24398">
        <ele>54.1</ele>
        <time>2021-09-05T09:41:28Z</time>
      </trkpt>
      <trkpt lat="49.89359" lon="2.24397">
        <ele>54.1</ele>
        <time>2021-09-05T09:41:30Z</time>
      </trkpt>
      <trkpt lat="49.89359" lon="2.24395">
        <ele>54.1</ele>
        <time>2021-09-05T09:41:31Z</time>
      </trkpt>
      <trkpt lat="49.89358" lon="2.24393">
        <ele>54.1</ele>
        <time>2021-09-05T09:41:32Z</time>
      </trkpt>
      <trkpt lat="49.89357" lon="2.24391">
        <ele>54.1</ele>
        <time>2021-09-05T09:41:34Z</time>
      </trkpt>
      <trkpt lat="49.89356" lon="2.24389">
        <ele>54.1</ele>
        <time>2021-09-05T09:41:35Z</time>
      </trkpt>
      <trkpt lat="49.89355" lon="2.24388">
        <ele>54.1</ele>
        <time>2021-09-05T09:41:36Z</time>
      </trkpt>
      <trkpt lat="49.89354" lon="2.24386">
        <ele>54.1</ele>
        <time>2021-09-05T09:41:37Z</time>
      </trkpt>
      <trkpt lat="49.89353" lon="2.24384">
        <ele>54.2</ele>
        <time>2021-09-05T09:41:38Z</time>
      </trkpt>
      <trkpt lat="49.89352" lon="2.24383">
        <ele>54.2</ele>
        <time>2021-09-05T09:41:39Z</time>
      </trkpt>
      <trkpt lat="49.89351" lon="2.24381">
        <ele>54.2</ele>
        <time>2021-09-05T09:41:41Z</time>
      </trkpt>
      <trkpt lat="49.8935" lon="2.24379">
        <ele>54.2</ele>
        <time>2021-09-05T09:41:42Z</time>
      </trkpt>
      <trkpt lat="49.89349" lon="2.24377">
        <ele>54.2</ele>
        <time>2021-09-05T09:41:43Z</time>
      </trkpt>
      <trkpt lat="49.89348" lon="2.24376">
        <ele>54.2</ele>
        <time>2021-09-05T09:41:44Z</time>
      </trkpt>
      <trkpt lat="49.89347" lon="2.24374">
        <ele>54.2</ele>
        <time>2021-09-05T09:41:45Z</time>
      </trkpt>
      <trkpt lat="49.89347" lon="2.24373">
        <ele>54.2</ele>
        <time>2021-09-05T09:41:46Z</time>
      </trkpt>
      <trkpt lat="49.89346" lon="2.24372">
        <ele>54.2</ele>
        <time>2021-09-05T09:41:47Z</time>
      </trkpt>
      <trkpt lat="49.89345" lon="2.2437">
        <ele>54.2</ele>
        <time>2021-09-05T09:41:48Z</time>
      </trkpt>
      <trkpt lat="49.89344" lon="2.24368">
        <ele>54.3</ele>
        <time>2021-09-05T09:41:49Z</time>
      </trkpt>
      <trkpt lat="49.89344" lon="2.24367">
        <ele>54.3</ele>
        <time>2021-09-05T09:41:50Z</time>
      </trkpt>
      <trkpt lat="49.89344" lon="2.24364">
        <ele>54.3</ele>
        <time>2021-09-05T09:41:52Z</time>
      </trkpt>
      <trkpt lat="49.89343" lon="2.24361">
        <ele>54.3</ele>
        <time>2021-09-05T09:41:53Z</time>
      </trkpt>
      <trkpt lat="49.89342" lon="2.2436">
        <ele>54.3</ele>
        <time>2021-09-05T09:41:54Z</time>
      </trkpt>
      <trkpt lat="49.89341" lon="2.24357">
        <ele>54.3</ele>
        <time>2021-09-05T09:41:55Z</time>
      </trkpt>
      <trkpt lat="49.89341" lon="2.24356">
        <ele>54.3</ele>
        <time>2021-09-05T09:41:56Z</time>
      </trkpt>
      <trkpt lat="49.8934" lon="2.24355">
        <ele>54.3</ele>
        <time>2021-09-05T09:41:57Z</time>
      </trkpt>
      <trkpt lat="49.89339" lon="2.24353">
        <ele>54.3</ele>
        <time>2021-09-05T09:41:58Z</time>
      </trkpt>
      <trkpt lat="49.89338" lon="2.24351">
        <ele>54.3</ele>
        <time>2021-09-05T09:41:59Z</time>
      </trkpt>
      <trkpt lat="49.89337" lon="2.24349">
        <ele>54.4</ele>
        <time>2021-09-05T09:42:00Z</time>
      </trkpt>
      <trkpt lat="49.89336" lon="2.24347">
        <ele>54.4</ele>
        <time>2021-09-05T09:42:01Z</time>
      </trkpt>
      <trkpt lat="49.89336" lon="2.24346">
        <ele>54.4</ele>
        <time>2021-09-05T09:42:02Z</time>
      </trkpt>
      <trkpt lat="49.89335" lon="2.24344">
        <ele>54.4</ele>
        <time>2021-09-05T09:42:03Z</time>
      </trkpt>
      <trkpt lat="49.89335" lon="2.24343">
        <ele>54.4</ele>
        <time>2021-09-05T09:42:04Z</time>
      </trkpt>
      <trkpt lat="49.89335" lon="2.24341">
        <ele>54.4</ele>
        <time>2021-09-05T09:42:05Z</time>
      </trkpt>
      <trkpt lat="49.89334" lon="2.2434">
        <ele>54.4</ele>
        <time>2021-09-05T09:42:06Z</time>
      </trkpt>
      <trkpt lat="49.89334" lon="2.24337">
        <ele>54.4</ele>
        <time>2021-09-05T09:42:08Z</time>
      </trkpt>
      <trkpt lat="49.89333" lon="2.24336">
        <ele>54.4</ele>
        <time>2021-09-05T09:42:10Z</time>
      </trkpt>
      <trkpt lat="49.89332" lon="2.24334">
        <ele>54.4</ele>
        <time>2021-09-05T09:42:11Z</time>
      </trkpt>
      <trkpt lat="49.89331" lon="2.24331">
        <ele>54.4</ele>
        <time>2021-09-05T09:42:13Z</time>
      </trkpt>
      <trkpt lat="49.8933" lon="2.2433">
        <ele>54.4</ele>
        <time>2021-09-05T09:42:14Z</time>
      </trkpt>
      <trkpt lat="49.89329" lon="2.24327">
        <ele>54.4</ele>
        <time>2021-09-05T09:42:15Z</time>
      </trkpt>
      <trkpt lat="49.89328" lon="2.24326">
        <ele>54.4</ele>
        <time>2021-09-05T09:42:16Z</time>
      </trkpt>
      <trkpt lat="49.89328" lon="2.24325">
        <ele>54.5</ele>
        <time>2021-09-05T09:42:17Z</time>
      </trkpt>
      <trkpt lat="49.89327" lon="2.24323">
        <ele>54.5</ele>
        <time>2021-09-05T09:42:18Z</time>
      </trkpt>
      <trkpt lat="49.89327" lon="2.24321">
        <ele>54.5</ele>
        <time>2021-09-05T09:42:19Z</time>
      </trkpt>
      <trkpt lat="49.89326" lon="2.2432">
        <ele>54.5</ele>
        <time>2021-09-05T09:42:21Z</time>
      </trkpt>
      <trkpt lat="49.89325" lon="2.24318">
        <ele>54.5</ele>
        <time>2021-09-05T09:42:22Z</time>
      </trkpt>
      <trkpt lat="49.89324" lon="2.24315">
        <ele>54.5</ele>
        <time>2021-09-05T09:42:23Z</time>
      </trkpt>
      <trkpt lat="49.89323" lon="2.24314">
        <ele>54.5</ele>
        <time>2021-09-05T09:42:24Z</time>
      </trkpt>
      <trkpt lat="49.89323" lon="2.24313">
        <ele>54.5</ele>
        <time>2021-09-05T09:42:25Z</time>
      </trkpt>
      <trkpt lat="49.89322" lon="2.24311">
        <ele>54.5</ele>
        <time>2021-09-05T09:42:26Z</time>
      </trkpt>
      <trkpt lat="49.89322" lon="2.2431">
        <ele>54.5</ele>
        <time>2021-09-05T09:42:27Z</time>
      </trkpt>
      <trkpt lat="49.89321" lon="2.24308">
        <ele>54.5</ele>
        <time>2021-09-05T09:42:28Z</time>
      </trkpt>
      <trkpt lat="49.8932" lon="2.24307">
        <ele>54.5</ele>
        <time>2021-09-05T09:42:29Z</time>
      </trkpt>
      <trkpt lat="49.8932" lon="2.24305">
        <ele>54.5</ele>
        <time>2021-09-05T09:42:30Z</time>
      </trkpt>
      <trkpt lat="49.89319" lon="2.24304">
        <ele>54.5</ele>
        <time>2021-09-05T09:42:31Z</time>
      </trkpt>
      <trkpt lat="49.89319" lon="2.24303">
        <ele>54.6</ele>
        <time>2021-09-05T09:42:32Z</time>
      </trkpt>
      <trkpt lat="49.89317" lon="2.243">
        <ele>54.6</ele>
        <time>2021-09-05T09:42:33Z</time>
      </trkpt>
      <trkpt lat="49.89317" lon="2.24299">
        <ele>54.6</ele>
        <time>2021-09-05T09:42:34Z</time>
      </trkpt>
      <trkpt lat="49.89316" lon="2.24298">
        <ele>54.6</ele>
        <time>2021-09-05T09:42:35Z</time>
      </trkpt>
      <trkpt lat="49.89316" lon="2.24296">
        <ele>54.6</ele>
        <time>2021-09-05T09:42:36Z</time>
      </trkpt>
      <trkpt lat="49.89315" lon="2.24294">
        <ele>54.6</ele>
        <time>2021-09-05T09:42:37Z</time>
      </trkpt>
      <trkpt lat="49.89314" lon="2.24292">
        <ele>54.6</ele>
        <time>2021-09-05T09:42:38Z</time>
      </trkpt>
      <trkpt lat="49.89314" lon="2.24291">
        <ele>54.6</ele>
        <time>2021-09-05T09:42:39Z</time>
      </trkpt>
      <trkpt lat="49.89313" lon="2.24289">
        <ele>54.6</ele>
        <time>2021-09-05T09:42:41Z</time>
      </trkpt>
      <trkpt lat="49.89312" lon="2.24287">
        <ele>54.7</ele>
        <time>2021-09-05T09:42:42Z</time>
      </trkpt>
      <trkpt lat="49.89311" lon="2.24285">
        <ele>54.7</ele>
        <time>2021-09-05T09:42:43Z</time>
      </trkpt>
      <trkpt lat="49.8931" lon="2.24282">
        <ele>54.7</ele>
        <time>2021-09-05T09:42:44Z</time>
      </trkpt>
      <trkpt lat="49.8931" lon="2.24281">
        <ele>54.7</ele>
        <time>2021-09-05T09:42:45Z</time>
      </trkpt>
      <trkpt lat="49.89309" lon="2.2428">
        <ele>54.7</ele>
        <time>2021-09-05T09:42:46Z</time>
      </trkpt>
      <trkpt lat="49.89308" lon="2.24277">
        <ele>54.8</ele>
        <time>2021-09-05T09:42:47Z</time>
      </trkpt>
      <trkpt lat="49.89308" lon="2.24276">
        <ele>54.8</ele>
        <time>2021-09-05T09:42:48Z</time>
      </trkpt>
      <trkpt lat="49.89307" lon="2.24274">
        <ele>54.8</ele>
        <time>2021-09-05T09:42:50Z</time>
      </trkpt>
      <trkpt lat="49.89306" lon="2.24271">
        <ele>54.8</ele>
        <time>2021-09-05T09:42:52Z</time>
      </trkpt>
      <trkpt lat="49.89305" lon="2.24268">
        <ele>54.9</ele>
        <time>2021-09-05T09:42:53Z</time>
      </trkpt>
      <trkpt lat="49.89304" lon="2.24267">
        <ele>54.9</ele>
        <time>2021-09-05T09:42:54Z</time>
      </trkpt>
      <trkpt lat="49.89304" lon="2.24265">
        <ele>54.9</ele>
        <time>2021-09-05T09:42:55Z</time>
      </trkpt>
      <trkpt lat="49.89303" lon="2.24263">
        <ele>54.9</ele>
        <time>2021-09-05T09:42:56Z</time>
      </trkpt>
      <trkpt lat="49.89303" lon="2.2426">
        <ele>54.9</ele>
        <time>2021-09-05T09:42:57Z</time>
      </trkpt>
      <trkpt lat="49.89303" lon="2.24258">
        <ele>55</ele>
        <time>2021-09-05T09:42:58Z</time>
      </trkpt>
      <trkpt lat="49.89303" lon="2.24255">
        <ele>55</ele>
        <time>2021-09-05T09:43:00Z</time>
      </trkpt>
      <trkpt lat="49.89303" lon="2.24253">
        <ele>55</ele>
        <time>2021-09-05T09:43:01Z</time>
      </trkpt>
      <trkpt lat="49.89303" lon="2.24249">
        <ele>55.1</ele>
        <time>2021-09-05T09:43:02Z</time>
      </trkpt>
      <trkpt lat="49.89303" lon="2.24247">
        <ele>55.1</ele>
        <time>2021-09-05T09:43:03Z</time>
      </trkpt>
      <trkpt lat="49.89304" lon="2.24245">
        <ele>55.1</ele>
        <time>2021-09-05T09:43:04Z</time>
      </trkpt>
      <trkpt lat="49.89305" lon="2.24243">
        <ele>55.2</ele>
        <time>2021-09-05T09:43:05Z</time>
      </trkpt>
      <trkpt lat="49.89305" lon="2.24242">
        <ele>55.2</ele>
        <time>2021-09-05T09:43:06Z</time>
      </trkpt>
      <trkpt lat="49.89306" lon="2.2424">
        <ele>55.2</ele>
        <time>2021-09-05T09:43:07Z</time>
      </trkpt>
      <trkpt lat="49.89306" lon="2.24238">
        <ele>55.2</ele>
        <time>2021-09-05T09:43:08Z</time>
      </trkpt>
      <trkpt lat="49.89307" lon="2.24237">
        <ele>55.2</ele>
        <time>2021-09-05T09:43:09Z</time>
      </trkpt>
      <trkpt lat="49.89307" lon="2.24236">
        <ele>55.3</ele>
        <time>2021-09-05T09:43:10Z</time>
      </trkpt>
      <trkpt lat="49.89307" lon="2.24234">
        <ele>55.3</ele>
        <time>2021-09-05T09:43:11Z</time>
      </trkpt>
      <trkpt lat="49.89308" lon="2.24232">
        <ele>55.3</ele>
        <time>2021-09-05T09:43:12Z</time>
      </trkpt>
      <trkpt lat="49.89308" lon="2.2423">
        <ele>55.3</ele>
        <time>2021-09-05T09:43:14Z</time>
      </trkpt>
      <trkpt lat="49.89308" lon="2.24228">
        <ele>55.3</ele>
        <time>2021-09-05T09:43:15Z</time>
      </trkpt>
      <trkpt lat="49.89309" lon="2.24225">
        <ele>55.4</ele>
        <time>2021-09-05T09:43:16Z</time>
      </trkpt>
      <trkpt lat="49.89309" lon="2.24223">
        <ele>55.4</ele>
        <time>2021-09-05T09:43:17Z</time>
      </trkpt>
      <trkpt lat="49.89309" lon="2.24222">
        <ele>55.4</ele>
        <time>2021-09-05T09:43:18Z</time>
      </trkpt>
      <trkpt lat="49.89308" lon="2.24219">
        <ele>55.5</ele>
        <time>2021-09-05T09:43:19Z</time>
      </trkpt>
      <trkpt lat="49.89308" lon="2.24218">
        <ele>55.5</ele>
        <time>2021-09-05T09:43:20Z</time>
      </trkpt>
      <trkpt lat="49.89307" lon="2.24216">
        <ele>55.5</ele>
        <time>2021-09-05T09:43:21Z</time>
      </trkpt>
      <trkpt lat="49.89307" lon="2.24214">
        <ele>55.5</ele>
        <time>2021-09-05T09:43:22Z</time>
      </trkpt>
      <trkpt lat="49.89306" lon="2.24212">
        <ele>55.6</ele>
        <time>2021-09-05T09:43:23Z</time>
      </trkpt>
      <trkpt lat="49.89305" lon="2.2421">
        <ele>55.6</ele>
        <time>2021-09-05T09:43:24Z</time>
      </trkpt>
      <trkpt lat="49.89305" lon="2.24209">
        <ele>55.6</ele>
        <time>2021-09-05T09:43:25Z</time>
      </trkpt>
      <trkpt lat="49.89304" lon="2.24207">
        <ele>55.6</ele>
        <time>2021-09-05T09:43:26Z</time>
      </trkpt>
      <trkpt lat="49.89303" lon="2.24204">
        <ele>55.7</ele>
        <time>2021-09-05T09:43:28Z</time>
      </trkpt>
      <trkpt lat="49.89302" lon="2.24203">
        <ele>55.7</ele>
        <time>2021-09-05T09:43:29Z</time>
      </trkpt>
      <trkpt lat="49.89302" lon="2.24203">
        <ele>55.7</ele>
        <time>2021-09-05T09:43:30Z</time>
      </trkpt>
      <trkpt lat="49.893" lon="2.242">
        <ele>55.7</ele>
        <time>2021-09-05T09:43:31Z</time>
      </trkpt>
      <trkpt lat="49.893" lon="2.24198">
        <ele>55.8</ele>
        <time>2021-09-05T09:43:32Z</time>
      </trkpt>
      <trkpt lat="49.89299" lon="2.24197">
        <ele>55.8</ele>
        <time>2021-09-05T09:43:33Z</time>
      </trkpt>
      <trkpt lat="49.89298" lon="2.24196">
        <ele>55.8</ele>
        <time>2021-09-05T09:43:34Z</time>
      </trkpt>
      <trkpt lat="49.89297" lon="2.24195">
        <ele>55.8</ele>
        <time>2021-09-05T09:43:35Z</time>
      </trkpt>
      <trkpt lat="49.89297" lon="2.24194">
        <ele>55.9</ele>
        <time>2021-09-05T09:43:36Z</time>
      </trkpt>
      <trkpt lat="49.89295" lon="2.24191">
        <ele>55.9</ele>
        <time>2021-09-05T09:43:38Z</time>
      </trkpt>
      <trkpt lat="49.89294" lon="2.24188">
        <ele>56</ele>
        <time>2021-09-05T09:43:40Z</time>
      </trkpt>
      <trkpt lat="49.89293" lon="2.24187">
        <ele>56</ele>
        <time>2021-09-05T09:43:41Z</time>
      </trkpt>
      <trkpt lat="49.89292" lon="2.24185">
        <ele>56</ele>
        <time>2021-09-05T09:43:42Z</time>
      </trkpt>
      <trkpt lat="49.89291" lon="2.24183">
        <ele>56.1</ele>
        <time>2021-09-05T09:43:43Z</time>
      </trkpt>
      <trkpt lat="49.8929" lon="2.24182">
        <ele>56.1</ele>
        <time>2021-09-05T09:43:44Z</time>
      </trkpt>
      <trkpt lat="49.89289" lon="2.24181">
        <ele>56.1</ele>
        <time>2021-09-05T09:43:45Z</time>
      </trkpt>
      <trkpt lat="49.89289" lon="2.2418">
        <ele>56.1</ele>
        <time>2021-09-05T09:43:46Z</time>
      </trkpt>
      <trkpt lat="49.89288" lon="2.24178">
        <ele>56.2</ele>
        <time>2021-09-05T09:43:47Z</time>
      </trkpt>
      <trkpt lat="49.89286" lon="2.24175">
        <ele>56.2</ele>
        <time>2021-09-05T09:43:48Z</time>
      </trkpt>
      <trkpt lat="49.89286" lon="2.24175">
        <ele>56.2</ele>
        <time>2021-09-05T09:43:49Z</time>
      </trkpt>
      <trkpt lat="49.89285" lon="2.24174">
        <ele>56.2</ele>
        <time>2021-09-05T09:43:50Z</time>
      </trkpt>
      <trkpt lat="49.89284" lon="2.24171">
        <ele>56.3</ele>
        <time>2021-09-05T09:43:52Z</time>
      </trkpt>
      <trkpt lat="49.89283" lon="2.24169">
        <ele>56.3</ele>
        <time>2021-09-05T09:43:53Z</time>
      </trkpt>
      <trkpt lat="49.89282" lon="2.24167">
        <ele>56.4</ele>
        <time>2021-09-05T09:43:54Z</time>
      </trkpt>
      <trkpt lat="49.89282" lon="2.24166">
        <ele>56.4</ele>
        <time>2021-09-05T09:43:55Z</time>
      </trkpt>
      <trkpt lat="49.89281" lon="2.24164">
        <ele>56.4</ele>
        <time>2021-09-05T09:43:57Z</time>
      </trkpt>
      <trkpt lat="49.89281" lon="2.24162">
        <ele>56.4</ele>
        <time>2021-09-05T09:43:58Z</time>
      </trkpt>
      <trkpt lat="49.8928" lon="2.2416">
        <ele>56.5</ele>
        <time>2021-09-05T09:43:59Z</time>
      </trkpt>
      <trkpt lat="49.89279" lon="2.24158">
        <ele>56.5</ele>
        <time>2021-09-05T09:44:00Z</time>
      </trkpt>
      <trkpt lat="49.89279" lon="2.24156">
        <ele>56.5</ele>
        <time>2021-09-05T09:44:01Z</time>
      </trkpt>
      <trkpt lat="49.89278" lon="2.24155">
        <ele>56.5</ele>
        <time>2021-09-05T09:44:02Z</time>
      </trkpt>
      <trkpt lat="49.89277" lon="2.24152">
        <ele>56.5</ele>
        <time>2021-09-05T09:44:03Z</time>
      </trkpt>
      <trkpt lat="49.89276" lon="2.24151">
        <ele>56.5</ele>
        <time>2021-09-05T09:44:04Z</time>
      </trkpt>
      <trkpt lat="49.89275" lon="2.24148">
        <ele>56.6</ele>
        <time>2021-09-05T09:44:05Z</time>
      </trkpt>
      <trkpt lat="49.89274" lon="2.24146">
        <ele>56.6</ele>
        <time>2021-09-05T09:44:07Z</time>
      </trkpt>
      <trkpt lat="49.89273" lon="2.24144">
        <ele>56.6</ele>
        <time>2021-09-05T09:44:09Z</time>
      </trkpt>
      <trkpt lat="49.89273" lon="2.24142">
        <ele>56.6</ele>
        <time>2021-09-05T09:44:10Z</time>
      </trkpt>
      <trkpt lat="49.89272" lon="2.2414">
        <ele>56.6</ele>
        <time>2021-09-05T09:44:11Z</time>
      </trkpt>
      <trkpt lat="49.89271" lon="2.24138">
        <ele>56.7</ele>
        <time>2021-09-05T09:44:12Z</time>
      </trkpt>
      <trkpt lat="49.8927" lon="2.24136">
        <ele>56.7</ele>
        <time>2021-09-05T09:44:13Z</time>
      </trkpt>
      <trkpt lat="49.8927" lon="2.24134">
        <ele>56.7</ele>
        <time>2021-09-05T09:44:14Z</time>
      </trkpt>
      <trkpt lat="49.89269" lon="2.24131">
        <ele>56.7</ele>
        <time>2021-09-05T09:44:16Z</time>
      </trkpt>
      <trkpt lat="49.89269" lon="2.2413">
        <ele>56.7</ele>
        <time>2021-09-05T09:44:17Z</time>
      </trkpt>
      <trkpt lat="49.89268" lon="2.24128">
        <ele>56.7</ele>
        <time>2021-09-05T09:44:18Z</time>
      </trkpt>
      <trkpt lat="49.89267" lon="2.24126">
        <ele>56.7</ele>
        <time>2021-09-05T09:44:19Z</time>
      </trkpt>
      <trkpt lat="49.89266" lon="2.24124">
        <ele>56.7</ele>
        <time>2021-09-05T09:44:20Z</time>
      </trkpt>
      <trkpt lat="49.89264" lon="2.24121">
        <ele>56.8</ele>
        <time>2021-09-05T09:44:22Z</time>
      </trkpt>
      <trkpt lat="49.89262" lon="2.24117">
        <ele>56.8</ele>
        <time>2021-09-05T09:44:24Z</time>
      </trkpt>
      <trkpt lat="49.89262" lon="2.24116">
        <ele>56.8</ele>
        <time>2021-09-05T09:44:25Z</time>
      </trkpt>
      <trkpt lat="49.89261" lon="2.24114">
        <ele>56.8</ele>
        <time>2021-09-05T09:44:26Z</time>
      </trkpt>
      <trkpt lat="49.8926" lon="2.24113">
        <ele>56.8</ele>
        <time>2021-09-05T09:44:27Z</time>
      </trkpt>
      <trkpt lat="49.89258" lon="2.24111">
        <ele>56.8</ele>
        <time>2021-09-05T09:44:29Z</time>
      </trkpt>
      <trkpt lat="49.89257" lon="2.2411">
        <ele>56.8</ele>
        <time>2021-09-05T09:44:30Z</time>
      </trkpt>
      <trkpt lat="49.89255" lon="2.24108">
        <ele>56.8</ele>
        <time>2021-09-05T09:44:31Z</time>
      </trkpt>
      <trkpt lat="49.89254" lon="2.24107">
        <ele>56.8</ele>
        <time>2021-09-05T09:44:32Z</time>
      </trkpt>
      <trkpt lat="49.89252" lon="2.24106">
        <ele>56.8</ele>
        <time>2021-09-05T09:44:33Z</time>
      </trkpt>
      <trkpt lat="49.89251" lon="2.24105">
        <ele>56.8</ele>
        <time>2021-09-05T09:44:35Z</time>
      </trkpt>
      <trkpt lat="49.89251" lon="2.24105">
        <ele>56.9</ele>
        <time>2021-09-05T09:44:36Z</time>
      </trkpt>
      <trkpt lat="49.89249" lon="2.24104">
        <ele>56.9</ele>
        <time>2021-09-05T09:44:37Z</time>
      </trkpt>
      <trkpt lat="49.89248" lon="2.24103">
        <ele>56.9</ele>
        <time>2021-09-05T09:44:38Z</time>
      </trkpt>
      <trkpt lat="49.89247" lon="2.24102">
        <ele>56.9</ele>
        <time>2021-09-05T09:44:39Z</time>
      </trkpt>
      <trkpt lat="49.89245" lon="2.24102">
        <ele>56.9</ele>
        <time>2021-09-05T09:44:40Z</time>
      </trkpt>
      <trkpt lat="49.89243" lon="2.24101">
        <ele>56.9</ele>
        <time>2021-09-05T09:44:42Z</time>
      </trkpt>
      <trkpt lat="49.89242" lon="2.24101">
        <ele>56.9</ele>
        <time>2021-09-05T09:44:43Z</time>
      </trkpt>
      <trkpt lat="49.8924" lon="2.24101">
        <ele>56.9</ele>
        <time>2021-09-05T09:44:44Z</time>
      </trkpt>
      <trkpt lat="49.89239" lon="2.241">
        <ele>56.9</ele>
        <time>2021-09-05T09:44:46Z</time>
      </trkpt>
      <trkpt lat="49.89238" lon="2.241">
        <ele>56.9</ele>
        <time>2021-09-05T09:44:47Z</time>
      </trkpt>
      <trkpt lat="49.89237" lon="2.241">
        <ele>56.9</ele>
        <time>2021-09-05T09:44:48Z</time>
      </trkpt>
      <trkpt lat="49.89235" lon="2.24099">
        <ele>56.9</ele>
        <time>2021-09-05T09:44:49Z</time>
      </trkpt>
      <trkpt lat="49.89233" lon="2.24098">
        <ele>56.9</ele>
        <time>2021-09-05T09:44:50Z</time>
      </trkpt>
      <trkpt lat="49.89232" lon="2.24098">
        <ele>56.9</ele>
        <time>2021-09-05T09:44:51Z</time>
      </trkpt>
      <trkpt lat="49.89231" lon="2.24097">
        <ele>56.9</ele>
        <time>2021-09-05T09:44:52Z</time>
      </trkpt>
      <trkpt lat="49.89229" lon="2.24097">
        <ele>56.9</ele>
        <time>2021-09-05T09:44:53Z</time>
      </trkpt>
      <trkpt lat="49.89228" lon="2.24096">
        <ele>56.9</ele>
        <time>2021-09-05T09:44:55Z</time>
      </trkpt>
      <trkpt lat="49.89227" lon="2.24096">
        <ele>56.9</ele>
        <time>2021-09-05T09:44:56Z</time>
      </trkpt>
      <trkpt lat="49.89226" lon="2.24095">
        <ele>57</ele>
        <time>2021-09-05T09:44:57Z</time>
      </trkpt>
      <trkpt lat="49.89225" lon="2.24095">
        <ele>57</ele>
        <time>2021-09-05T09:44:58Z</time>
      </trkpt>
      <trkpt lat="49.89223" lon="2.24094">
        <ele>57</ele>
        <time>2021-09-05T09:44:59Z</time>
      </trkpt>
      <trkpt lat="49.89222" lon="2.24093">
        <ele>57</ele>
        <time>2021-09-05T09:45:00Z</time>
      </trkpt>
      <trkpt lat="49.89221" lon="2.24092">
        <ele>57</ele>
        <time>2021-09-05T09:45:01Z</time>
      </trkpt>
      <trkpt lat="49.89219" lon="2.24091">
        <ele>57</ele>
        <time>2021-09-05T09:45:02Z</time>
      </trkpt>
      <trkpt lat="49.89217" lon="2.2409">
        <ele>57</ele>
        <time>2021-09-05T09:45:04Z</time>
      </trkpt>
      <trkpt lat="49.89217" lon="2.2409">
        <ele>57</ele>
        <time>2021-09-05T09:45:05Z</time>
      </trkpt>
      <trkpt lat="49.89215" lon="2.24088">
        <ele>57</ele>
        <time>2021-09-05T09:45:06Z</time>
      </trkpt>
      <trkpt lat="49.89214" lon="2.24087">
        <ele>57</ele>
        <time>2021-09-05T09:45:07Z</time>
      </trkpt>
      <trkpt lat="49.89213" lon="2.24086">
        <ele>57</ele>
        <time>2021-09-05T09:45:08Z</time>
      </trkpt>
      <trkpt lat="49.89212" lon="2.24085">
        <ele>57</ele>
        <time>2021-09-05T09:45:09Z</time>
      </trkpt>
      <trkpt lat="49.89211" lon="2.24085">
        <ele>57</ele>
        <time>2021-09-05T09:45:10Z</time>
      </trkpt>
      <trkpt lat="49.8921" lon="2.24084">
        <ele>57</ele>
        <time>2021-09-05T09:45:11Z</time>
      </trkpt>
      <trkpt lat="49.89209" lon="2.24083">
        <ele>57</ele>
        <time>2021-09-05T09:45:13Z</time>
      </trkpt>
      <trkpt lat="49.89207" lon="2.24082">
        <ele>56.9</ele>
        <time>2021-09-05T09:45:14Z</time>
      </trkpt>
      <trkpt lat="49.89206" lon="2.24081">
        <ele>56.9</ele>
        <time>2021-09-05T09:45:15Z</time>
      </trkpt>
      <trkpt lat="49.89205" lon="2.24081">
        <ele>56.9</ele>
        <time>2021-09-05T09:45:16Z</time>
      </trkpt>
      <trkpt lat="49.89205" lon="2.24081">
        <ele>56.9</ele>
        <time>2021-09-05T09:45:17Z</time>
      </trkpt>
      <trkpt lat="49.89204" lon="2.2408">
        <ele>56.9</ele>
        <time>2021-09-05T09:45:18Z</time>
      </trkpt>
      <trkpt lat="49.89202" lon="2.24079">
        <ele>56.9</ele>
        <time>2021-09-05T09:45:19Z</time>
      </trkpt>
      <trkpt lat="49.89201" lon="2.24079">
        <ele>56.9</ele>
        <time>2021-09-05T09:45:20Z</time>
      </trkpt>
      <trkpt lat="49.892" lon="2.24077">
        <ele>56.9</ele>
        <time>2021-09-05T09:45:22Z</time>
      </trkpt>
      <trkpt lat="49.89198" lon="2.24077">
        <ele>56.9</ele>
        <time>2021-09-05T09:45:23Z</time>
      </trkpt>
      <trkpt lat="49.89197" lon="2.24077">
        <ele>56.9</ele>
        <time>2021-09-05T09:45:24Z</time>
      </trkpt>
      <trkpt lat="49.89197" lon="2.24076">
        <ele>56.9</ele>
        <time>2021-09-05T09:45:25Z</time>
      </trkpt>
      <trkpt lat="49.89196" lon="2.24075">
        <ele>56.8</ele>
        <time>2021-09-05T09:45:26Z</time>
      </trkpt>
      <trkpt lat="49.89194" lon="2.24074">
        <ele>56.8</ele>
        <time>2021-09-05T09:45:27Z</time>
      </trkpt>
      <trkpt lat="49.89192" lon="2.24073">
        <ele>56.8</ele>
        <time>2021-09-05T09:45:29Z</time>
      </trkpt>
      <trkpt lat="49.89191" lon="2.24073">
        <ele>56.8</ele>
        <time>2021-09-05T09:45:30Z</time>
      </trkpt>
      <trkpt lat="49.8919" lon="2.24072">
        <ele>56.8</ele>
        <time>2021-09-05T09:45:31Z</time>
      </trkpt>
      <trkpt lat="49.89189" lon="2.24071">
        <ele>56.8</ele>
        <time>2021-09-05T09:45:32Z</time>
      </trkpt>
      <trkpt lat="49.89186" lon="2.2407">
        <ele>56.8</ele>
        <time>2021-09-05T09:45:34Z</time>
      </trkpt>
      <trkpt lat="49.89184" lon="2.24069">
        <ele>56.7</ele>
        <time>2021-09-05T09:45:35Z</time>
      </trkpt>
      <trkpt lat="49.89183" lon="2.24069">
        <ele>56.7</ele>
        <time>2021-09-05T09:45:36Z</time>
      </trkpt>
      <trkpt lat="49.89182" lon="2.24068">
        <ele>56.7</ele>
        <time>2021-09-05T09:45:37Z</time>
      </trkpt>
      <trkpt lat="49.8918" lon="2.24067">
        <ele>56.7</ele>
        <time>2021-09-05T09:45:38Z</time>
      </trkpt>
      <trkpt lat="49.89179" lon="2.24067">
        <ele>56.7</ele>
        <time>2021-09-05T09:45:39Z</time>
      </trkpt>
      <trkpt lat="49.89177" lon="2.24066">
        <ele>56.6</ele>
        <time>2021-09-05T09:45:41Z</time>
      </trkpt>
      <trkpt lat="49.89176" lon="2.24065">
        <ele>56.6</ele>
        <time>2021-09-05T09:45:42Z</time>
      </trkpt>
      <trkpt lat="49.89175" lon="2.24065">
        <ele>56.6</ele>
        <time>2021-09-05T09:45:43Z</time>
      </trkpt>
      <trkpt lat="49.89173" lon="2.24064">
        <ele>56.6</ele>
        <time>2021-09-05T09:45:44Z</time>
      </trkpt>
      <trkpt lat="49.89171" lon="2.24062">
        <ele>56.6</ele>
        <time>2021-09-05T09:45:46Z</time>
      </trkpt>
      <trkpt lat="49.8917" lon="2.24062">
        <ele>56.6</ele>
        <time>2021-09-05T09:45:47Z</time>
      </trkpt>
      <trkpt lat="49.89169" lon="2.24061">
        <ele>56.6</ele>
        <time>2021-09-05T09:45:48Z</time>
      </trkpt>
      <trkpt lat="49.89167" lon="2.2406">
        <ele>56.5</ele>
        <time>2021-09-05T09:45:49Z</time>
      </trkpt>
      <trkpt lat="49.89166" lon="2.24059">
        <ele>56.5</ele>
        <time>2021-09-05T09:45:51Z</time>
      </trkpt>
      <trkpt lat="49.89164" lon="2.24058">
        <ele>56.5</ele>
        <time>2021-09-05T09:45:52Z</time>
      </trkpt>
      <trkpt lat="49.89163" lon="2.24057">
        <ele>56.5</ele>
        <time>2021-09-05T09:45:53Z</time>
      </trkpt>
      <trkpt lat="49.89161" lon="2.24055">
        <ele>56.5</ele>
        <time>2021-09-05T09:45:54Z</time>
      </trkpt>
      <trkpt lat="49.89162" lon="2.24054">
        <ele>56.4</ele>
        <time>2021-09-05T09:45:55Z</time>
      </trkpt>
      <trkpt lat="49.89163" lon="2.24051">
        <ele>56.4</ele>
        <time>2021-09-05T09:45:57Z</time>
      </trkpt>
      <trkpt lat="49.89164" lon="2.24049">
        <ele>56.4</ele>
        <time>2021-09-05T09:45:58Z</time>
      </trkpt>
      <trkpt lat="49.89164" lon="2.2405">
        <ele>56.4</ele>
        <time>2021-09-05T09:45:59Z</time>
      </trkpt>
      <trkpt lat="49.89163" lon="2.2405">
        <ele>56.4</ele>
        <time>2021-09-05T09:46:01Z</time>
      </trkpt>
      <trkpt lat="49.89163" lon="2.2405">
        <ele>56.4</ele>
        <time>2021-09-05T09:46:02Z</time>
      </trkpt>
      <trkpt lat="49.89163" lon="2.2405">
        <ele>56.4</ele>
        <time>2021-09-05T09:46:04Z</time>
      </trkpt>
      <trkpt lat="49.89163" lon="2.2405">
        <ele>56.4</ele>
        <time>2021-09-05T09:46:05Z</time>
      </trkpt>
      <trkpt lat="49.89163" lon="2.2405">
        <ele>56.4</ele>
        <time>2021-09-05T09:46:07Z</time>
      </trkpt>
      <trkpt lat="49.89163" lon="2.2405">
        <ele>56.4</ele>
        <time>2021-09-05T09:46:08Z</time>
      </trkpt>
      <trkpt lat="49.89163" lon="2.2405">
        <ele>56.4</ele>
        <time>2021-09-05T09:46:10Z</time>
      </trkpt>
      <trkpt lat="49.89163" lon="2.2405">
        <ele>56.4</ele>
        <time>2021-09-05T09:46:11Z</time>
      </trkpt>
      <trkpt lat="49.89163" lon="2.2405">
        <ele>56.4</ele>
        <time>2021-09-05T09:46:13Z</time>
      </trkpt>
      <trkpt lat="49.89163" lon="2.24051">
        <ele>56.4</ele>
        <time>2021-09-05T09:46:14Z</time>
      </trkpt>
      <trkpt lat="49.89163" lon="2.24051">
        <ele>56.4</ele>
        <time>2021-09-05T09:46:16Z</time>
      </trkpt>
      <trkpt lat="49.89163" lon="2.24051">
        <ele>56.4</ele>
        <time>2021-09-05T09:46:17Z</time>
      </trkpt>
      <trkpt lat="49.89163" lon="2.24051">
        <ele>56.4</ele>
        <time>2021-09-05T09:46:18Z</time>
      </trkpt>
      <trkpt lat="49.89163" lon="2.24051">
        <ele>56.4</ele>
        <time>2021-09-05T09:46:20Z</time>
      </trkpt>
      <trkpt lat="49.89163" lon="2.24051">
        <ele>56.4</ele>
        <time>2021-09-05T09:46:21Z</time>
      </trkpt>
      <trkpt lat="49.89163" lon="2.24051">
        <ele>56.4</ele>
        <time>2021-09-05T09:46:22Z</time>
      </trkpt>
      <trkpt lat="49.89163" lon="2.24051">
        <ele>56.4</ele>
        <time>2021-09-05T09:46:24Z</time>
      </trkpt>
      <trkpt lat="49.89163" lon="2.24051">
        <ele>56.4</ele>
        <time>2021-09-05T09:46:25Z</time>
      </trkpt>
      <trkpt lat="49.89163" lon="2.24051">
        <ele>56.4</ele>
        <time>2021-09-05T09:46:27Z</time>
      </trkpt>
      <trkpt lat="49.89163" lon="2.24051">
        <ele>56.4</ele>
        <time>2021-09-05T09:46:28Z</time>
      </trkpt>
      <trkpt lat="49.89163" lon="2.24052">
        <ele>56.4</ele>
        <time>2021-09-05T09:46:29Z</time>
      </trkpt>
      <trkpt lat="49.89163" lon="2.24052">
        <ele>56.4</ele>
        <time>2021-09-05T09:46:30Z</time>
      </trkpt>
      <trkpt lat="49.89163" lon="2.24052">
        <ele>56.4</ele>
        <time>2021-09-05T09:46:32Z</time>
      </trkpt>
      <trkpt lat="49.89163" lon="2.24052">
        <ele>56.4</ele>
        <time>2021-09-05T09:46:34Z</time>
      </trkpt>
      <trkpt lat="49.89163" lon="2.24052">
        <ele>56.4</ele>
        <time>2021-09-05T09:46:35Z</time>
      </trkpt>
      <trkpt lat="49.89163" lon="2.24052">
        <ele>56.4</ele>
        <time>2021-09-05T09:46:37Z</time>
      </trkpt>
      <trkpt lat="49.89163" lon="2.24052">
        <ele>56.4</ele>
        <time>2021-09-05T09:46:38Z</time>
      </trkpt>
      <trkpt lat="49.89163" lon="2.24052">
        <ele>56.4</ele>
        <time>2021-09-05T09:46:39Z</time>
      </trkpt>
      <trkpt lat="49.89163" lon="2.24052">
        <ele>56.4</ele>
        <time>2021-09-05T09:46:40Z</time>
      </trkpt>
      <trkpt lat="49.89162" lon="2.24055">
        <ele>56.4</ele>
        <time>2021-09-05T09:46:41Z</time>
      </trkpt>
      <trkpt lat="49.89161" lon="2.24057">
        <ele>56.3</ele>
        <time>2021-09-05T09:46:42Z</time>
      </trkpt>
      <trkpt lat="49.8916" lon="2.24058">
        <ele>56.3</ele>
        <time>2021-09-05T09:46:44Z</time>
      </trkpt>
      <trkpt lat="49.89159" lon="2.24059">
        <ele>56.3</ele>
        <time>2021-09-05T09:46:45Z</time>
      </trkpt>
      <trkpt lat="49.89159" lon="2.24059">
        <ele>56.3</ele>
        <time>2021-09-05T09:46:46Z</time>
      </trkpt>
      <trkpt lat="49.89159" lon="2.24058">
        <ele>56.3</ele>
        <time>2021-09-05T09:46:47Z</time>
      </trkpt>
      <trkpt lat="49.8916" lon="2.24056">
        <ele>56.3</ele>
        <time>2021-09-05T09:46:49Z</time>
      </trkpt>
      <trkpt lat="49.89161" lon="2.24056">
        <ele>56.3</ele>
        <time>2021-09-05T09:46:50Z</time>
      </trkpt>
      <trkpt lat="49.89161" lon="2.24056">
        <ele>56.3</ele>
        <time>2021-09-05T09:46:51Z</time>
      </trkpt>
      <trkpt lat="49.89162" lon="2.24056">
        <ele>56.3</ele>
        <time>2021-09-05T09:46:52Z</time>
      </trkpt>
      <trkpt lat="49.89162" lon="2.24056">
        <ele>56.3</ele>
        <time>2021-09-05T09:46:54Z</time>
      </trkpt>
      <trkpt lat="49.89162" lon="2.24056">
        <ele>56.3</ele>
        <time>2021-09-05T09:46:55Z</time>
      </trkpt>
      <trkpt lat="49.89162" lon="2.24056">
        <ele>56.3</ele>
        <time>2021-09-05T09:46:56Z</time>
      </trkpt>
      <trkpt lat="49.89162" lon="2.24056">
        <ele>56.3</ele>
        <time>2021-09-05T09:46:58Z</time>
      </trkpt>
      <trkpt lat="49.89161" lon="2.24056">
        <ele>56.3</ele>
        <time>2021-09-05T09:46:59Z</time>
      </trkpt>
      <trkpt lat="49.89161" lon="2.24056">
        <ele>56.3</ele>
        <time>2021-09-05T09:47:01Z</time>
      </trkpt>
      <trkpt lat="49.89161" lon="2.24056">
        <ele>56.3</ele>
        <time>2021-09-05T09:47:02Z</time>
      </trkpt>
      <trkpt lat="49.89161" lon="2.24057">
        <ele>56.2</ele>
        <time>2021-09-05T09:47:04Z</time>
      </trkpt>
      <trkpt lat="49.8916" lon="2.24057">
        <ele>56.2</ele>
        <time>2021-09-05T09:47:05Z</time>
      </trkpt>
      <trkpt lat="49.8916" lon="2.24056">
        <ele>56.2</ele>
        <time>2021-09-05T09:47:06Z</time>
      </trkpt>
      <trkpt lat="49.89159" lon="2.24056">
        <ele>56.2</ele>
        <time>2021-09-05T09:47:07Z</time>
      </trkpt>
      <trkpt lat="49.89158" lon="2.24054">
        <ele>56.2</ele>
        <time>2021-09-05T09:47:08Z</time>
      </trkpt>
      <trkpt lat="49.89157" lon="2.24053">
        <ele>56.2</ele>
        <time>2021-09-05T09:47:09Z</time>
      </trkpt>
      <trkpt lat="49.89156" lon="2.2405">
        <ele>56.2</ele>
        <time>2021-09-05T09:47:10Z</time>
      </trkpt>
      <trkpt lat="49.89156" lon="2.24047">
        <ele>56.2</ele>
        <time>2021-09-05T09:47:11Z</time>
      </trkpt>
      <trkpt lat="49.89156" lon="2.24046">
        <ele>56.2</ele>
        <time>2021-09-05T09:47:13Z</time>
      </trkpt>
      <trkpt lat="49.89156" lon="2.24044">
        <ele>56.2</ele>
        <time>2021-09-05T09:47:14Z</time>
      </trkpt>
      <trkpt lat="49.89156" lon="2.24042">
        <ele>56.2</ele>
        <time>2021-09-05T09:47:15Z</time>
      </trkpt>
      <trkpt lat="49.89156" lon="2.24039">
        <ele>56.2</ele>
        <time>2021-09-05T09:47:16Z</time>
      </trkpt>
      <trkpt lat="49.89156" lon="2.24037">
        <ele>56.2</ele>
        <time>2021-09-05T09:47:17Z</time>
      </trkpt>
      <trkpt lat="49.89157" lon="2.24035">
        <ele>56.2</ele>
        <time>2021-09-05T09:47:18Z</time>
      </trkpt>
      <trkpt lat="49.89157" lon="2.24032">
        <ele>56.2</ele>
        <time>2021-09-05T09:47:19Z</time>
      </trkpt>
      <trkpt lat="49.89157" lon="2.2403">
        <ele>56.2</ele>
        <time>2021-09-05T09:47:20Z</time>
      </trkpt>
      <trkpt lat="49.89157" lon="2.24028">
        <ele>56.2</ele>
        <time>2021-09-05T09:47:21Z</time>
      </trkpt>
      <trkpt lat="49.89157" lon="2.24023">
        <ele>56.2</ele>
        <time>2021-09-05T09:47:23Z</time>
      </trkpt>
      <trkpt lat="49.89157" lon="2.24019">
        <ele>56.2</ele>
        <time>2021-09-05T09:47:24Z</time>
      </trkpt>
      <trkpt lat="49.89157" lon="2.24017">
        <ele>56.2</ele>
        <time>2021-09-05T09:47:25Z</time>
      </trkpt>
      <trkpt lat="49.89157" lon="2.24012">
        <ele>56.2</ele>
        <time>2021-09-05T09:47:26Z</time>
      </trkpt>
      <trkpt lat="49.89157" lon="2.24011">
        <ele>56.2</ele>
        <time>2021-09-05T09:47:27Z</time>
      </trkpt>
      <trkpt lat="49.89156" lon="2.24007">
        <ele>56.2</ele>
        <time>2021-09-05T09:47:28Z</time>
      </trkpt>
      <trkpt lat="49.89156" lon="2.24006">
        <ele>56.2</ele>
        <time>2021-09-05T09:47:29Z</time>
      </trkpt>
      <trkpt lat="49.89156" lon="2.24005">
        <ele>56.2</ele>
        <time>2021-09-05T09:47:30Z</time>
      </trkpt>
      <trkpt lat="49.89156" lon="2.24003">
        <ele>56.3</ele>
        <time>2021-09-05T09:47:31Z</time>
      </trkpt>
      <trkpt lat="49.89156" lon="2.24">
        <ele>56.3</ele>
        <time>2021-09-05T09:47:32Z</time>
      </trkpt>
      <trkpt lat="49.89155" lon="2.23997">
        <ele>56.3</ele>
        <time>2021-09-05T09:47:33Z</time>
      </trkpt>
      <trkpt lat="49.89155" lon="2.23995">
        <ele>56.3</ele>
        <time>2021-09-05T09:47:34Z</time>
      </trkpt>
      <trkpt lat="49.89155" lon="2.23994">
        <ele>56.3</ele>
        <time>2021-09-05T09:47:35Z</time>
      </trkpt>
      <trkpt lat="49.89154" lon="2.23993">
        <ele>56.3</ele>
        <time>2021-09-05T09:47:36Z</time>
      </trkpt>
      <trkpt lat="49.89154" lon="2.23991">
        <ele>56.3</ele>
        <time>2021-09-05T09:47:38Z</time>
      </trkpt>
      <trkpt lat="49.89154" lon="2.23989">
        <ele>56.3</ele>
        <time>2021-09-05T09:47:39Z</time>
      </trkpt>
      <trkpt lat="49.89154" lon="2.23988">
        <ele>56.3</ele>
        <time>2021-09-05T09:47:40Z</time>
      </trkpt>
      <trkpt lat="49.89153" lon="2.23985">
        <ele>56.4</ele>
        <time>2021-09-05T09:47:41Z</time>
      </trkpt>
      <trkpt lat="49.89153" lon="2.23984">
        <ele>56.4</ele>
        <time>2021-09-05T09:47:42Z</time>
      </trkpt>
      <trkpt lat="49.89152" lon="2.23982">
        <ele>56.4</ele>
        <time>2021-09-05T09:47:43Z</time>
      </trkpt>
      <trkpt lat="49.89152" lon="2.23981">
        <ele>56.4</ele>
        <time>2021-09-05T09:47:44Z</time>
      </trkpt>
      <trkpt lat="49.89151" lon="2.23977">
        <ele>56.4</ele>
        <time>2021-09-05T09:47:45Z</time>
      </trkpt>
      <trkpt lat="49.89151" lon="2.23976">
        <ele>56.4</ele>
        <time>2021-09-05T09:47:47Z</time>
      </trkpt>
      <trkpt lat="49.89151" lon="2.23974">
        <ele>56.4</ele>
        <time>2021-09-05T09:47:48Z</time>
      </trkpt>
      <trkpt lat="49.89151" lon="2.23972">
        <ele>56.5</ele>
        <time>2021-09-05T09:47:49Z</time>
      </trkpt>
      <trkpt lat="49.89151" lon="2.2397">
        <ele>56.5</ele>
        <time>2021-09-05T09:47:50Z</time>
      </trkpt>
      <trkpt lat="49.89151" lon="2.23967">
        <ele>56.5</ele>
        <time>2021-09-05T09:47:51Z</time>
      </trkpt>
      <trkpt lat="49.89151" lon="2.23963">
        <ele>56.5</ele>
        <time>2021-09-05T09:47:52Z</time>
      </trkpt>
      <trkpt lat="49.89151" lon="2.23962">
        <ele>56.6</ele>
        <time>2021-09-05T09:47:53Z</time>
      </trkpt>
      <trkpt lat="49.89151" lon="2.23961">
        <ele>56.6</ele>
        <time>2021-09-05T09:47:54Z</time>
      </trkpt>
      <trkpt lat="49.89151" lon="2.23959">
        <ele>56.6</ele>
        <time>2021-09-05T09:47:55Z</time>
      </trkpt>
      <trkpt lat="49.89151" lon="2.23956">
        <ele>56.6</ele>
        <time>2021-09-05T09:47:56Z</time>
      </trkpt>
      <trkpt lat="49.89151" lon="2.23953">
        <ele>56.6</ele>
        <time>2021-09-05T09:47:57Z</time>
      </trkpt>
      <trkpt lat="49.89151" lon="2.23951">
        <ele>56.6</ele>
        <time>2021-09-05T09:47:58Z</time>
      </trkpt>
      <trkpt lat="49.89151" lon="2.2395">
        <ele>56.7</ele>
        <time>2021-09-05T09:47:59Z</time>
      </trkpt>
      <trkpt lat="49.89152" lon="2.23947">
        <ele>56.7</ele>
        <time>2021-09-05T09:48:01Z</time>
      </trkpt>
      <trkpt lat="49.89152" lon="2.23945">
        <ele>56.7</ele>
        <time>2021-09-05T09:48:02Z</time>
      </trkpt>
      <trkpt lat="49.89152" lon="2.23944">
        <ele>56.7</ele>
        <time>2021-09-05T09:48:03Z</time>
      </trkpt>
      <trkpt lat="49.89152" lon="2.23941">
        <ele>56.7</ele>
        <time>2021-09-05T09:48:04Z</time>
      </trkpt>
      <trkpt lat="49.89152" lon="2.23939">
        <ele>56.8</ele>
        <time>2021-09-05T09:48:05Z</time>
      </trkpt>
      <trkpt lat="49.89152" lon="2.23936">
        <ele>56.8</ele>
        <time>2021-09-05T09:48:06Z</time>
      </trkpt>
      <trkpt lat="49.89151" lon="2.23934">
        <ele>56.8</ele>
        <time>2021-09-05T09:48:07Z</time>
      </trkpt>
      <trkpt lat="49.89151" lon="2.23932">
        <ele>56.8</ele>
        <time>2021-09-05T09:48:08Z</time>
      </trkpt>
      <trkpt lat="49.89151" lon="2.2393">
        <ele>56.8</ele>
        <time>2021-09-05T09:48:10Z</time>
      </trkpt>
      <trkpt lat="49.8915" lon="2.23926">
        <ele>56.8</ele>
        <time>2021-09-05T09:48:11Z</time>
      </trkpt>
      <trkpt lat="49.8915" lon="2.23925">
        <ele>56.9</ele>
        <time>2021-09-05T09:48:12Z</time>
      </trkpt>
      <trkpt lat="49.8915" lon="2.23924">
        <ele>56.9</ele>
        <time>2021-09-05T09:48:13Z</time>
      </trkpt>
      <trkpt lat="49.89149" lon="2.23922">
        <ele>56.9</ele>
        <time>2021-09-05T09:48:14Z</time>
      </trkpt>
      <trkpt lat="49.89148" lon="2.23919">
        <ele>56.9</ele>
        <time>2021-09-05T09:48:15Z</time>
      </trkpt>
      <trkpt lat="49.89148" lon="2.23918">
        <ele>56.9</ele>
        <time>2021-09-05T09:48:16Z</time>
      </trkpt>
      <trkpt lat="49.89147" lon="2.23916">
        <ele>56.9</ele>
        <time>2021-09-05T09:48:17Z</time>
      </trkpt>
      <trkpt lat="49.89147" lon="2.23914">
        <ele>56.9</ele>
        <time>2021-09-05T09:48:19Z</time>
      </trkpt>
      <trkpt lat="49.89146" lon="2.23912">
        <ele>56.9</ele>
        <time>2021-09-05T09:48:20Z</time>
      </trkpt>
      <trkpt lat="49.89146" lon="2.23909">
        <ele>56.9</ele>
        <time>2021-09-05T09:48:21Z</time>
      </trkpt>
      <trkpt lat="49.89145" lon="2.23908">
        <ele>56.9</ele>
        <time>2021-09-05T09:48:22Z</time>
      </trkpt>
      <trkpt lat="49.89145" lon="2.23907">
        <ele>56.9</ele>
        <time>2021-09-05T09:48:23Z</time>
      </trkpt>
      <trkpt lat="49.89145" lon="2.23905">
        <ele>56.9</ele>
        <time>2021-09-05T09:48:24Z</time>
      </trkpt>
      <trkpt lat="49.89145" lon="2.23904">
        <ele>56.9</ele>
        <time>2021-09-05T09:48:25Z</time>
      </trkpt>
      <trkpt lat="49.89144" lon="2.23901">
        <ele>56.9</ele>
        <time>2021-09-05T09:48:27Z</time>
      </trkpt>
      <trkpt lat="49.89144" lon="2.23899">
        <ele>56.9</ele>
        <time>2021-09-05T09:48:28Z</time>
      </trkpt>
      <trkpt lat="49.89144" lon="2.23897">
        <ele>56.9</ele>
        <time>2021-09-05T09:48:30Z</time>
      </trkpt>
      <trkpt lat="49.89143" lon="2.23894">
        <ele>56.9</ele>
        <time>2021-09-05T09:48:31Z</time>
      </trkpt>
      <trkpt lat="49.89143" lon="2.23891">
        <ele>56.9</ele>
        <time>2021-09-05T09:48:32Z</time>
      </trkpt>
      <trkpt lat="49.89143" lon="2.2389">
        <ele>56.9</ele>
        <time>2021-09-05T09:48:33Z</time>
      </trkpt>
      <trkpt lat="49.89143" lon="2.23889">
        <ele>56.9</ele>
        <time>2021-09-05T09:48:34Z</time>
      </trkpt>
      <trkpt lat="49.89143" lon="2.23887">
        <ele>56.9</ele>
        <time>2021-09-05T09:48:35Z</time>
      </trkpt>
      <trkpt lat="49.89142" lon="2.23884">
        <ele>56.9</ele>
        <time>2021-09-05T09:48:36Z</time>
      </trkpt>
      <trkpt lat="49.89142" lon="2.23882">
        <ele>56.9</ele>
        <time>2021-09-05T09:48:37Z</time>
      </trkpt>
      <trkpt lat="49.89141" lon="2.23881">
        <ele>56.9</ele>
        <time>2021-09-05T09:48:38Z</time>
      </trkpt>
      <trkpt lat="49.89141" lon="2.23879">
        <ele>57</ele>
        <time>2021-09-05T09:48:39Z</time>
      </trkpt>
      <trkpt lat="49.8914" lon="2.23876">
        <ele>57</ele>
        <time>2021-09-05T09:48:41Z</time>
      </trkpt>
      <trkpt lat="49.8914" lon="2.23875">
        <ele>57</ele>
        <time>2021-09-05T09:48:42Z</time>
      </trkpt>
      <trkpt lat="49.8914" lon="2.23872">
        <ele>57</ele>
        <time>2021-09-05T09:48:44Z</time>
      </trkpt>
      <trkpt lat="49.89139" lon="2.2387">
        <ele>57</ele>
        <time>2021-09-05T09:48:45Z</time>
      </trkpt>
      <trkpt lat="49.89139" lon="2.23867">
        <ele>57</ele>
        <time>2021-09-05T09:48:46Z</time>
      </trkpt>
      <trkpt lat="49.89139" lon="2.23865">
        <ele>57</ele>
        <time>2021-09-05T09:48:47Z</time>
      </trkpt>
      <trkpt lat="49.89138" lon="2.23862">
        <ele>57</ele>
        <time>2021-09-05T09:48:48Z</time>
      </trkpt>
      <trkpt lat="49.89138" lon="2.2386">
        <ele>57</ele>
        <time>2021-09-05T09:48:50Z</time>
      </trkpt>
      <trkpt lat="49.89138" lon="2.23858">
        <ele>57</ele>
        <time>2021-09-05T09:48:51Z</time>
      </trkpt>
      <trkpt lat="49.89138" lon="2.23855">
        <ele>57</ele>
        <time>2021-09-05T09:48:52Z</time>
      </trkpt>
      <trkpt lat="49.89137" lon="2.23854">
        <ele>57</ele>
        <time>2021-09-05T09:48:53Z</time>
      </trkpt>
      <trkpt lat="49.89137" lon="2.23853">
        <ele>57</ele>
        <time>2021-09-05T09:48:54Z</time>
      </trkpt>
      <trkpt lat="49.89137" lon="2.23849">
        <ele>57</ele>
        <time>2021-09-05T09:48:56Z</time>
      </trkpt>
      <trkpt lat="49.89137" lon="2.23848">
        <ele>57</ele>
        <time>2021-09-05T09:48:57Z</time>
      </trkpt>
      <trkpt lat="49.89137" lon="2.23846">
        <ele>57</ele>
        <time>2021-09-05T09:48:58Z</time>
      </trkpt>
      <trkpt lat="49.89136" lon="2.23844">
        <ele>57</ele>
        <time>2021-09-05T09:48:59Z</time>
      </trkpt>
      <trkpt lat="49.89136" lon="2.23841">
        <ele>57</ele>
        <time>2021-09-05T09:49:01Z</time>
      </trkpt>
      <trkpt lat="49.89136" lon="2.23837">
        <ele>57</ele>
        <time>2021-09-05T09:49:02Z</time>
      </trkpt>
      <trkpt lat="49.89136" lon="2.23835">
        <ele>57</ele>
        <time>2021-09-05T09:49:04Z</time>
      </trkpt>
      <trkpt lat="49.89135" lon="2.23833">
        <ele>57</ele>
        <time>2021-09-05T09:49:05Z</time>
      </trkpt>
      <trkpt lat="49.89135" lon="2.23831">
        <ele>57</ele>
        <time>2021-09-05T09:49:06Z</time>
      </trkpt>
      <trkpt lat="49.89135" lon="2.23829">
        <ele>57</ele>
        <time>2021-09-05T09:49:07Z</time>
      </trkpt>
      <trkpt lat="49.89135" lon="2.23827">
        <ele>57</ele>
        <time>2021-09-05T09:49:09Z</time>
      </trkpt>
      <trkpt lat="49.89135" lon="2.23825">
        <ele>57</ele>
        <time>2021-09-05T09:49:10Z</time>
      </trkpt>
      <trkpt lat="49.89135" lon="2.23823">
        <ele>57</ele>
        <time>2021-09-05T09:49:11Z</time>
      </trkpt>
      <trkpt lat="49.89135" lon="2.23822">
        <ele>57</ele>
        <time>2021-09-05T09:49:12Z</time>
      </trkpt>
      <trkpt lat="49.89135" lon="2.2382">
        <ele>57.1</ele>
        <time>2021-09-05T09:49:13Z</time>
      </trkpt>
      <trkpt lat="49.89135" lon="2.23817">
        <ele>57.1</ele>
        <time>2021-09-05T09:49:14Z</time>
      </trkpt>
      <trkpt lat="49.89134" lon="2.23816">
        <ele>57.1</ele>
        <time>2021-09-05T09:49:15Z</time>
      </trkpt>
      <trkpt lat="49.89134" lon="2.23814">
        <ele>57.1</ele>
        <time>2021-09-05T09:49:16Z</time>
      </trkpt>
      <trkpt lat="49.89134" lon="2.23813">
        <ele>57.1</ele>
        <time>2021-09-05T09:49:17Z</time>
      </trkpt>
      <trkpt lat="49.89134" lon="2.23812">
        <ele>57.1</ele>
        <time>2021-09-05T09:49:18Z</time>
      </trkpt>
      <trkpt lat="49.89134" lon="2.2381">
        <ele>57.1</ele>
        <time>2021-09-05T09:49:19Z</time>
      </trkpt>
      <trkpt lat="49.89133" lon="2.23805">
        <ele>57.1</ele>
        <time>2021-09-05T09:49:21Z</time>
      </trkpt>
      <trkpt lat="49.89133" lon="2.23804">
        <ele>57.1</ele>
        <time>2021-09-05T09:49:22Z</time>
      </trkpt>
      <trkpt lat="49.89133" lon="2.23802">
        <ele>57.2</ele>
        <time>2021-09-05T09:49:23Z</time>
      </trkpt>
      <trkpt lat="49.89133" lon="2.23799">
        <ele>57.2</ele>
        <time>2021-09-05T09:49:25Z</time>
      </trkpt>
      <trkpt lat="49.89133" lon="2.23796">
        <ele>57.2</ele>
        <time>2021-09-05T09:49:26Z</time>
      </trkpt>
      <trkpt lat="49.89132" lon="2.23794">
        <ele>57.2</ele>
        <time>2021-09-05T09:49:27Z</time>
      </trkpt>
      <trkpt lat="49.89132" lon="2.23792">
        <ele>57.2</ele>
        <time>2021-09-05T09:49:28Z</time>
      </trkpt>
      <trkpt lat="49.89132" lon="2.2379">
        <ele>57.3</ele>
        <time>2021-09-05T09:49:29Z</time>
      </trkpt>
      <trkpt lat="49.89131" lon="2.23788">
        <ele>57.3</ele>
        <time>2021-09-05T09:49:30Z</time>
      </trkpt>
      <trkpt lat="49.89131" lon="2.23785">
        <ele>57.3</ele>
        <time>2021-09-05T09:49:31Z</time>
      </trkpt>
      <trkpt lat="49.89131" lon="2.23784">
        <ele>57.3</ele>
        <time>2021-09-05T09:49:32Z</time>
      </trkpt>
      <trkpt lat="49.8913" lon="2.23782">
        <ele>57.4</ele>
        <time>2021-09-05T09:49:33Z</time>
      </trkpt>
      <trkpt lat="49.8913" lon="2.23779">
        <ele>57.4</ele>
        <time>2021-09-05T09:49:35Z</time>
      </trkpt>
      <trkpt lat="49.8913" lon="2.23777">
        <ele>57.4</ele>
        <time>2021-09-05T09:49:36Z</time>
      </trkpt>
      <trkpt lat="49.89129" lon="2.23775">
        <ele>57.5</ele>
        <time>2021-09-05T09:49:37Z</time>
      </trkpt>
      <trkpt lat="49.89129" lon="2.23772">
        <ele>57.5</ele>
        <time>2021-09-05T09:49:38Z</time>
      </trkpt>
      <trkpt lat="49.89129" lon="2.2377">
        <ele>57.5</ele>
        <time>2021-09-05T09:49:39Z</time>
      </trkpt>
      <trkpt lat="49.89128" lon="2.23769">
        <ele>57.5</ele>
        <time>2021-09-05T09:49:40Z</time>
      </trkpt>
      <trkpt lat="49.89128" lon="2.23767">
        <ele>57.6</ele>
        <time>2021-09-05T09:49:41Z</time>
      </trkpt>
      <trkpt lat="49.89128" lon="2.23765">
        <ele>57.6</ele>
        <time>2021-09-05T09:49:42Z</time>
      </trkpt>
      <trkpt lat="49.89127" lon="2.23764">
        <ele>57.6</ele>
        <time>2021-09-05T09:49:44Z</time>
      </trkpt>
      <trkpt lat="49.89127" lon="2.2376">
        <ele>57.7</ele>
        <time>2021-09-05T09:49:45Z</time>
      </trkpt>
      <trkpt lat="49.89127" lon="2.23759">
        <ele>57.7</ele>
        <time>2021-09-05T09:49:46Z</time>
      </trkpt>
      <trkpt lat="49.89127" lon="2.23758">
        <ele>57.7</ele>
        <time>2021-09-05T09:49:47Z</time>
      </trkpt>
      <trkpt lat="49.89127" lon="2.23756">
        <ele>57.7</ele>
        <time>2021-09-05T09:49:48Z</time>
      </trkpt>
      <trkpt lat="49.89126" lon="2.23755">
        <ele>57.8</ele>
        <time>2021-09-05T09:49:49Z</time>
      </trkpt>
      <trkpt lat="49.89126" lon="2.23754">
        <ele>57.8</ele>
        <time>2021-09-05T09:49:50Z</time>
      </trkpt>
      <trkpt lat="49.89126" lon="2.23751">
        <ele>57.8</ele>
        <time>2021-09-05T09:49:51Z</time>
      </trkpt>
      <trkpt lat="49.89125" lon="2.2375">
        <ele>57.8</ele>
        <time>2021-09-05T09:49:52Z</time>
      </trkpt>
      <trkpt lat="49.89125" lon="2.23749">
        <ele>57.9</ele>
        <time>2021-09-05T09:49:53Z</time>
      </trkpt>
      <trkpt lat="49.89125" lon="2.23746">
        <ele>57.9</ele>
        <time>2021-09-05T09:49:54Z</time>
      </trkpt>
      <trkpt lat="49.89124" lon="2.23744">
        <ele>57.9</ele>
        <time>2021-09-05T09:49:55Z</time>
      </trkpt>
      <trkpt lat="49.89124" lon="2.23743">
        <ele>58</ele>
        <time>2021-09-05T09:49:56Z</time>
      </trkpt>
      <trkpt lat="49.89124" lon="2.23741">
        <ele>58</ele>
        <time>2021-09-05T09:49:58Z</time>
      </trkpt>
      <trkpt lat="49.89123" lon="2.23739">
        <ele>58</ele>
        <time>2021-09-05T09:49:59Z</time>
      </trkpt>
      <trkpt lat="49.89123" lon="2.23737">
        <ele>58</ele>
        <time>2021-09-05T09:50:00Z</time>
      </trkpt>
      <trkpt lat="49.89123" lon="2.23735">
        <ele>58.1</ele>
        <time>2021-09-05T09:50:01Z</time>
      </trkpt>
      <trkpt lat="49.89122" lon="2.23733">
        <ele>58.1</ele>
        <time>2021-09-05T09:50:02Z</time>
      </trkpt>
      <trkpt lat="49.89122" lon="2.23731">
        <ele>58.1</ele>
        <time>2021-09-05T09:50:03Z</time>
      </trkpt>
      <trkpt lat="49.89121" lon="2.2373">
        <ele>58.2</ele>
        <time>2021-09-05T09:50:04Z</time>
      </trkpt>
      <trkpt lat="49.89121" lon="2.23729">
        <ele>58.2</ele>
        <time>2021-09-05T09:50:05Z</time>
      </trkpt>
      <trkpt lat="49.8912" lon="2.23728">
        <ele>58.2</ele>
        <time>2021-09-05T09:50:06Z</time>
      </trkpt>
      <trkpt lat="49.8912" lon="2.23726">
        <ele>58.2</ele>
        <time>2021-09-05T09:50:07Z</time>
      </trkpt>
      <trkpt lat="49.89119" lon="2.23725">
        <ele>58.2</ele>
        <time>2021-09-05T09:50:08Z</time>
      </trkpt>
      <trkpt lat="49.89119" lon="2.23723">
        <ele>58.3</ele>
        <time>2021-09-05T09:50:09Z</time>
      </trkpt>
      <trkpt lat="49.89118" lon="2.23722">
        <ele>58.3</ele>
        <time>2021-09-05T09:50:11Z</time>
      </trkpt>
      <trkpt lat="49.89117" lon="2.2372">
        <ele>58.3</ele>
        <time>2021-09-05T09:50:12Z</time>
      </trkpt>
      <trkpt lat="49.89117" lon="2.23718">
        <ele>58.3</ele>
        <time>2021-09-05T09:50:13Z</time>
      </trkpt>
      <trkpt lat="49.89116" lon="2.23717">
        <ele>58.4</ele>
        <time>2021-09-05T09:50:14Z</time>
      </trkpt>
      <trkpt lat="49.89115" lon="2.23716">
        <ele>58.4</ele>
        <time>2021-09-05T09:50:15Z</time>
      </trkpt>
      <trkpt lat="49.89115" lon="2.23714">
        <ele>58.4</ele>
        <time>2021-09-05T09:50:16Z</time>
      </trkpt>
      <trkpt lat="49.89114" lon="2.23711">
        <ele>58.5</ele>
        <time>2021-09-05T09:50:17Z</time>
      </trkpt>
      <trkpt lat="49.89113" lon="2.2371">
        <ele>58.5</ele>
        <time>2021-09-05T09:50:18Z</time>
      </trkpt>
      <trkpt lat="49.89112" lon="2.23707">
        <ele>58.5</ele>
        <time>2021-09-05T09:50:19Z</time>
      </trkpt>
      <trkpt lat="49.89111" lon="2.23705">
        <ele>58.5</ele>
        <time>2021-09-05T09:50:20Z</time>
      </trkpt>
      <trkpt lat="49.89111" lon="2.23704">
        <ele>58.6</ele>
        <time>2021-09-05T09:50:21Z</time>
      </trkpt>
      <trkpt lat="49.8911" lon="2.23703">
        <ele>58.6</ele>
        <time>2021-09-05T09:50:22Z</time>
      </trkpt>
      <trkpt lat="49.8911" lon="2.23701">
        <ele>58.6</ele>
        <time>2021-09-05T09:50:23Z</time>
      </trkpt>
      <trkpt lat="49.89109" lon="2.23699">
        <ele>58.6</ele>
        <time>2021-09-05T09:50:24Z</time>
      </trkpt>
      <trkpt lat="49.89108" lon="2.23698">
        <ele>58.6</ele>
        <time>2021-09-05T09:50:25Z</time>
      </trkpt>
      <trkpt lat="49.89107" lon="2.23695">
        <ele>58.7</ele>
        <time>2021-09-05T09:50:27Z</time>
      </trkpt>
      <trkpt lat="49.89106" lon="2.23694">
        <ele>58.7</ele>
        <time>2021-09-05T09:50:28Z</time>
      </trkpt>
      <trkpt lat="49.89106" lon="2.23693">
        <ele>58.7</ele>
        <time>2021-09-05T09:50:29Z</time>
      </trkpt>
      <trkpt lat="49.89105" lon="2.23691">
        <ele>58.7</ele>
        <time>2021-09-05T09:50:30Z</time>
      </trkpt>
      <trkpt lat="49.89105" lon="2.23689">
        <ele>58.7</ele>
        <time>2021-09-05T09:50:31Z</time>
      </trkpt>
      <trkpt lat="49.89104" lon="2.23687">
        <ele>58.8</ele>
        <time>2021-09-05T09:50:32Z</time>
      </trkpt>
      <trkpt lat="49.89103" lon="2.23686">
        <ele>58.8</ele>
        <time>2021-09-05T09:50:33Z</time>
      </trkpt>
      <trkpt lat="49.89103" lon="2.23685">
        <ele>58.8</ele>
        <time>2021-09-05T09:50:34Z</time>
      </trkpt>
      <trkpt lat="49.89103" lon="2.23683">
        <ele>58.8</ele>
        <time>2021-09-05T09:50:35Z</time>
      </trkpt>
      <trkpt lat="49.89102" lon="2.2368">
        <ele>58.9</ele>
        <time>2021-09-05T09:50:37Z</time>
      </trkpt>
      <trkpt lat="49.89101" lon="2.23679">
        <ele>58.9</ele>
        <time>2021-09-05T09:50:38Z</time>
      </trkpt>
      <trkpt lat="49.89101" lon="2.23677">
        <ele>58.9</ele>
        <time>2021-09-05T09:50:39Z</time>
      </trkpt>
      <trkpt lat="49.891" lon="2.23675">
        <ele>58.9</ele>
        <time>2021-09-05T09:50:40Z</time>
      </trkpt>
      <trkpt lat="49.89099" lon="2.23671">
        <ele>59</ele>
        <time>2021-09-05T09:50:42Z</time>
      </trkpt>
      <trkpt lat="49.89098" lon="2.2367">
        <ele>59</ele>
        <time>2021-09-05T09:50:43Z</time>
      </trkpt>
      <trkpt lat="49.89098" lon="2.23668">
        <ele>59</ele>
        <time>2021-09-05T09:50:44Z</time>
      </trkpt>
      <trkpt lat="49.89097" lon="2.23667">
        <ele>59.1</ele>
        <time>2021-09-05T09:50:45Z</time>
      </trkpt>
      <trkpt lat="49.89097" lon="2.23665">
        <ele>59.1</ele>
        <time>2021-09-05T09:50:46Z</time>
      </trkpt>
      <trkpt lat="49.89096" lon="2.23663">
        <ele>59.1</ele>
        <time>2021-09-05T09:50:47Z</time>
      </trkpt>
      <trkpt lat="49.89096" lon="2.23662">
        <ele>59.1</ele>
        <time>2021-09-05T09:50:48Z</time>
      </trkpt>
      <trkpt lat="49.89094" lon="2.23658">
        <ele>59.2</ele>
        <time>2021-09-05T09:50:49Z</time>
      </trkpt>
      <trkpt lat="49.89094" lon="2.23657">
        <ele>59.2</ele>
        <time>2021-09-05T09:50:50Z</time>
      </trkpt>
      <trkpt lat="49.89094" lon="2.23655">
        <ele>59.2</ele>
        <time>2021-09-05T09:50:51Z</time>
      </trkpt>
      <trkpt lat="49.89093" lon="2.23654">
        <ele>59.2</ele>
        <time>2021-09-05T09:50:52Z</time>
      </trkpt>
      <trkpt lat="49.89092" lon="2.23652">
        <ele>59.2</ele>
        <time>2021-09-05T09:50:53Z</time>
      </trkpt>
      <trkpt lat="49.89092" lon="2.2365">
        <ele>59.3</ele>
        <time>2021-09-05T09:50:55Z</time>
      </trkpt>
      <trkpt lat="49.89092" lon="2.23648">
        <ele>59.3</ele>
        <time>2021-09-05T09:50:56Z</time>
      </trkpt>
      <trkpt lat="49.89091" lon="2.23645">
        <ele>59.3</ele>
        <time>2021-09-05T09:50:57Z</time>
      </trkpt>
      <trkpt lat="49.8909" lon="2.23644">
        <ele>59.3</ele>
        <time>2021-09-05T09:50:58Z</time>
      </trkpt>
      <trkpt lat="49.8909" lon="2.23643">
        <ele>59.4</ele>
        <time>2021-09-05T09:50:59Z</time>
      </trkpt>
      <trkpt lat="49.89089" lon="2.23641">
        <ele>59.4</ele>
        <time>2021-09-05T09:51:00Z</time>
      </trkpt>
      <trkpt lat="49.89089" lon="2.2364">
        <ele>59.4</ele>
        <time>2021-09-05T09:51:01Z</time>
      </trkpt>
      <trkpt lat="49.89088" lon="2.23637">
        <ele>59.4</ele>
        <time>2021-09-05T09:51:02Z</time>
      </trkpt>
      <trkpt lat="49.89088" lon="2.23636">
        <ele>59.4</ele>
        <time>2021-09-05T09:51:04Z</time>
      </trkpt>
      <trkpt lat="49.89087" lon="2.23631">
        <ele>59.5</ele>
        <time>2021-09-05T09:51:05Z</time>
      </trkpt>
      <trkpt lat="49.89086" lon="2.2363">
        <ele>59.5</ele>
        <time>2021-09-05T09:51:06Z</time>
      </trkpt>
      <trkpt lat="49.89086" lon="2.23628">
        <ele>59.5</ele>
        <time>2021-09-05T09:51:07Z</time>
      </trkpt>
      <trkpt lat="49.89086" lon="2.23626">
        <ele>59.5</ele>
        <time>2021-09-05T09:51:08Z</time>
      </trkpt>
      <trkpt lat="49.89086" lon="2.23624">
        <ele>59.6</ele>
        <time>2021-09-05T09:51:10Z</time>
      </trkpt>
      <trkpt lat="49.89086" lon="2.23622">
        <ele>59.6</ele>
        <time>2021-09-05T09:51:11Z</time>
      </trkpt>
      <trkpt lat="49.89085" lon="2.23619">
        <ele>59.6</ele>
        <time>2021-09-05T09:51:12Z</time>
      </trkpt>
      <trkpt lat="49.89085" lon="2.23618">
        <ele>59.6</ele>
        <time>2021-09-05T09:51:13Z</time>
      </trkpt>
      <trkpt lat="49.89085" lon="2.23616">
        <ele>59.7</ele>
        <time>2021-09-05T09:51:14Z</time>
      </trkpt>
      <trkpt lat="49.89085" lon="2.23615">
        <ele>59.7</ele>
        <time>2021-09-05T09:51:15Z</time>
      </trkpt>
      <trkpt lat="49.89084" lon="2.23614">
        <ele>59.7</ele>
        <time>2021-09-05T09:51:16Z</time>
      </trkpt>
      <trkpt lat="49.89084" lon="2.23612">
        <ele>59.7</ele>
        <time>2021-09-05T09:51:17Z</time>
      </trkpt>
      <trkpt lat="49.89084" lon="2.2361">
        <ele>59.7</ele>
        <time>2021-09-05T09:51:18Z</time>
      </trkpt>
      <trkpt lat="49.89084" lon="2.23608">
        <ele>59.7</ele>
        <time>2021-09-05T09:51:19Z</time>
      </trkpt>
      <trkpt lat="49.89084" lon="2.23606">
        <ele>59.8</ele>
        <time>2021-09-05T09:51:20Z</time>
      </trkpt>
      <trkpt lat="49.89084" lon="2.23603">
        <ele>59.8</ele>
        <time>2021-09-05T09:51:21Z</time>
      </trkpt>
      <trkpt lat="49.89084" lon="2.23602">
        <ele>59.8</ele>
        <time>2021-09-05T09:51:22Z</time>
      </trkpt>
      <trkpt lat="49.89083" lon="2.236">
        <ele>59.8</ele>
        <time>2021-09-05T09:51:24Z</time>
      </trkpt>
      <trkpt lat="49.89083" lon="2.23598">
        <ele>59.8</ele>
        <time>2021-09-05T09:51:25Z</time>
      </trkpt>
      <trkpt lat="49.89083" lon="2.23594">
        <ele>59.9</ele>
        <time>2021-09-05T09:51:26Z</time>
      </trkpt>
      <trkpt lat="49.89083" lon="2.23593">
        <ele>59.9</ele>
        <time>2021-09-05T09:51:27Z</time>
      </trkpt>
      <trkpt lat="49.89083" lon="2.23591">
        <ele>59.9</ele>
        <time>2021-09-05T09:51:28Z</time>
      </trkpt>
      <trkpt lat="49.89083" lon="2.2359">
        <ele>60</ele>
        <time>2021-09-05T09:51:29Z</time>
      </trkpt>
      <trkpt lat="49.89083" lon="2.23588">
        <ele>60</ele>
        <time>2021-09-05T09:51:30Z</time>
      </trkpt>
      <trkpt lat="49.89082" lon="2.23587">
        <ele>60</ele>
        <time>2021-09-05T09:51:31Z</time>
      </trkpt>
      <trkpt lat="49.89082" lon="2.23584">
        <ele>60</ele>
        <time>2021-09-05T09:51:32Z</time>
      </trkpt>
      <trkpt lat="49.89082" lon="2.23582">
        <ele>60.1</ele>
        <time>2021-09-05T09:51:34Z</time>
      </trkpt>
      <trkpt lat="49.89081" lon="2.23578">
        <ele>60.1</ele>
        <time>2021-09-05T09:51:35Z</time>
      </trkpt>
      <trkpt lat="49.89081" lon="2.23576">
        <ele>60.1</ele>
        <time>2021-09-05T09:51:36Z</time>
      </trkpt>
      <trkpt lat="49.89081" lon="2.23575">
        <ele>60.2</ele>
        <time>2021-09-05T09:51:37Z</time>
      </trkpt>
      <trkpt lat="49.8908" lon="2.23572">
        <ele>60.2</ele>
        <time>2021-09-05T09:51:38Z</time>
      </trkpt>
      <trkpt lat="49.89079" lon="2.23571">
        <ele>60.2</ele>
        <time>2021-09-05T09:51:39Z</time>
      </trkpt>
      <trkpt lat="49.89078" lon="2.2357">
        <ele>60.2</ele>
        <time>2021-09-05T09:51:40Z</time>
      </trkpt>
      <trkpt lat="49.89077" lon="2.23567">
        <ele>60.3</ele>
        <time>2021-09-05T09:51:42Z</time>
      </trkpt>
      <trkpt lat="49.89077" lon="2.23565">
        <ele>60.3</ele>
        <time>2021-09-05T09:51:43Z</time>
      </trkpt>
      <trkpt lat="49.89076" lon="2.23564">
        <ele>60.3</ele>
        <time>2021-09-05T09:51:44Z</time>
      </trkpt>
      <trkpt lat="49.89075" lon="2.23562">
        <ele>60.4</ele>
        <time>2021-09-05T09:51:45Z</time>
      </trkpt>
      <trkpt lat="49.89074" lon="2.23561">
        <ele>60.4</ele>
        <time>2021-09-05T09:51:46Z</time>
      </trkpt>
      <trkpt lat="49.89072" lon="2.23558">
        <ele>60.4</ele>
        <time>2021-09-05T09:51:47Z</time>
      </trkpt>
      <trkpt lat="49.89072" lon="2.23557">
        <ele>60.4</ele>
        <time>2021-09-05T09:51:48Z</time>
      </trkpt>
      <trkpt lat="49.89071" lon="2.23556">
        <ele>60.5</ele>
        <time>2021-09-05T09:51:49Z</time>
      </trkpt>
      <trkpt lat="49.8907" lon="2.23555">
        <ele>60.5</ele>
        <time>2021-09-05T09:51:50Z</time>
      </trkpt>
      <trkpt lat="49.89069" lon="2.23553">
        <ele>60.5</ele>
        <time>2021-09-05T09:51:51Z</time>
      </trkpt>
      <trkpt lat="49.89067" lon="2.23552">
        <ele>60.6</ele>
        <time>2021-09-05T09:51:52Z</time>
      </trkpt>
      <trkpt lat="49.89066" lon="2.23551">
        <ele>60.6</ele>
        <time>2021-09-05T09:51:53Z</time>
      </trkpt>
      <trkpt lat="49.89064" lon="2.2355">
        <ele>60.6</ele>
        <time>2021-09-05T09:51:54Z</time>
      </trkpt>
      <trkpt lat="49.89063" lon="2.23548">
        <ele>60.6</ele>
        <time>2021-09-05T09:51:56Z</time>
      </trkpt>
      <trkpt lat="49.89062" lon="2.23546">
        <ele>60.7</ele>
        <time>2021-09-05T09:51:57Z</time>
      </trkpt>
      <trkpt lat="49.89061" lon="2.23546">
        <ele>60.7</ele>
        <time>2021-09-05T09:51:58Z</time>
      </trkpt>
      <trkpt lat="49.8906" lon="2.23544">
        <ele>60.7</ele>
        <time>2021-09-05T09:51:59Z</time>
      </trkpt>
      <trkpt lat="49.89059" lon="2.23543">
        <ele>60.8</ele>
        <time>2021-09-05T09:52:00Z</time>
      </trkpt>
      <trkpt lat="49.89058" lon="2.23542">
        <ele>60.8</ele>
        <time>2021-09-05T09:52:01Z</time>
      </trkpt>
      <trkpt lat="49.89056" lon="2.2354">
        <ele>60.8</ele>
        <time>2021-09-05T09:52:02Z</time>
      </trkpt>
      <trkpt lat="49.89056" lon="2.23539">
        <ele>60.8</ele>
        <time>2021-09-05T09:52:03Z</time>
      </trkpt>
      <trkpt lat="49.89055" lon="2.23538">
        <ele>60.9</ele>
        <time>2021-09-05T09:52:04Z</time>
      </trkpt>
      <trkpt lat="49.89053" lon="2.23537">
        <ele>60.9</ele>
        <time>2021-09-05T09:52:05Z</time>
      </trkpt>
      <trkpt lat="49.89052" lon="2.23536">
        <ele>60.9</ele>
        <time>2021-09-05T09:52:06Z</time>
      </trkpt>
      <trkpt lat="49.89051" lon="2.23534">
        <ele>60.9</ele>
        <time>2021-09-05T09:52:07Z</time>
      </trkpt>
      <trkpt lat="49.89051" lon="2.23532">
        <ele>61</ele>
        <time>2021-09-05T09:52:09Z</time>
      </trkpt>
      <trkpt lat="49.8905" lon="2.23531">
        <ele>61</ele>
        <time>2021-09-05T09:52:10Z</time>
      </trkpt>
      <trkpt lat="49.89049" lon="2.23531">
        <ele>61</ele>
        <time>2021-09-05T09:52:11Z</time>
      </trkpt>
      <trkpt lat="49.89048" lon="2.23531">
        <ele>61</ele>
        <time>2021-09-05T09:52:12Z</time>
      </trkpt>
      <trkpt lat="49.89046" lon="2.23531">
        <ele>61.1</ele>
        <time>2021-09-05T09:52:13Z</time>
      </trkpt>
      <trkpt lat="49.89045" lon="2.23532">
        <ele>61.1</ele>
        <time>2021-09-05T09:52:15Z</time>
      </trkpt>
      <trkpt lat="49.89043" lon="2.23532">
        <ele>61.2</ele>
        <time>2021-09-05T09:52:17Z</time>
      </trkpt>
      <trkpt lat="49.89042" lon="2.23533">
        <ele>61.2</ele>
        <time>2021-09-05T09:52:19Z</time>
      </trkpt>
      <trkpt lat="49.89042" lon="2.23533">
        <ele>61.2</ele>
        <time>2021-09-05T09:52:21Z</time>
      </trkpt>
      <trkpt lat="49.89042" lon="2.23533">
        <ele>61.2</ele>
        <time>2021-09-05T09:52:22Z</time>
      </trkpt>
      <trkpt lat="49.89042" lon="2.23533">
        <ele>61.2</ele>
        <time>2021-09-05T09:52:24Z</time>
      </trkpt>
      <trkpt lat="49.89042" lon="2.23533">
        <ele>61.2</ele>
        <time>2021-09-05T09:52:25Z</time>
      </trkpt>
      <trkpt lat="49.89042" lon="2.23533">
        <ele>61.2</ele>
        <time>2021-09-05T09:52:26Z</time>
      </trkpt>
      <trkpt lat="49.89042" lon="2.23533">
        <ele>61.2</ele>
        <time>2021-09-05T09:52:28Z</time>
      </trkpt>
      <trkpt lat="49.89042" lon="2.23533">
        <ele>61.2</ele>
        <time>2021-09-05T09:52:29Z</time>
      </trkpt>
      <trkpt lat="49.89042" lon="2.23533">
        <ele>61.2</ele>
        <time>2021-09-05T09:52:30Z</time>
      </trkpt>
      <trkpt lat="49.89042" lon="2.23533">
        <ele>61.2</ele>
        <time>2021-09-05T09:52:32Z</time>
      </trkpt>
      <trkpt lat="49.89042" lon="2.23533">
        <ele>61.2</ele>
        <time>2021-09-05T09:52:34Z</time>
      </trkpt>
      <trkpt lat="49.89043" lon="2.23533">
        <ele>61.2</ele>
        <time>2021-09-05T09:52:36Z</time>
      </trkpt>
      <trkpt lat="49.89043" lon="2.23533">
        <ele>61.2</ele>
        <time>2021-09-05T09:52:38Z</time>
      </trkpt>
      <trkpt lat="49.89043" lon="2.23533">
        <ele>61.2</ele>
        <time>2021-09-05T09:52:39Z</time>
      </trkpt>
      <trkpt lat="49.89043" lon="2.23533">
        <ele>61.2</ele>
        <time>2021-09-05T09:52:41Z</time>
      </trkpt>
      <trkpt lat="49.89043" lon="2.23533">
        <ele>61.2</ele>
        <time>2021-09-05T09:52:43Z</time>
      </trkpt>
      <trkpt lat="49.89043" lon="2.23533">
        <ele>61.2</ele>
        <time>2021-09-05T09:52:44Z</time>
      </trkpt>
      <trkpt lat="49.89043" lon="2.23533">
        <ele>61.2</ele>
        <time>2021-09-05T09:52:45Z</time>
      </trkpt>
      <trkpt lat="49.89043" lon="2.23533">
        <ele>61.2</ele>
        <time>2021-09-05T09:52:47Z</time>
      </trkpt>
      <trkpt lat="49.89043" lon="2.23533">
        <ele>61.2</ele>
        <time>2021-09-05T09:52:48Z</time>
      </trkpt>
      <trkpt lat="49.89043" lon="2.23533">
        <ele>61.2</ele>
        <time>2021-09-05T09:52:49Z</time>
      </trkpt>
      <trkpt lat="49.89043" lon="2.23533">
        <ele>61.2</ele>
        <time>2021-09-05T09:52:51Z</time>
      </trkpt>
      <trkpt lat="49.89043" lon="2.23533">
        <ele>61.2</ele>
        <time>2021-09-05T09:52:52Z</time>
      </trkpt>
      <trkpt lat="49.89043" lon="2.23533">
        <ele>61.2</ele>
        <time>2021-09-05T09:52:54Z</time>
      </trkpt>
      <trkpt lat="49.89043" lon="2.23533">
        <ele>61.2</ele>
        <time>2021-09-05T09:52:55Z</time>
      </trkpt>
      <trkpt lat="49.89043" lon="2.23533">
        <ele>61.2</ele>
        <time>2021-09-05T09:52:56Z</time>
      </trkpt>
      <trkpt lat="49.89043" lon="2.23533">
        <ele>61.2</ele>
        <time>2021-09-05T09:52:57Z</time>
      </trkpt>
      <trkpt lat="49.89043" lon="2.23533">
        <ele>61.2</ele>
        <time>2021-09-05T09:52:58Z</time>
      </trkpt>
      <trkpt lat="49.89043" lon="2.23533">
        <ele>61.2</ele>
        <time>2021-09-05T09:53:00Z</time>
      </trkpt>
      <trkpt lat="49.89043" lon="2.23533">
        <ele>61.2</ele>
        <time>2021-09-05T09:53:01Z</time>
      </trkpt>
      <trkpt lat="49.89043" lon="2.23533">
        <ele>61.2</ele>
        <time>2021-09-05T09:53:03Z</time>
      </trkpt>
      <trkpt lat="49.89043" lon="2.23533">
        <ele>61.2</ele>
        <time>2021-09-05T09:53:04Z</time>
      </trkpt>
      <trkpt lat="49.89043" lon="2.23533">
        <ele>61.2</ele>
        <time>2021-09-05T09:53:05Z</time>
      </trkpt>
      <trkpt lat="49.89043" lon="2.23533">
        <ele>61.2</ele>
        <time>2021-09-05T09:53:07Z</time>
      </trkpt>
      <trkpt lat="49.89043" lon="2.23533">
        <ele>61.2</ele>
        <time>2021-09-05T09:53:09Z</time>
      </trkpt>
      <trkpt lat="49.89043" lon="2.23533">
        <ele>61.2</ele>
        <time>2021-09-05T09:53:10Z</time>
      </trkpt>
      <trkpt lat="49.89043" lon="2.23533">
        <ele>61.2</ele>
        <time>2021-09-05T09:53:12Z</time>
      </trkpt>
      <trkpt lat="49.89043" lon="2.23533">
        <ele>61.2</ele>
        <time>2021-09-05T09:53:13Z</time>
      </trkpt>
      <trkpt lat="49.89043" lon="2.23533">
        <ele>61.2</ele>
        <time>2021-09-05T09:53:14Z</time>
      </trkpt>
      <trkpt lat="49.89043" lon="2.23533">
        <ele>61.2</ele>
        <time>2021-09-05T09:53:16Z</time>
      </trkpt>
      <trkpt lat="49.89043" lon="2.23533">
        <ele>61.2</ele>
        <time>2021-09-05T09:53:18Z</time>
      </trkpt>
      <trkpt lat="49.89043" lon="2.23533">
        <ele>61.2</ele>
        <time>2021-09-05T09:53:19Z</time>
      </trkpt>
      <trkpt lat="49.89043" lon="2.23533">
        <ele>61.2</ele>
        <time>2021-09-05T09:53:21Z</time>
      </trkpt>
      <trkpt lat="49.89043" lon="2.23533">
        <ele>61.2</ele>
        <time>2021-09-05T09:53:22Z</time>
      </trkpt>
      <trkpt lat="49.89043" lon="2.23533">
        <ele>61.2</ele>
        <time>2021-09-05T09:53:23Z</time>
      </trkpt>
      <trkpt lat="49.89043" lon="2.23533">
        <ele>61.2</ele>
        <time>2021-09-05T09:53:25Z</time>
      </trkpt>
      <trkpt lat="49.89043" lon="2.23533">
        <ele>61.2</ele>
        <time>2021-09-05T09:53:27Z</time>
      </trkpt>
      <trkpt lat="49.89043" lon="2.23533">
        <ele>61.2</ele>
        <time>2021-09-05T09:53:28Z</time>
      </trkpt>
      <trkpt lat="49.89043" lon="2.23533">
        <ele>61.2</ele>
        <time>2021-09-05T09:53:30Z</time>
      </trkpt>
      <trkpt lat="49.89043" lon="2.23533">
        <ele>61.2</ele>
        <time>2021-09-05T09:53:32Z</time>
      </trkpt>
      <trkpt lat="49.89043" lon="2.23533">
        <ele>61.2</ele>
        <time>2021-09-05T09:53:33Z</time>
      </trkpt>
      <trkpt lat="49.89043" lon="2.23533">
        <ele>61.2</ele>
        <time>2021-09-05T09:53:35Z</time>
      </trkpt>
      <trkpt lat="49.89043" lon="2.23533">
        <ele>61.2</ele>
        <time>2021-09-05T09:53:36Z</time>
      </trkpt>
      <trkpt lat="49.89043" lon="2.23533">
        <ele>61.2</ele>
        <time>2021-09-05T09:53:38Z</time>
      </trkpt>
      <trkpt lat="49.89043" lon="2.23533">
        <ele>61.2</ele>
        <time>2021-09-05T09:53:39Z</time>
      </trkpt>
      <trkpt lat="49.89043" lon="2.23533">
        <ele>61.2</ele>
        <time>2021-09-05T09:53:41Z</time>
      </trkpt>
      <trkpt lat="49.89046" lon="2.23538">
        <ele>61.1</ele>
        <time>2021-09-05T09:53:43Z</time>
      </trkpt>
      <trkpt lat="49.89046" lon="2.23539">
        <ele>61.1</ele>
        <time>2021-09-05T09:53:44Z</time>
      </trkpt>
      <trkpt lat="49.89046" lon="2.2354">
        <ele>61.1</ele>
        <time>2021-09-05T09:53:46Z</time>
      </trkpt>
      <trkpt lat="49.89046" lon="2.2354">
        <ele>61.1</ele>
        <time>2021-09-05T09:53:47Z</time>
      </trkpt>
      <trkpt lat="49.89046" lon="2.2354">
        <ele>61.1</ele>
        <time>2021-09-05T09:53:48Z</time>
      </trkpt>
      <trkpt lat="49.89046" lon="2.2354">
        <ele>61</ele>
        <time>2021-09-05T09:53:50Z</time>
      </trkpt>
      <trkpt lat="49.89046" lon="2.23539">
        <ele>61</ele>
        <time>2021-09-05T09:53:52Z</time>
      </trkpt>
      <trkpt lat="49.89046" lon="2.23539">
        <ele>61</ele>
        <time>2021-09-05T09:53:54Z</time>
      </trkpt>
      <trkpt lat="49.89046" lon="2.23539">
        <ele>61</ele>
        <time>2021-09-05T09:53:55Z</time>
      </trkpt>
      <trkpt lat="49.89046" lon="2.23539">
        <ele>61</ele>
        <time>2021-09-05T09:53:56Z</time>
      </trkpt>
      <trkpt lat="49.89046" lon="2.23539">
        <ele>61</ele>
        <time>2021-09-05T09:53:58Z</time>
      </trkpt>
      <trkpt lat="49.89046" lon="2.23539">
        <ele>61</ele>
        <time>2021-09-05T09:53:59Z</time>
      </trkpt>
      <trkpt lat="49.89046" lon="2.23539">
        <ele>61</ele>
        <time>2021-09-05T09:54:00Z</time>
      </trkpt>
      <trkpt lat="49.89046" lon="2.23539">
        <ele>61</ele>
        <time>2021-09-05T09:54:02Z</time>
      </trkpt>
      <trkpt lat="49.89046" lon="2.23539">
        <ele>61</ele>
        <time>2021-09-05T09:54:03Z</time>
      </trkpt>
      <trkpt lat="49.89046" lon="2.23539">
        <ele>61</ele>
        <time>2021-09-05T09:54:05Z</time>
      </trkpt>
      <trkpt lat="49.89046" lon="2.23539">
        <ele>61</ele>
        <time>2021-09-05T09:54:06Z</time>
      </trkpt>
      <trkpt lat="49.89046" lon="2.23539">
        <ele>61</ele>
        <time>2021-09-05T09:54:08Z</time>
      </trkpt>
      <trkpt lat="49.89046" lon="2.23539">
        <ele>61</ele>
        <time>2021-09-05T09:54:09Z</time>
      </trkpt>
      <trkpt lat="49.89046" lon="2.23539">
        <ele>61</ele>
        <time>2021-09-05T09:54:10Z</time>
      </trkpt>
      <trkpt lat="49.89046" lon="2.23539">
        <ele>61</ele>
        <time>2021-09-05T09:54:12Z</time>
      </trkpt>
      <trkpt lat="49.89046" lon="2.23539">
        <ele>61</ele>
        <time>2021-09-05T09:54:13Z</time>
      </trkpt>
      <trkpt lat="49.89046" lon="2.23539">
        <ele>61</ele>
        <time>2021-09-05T09:54:15Z</time>
      </trkpt>
      <trkpt lat="49.89046" lon="2.23539">
        <ele>61</ele>
        <time>2021-09-05T09:54:16Z</time>
      </trkpt>
      <trkpt lat="49.89046" lon="2.23539">
        <ele>61</ele>
        <time>2021-09-05T09:54:18Z</time>
      </trkpt>
      <trkpt lat="49.89046" lon="2.23539">
        <ele>61</ele>
        <time>2021-09-05T09:54:20Z</time>
      </trkpt>
      <trkpt lat="49.89046" lon="2.23539">
        <ele>61</ele>
        <time>2021-09-05T09:54:22Z</time>
      </trkpt>
      <trkpt lat="49.89046" lon="2.23539">
        <ele>61</ele>
        <time>2021-09-05T09:54:23Z</time>
      </trkpt>
      <trkpt lat="49.89046" lon="2.23539">
        <ele>61</ele>
        <time>2021-09-05T09:54:25Z</time>
      </trkpt>
      <trkpt lat="49.89046" lon="2.23539">
        <ele>61</ele>
        <time>2021-09-05T09:54:27Z</time>
      </trkpt>
      <trkpt lat="49.89046" lon="2.23539">
        <ele>61</ele>
        <time>2021-09-05T09:54:28Z</time>
      </trkpt>
      <trkpt lat="49.89046" lon="2.23539">
        <ele>61</ele>
        <time>2021-09-05T09:54:30Z</time>
      </trkpt>
      <trkpt lat="49.89046" lon="2.23539">
        <ele>61</ele>
        <time>2021-09-05T09:54:32Z</time>
      </trkpt>
      <trkpt lat="49.89046" lon="2.23539">
        <ele>61</ele>
        <time>2021-09-05T09:54:33Z</time>
      </trkpt>
      <trkpt lat="49.89046" lon="2.23539">
        <ele>61</ele>
        <time>2021-09-05T09:54:34Z</time>
      </trkpt>
      <trkpt lat="49.89046" lon="2.23539">
        <ele>61</ele>
        <time>2021-09-05T09:54:36Z</time>
      </trkpt>
      <trkpt lat="49.89046" lon="2.23539">
        <ele>61</ele>
        <time>2021-09-05T09:54:38Z</time>
      </trkpt>
      <trkpt lat="49.89046" lon="2.23539">
        <ele>61</ele>
        <time>2021-09-05T09:54:40Z</time>
      </trkpt>
      <trkpt lat="49.89046" lon="2.23539">
        <ele>61</ele>
        <time>2021-09-05T09:54:41Z</time>
      </trkpt>
      <trkpt lat="49.89046" lon="2.23539">
        <ele>61</ele>
        <time>2021-09-05T09:54:42Z</time>
      </trkpt>
      <trkpt lat="49.89046" lon="2.23539">
        <ele>61</ele>
        <time>2021-09-05T09:54:43Z</time>
      </trkpt>
      <trkpt lat="49.89046" lon="2.23539">
        <ele>61</ele>
        <time>2021-09-05T09:54:45Z</time>
      </trkpt>
      <trkpt lat="49.89046" lon="2.23539">
        <ele>61</ele>
        <time>2021-09-05T09:54:46Z</time>
      </trkpt>
      <trkpt lat="49.89046" lon="2.23539">
        <ele>61</ele>
        <time>2021-09-05T09:54:48Z</time>
      </trkpt>
      <trkpt lat="49.89046" lon="2.23539">
        <ele>61</ele>
        <time>2021-09-05T09:54:50Z</time>
      </trkpt>
      <trkpt lat="49.89046" lon="2.23539">
        <ele>61</ele>
        <time>2021-09-05T09:54:52Z</time>
      </trkpt>
      <trkpt lat="49.89046" lon="2.23539">
        <ele>61</ele>
        <time>2021-09-05T09:54:54Z</time>
      </trkpt>
      <trkpt lat="49.89046" lon="2.23539">
        <ele>61</ele>
        <time>2021-09-05T09:54:56Z</time>
      </trkpt>
      <trkpt lat="49.89046" lon="2.23539">
        <ele>61</ele>
        <time>2021-09-05T09:54:57Z</time>
      </trkpt>
      <trkpt lat="49.89046" lon="2.23539">
        <ele>61</ele>
        <time>2021-09-05T09:54:59Z</time>
      </trkpt>
      <trkpt lat="49.89046" lon="2.23539">
        <ele>61</ele>
        <time>2021-09-05T09:55:00Z</time>
      </trkpt>
      <trkpt lat="49.89046" lon="2.23539">
        <ele>61</ele>
        <time>2021-09-05T09:55:01Z</time>
      </trkpt>
      <trkpt lat="49.89046" lon="2.23539">
        <ele>61</ele>
        <time>2021-09-05T09:55:03Z</time>
      </trkpt>
      <trkpt lat="49.89046" lon="2.23539">
        <ele>61</ele>
        <time>2021-09-05T09:55:05Z</time>
      </trkpt>
      <trkpt lat="49.89046" lon="2.23539">
        <ele>61</ele>
        <time>2021-09-05T09:55:06Z</time>
      </trkpt>
      <trkpt lat="49.89046" lon="2.23539">
        <ele>61</ele>
        <time>2021-09-05T09:55:08Z</time>
      </trkpt>
      <trkpt lat="49.89046" lon="2.23539">
        <ele>61</ele>
        <time>2021-09-05T09:55:10Z</time>
      </trkpt>
      <trkpt lat="49.89046" lon="2.23539">
        <ele>61</ele>
        <time>2021-09-05T09:55:12Z</time>
      </trkpt>
      <trkpt lat="49.89046" lon="2.23539">
        <ele>61</ele>
        <time>2021-09-05T09:55:13Z</time>
      </trkpt>
      <trkpt lat="49.89046" lon="2.23539">
        <ele>61</ele>
        <time>2021-09-05T09:55:14Z</time>
      </trkpt>
      <trkpt lat="49.89046" lon="2.23539">
        <ele>61</ele>
        <time>2021-09-05T09:55:15Z</time>
      </trkpt>
      <trkpt lat="49.89046" lon="2.23539">
        <ele>61</ele>
        <time>2021-09-05T09:55:16Z</time>
      </trkpt>
      <trkpt lat="49.89046" lon="2.23539">
        <ele>61</ele>
        <time>2021-09-05T09:55:18Z</time>
      </trkpt>
      <trkpt lat="49.89046" lon="2.23539">
        <ele>61</ele>
        <time>2021-09-05T09:55:19Z</time>
      </trkpt>
      <trkpt lat="49.89046" lon="2.23539">
        <ele>61</ele>
        <time>2021-09-05T09:55:20Z</time>
      </trkpt>
      <trkpt lat="49.89046" lon="2.23539">
        <ele>61</ele>
        <time>2021-09-05T09:55:22Z</time>
      </trkpt>
      <trkpt lat="49.89046" lon="2.23539">
        <ele>61</ele>
        <time>2021-09-05T09:55:24Z</time>
      </trkpt>
      <trkpt lat="49.89046" lon="2.23539">
        <ele>61</ele>
        <time>2021-09-05T09:55:25Z</time>
      </trkpt>
      <trkpt lat="49.89046" lon="2.23539">
        <ele>61</ele>
        <time>2021-09-05T09:55:27Z</time>
      </trkpt>
      <trkpt lat="49.89046" lon="2.23539">
        <ele>61</ele>
        <time>2021-09-05T09:55:29Z</time>
      </trkpt>
      <trkpt lat="49.89046" lon="2.23539">
        <ele>61</ele>
        <time>2021-09-05T09:55:30Z</time>
      </trkpt>
      <trkpt lat="49.89046" lon="2.23539">
        <ele>61</ele>
        <time>2021-09-05T09:55:32Z</time>
      </trkpt>
      <trkpt lat="49.89046" lon="2.23539">
        <ele>61</ele>
        <time>2021-09-05T09:55:33Z</time>
      </trkpt>
      <trkpt lat="49.89046" lon="2.23539">
        <ele>61</ele>
        <time>2021-09-05T09:55:35Z</time>
      </trkpt>
      <trkpt lat="49.89046" lon="2.23539">
        <ele>61</ele>
        <time>2021-09-05T09:55:36Z</time>
      </trkpt>
      <trkpt lat="49.89046" lon="2.23539">
        <ele>61</ele>
        <time>2021-09-05T09:55:38Z</time>
      </trkpt>
      <trkpt lat="49.89046" lon="2.23539">
        <ele>61</ele>
        <time>2021-09-05T09:55:40Z</time>
      </trkpt>
      <trkpt lat="49.89046" lon="2.23539">
        <ele>61</ele>
        <time>2021-09-05T09:55:42Z</time>
      </trkpt>
      <trkpt lat="49.89046" lon="2.23539">
        <ele>61</ele>
        <time>2021-09-05T09:55:43Z</time>
      </trkpt>
      <trkpt lat="49.89046" lon="2.23539">
        <ele>61</ele>
        <time>2021-09-05T09:55:45Z</time>
      </trkpt>
      <trkpt lat="49.89044" lon="2.23536">
        <ele>61</ele>
        <time>2021-09-05T09:55:47Z</time>
      </trkpt>
      <trkpt lat="49.89043" lon="2.23534">
        <ele>60.9</ele>
        <time>2021-09-05T09:55:49Z</time>
      </trkpt>
      <trkpt lat="49.89042" lon="2.23533">
        <ele>60.9</ele>
        <time>2021-09-05T09:55:51Z</time>
      </trkpt>
      <trkpt lat="49.89041" lon="2.23533">
        <ele>60.9</ele>
        <time>2021-09-05T09:55:52Z</time>
      </trkpt>
      <trkpt lat="49.8904" lon="2.23533">
        <ele>60.9</ele>
        <time>2021-09-05T09:55:53Z</time>
      </trkpt>
      <trkpt lat="49.89039" lon="2.23533">
        <ele>60.8</ele>
        <time>2021-09-05T09:55:54Z</time>
      </trkpt>
      <trkpt lat="49.89038" lon="2.23534">
        <ele>60.8</ele>
        <time>2021-09-05T09:55:55Z</time>
      </trkpt>
      <trkpt lat="49.89037" lon="2.23535">
        <ele>60.8</ele>
        <time>2021-09-05T09:55:56Z</time>
      </trkpt>
      <trkpt lat="49.89036" lon="2.23536">
        <ele>60.8</ele>
        <time>2021-09-05T09:55:57Z</time>
      </trkpt>
      <trkpt lat="49.89035" lon="2.23537">
        <ele>60.7</ele>
        <time>2021-09-05T09:55:58Z</time>
      </trkpt>
      <trkpt lat="49.89035" lon="2.23538">
        <ele>60.7</ele>
        <time>2021-09-05T09:55:59Z</time>
      </trkpt>
      <trkpt lat="49.89034" lon="2.23539">
        <ele>60.7</ele>
        <time>2021-09-05T09:56:00Z</time>
      </trkpt>
      <trkpt lat="49.89033" lon="2.23541">
        <ele>60.6</ele>
        <time>2021-09-05T09:56:01Z</time>
      </trkpt>
      <trkpt lat="49.89033" lon="2.23542">
        <ele>60.6</ele>
        <time>2021-09-05T09:56:02Z</time>
      </trkpt>
      <trkpt lat="49.89033" lon="2.23543">
        <ele>60.6</ele>
        <time>2021-09-05T09:56:04Z</time>
      </trkpt>
      <trkpt lat="49.89032" lon="2.23544">
        <ele>60.6</ele>
        <time>2021-09-05T09:56:05Z</time>
      </trkpt>
      <trkpt lat="49.89031" lon="2.23546">
        <ele>60.6</ele>
        <time>2021-09-05T09:56:06Z</time>
      </trkpt>
      <trkpt lat="49.89031" lon="2.23548">
        <ele>60.5</ele>
        <time>2021-09-05T09:56:07Z</time>
      </trkpt>
      <trkpt lat="49.8903" lon="2.2355">
        <ele>60.5</ele>
        <time>2021-09-05T09:56:08Z</time>
      </trkpt>
      <trkpt lat="49.89029" lon="2.23552">
        <ele>60.4</ele>
        <time>2021-09-05T09:56:09Z</time>
      </trkpt>
      <trkpt lat="49.89028" lon="2.23554">
        <ele>60.4</ele>
        <time>2021-09-05T09:56:10Z</time>
      </trkpt>
      <trkpt lat="49.89027" lon="2.23556">
        <ele>60.4</ele>
        <time>2021-09-05T09:56:11Z</time>
      </trkpt>
      <trkpt lat="49.89026" lon="2.23559">
        <ele>60.3</ele>
        <time>2021-09-05T09:56:13Z</time>
      </trkpt>
      <trkpt lat="49.89025" lon="2.2356">
        <ele>60.3</ele>
        <time>2021-09-05T09:56:14Z</time>
      </trkpt>
      <trkpt lat="49.89023" lon="2.23563">
        <ele>60.2</ele>
        <time>2021-09-05T09:56:15Z</time>
      </trkpt>
      <trkpt lat="49.89023" lon="2.23565">
        <ele>60.2</ele>
        <time>2021-09-05T09:56:16Z</time>
      </trkpt>
      <trkpt lat="49.89022" lon="2.23566">
        <ele>60.2</ele>
        <time>2021-09-05T09:56:18Z</time>
      </trkpt>
      <trkpt lat="49.89021" lon="2.23568">
        <ele>60.1</ele>
        <time>2021-09-05T09:56:19Z</time>
      </trkpt>
      <trkpt lat="49.8902" lon="2.23571">
        <ele>60.1</ele>
        <time>2021-09-05T09:56:20Z</time>
      </trkpt>
      <trkpt lat="49.89019" lon="2.23572">
        <ele>60.1</ele>
        <time>2021-09-05T09:56:21Z</time>
      </trkpt>
      <trkpt lat="49.89018" lon="2.23573">
        <ele>60</ele>
        <time>2021-09-05T09:56:22Z</time>
      </trkpt>
      <trkpt lat="49.89017" lon="2.23574">
        <ele>60</ele>
        <time>2021-09-05T09:56:23Z</time>
      </trkpt>
      <trkpt lat="49.89016" lon="2.23576">
        <ele>60</ele>
        <time>2021-09-05T09:56:24Z</time>
      </trkpt>
      <trkpt lat="49.89015" lon="2.23578">
        <ele>59.9</ele>
        <time>2021-09-05T09:56:26Z</time>
      </trkpt>
      <trkpt lat="49.89015" lon="2.2358">
        <ele>59.9</ele>
        <time>2021-09-05T09:56:27Z</time>
      </trkpt>
      <trkpt lat="49.89014" lon="2.23582">
        <ele>59.9</ele>
        <time>2021-09-05T09:56:28Z</time>
      </trkpt>
      <trkpt lat="49.89013" lon="2.23584">
        <ele>59.8</ele>
        <time>2021-09-05T09:56:30Z</time>
      </trkpt>
      <trkpt lat="49.89011" lon="2.23587">
        <ele>59.8</ele>
        <time>2021-09-05T09:56:31Z</time>
      </trkpt>
      <trkpt lat="49.8901" lon="2.23588">
        <ele>59.8</ele>
        <time>2021-09-05T09:56:32Z</time>
      </trkpt>
      <trkpt lat="49.8901" lon="2.2359">
        <ele>59.8</ele>
        <time>2021-09-05T09:56:33Z</time>
      </trkpt>
      <trkpt lat="49.89009" lon="2.23591">
        <ele>59.8</ele>
        <time>2021-09-05T09:56:34Z</time>
      </trkpt>
      <trkpt lat="49.89008" lon="2.23593">
        <ele>59.7</ele>
        <time>2021-09-05T09:56:36Z</time>
      </trkpt>
      <trkpt lat="49.89007" lon="2.23596">
        <ele>59.7</ele>
        <time>2021-09-05T09:56:37Z</time>
      </trkpt>
      <trkpt lat="49.89006" lon="2.23598">
        <ele>59.7</ele>
        <time>2021-09-05T09:56:39Z</time>
      </trkpt>
      <trkpt lat="49.89005" lon="2.23599">
        <ele>59.7</ele>
        <time>2021-09-05T09:56:40Z</time>
      </trkpt>
      <trkpt lat="49.89005" lon="2.23601">
        <ele>59.7</ele>
        <time>2021-09-05T09:56:41Z</time>
      </trkpt>
      <trkpt lat="49.89004" lon="2.23602">
        <ele>59.6</ele>
        <time>2021-09-05T09:56:42Z</time>
      </trkpt>
      <trkpt lat="49.89003" lon="2.23604">
        <ele>59.6</ele>
        <time>2021-09-05T09:56:43Z</time>
      </trkpt>
      <trkpt lat="49.89002" lon="2.23606">
        <ele>59.6</ele>
        <time>2021-09-05T09:56:44Z</time>
      </trkpt>
      <trkpt lat="49.89001" lon="2.23608">
        <ele>59.6</ele>
        <time>2021-09-05T09:56:46Z</time>
      </trkpt>
      <trkpt lat="49.89" lon="2.2361">
        <ele>59.6</ele>
        <time>2021-09-05T09:56:47Z</time>
      </trkpt>
      <trkpt lat="49.88999" lon="2.23611">
        <ele>59.6</ele>
        <time>2021-09-05T09:56:48Z</time>
      </trkpt>
      <trkpt lat="49.88998" lon="2.23614">
        <ele>59.6</ele>
        <time>2021-09-05T09:56:50Z</time>
      </trkpt>
      <trkpt lat="49.88997" lon="2.23616">
        <ele>59.5</ele>
        <time>2021-09-05T09:56:51Z</time>
      </trkpt>
      <trkpt lat="49.88996" lon="2.23618">
        <ele>59.5</ele>
        <time>2021-09-05T09:56:52Z</time>
      </trkpt>
      <trkpt lat="49.88995" lon="2.23621">
        <ele>59.5</ele>
        <time>2021-09-05T09:56:54Z</time>
      </trkpt>
      <trkpt lat="49.88994" lon="2.23622">
        <ele>59.5</ele>
        <time>2021-09-05T09:56:55Z</time>
      </trkpt>
      <trkpt lat="49.88992" lon="2.23625">
        <ele>59.5</ele>
        <time>2021-09-05T09:56:56Z</time>
      </trkpt>
      <trkpt lat="49.88991" lon="2.23626">
        <ele>59.5</ele>
        <time>2021-09-05T09:56:57Z</time>
      </trkpt>
      <trkpt lat="49.88991" lon="2.23627">
        <ele>59.5</ele>
        <time>2021-09-05T09:56:58Z</time>
      </trkpt>
      <trkpt lat="49.88989" lon="2.2363">
        <ele>59.4</ele>
        <time>2021-09-05T09:57:00Z</time>
      </trkpt>
      <trkpt lat="49.88988" lon="2.23632">
        <ele>59.4</ele>
        <time>2021-09-05T09:57:02Z</time>
      </trkpt>
      <trkpt lat="49.88987" lon="2.23633">
        <ele>59.4</ele>
        <time>2021-09-05T09:57:03Z</time>
      </trkpt>
      <trkpt lat="49.88986" lon="2.23635">
        <ele>59.4</ele>
        <time>2021-09-05T09:57:04Z</time>
      </trkpt>
      <trkpt lat="49.88985" lon="2.23638">
        <ele>59.4</ele>
        <time>2021-09-05T09:57:05Z</time>
      </trkpt>
      <trkpt lat="49.88984" lon="2.23639">
        <ele>59.4</ele>
        <time>2021-09-05T09:57:06Z</time>
      </trkpt>
      <trkpt lat="49.88984" lon="2.2364">
        <ele>59.4</ele>
        <time>2021-09-05T09:57:07Z</time>
      </trkpt>
      <trkpt lat="49.88983" lon="2.23642">
        <ele>59.3</ele>
        <time>2021-09-05T09:57:08Z</time>
      </trkpt>
      <trkpt lat="49.88982" lon="2.23644">
        <ele>59.3</ele>
        <time>2021-09-05T09:57:09Z</time>
      </trkpt>
      <trkpt lat="49.88981" lon="2.23645">
        <ele>59.3</ele>
        <time>2021-09-05T09:57:10Z</time>
      </trkpt>
      <trkpt lat="49.8898" lon="2.23646">
        <ele>59.3</ele>
        <time>2021-09-05T09:57:11Z</time>
      </trkpt>
      <trkpt lat="49.88978" lon="2.23648">
        <ele>59.3</ele>
        <time>2021-09-05T09:57:13Z</time>
      </trkpt>
      <trkpt lat="49.88977" lon="2.2365">
        <ele>59.2</ele>
        <time>2021-09-05T09:57:14Z</time>
      </trkpt>
      <trkpt lat="49.88976" lon="2.23652">
        <ele>59.2</ele>
        <time>2021-09-05T09:57:15Z</time>
      </trkpt>
      <trkpt lat="49.88976" lon="2.23653">
        <ele>59.2</ele>
        <time>2021-09-05T09:57:16Z</time>
      </trkpt>
      <trkpt lat="49.88975" lon="2.23655">
        <ele>59.2</ele>
        <time>2021-09-05T09:57:17Z</time>
      </trkpt>
      <trkpt lat="49.88974" lon="2.23656">
        <ele>59.2</ele>
        <time>2021-09-05T09:57:18Z</time>
      </trkpt>
      <trkpt lat="49.88974" lon="2.23658">
        <ele>59.2</ele>
        <time>2021-09-05T09:57:20Z</time>
      </trkpt>
      <trkpt lat="49.88972" lon="2.23659">
        <ele>59.2</ele>
        <time>2021-09-05T09:57:21Z</time>
      </trkpt>
      <trkpt lat="49.88971" lon="2.23662">
        <ele>59.1</ele>
        <time>2021-09-05T09:57:23Z</time>
      </trkpt>
      <trkpt lat="49.8897" lon="2.23662">
        <ele>59.1</ele>
        <time>2021-09-05T09:57:24Z</time>
      </trkpt>
      <trkpt lat="49.88969" lon="2.23663">
        <ele>59.1</ele>
        <time>2021-09-05T09:57:25Z</time>
      </trkpt>
      <trkpt lat="49.88969" lon="2.23664">
        <ele>59.1</ele>
        <time>2021-09-05T09:57:26Z</time>
      </trkpt>
      <trkpt lat="49.88968" lon="2.23666">
        <ele>59.1</ele>
        <time>2021-09-05T09:57:27Z</time>
      </trkpt>
      <trkpt lat="49.88967" lon="2.23667">
        <ele>59.1</ele>
        <time>2021-09-05T09:57:28Z</time>
      </trkpt>
      <trkpt lat="49.88966" lon="2.23669">
        <ele>59.1</ele>
        <time>2021-09-05T09:57:29Z</time>
      </trkpt>
      <trkpt lat="49.88965" lon="2.23671">
        <ele>59.1</ele>
        <time>2021-09-05T09:57:30Z</time>
      </trkpt>
      <trkpt lat="49.88965" lon="2.23672">
        <ele>59.1</ele>
        <time>2021-09-05T09:57:31Z</time>
      </trkpt>
      <trkpt lat="49.88964" lon="2.23674">
        <ele>59</ele>
        <time>2021-09-05T09:57:32Z</time>
      </trkpt>
      <trkpt lat="49.88963" lon="2.23675">
        <ele>59</ele>
        <time>2021-09-05T09:57:33Z</time>
      </trkpt>
      <trkpt lat="49.88962" lon="2.23677">
        <ele>59</ele>
        <time>2021-09-05T09:57:34Z</time>
      </trkpt>
      <trkpt lat="49.88961" lon="2.23679">
        <ele>59</ele>
        <time>2021-09-05T09:57:36Z</time>
      </trkpt>
      <trkpt lat="49.8896" lon="2.23683">
        <ele>59</ele>
        <time>2021-09-05T09:57:37Z</time>
      </trkpt>
      <trkpt lat="49.88959" lon="2.23684">
        <ele>59</ele>
        <time>2021-09-05T09:57:39Z</time>
      </trkpt>
      <trkpt lat="49.88959" lon="2.23686">
        <ele>59</ele>
        <time>2021-09-05T09:57:40Z</time>
      </trkpt>
      <trkpt lat="49.88958" lon="2.23687">
        <ele>59</ele>
        <time>2021-09-05T09:57:41Z</time>
      </trkpt>
      <trkpt lat="49.88957" lon="2.23689">
        <ele>59</ele>
        <time>2021-09-05T09:57:42Z</time>
      </trkpt>
      <trkpt lat="49.88957" lon="2.23691">
        <ele>59</ele>
        <time>2021-09-05T09:57:43Z</time>
      </trkpt>
      <trkpt lat="49.88956" lon="2.23693">
        <ele>59</ele>
        <time>2021-09-05T09:57:44Z</time>
      </trkpt>
      <trkpt lat="49.88955" lon="2.23695">
        <ele>59</ele>
        <time>2021-09-05T09:57:45Z</time>
      </trkpt>
      <trkpt lat="49.88955" lon="2.23697">
        <ele>59</ele>
        <time>2021-09-05T09:57:46Z</time>
      </trkpt>
      <trkpt lat="49.88954" lon="2.23698">
        <ele>59</ele>
        <time>2021-09-05T09:57:47Z</time>
      </trkpt>
      <trkpt lat="49.88953" lon="2.237">
        <ele>59</ele>
        <time>2021-09-05T09:57:49Z</time>
      </trkpt>
      <trkpt lat="49.88953" lon="2.23702">
        <ele>59</ele>
        <time>2021-09-05T09:57:50Z</time>
      </trkpt>
      <trkpt lat="49.88952" lon="2.23704">
        <ele>59</ele>
        <time>2021-09-05T09:57:51Z</time>
      </trkpt>
      <trkpt lat="49.88951" lon="2.23706">
        <ele>59</ele>
        <time>2021-09-05T09:57:52Z</time>
      </trkpt>
      <trkpt lat="49.8895" lon="2.23708">
        <ele>59</ele>
        <time>2021-09-05T09:57:53Z</time>
      </trkpt>
      <trkpt lat="49.88949" lon="2.23709">
        <ele>59</ele>
        <time>2021-09-05T09:57:54Z</time>
      </trkpt>
      <trkpt lat="49.88949" lon="2.2371">
        <ele>59</ele>
        <time>2021-09-05T09:57:55Z</time>
      </trkpt>
      <trkpt lat="49.88948" lon="2.23712">
        <ele>59</ele>
        <time>2021-09-05T09:57:56Z</time>
      </trkpt>
      <trkpt lat="49.88947" lon="2.23714">
        <ele>59</ele>
        <time>2021-09-05T09:57:58Z</time>
      </trkpt>
      <trkpt lat="49.88946" lon="2.23715">
        <ele>59</ele>
        <time>2021-09-05T09:57:59Z</time>
      </trkpt>
      <trkpt lat="49.88945" lon="2.23718">
        <ele>59</ele>
        <time>2021-09-05T09:58:00Z</time>
      </trkpt>
      <trkpt lat="49.88944" lon="2.2372">
        <ele>59</ele>
        <time>2021-09-05T09:58:02Z</time>
      </trkpt>
      <trkpt lat="49.88943" lon="2.23721">
        <ele>59</ele>
        <time>2021-09-05T09:58:03Z</time>
      </trkpt>
      <trkpt lat="49.88942" lon="2.23724">
        <ele>59</ele>
        <time>2021-09-05T09:58:04Z</time>
      </trkpt>
      <trkpt lat="49.88941" lon="2.23725">
        <ele>59</ele>
        <time>2021-09-05T09:58:05Z</time>
      </trkpt>
      <trkpt lat="49.88941" lon="2.23726">
        <ele>59</ele>
        <time>2021-09-05T09:58:06Z</time>
      </trkpt>
      <trkpt lat="49.8894" lon="2.23728">
        <ele>59</ele>
        <time>2021-09-05T09:58:07Z</time>
      </trkpt>
      <trkpt lat="49.8894" lon="2.2373">
        <ele>59</ele>
        <time>2021-09-05T09:58:09Z</time>
      </trkpt>
      <trkpt lat="49.88939" lon="2.23731">
        <ele>59</ele>
        <time>2021-09-05T09:58:10Z</time>
      </trkpt>
      <trkpt lat="49.88938" lon="2.23733">
        <ele>59</ele>
        <time>2021-09-05T09:58:11Z</time>
      </trkpt>
      <trkpt lat="49.88937" lon="2.23734">
        <ele>59</ele>
        <time>2021-09-05T09:58:12Z</time>
      </trkpt>
      <trkpt lat="49.88936" lon="2.23736">
        <ele>59</ele>
        <time>2021-09-05T09:58:13Z</time>
      </trkpt>
      <trkpt lat="49.88935" lon="2.23738">
        <ele>59</ele>
        <time>2021-09-05T09:58:14Z</time>
      </trkpt>
      <trkpt lat="49.88934" lon="2.2374">
        <ele>59</ele>
        <time>2021-09-05T09:58:15Z</time>
      </trkpt>
      <trkpt lat="49.88933" lon="2.23741">
        <ele>59</ele>
        <time>2021-09-05T09:58:16Z</time>
      </trkpt>
      <trkpt lat="49.88933" lon="2.23742">
        <ele>59</ele>
        <time>2021-09-05T09:58:17Z</time>
      </trkpt>
      <trkpt lat="49.88932" lon="2.23744">
        <ele>59</ele>
        <time>2021-09-05T09:58:18Z</time>
      </trkpt>
      <trkpt lat="49.88931" lon="2.23746">
        <ele>59</ele>
        <time>2021-09-05T09:58:19Z</time>
      </trkpt>
      <trkpt lat="49.8893" lon="2.23749">
        <ele>59</ele>
        <time>2021-09-05T09:58:20Z</time>
      </trkpt>
      <trkpt lat="49.88929" lon="2.23751">
        <ele>59</ele>
        <time>2021-09-05T09:58:21Z</time>
      </trkpt>
      <trkpt lat="49.88929" lon="2.23752">
        <ele>59</ele>
        <time>2021-09-05T09:58:22Z</time>
      </trkpt>
      <trkpt lat="49.88928" lon="2.23755">
        <ele>59</ele>
        <time>2021-09-05T09:58:23Z</time>
      </trkpt>
      <trkpt lat="49.88927" lon="2.23756">
        <ele>59</ele>
        <time>2021-09-05T09:58:24Z</time>
      </trkpt>
      <trkpt lat="49.88927" lon="2.23757">
        <ele>59</ele>
        <time>2021-09-05T09:58:25Z</time>
      </trkpt>
      <trkpt lat="49.88926" lon="2.23759">
        <ele>59</ele>
        <time>2021-09-05T09:58:26Z</time>
      </trkpt>
      <trkpt lat="49.88925" lon="2.2376">
        <ele>59</ele>
        <time>2021-09-05T09:58:27Z</time>
      </trkpt>
      <trkpt lat="49.88925" lon="2.23762">
        <ele>59</ele>
        <time>2021-09-05T09:58:29Z</time>
      </trkpt>
      <trkpt lat="49.88924" lon="2.23765">
        <ele>59</ele>
        <time>2021-09-05T09:58:30Z</time>
      </trkpt>
      <trkpt lat="49.88923" lon="2.23767">
        <ele>59.1</ele>
        <time>2021-09-05T09:58:31Z</time>
      </trkpt>
      <trkpt lat="49.88923" lon="2.23769">
        <ele>59.1</ele>
        <time>2021-09-05T09:58:33Z</time>
      </trkpt>
      <trkpt lat="49.88922" lon="2.23771">
        <ele>59.1</ele>
        <time>2021-09-05T09:58:34Z</time>
      </trkpt>
      <trkpt lat="49.88921" lon="2.23773">
        <ele>59.1</ele>
        <time>2021-09-05T09:58:35Z</time>
      </trkpt>
      <trkpt lat="49.8892" lon="2.23776">
        <ele>59.1</ele>
        <time>2021-09-05T09:58:37Z</time>
      </trkpt>
      <trkpt lat="49.88919" lon="2.23778">
        <ele>59.1</ele>
        <time>2021-09-05T09:58:38Z</time>
      </trkpt>
      <trkpt lat="49.88918" lon="2.2378">
        <ele>59.1</ele>
        <time>2021-09-05T09:58:39Z</time>
      </trkpt>
      <trkpt lat="49.88917" lon="2.23781">
        <ele>59.1</ele>
        <time>2021-09-05T09:58:40Z</time>
      </trkpt>
      <trkpt lat="49.88916" lon="2.23782">
        <ele>59</ele>
        <time>2021-09-05T09:58:41Z</time>
      </trkpt>
      <trkpt lat="49.88915" lon="2.23784">
        <ele>59</ele>
        <time>2021-09-05T09:58:43Z</time>
      </trkpt>
      <trkpt lat="49.88914" lon="2.23786">
        <ele>59</ele>
        <time>2021-09-05T09:58:44Z</time>
      </trkpt>
      <trkpt lat="49.88913" lon="2.23787">
        <ele>59</ele>
        <time>2021-09-05T09:58:45Z</time>
      </trkpt>
      <trkpt lat="49.88912" lon="2.23788">
        <ele>59</ele>
        <time>2021-09-05T09:58:46Z</time>
      </trkpt>
      <trkpt lat="49.88911" lon="2.2379">
        <ele>59</ele>
        <time>2021-09-05T09:58:47Z</time>
      </trkpt>
      <trkpt lat="49.8891" lon="2.23792">
        <ele>59</ele>
        <time>2021-09-05T09:58:49Z</time>
      </trkpt>
      <trkpt lat="49.88909" lon="2.23793">
        <ele>59</ele>
        <time>2021-09-05T09:58:50Z</time>
      </trkpt>
      <trkpt lat="49.88908" lon="2.23794">
        <ele>59</ele>
        <time>2021-09-05T09:58:51Z</time>
      </trkpt>
      <trkpt lat="49.88908" lon="2.23796">
        <ele>59</ele>
        <time>2021-09-05T09:58:52Z</time>
      </trkpt>
      <trkpt lat="49.88907" lon="2.23797">
        <ele>59</ele>
        <time>2021-09-05T09:58:53Z</time>
      </trkpt>
      <trkpt lat="49.88905" lon="2.23799">
        <ele>59</ele>
        <time>2021-09-05T09:58:55Z</time>
      </trkpt>
      <trkpt lat="49.88904" lon="2.23801">
        <ele>59</ele>
        <time>2021-09-05T09:58:56Z</time>
      </trkpt>
      <trkpt lat="49.88903" lon="2.23802">
        <ele>58.9</ele>
        <time>2021-09-05T09:58:57Z</time>
      </trkpt>
      <trkpt lat="49.88902" lon="2.23803">
        <ele>58.9</ele>
        <time>2021-09-05T09:58:58Z</time>
      </trkpt>
      <trkpt lat="49.88901" lon="2.23804">
        <ele>58.9</ele>
        <time>2021-09-05T09:58:59Z</time>
      </trkpt>
      <trkpt lat="49.88899" lon="2.23806">
        <ele>58.9</ele>
        <time>2021-09-05T09:59:00Z</time>
      </trkpt>
      <trkpt lat="49.88898" lon="2.23807">
        <ele>58.9</ele>
        <time>2021-09-05T09:59:01Z</time>
      </trkpt>
      <trkpt lat="49.88897" lon="2.23808">
        <ele>58.9</ele>
        <time>2021-09-05T09:59:02Z</time>
      </trkpt>
      <trkpt lat="49.88896" lon="2.23809">
        <ele>58.9</ele>
        <time>2021-09-05T09:59:03Z</time>
      </trkpt>
      <trkpt lat="49.88894" lon="2.2381">
        <ele>58.9</ele>
        <time>2021-09-05T09:59:04Z</time>
      </trkpt>
      <trkpt lat="49.88893" lon="2.23811">
        <ele>58.9</ele>
        <time>2021-09-05T09:59:06Z</time>
      </trkpt>
      <trkpt lat="49.88892" lon="2.23813">
        <ele>58.8</ele>
        <time>2021-09-05T09:59:07Z</time>
      </trkpt>
      <trkpt lat="49.88891" lon="2.23815">
        <ele>58.8</ele>
        <time>2021-09-05T09:59:09Z</time>
      </trkpt>
      <trkpt lat="49.8889" lon="2.23816">
        <ele>58.8</ele>
        <time>2021-09-05T09:59:10Z</time>
      </trkpt>
      <trkpt lat="49.88889" lon="2.23817">
        <ele>58.8</ele>
        <time>2021-09-05T09:59:11Z</time>
      </trkpt>
      <trkpt lat="49.88888" lon="2.23819">
        <ele>58.8</ele>
        <time>2021-09-05T09:59:12Z</time>
      </trkpt>
      <trkpt lat="49.88887" lon="2.2382">
        <ele>58.8</ele>
        <time>2021-09-05T09:59:14Z</time>
      </trkpt>
      <trkpt lat="49.88886" lon="2.23822">
        <ele>58.8</ele>
        <time>2021-09-05T09:59:15Z</time>
      </trkpt>
      <trkpt lat="49.88885" lon="2.23823">
        <ele>58.8</ele>
        <time>2021-09-05T09:59:16Z</time>
      </trkpt>
      <trkpt lat="49.88884" lon="2.23826">
        <ele>58.7</ele>
        <time>2021-09-05T09:59:17Z</time>
      </trkpt>
      <trkpt lat="49.88883" lon="2.23826">
        <ele>58.7</ele>
        <time>2021-09-05T09:59:18Z</time>
      </trkpt>
      <trkpt lat="49.88883" lon="2.23827">
        <ele>58.7</ele>
        <time>2021-09-05T09:59:19Z</time>
      </trkpt>
      <trkpt lat="49.88881" lon="2.23829">
        <ele>58.7</ele>
        <time>2021-09-05T09:59:20Z</time>
      </trkpt>
      <trkpt lat="49.8888" lon="2.2383">
        <ele>58.7</ele>
        <time>2021-09-05T09:59:21Z</time>
      </trkpt>
      <trkpt lat="49.88878" lon="2.23832">
        <ele>58.7</ele>
        <time>2021-09-05T09:59:23Z</time>
      </trkpt>
      <trkpt lat="49.88876" lon="2.23833">
        <ele>58.7</ele>
        <time>2021-09-05T09:59:25Z</time>
      </trkpt>
      <trkpt lat="49.88875" lon="2.23835">
        <ele>58.7</ele>
        <time>2021-09-05T09:59:26Z</time>
      </trkpt>
      <trkpt lat="49.88874" lon="2.23837">
        <ele>58.6</ele>
        <time>2021-09-05T09:59:27Z</time>
      </trkpt>
      <trkpt lat="49.88872" lon="2.23839">
        <ele>58.6</ele>
        <time>2021-09-05T09:59:29Z</time>
      </trkpt>
      <trkpt lat="49.88871" lon="2.2384">
        <ele>58.6</ele>
        <time>2021-09-05T09:59:31Z</time>
      </trkpt>
      <trkpt lat="49.88869" lon="2.23842">
        <ele>58.6</ele>
        <time>2021-09-05T09:59:32Z</time>
      </trkpt>
      <trkpt lat="49.88869" lon="2.23843">
        <ele>58.6</ele>
        <time>2021-09-05T09:59:33Z</time>
      </trkpt>
      <trkpt lat="49.88868" lon="2.23844">
        <ele>58.6</ele>
        <time>2021-09-05T09:59:34Z</time>
      </trkpt>
      <trkpt lat="49.88866" lon="2.23845">
        <ele>58.6</ele>
        <time>2021-09-05T09:59:36Z</time>
      </trkpt>
      <trkpt lat="49.88865" lon="2.23846">
        <ele>58.5</ele>
        <time>2021-09-05T09:59:37Z</time>
      </trkpt>
      <trkpt lat="49.88864" lon="2.23847">
        <ele>58.5</ele>
        <time>2021-09-05T09:59:38Z</time>
      </trkpt>
      <trkpt lat="49.88863" lon="2.23848">
        <ele>58.5</ele>
        <time>2021-09-05T09:59:39Z</time>
      </trkpt>
      <trkpt lat="49.88862" lon="2.23848">
        <ele>58.5</ele>
        <time>2021-09-05T09:59:40Z</time>
      </trkpt>
      <trkpt lat="49.8886" lon="2.2385">
        <ele>58.5</ele>
        <time>2021-09-05T09:59:41Z</time>
      </trkpt>
      <trkpt lat="49.8886" lon="2.23851">
        <ele>58.5</ele>
        <time>2021-09-05T09:59:42Z</time>
      </trkpt>
      <trkpt lat="49.88859" lon="2.23852">
        <ele>58.4</ele>
        <time>2021-09-05T09:59:43Z</time>
      </trkpt>
      <trkpt lat="49.88858" lon="2.23853">
        <ele>58.4</ele>
        <time>2021-09-05T09:59:44Z</time>
      </trkpt>
      <trkpt lat="49.88857" lon="2.23854">
        <ele>58.4</ele>
        <time>2021-09-05T09:59:45Z</time>
      </trkpt>
      <trkpt lat="49.88855" lon="2.23855">
        <ele>58.4</ele>
        <time>2021-09-05T09:59:47Z</time>
      </trkpt>
      <trkpt lat="49.88854" lon="2.23856">
        <ele>58.4</ele>
        <time>2021-09-05T09:59:48Z</time>
      </trkpt>
      <trkpt lat="49.88852" lon="2.23858">
        <ele>58.3</ele>
        <time>2021-09-05T09:59:49Z</time>
      </trkpt>
      <trkpt lat="49.8885" lon="2.2386">
        <ele>58.3</ele>
        <time>2021-09-05T09:59:51Z</time>
      </trkpt>
      <trkpt lat="49.88849" lon="2.23862">
        <ele>58.3</ele>
        <time>2021-09-05T09:59:53Z</time>
      </trkpt>
      <trkpt lat="49.88848" lon="2.23863">
        <ele>58.3</ele>
        <time>2021-09-05T09:59:54Z</time>
      </trkpt>
      <trkpt lat="49.88846" lon="2.23865">
        <ele>58.2</ele>
        <time>2021-09-05T09:59:55Z</time>
      </trkpt>
      <trkpt lat="49.88845" lon="2.23866">
        <ele>58.2</ele>
        <time>2021-09-05T09:59:57Z</time>
      </trkpt>
      <trkpt lat="49.88843" lon="2.23867">
        <ele>58.2</ele>
        <time>2021-09-05T09:59:58Z</time>
      </trkpt>
      <trkpt lat="49.88842" lon="2.23869">
        <ele>58.2</ele>
        <time>2021-09-05T09:59:59Z</time>
      </trkpt>
      <trkpt lat="49.88841" lon="2.2387">
        <ele>58.2</ele>
        <time>2021-09-05T10:00:00Z</time>
      </trkpt>
      <trkpt lat="49.8884" lon="2.2387">
        <ele>58.1</ele>
        <time>2021-09-05T10:00:01Z</time>
      </trkpt>
      <trkpt lat="49.88839" lon="2.23871">
        <ele>58.1</ele>
        <time>2021-09-05T10:00:02Z</time>
      </trkpt>
      <trkpt lat="49.88838" lon="2.23873">
        <ele>58.1</ele>
        <time>2021-09-05T10:00:03Z</time>
      </trkpt>
      <trkpt lat="49.88836" lon="2.23874">
        <ele>58.1</ele>
        <time>2021-09-05T10:00:04Z</time>
      </trkpt>
      <trkpt lat="49.88836" lon="2.23876">
        <ele>58.1</ele>
        <time>2021-09-05T10:00:05Z</time>
      </trkpt>
      <trkpt lat="49.88834" lon="2.23878">
        <ele>58</ele>
        <time>2021-09-05T10:00:06Z</time>
      </trkpt>
      <trkpt lat="49.88833" lon="2.23879">
        <ele>58</ele>
        <time>2021-09-05T10:00:08Z</time>
      </trkpt>
      <trkpt lat="49.88832" lon="2.2388">
        <ele>58</ele>
        <time>2021-09-05T10:00:09Z</time>
      </trkpt>
      <trkpt lat="49.88831" lon="2.2388">
        <ele>58</ele>
        <time>2021-09-05T10:00:11Z</time>
      </trkpt>
      <trkpt lat="49.8883" lon="2.23881">
        <ele>58</ele>
        <time>2021-09-05T10:00:12Z</time>
      </trkpt>
      <trkpt lat="49.88829" lon="2.23882">
        <ele>58</ele>
        <time>2021-09-05T10:00:13Z</time>
      </trkpt>
      <trkpt lat="49.88829" lon="2.23883">
        <ele>58</ele>
        <time>2021-09-05T10:00:14Z</time>
      </trkpt>
      <trkpt lat="49.88827" lon="2.23883">
        <ele>57.9</ele>
        <time>2021-09-05T10:00:15Z</time>
      </trkpt>
      <trkpt lat="49.88826" lon="2.23884">
        <ele>57.9</ele>
        <time>2021-09-05T10:00:17Z</time>
      </trkpt>
      <trkpt lat="49.88824" lon="2.23885">
        <ele>57.9</ele>
        <time>2021-09-05T10:00:18Z</time>
      </trkpt>
      <trkpt lat="49.88823" lon="2.23885">
        <ele>57.9</ele>
        <time>2021-09-05T10:00:19Z</time>
      </trkpt>
      <trkpt lat="49.88822" lon="2.23886">
        <ele>57.9</ele>
        <time>2021-09-05T10:00:20Z</time>
      </trkpt>
      <trkpt lat="49.88821" lon="2.23886">
        <ele>57.9</ele>
        <time>2021-09-05T10:00:21Z</time>
      </trkpt>
      <trkpt lat="49.88819" lon="2.23887">
        <ele>57.9</ele>
        <time>2021-09-05T10:00:23Z</time>
      </trkpt>
      <trkpt lat="49.88818" lon="2.23888">
        <ele>57.8</ele>
        <time>2021-09-05T10:00:24Z</time>
      </trkpt>
      <trkpt lat="49.88817" lon="2.23889">
        <ele>57.8</ele>
        <time>2021-09-05T10:00:25Z</time>
      </trkpt>
      <trkpt lat="49.88816" lon="2.23889">
        <ele>57.8</ele>
        <time>2021-09-05T10:00:26Z</time>
      </trkpt>
      <trkpt lat="49.88815" lon="2.23891">
        <ele>57.8</ele>
        <time>2021-09-05T10:00:27Z</time>
      </trkpt>
      <trkpt lat="49.88814" lon="2.23892">
        <ele>57.8</ele>
        <time>2021-09-05T10:00:28Z</time>
      </trkpt>
      <trkpt lat="49.88813" lon="2.23893">
        <ele>57.7</ele>
        <time>2021-09-05T10:00:30Z</time>
      </trkpt>
      <trkpt lat="49.88811" lon="2.23894">
        <ele>57.7</ele>
        <time>2021-09-05T10:00:31Z</time>
      </trkpt>
      <trkpt lat="49.88809" lon="2.23895">
        <ele>57.7</ele>
        <time>2021-09-05T10:00:32Z</time>
      </trkpt>
      <trkpt lat="49.88808" lon="2.23896">
        <ele>57.6</ele>
        <time>2021-09-05T10:00:33Z</time>
      </trkpt>
      <trkpt lat="49.88807" lon="2.23896">
        <ele>57.6</ele>
        <time>2021-09-05T10:00:34Z</time>
      </trkpt>
      <trkpt lat="49.88806" lon="2.23897">
        <ele>57.6</ele>
        <time>2021-09-05T10:00:35Z</time>
      </trkpt>
      <trkpt lat="49.88804" lon="2.23897">
        <ele>57.6</ele>
        <time>2021-09-05T10:00:37Z</time>
      </trkpt>
      <trkpt lat="49.88803" lon="2.23897">
        <ele>57.5</ele>
        <time>2021-09-05T10:00:38Z</time>
      </trkpt>
      <trkpt lat="49.88801" lon="2.23897">
        <ele>57.5</ele>
        <time>2021-09-05T10:00:39Z</time>
      </trkpt>
      <trkpt lat="49.888" lon="2.23898">
        <ele>57.5</ele>
        <time>2021-09-05T10:00:40Z</time>
      </trkpt>
      <trkpt lat="49.88799" lon="2.23898">
        <ele>57.5</ele>
        <time>2021-09-05T10:00:42Z</time>
      </trkpt>
      <trkpt lat="49.88798" lon="2.23899">
        <ele>57.4</ele>
        <time>2021-09-05T10:00:43Z</time>
      </trkpt>
      <trkpt lat="49.88796" lon="2.239">
        <ele>57.4</ele>
        <time>2021-09-05T10:00:44Z</time>
      </trkpt>
      <trkpt lat="49.88795" lon="2.23901">
        <ele>57.4</ele>
        <time>2021-09-05T10:00:46Z</time>
      </trkpt>
      <trkpt lat="49.88794" lon="2.23902">
        <ele>57.4</ele>
        <time>2021-09-05T10:00:47Z</time>
      </trkpt>
      <trkpt lat="49.88793" lon="2.23903">
        <ele>57.3</ele>
        <time>2021-09-05T10:00:48Z</time>
      </trkpt>
      <trkpt lat="49.88792" lon="2.23904">
        <ele>57.3</ele>
        <time>2021-09-05T10:00:49Z</time>
      </trkpt>
      <trkpt lat="49.8879" lon="2.23906">
        <ele>57.3</ele>
        <time>2021-09-05T10:00:50Z</time>
      </trkpt>
      <trkpt lat="49.8879" lon="2.23907">
        <ele>57.3</ele>
        <time>2021-09-05T10:00:52Z</time>
      </trkpt>
      <trkpt lat="49.88789" lon="2.23908">
        <ele>57.2</ele>
        <time>2021-09-05T10:00:53Z</time>
      </trkpt>
      <trkpt lat="49.88788" lon="2.23909">
        <ele>57.2</ele>
        <time>2021-09-05T10:00:54Z</time>
      </trkpt>
      <trkpt lat="49.88787" lon="2.2391">
        <ele>57.2</ele>
        <time>2021-09-05T10:00:55Z</time>
      </trkpt>
      <trkpt lat="49.88786" lon="2.23911">
        <ele>57.2</ele>
        <time>2021-09-05T10:00:56Z</time>
      </trkpt>
      <trkpt lat="49.88785" lon="2.23913">
        <ele>57.1</ele>
        <time>2021-09-05T10:00:57Z</time>
      </trkpt>
      <trkpt lat="49.88784" lon="2.23914">
        <ele>57.1</ele>
        <time>2021-09-05T10:00:58Z</time>
      </trkpt>
      <trkpt lat="49.88784" lon="2.23915">
        <ele>57.1</ele>
        <time>2021-09-05T10:00:59Z</time>
      </trkpt>
      <trkpt lat="49.88782" lon="2.23917">
        <ele>57</ele>
        <time>2021-09-05T10:01:00Z</time>
      </trkpt>
      <trkpt lat="49.88782" lon="2.23918">
        <ele>57</ele>
        <time>2021-09-05T10:01:01Z</time>
      </trkpt>
      <trkpt lat="49.88781" lon="2.23919">
        <ele>57</ele>
        <time>2021-09-05T10:01:02Z</time>
      </trkpt>
      <trkpt lat="49.88779" lon="2.23921">
        <ele>57</ele>
        <time>2021-09-05T10:01:04Z</time>
      </trkpt>
      <trkpt lat="49.88778" lon="2.23922">
        <ele>56.9</ele>
        <time>2021-09-05T10:01:05Z</time>
      </trkpt>
      <trkpt lat="49.88776" lon="2.23923">
        <ele>56.9</ele>
        <time>2021-09-05T10:01:06Z</time>
      </trkpt>
      <trkpt lat="49.88775" lon="2.23924">
        <ele>56.8</ele>
        <time>2021-09-05T10:01:07Z</time>
      </trkpt>
      <trkpt lat="49.88774" lon="2.23925">
        <ele>56.8</ele>
        <time>2021-09-05T10:01:08Z</time>
      </trkpt>
      <trkpt lat="49.88773" lon="2.23926">
        <ele>56.8</ele>
        <time>2021-09-05T10:01:09Z</time>
      </trkpt>
      <trkpt lat="49.88772" lon="2.23927">
        <ele>56.8</ele>
        <time>2021-09-05T10:01:11Z</time>
      </trkpt>
      <trkpt lat="49.8877" lon="2.23929">
        <ele>56.7</ele>
        <time>2021-09-05T10:01:12Z</time>
      </trkpt>
      <trkpt lat="49.88769" lon="2.2393">
        <ele>56.7</ele>
        <time>2021-09-05T10:01:13Z</time>
      </trkpt>
      <trkpt lat="49.88768" lon="2.23931">
        <ele>56.6</ele>
        <time>2021-09-05T10:01:14Z</time>
      </trkpt>
      <trkpt lat="49.88766" lon="2.23932">
        <ele>56.6</ele>
        <time>2021-09-05T10:01:15Z</time>
      </trkpt>
      <trkpt lat="49.88764" lon="2.23934">
        <ele>56.6</ele>
        <time>2021-09-05T10:01:17Z</time>
      </trkpt>
      <trkpt lat="49.88763" lon="2.23934">
        <ele>56.5</ele>
        <time>2021-09-05T10:01:18Z</time>
      </trkpt>
      <trkpt lat="49.88762" lon="2.23935">
        <ele>56.5</ele>
        <time>2021-09-05T10:01:19Z</time>
      </trkpt>
      <trkpt lat="49.88761" lon="2.23936">
        <ele>56.4</ele>
        <time>2021-09-05T10:01:20Z</time>
      </trkpt>
      <trkpt lat="49.88759" lon="2.23937">
        <ele>56.4</ele>
        <time>2021-09-05T10:01:22Z</time>
      </trkpt>
      <trkpt lat="49.88758" lon="2.23938">
        <ele>56.3</ele>
        <time>2021-09-05T10:01:23Z</time>
      </trkpt>
      <trkpt lat="49.88757" lon="2.2394">
        <ele>56.3</ele>
        <time>2021-09-05T10:01:24Z</time>
      </trkpt>
      <trkpt lat="49.88756" lon="2.23941">
        <ele>56.3</ele>
        <time>2021-09-05T10:01:25Z</time>
      </trkpt>
      <trkpt lat="49.88754" lon="2.23943">
        <ele>56.2</ele>
        <time>2021-09-05T10:01:27Z</time>
      </trkpt>
      <trkpt lat="49.88751" lon="2.23946">
        <ele>56.1</ele>
        <time>2021-09-05T10:01:28Z</time>
      </trkpt>
      <trkpt lat="49.88751" lon="2.23946">
        <ele>56.1</ele>
        <time>2021-09-05T10:01:29Z</time>
      </trkpt>
      <trkpt lat="49.88749" lon="2.23947">
        <ele>56</ele>
        <time>2021-09-05T10:01:31Z</time>
      </trkpt>
      <trkpt lat="49.88748" lon="2.23948">
        <ele>56</ele>
        <time>2021-09-05T10:01:32Z</time>
      </trkpt>
      <trkpt lat="49.88746" lon="2.2395">
        <ele>55.9</ele>
        <time>2021-09-05T10:01:33Z</time>
      </trkpt>
      <trkpt lat="49.88745" lon="2.23951">
        <ele>55.9</ele>
        <time>2021-09-05T10:01:35Z</time>
      </trkpt>
      <trkpt lat="49.88744" lon="2.23951">
        <ele>55.9</ele>
        <time>2021-09-05T10:01:36Z</time>
      </trkpt>
      <trkpt lat="49.88743" lon="2.23952">
        <ele>55.8</ele>
        <time>2021-09-05T10:01:37Z</time>
      </trkpt>
      <trkpt lat="49.88742" lon="2.23953">
        <ele>55.8</ele>
        <time>2021-09-05T10:01:38Z</time>
      </trkpt>
      <trkpt lat="49.8874" lon="2.23955">
        <ele>55.7</ele>
        <time>2021-09-05T10:01:39Z</time>
      </trkpt>
      <trkpt lat="49.88739" lon="2.23955">
        <ele>55.7</ele>
        <time>2021-09-05T10:01:40Z</time>
      </trkpt>
      <trkpt lat="49.88739" lon="2.23956">
        <ele>55.7</ele>
        <time>2021-09-05T10:01:41Z</time>
      </trkpt>
      <trkpt lat="49.88737" lon="2.23957">
        <ele>55.7</ele>
        <time>2021-09-05T10:01:42Z</time>
      </trkpt>
      <trkpt lat="49.88737" lon="2.23958">
        <ele>55.6</ele>
        <time>2021-09-05T10:01:43Z</time>
      </trkpt>
      <trkpt lat="49.88736" lon="2.23959">
        <ele>55.6</ele>
        <time>2021-09-05T10:01:44Z</time>
      </trkpt>
      <trkpt lat="49.88735" lon="2.2396">
        <ele>55.6</ele>
        <time>2021-09-05T10:01:45Z</time>
      </trkpt>
      <trkpt lat="49.88734" lon="2.23961">
        <ele>55.5</ele>
        <time>2021-09-05T10:01:46Z</time>
      </trkpt>
      <trkpt lat="49.88733" lon="2.23962">
        <ele>55.5</ele>
        <time>2021-09-05T10:01:47Z</time>
      </trkpt>
      <trkpt lat="49.88732" lon="2.23963">
        <ele>55.4</ele>
        <time>2021-09-05T10:01:49Z</time>
      </trkpt>
      <trkpt lat="49.88731" lon="2.23965">
        <ele>55.4</ele>
        <time>2021-09-05T10:01:50Z</time>
      </trkpt>
      <trkpt lat="49.88729" lon="2.23966">
        <ele>55.3</ele>
        <time>2021-09-05T10:01:51Z</time>
      </trkpt>
      <trkpt lat="49.88728" lon="2.23967">
        <ele>55.3</ele>
        <time>2021-09-05T10:01:52Z</time>
      </trkpt>
      <trkpt lat="49.88727" lon="2.23968">
        <ele>55.2</ele>
        <time>2021-09-05T10:01:53Z</time>
      </trkpt>
      <trkpt lat="49.88726" lon="2.2397">
        <ele>55.2</ele>
        <time>2021-09-05T10:01:54Z</time>
      </trkpt>
      <trkpt lat="49.88724" lon="2.23971">
        <ele>55.1</ele>
        <time>2021-09-05T10:01:56Z</time>
      </trkpt>
      <trkpt lat="49.88723" lon="2.23972">
        <ele>55.1</ele>
        <time>2021-09-05T10:01:57Z</time>
      </trkpt>
      <trkpt lat="49.88723" lon="2.23973">
        <ele>55.1</ele>
        <time>2021-09-05T10:01:58Z</time>
      </trkpt>
      <trkpt lat="49.88721" lon="2.23974">
        <ele>55</ele>
        <time>2021-09-05T10:01:59Z</time>
      </trkpt>
      <trkpt lat="49.8872" lon="2.23975">
        <ele>55</ele>
        <time>2021-09-05T10:02:00Z</time>
      </trkpt>
      <trkpt lat="49.88717" lon="2.23978">
        <ele>54.9</ele>
        <time>2021-09-05T10:02:01Z</time>
      </trkpt>
      <trkpt lat="49.88716" lon="2.23978">
        <ele>54.8</ele>
        <time>2021-09-05T10:02:03Z</time>
      </trkpt>
      <trkpt lat="49.88715" lon="2.23979">
        <ele>54.8</ele>
        <time>2021-09-05T10:02:04Z</time>
      </trkpt>
      <trkpt lat="49.88715" lon="2.23979">
        <ele>54.8</ele>
        <time>2021-09-05T10:02:05Z</time>
      </trkpt>
      <trkpt lat="49.88714" lon="2.2398">
        <ele>54.8</ele>
        <time>2021-09-05T10:02:07Z</time>
      </trkpt>
      <trkpt lat="49.88713" lon="2.23981">
        <ele>54.7</ele>
        <time>2021-09-05T10:02:08Z</time>
      </trkpt>
      <trkpt lat="49.88712" lon="2.23981">
        <ele>54.7</ele>
        <time>2021-09-05T10:02:09Z</time>
      </trkpt>
      <trkpt lat="49.88711" lon="2.23982">
        <ele>54.7</ele>
        <time>2021-09-05T10:02:10Z</time>
      </trkpt>
      <trkpt lat="49.88709" lon="2.23983">
        <ele>54.6</ele>
        <time>2021-09-05T10:02:11Z</time>
      </trkpt>
      <trkpt lat="49.88708" lon="2.23984">
        <ele>54.6</ele>
        <time>2021-09-05T10:02:12Z</time>
      </trkpt>
      <trkpt lat="49.88707" lon="2.23985">
        <ele>54.5</ele>
        <time>2021-09-05T10:02:14Z</time>
      </trkpt>
      <trkpt lat="49.88706" lon="2.23985">
        <ele>54.5</ele>
        <time>2021-09-05T10:02:15Z</time>
      </trkpt>
      <trkpt lat="49.88705" lon="2.23986">
        <ele>54.5</ele>
        <time>2021-09-05T10:02:16Z</time>
      </trkpt>
      <trkpt lat="49.88703" lon="2.23987">
        <ele>54.4</ele>
        <time>2021-09-05T10:02:17Z</time>
      </trkpt>
      <trkpt lat="49.88702" lon="2.23988">
        <ele>54.4</ele>
        <time>2021-09-05T10:02:18Z</time>
      </trkpt>
      <trkpt lat="49.887" lon="2.2399">
        <ele>54.3</ele>
        <time>2021-09-05T10:02:19Z</time>
      </trkpt>
      <trkpt lat="49.88699" lon="2.2399">
        <ele>54.3</ele>
        <time>2021-09-05T10:02:20Z</time>
      </trkpt>
      <trkpt lat="49.88699" lon="2.23991">
        <ele>54.3</ele>
        <time>2021-09-05T10:02:21Z</time>
      </trkpt>
      <trkpt lat="49.88697" lon="2.23992">
        <ele>54.2</ele>
        <time>2021-09-05T10:02:22Z</time>
      </trkpt>
      <trkpt lat="49.88696" lon="2.23992">
        <ele>54.2</ele>
        <time>2021-09-05T10:02:23Z</time>
      </trkpt>
      <trkpt lat="49.88695" lon="2.23993">
        <ele>54.1</ele>
        <time>2021-09-05T10:02:25Z</time>
      </trkpt>
      <trkpt lat="49.88694" lon="2.23994">
        <ele>54.1</ele>
        <time>2021-09-05T10:02:27Z</time>
      </trkpt>
      <trkpt lat="49.88692" lon="2.23994">
        <ele>54</ele>
        <time>2021-09-05T10:02:28Z</time>
      </trkpt>
      <trkpt lat="49.88691" lon="2.23995">
        <ele>54</ele>
        <time>2021-09-05T10:02:29Z</time>
      </trkpt>
      <trkpt lat="49.8869" lon="2.23996">
        <ele>54</ele>
        <time>2021-09-05T10:02:30Z</time>
      </trkpt>
      <trkpt lat="49.88687" lon="2.23997">
        <ele>53.9</ele>
        <time>2021-09-05T10:02:32Z</time>
      </trkpt>
      <trkpt lat="49.88687" lon="2.23998">
        <ele>53.9</ele>
        <time>2021-09-05T10:02:33Z</time>
      </trkpt>
      <trkpt lat="49.88685" lon="2.23999">
        <ele>53.8</ele>
        <time>2021-09-05T10:02:34Z</time>
      </trkpt>
      <trkpt lat="49.88684" lon="2.23999">
        <ele>53.8</ele>
        <time>2021-09-05T10:02:35Z</time>
      </trkpt>
      <trkpt lat="49.88683" lon="2.24">
        <ele>53.7</ele>
        <time>2021-09-05T10:02:36Z</time>
      </trkpt>
      <trkpt lat="49.88681" lon="2.24002">
        <ele>53.7</ele>
        <time>2021-09-05T10:02:37Z</time>
      </trkpt>
      <trkpt lat="49.8868" lon="2.24003">
        <ele>53.6</ele>
        <time>2021-09-05T10:02:39Z</time>
      </trkpt>
      <trkpt lat="49.88679" lon="2.24003">
        <ele>53.6</ele>
        <time>2021-09-05T10:02:40Z</time>
      </trkpt>
      <trkpt lat="49.88678" lon="2.24004">
        <ele>53.6</ele>
        <time>2021-09-05T10:02:41Z</time>
      </trkpt>
      <trkpt lat="49.88677" lon="2.24005">
        <ele>53.5</ele>
        <time>2021-09-05T10:02:42Z</time>
      </trkpt>
      <trkpt lat="49.88675" lon="2.24007">
        <ele>53.5</ele>
        <time>2021-09-05T10:02:44Z</time>
      </trkpt>
      <trkpt lat="49.88674" lon="2.24008">
        <ele>53.4</ele>
        <time>2021-09-05T10:02:45Z</time>
      </trkpt>
      <trkpt lat="49.88673" lon="2.24009">
        <ele>53.4</ele>
        <time>2021-09-05T10:02:47Z</time>
      </trkpt>
      <trkpt lat="49.88672" lon="2.24011">
        <ele>53.3</ele>
        <time>2021-09-05T10:02:48Z</time>
      </trkpt>
      <trkpt lat="49.88671" lon="2.24012">
        <ele>53.3</ele>
        <time>2021-09-05T10:02:49Z</time>
      </trkpt>
      <trkpt lat="49.88669" lon="2.24013">
        <ele>53.2</ele>
        <time>2021-09-05T10:02:51Z</time>
      </trkpt>
      <trkpt lat="49.88668" lon="2.24014">
        <ele>53.2</ele>
        <time>2021-09-05T10:02:52Z</time>
      </trkpt>
      <trkpt lat="49.88667" lon="2.24014">
        <ele>53.2</ele>
        <time>2021-09-05T10:02:53Z</time>
      </trkpt>
      <trkpt lat="49.88666" lon="2.24015">
        <ele>53.1</ele>
        <time>2021-09-05T10:02:54Z</time>
      </trkpt>
      <trkpt lat="49.88665" lon="2.24016">
        <ele>53.1</ele>
        <time>2021-09-05T10:02:55Z</time>
      </trkpt>
      <trkpt lat="49.88664" lon="2.24017">
        <ele>53</ele>
        <time>2021-09-05T10:02:56Z</time>
      </trkpt>
      <trkpt lat="49.88662" lon="2.24018">
        <ele>53</ele>
        <time>2021-09-05T10:02:58Z</time>
      </trkpt>
      <trkpt lat="49.88661" lon="2.2402">
        <ele>52.9</ele>
        <time>2021-09-05T10:02:59Z</time>
      </trkpt>
      <trkpt lat="49.8866" lon="2.24021">
        <ele>52.9</ele>
        <time>2021-09-05T10:03:00Z</time>
      </trkpt>
      <trkpt lat="49.88659" lon="2.24022">
        <ele>52.9</ele>
        <time>2021-09-05T10:03:01Z</time>
      </trkpt>
      <trkpt lat="49.88658" lon="2.24023">
        <ele>52.8</ele>
        <time>2021-09-05T10:03:02Z</time>
      </trkpt>
      <trkpt lat="49.88657" lon="2.24023">
        <ele>52.8</ele>
        <time>2021-09-05T10:03:03Z</time>
      </trkpt>
      <trkpt lat="49.88656" lon="2.24024">
        <ele>52.7</ele>
        <time>2021-09-05T10:03:04Z</time>
      </trkpt>
      <trkpt lat="49.88654" lon="2.24026">
        <ele>52.7</ele>
        <time>2021-09-05T10:03:05Z</time>
      </trkpt>
      <trkpt lat="49.88653" lon="2.24026">
        <ele>52.7</ele>
        <time>2021-09-05T10:03:07Z</time>
      </trkpt>
      <trkpt lat="49.88653" lon="2.24027">
        <ele>52.6</ele>
        <time>2021-09-05T10:03:08Z</time>
      </trkpt>
      <trkpt lat="49.88652" lon="2.24027">
        <ele>52.6</ele>
        <time>2021-09-05T10:03:09Z</time>
      </trkpt>
      <trkpt lat="49.88652" lon="2.24028">
        <ele>52.6</ele>
        <time>2021-09-05T10:03:10Z</time>
      </trkpt>
      <trkpt lat="49.8865" lon="2.24028">
        <ele>52.5</ele>
        <time>2021-09-05T10:03:12Z</time>
      </trkpt>
      <trkpt lat="49.88649" lon="2.24028">
        <ele>52.5</ele>
        <time>2021-09-05T10:03:13Z</time>
      </trkpt>
      <trkpt lat="49.88648" lon="2.24028">
        <ele>52.5</ele>
        <time>2021-09-05T10:03:14Z</time>
      </trkpt>
      <trkpt lat="49.88646" lon="2.24029">
        <ele>52.4</ele>
        <time>2021-09-05T10:03:16Z</time>
      </trkpt>
      <trkpt lat="49.88645" lon="2.24029">
        <ele>52.4</ele>
        <time>2021-09-05T10:03:17Z</time>
      </trkpt>
      <trkpt lat="49.88644" lon="2.2403">
        <ele>52.4</ele>
        <time>2021-09-05T10:03:18Z</time>
      </trkpt>
      <trkpt lat="49.88643" lon="2.24031">
        <ele>52.3</ele>
        <time>2021-09-05T10:03:19Z</time>
      </trkpt>
      <trkpt lat="49.88642" lon="2.24031">
        <ele>52.3</ele>
        <time>2021-09-05T10:03:20Z</time>
      </trkpt>
      <trkpt lat="49.88641" lon="2.24032">
        <ele>52.3</ele>
        <time>2021-09-05T10:03:21Z</time>
      </trkpt>
      <trkpt lat="49.8864" lon="2.24033">
        <ele>52.3</ele>
        <time>2021-09-05T10:03:22Z</time>
      </trkpt>
      <trkpt lat="49.88639" lon="2.24035">
        <ele>52.2</ele>
        <time>2021-09-05T10:03:23Z</time>
      </trkpt>
      <trkpt lat="49.88638" lon="2.24036">
        <ele>52.2</ele>
        <time>2021-09-05T10:03:25Z</time>
      </trkpt>
      <trkpt lat="49.88637" lon="2.24037">
        <ele>52.2</ele>
        <time>2021-09-05T10:03:26Z</time>
      </trkpt>
      <trkpt lat="49.88636" lon="2.24037">
        <ele>52.1</ele>
        <time>2021-09-05T10:03:27Z</time>
      </trkpt>
      <trkpt lat="49.88635" lon="2.24038">
        <ele>52.1</ele>
        <time>2021-09-05T10:03:28Z</time>
      </trkpt>
      <trkpt lat="49.88634" lon="2.2404">
        <ele>52.1</ele>
        <time>2021-09-05T10:03:30Z</time>
      </trkpt>
      <trkpt lat="49.88632" lon="2.24041">
        <ele>52</ele>
        <time>2021-09-05T10:03:31Z</time>
      </trkpt>
      <trkpt lat="49.88631" lon="2.24042">
        <ele>52</ele>
        <time>2021-09-05T10:03:32Z</time>
      </trkpt>
      <trkpt lat="49.8863" lon="2.24042">
        <ele>52</ele>
        <time>2021-09-05T10:03:33Z</time>
      </trkpt>
      <trkpt lat="49.88629" lon="2.24044">
        <ele>51.9</ele>
        <time>2021-09-05T10:03:34Z</time>
      </trkpt>
      <trkpt lat="49.88627" lon="2.24045">
        <ele>51.9</ele>
        <time>2021-09-05T10:03:36Z</time>
      </trkpt>
      <trkpt lat="49.88627" lon="2.24045">
        <ele>51.9</ele>
        <time>2021-09-05T10:03:37Z</time>
      </trkpt>
      <trkpt lat="49.88625" lon="2.24046">
        <ele>51.8</ele>
        <time>2021-09-05T10:03:38Z</time>
      </trkpt>
      <trkpt lat="49.88624" lon="2.24047">
        <ele>51.8</ele>
        <time>2021-09-05T10:03:39Z</time>
      </trkpt>
      <trkpt lat="49.88622" lon="2.24048">
        <ele>51.7</ele>
        <time>2021-09-05T10:03:40Z</time>
      </trkpt>
      <trkpt lat="49.88621" lon="2.24048">
        <ele>51.7</ele>
        <time>2021-09-05T10:03:41Z</time>
      </trkpt>
      <trkpt lat="49.88621" lon="2.24049">
        <ele>51.7</ele>
        <time>2021-09-05T10:03:42Z</time>
      </trkpt>
      <trkpt lat="49.88619" lon="2.2405">
        <ele>51.6</ele>
        <time>2021-09-05T10:03:43Z</time>
      </trkpt>
      <trkpt lat="49.88618" lon="2.24051">
        <ele>51.6</ele>
        <time>2021-09-05T10:03:44Z</time>
      </trkpt>
      <trkpt lat="49.88617" lon="2.24051">
        <ele>51.6</ele>
        <time>2021-09-05T10:03:45Z</time>
      </trkpt>
      <trkpt lat="49.88616" lon="2.24052">
        <ele>51.5</ele>
        <time>2021-09-05T10:03:46Z</time>
      </trkpt>
      <trkpt lat="49.88615" lon="2.24052">
        <ele>51.5</ele>
        <time>2021-09-05T10:03:47Z</time>
      </trkpt>
      <trkpt lat="49.88612" lon="2.24053">
        <ele>51.4</ele>
        <time>2021-09-05T10:03:49Z</time>
      </trkpt>
      <trkpt lat="49.8861" lon="2.24054">
        <ele>51.4</ele>
        <time>2021-09-05T10:03:50Z</time>
      </trkpt>
      <trkpt lat="49.88609" lon="2.24055">
        <ele>51.4</ele>
        <time>2021-09-05T10:03:52Z</time>
      </trkpt>
      <trkpt lat="49.88608" lon="2.24056">
        <ele>51.3</ele>
        <time>2021-09-05T10:03:53Z</time>
      </trkpt>
      <trkpt lat="49.88607" lon="2.24057">
        <ele>51.3</ele>
        <time>2021-09-05T10:03:54Z</time>
      </trkpt>
      <trkpt lat="49.88605" lon="2.24058">
        <ele>51.2</ele>
        <time>2021-09-05T10:03:55Z</time>
      </trkpt>
      <trkpt lat="49.88604" lon="2.24059">
        <ele>51.2</ele>
        <time>2021-09-05T10:03:56Z</time>
      </trkpt>
      <trkpt lat="49.88602" lon="2.24059">
        <ele>51.1</ele>
        <time>2021-09-05T10:03:57Z</time>
      </trkpt>
      <trkpt lat="49.88601" lon="2.2406">
        <ele>51.1</ele>
        <time>2021-09-05T10:03:58Z</time>
      </trkpt>
      <trkpt lat="49.886" lon="2.24061">
        <ele>51.1</ele>
        <time>2021-09-05T10:04:00Z</time>
      </trkpt>
      <trkpt lat="49.88598" lon="2.24062">
        <ele>51</ele>
        <time>2021-09-05T10:04:01Z</time>
      </trkpt>
      <trkpt lat="49.88597" lon="2.24063">
        <ele>51</ele>
        <time>2021-09-05T10:04:02Z</time>
      </trkpt>
      <trkpt lat="49.88595" lon="2.24065">
        <ele>50.9</ele>
        <time>2021-09-05T10:04:04Z</time>
      </trkpt>
      <trkpt lat="49.88594" lon="2.24067">
        <ele>50.9</ele>
        <time>2021-09-05T10:04:05Z</time>
      </trkpt>
      <trkpt lat="49.88593" lon="2.24068">
        <ele>50.9</ele>
        <time>2021-09-05T10:04:06Z</time>
      </trkpt>
      <trkpt lat="49.88592" lon="2.24068">
        <ele>50.8</ele>
        <time>2021-09-05T10:04:07Z</time>
      </trkpt>
      <trkpt lat="49.88591" lon="2.24071">
        <ele>50.8</ele>
        <time>2021-09-05T10:04:08Z</time>
      </trkpt>
      <trkpt lat="49.8859" lon="2.24072">
        <ele>50.8</ele>
        <time>2021-09-05T10:04:09Z</time>
      </trkpt>
      <trkpt lat="49.88589" lon="2.24073">
        <ele>50.7</ele>
        <time>2021-09-05T10:04:10Z</time>
      </trkpt>
      <trkpt lat="49.88588" lon="2.24074">
        <ele>50.7</ele>
        <time>2021-09-05T10:04:12Z</time>
      </trkpt>
      <trkpt lat="49.88587" lon="2.24075">
        <ele>50.7</ele>
        <time>2021-09-05T10:04:13Z</time>
      </trkpt>
      <trkpt lat="49.88586" lon="2.24077">
        <ele>50.6</ele>
        <time>2021-09-05T10:04:15Z</time>
      </trkpt>
      <trkpt lat="49.88584" lon="2.24078">
        <ele>50.6</ele>
        <time>2021-09-05T10:04:16Z</time>
      </trkpt>
      <trkpt lat="49.88584" lon="2.24079">
        <ele>50.6</ele>
        <time>2021-09-05T10:04:17Z</time>
      </trkpt>
      <trkpt lat="49.88583" lon="2.2408">
        <ele>50.6</ele>
        <time>2021-09-05T10:04:18Z</time>
      </trkpt>
      <trkpt lat="49.8858" lon="2.24081">
        <ele>50.5</ele>
        <time>2021-09-05T10:04:19Z</time>
      </trkpt>
      <trkpt lat="49.88579" lon="2.24082">
        <ele>50.5</ele>
        <time>2021-09-05T10:04:21Z</time>
      </trkpt>
      <trkpt lat="49.88578" lon="2.24082">
        <ele>50.5</ele>
        <time>2021-09-05T10:04:22Z</time>
      </trkpt>
      <trkpt lat="49.88577" lon="2.24082">
        <ele>50.4</ele>
        <time>2021-09-05T10:04:23Z</time>
      </trkpt>
      <trkpt lat="49.88576" lon="2.24083">
        <ele>50.4</ele>
        <time>2021-09-05T10:04:24Z</time>
      </trkpt>
      <trkpt lat="49.88575" lon="2.24083">
        <ele>50.4</ele>
        <time>2021-09-05T10:04:25Z</time>
      </trkpt>
      <trkpt lat="49.88574" lon="2.24084">
        <ele>50.4</ele>
        <time>2021-09-05T10:04:26Z</time>
      </trkpt>
      <trkpt lat="49.88573" lon="2.24084">
        <ele>50.3</ele>
        <time>2021-09-05T10:04:27Z</time>
      </trkpt>
      <trkpt lat="49.88571" lon="2.24085">
        <ele>50.3</ele>
        <time>2021-09-05T10:04:28Z</time>
      </trkpt>
      <trkpt lat="49.88569" lon="2.24085">
        <ele>50.3</ele>
        <time>2021-09-05T10:04:29Z</time>
      </trkpt>
      <trkpt lat="49.88568" lon="2.24086">
        <ele>50.3</ele>
        <time>2021-09-05T10:04:31Z</time>
      </trkpt>
      <trkpt lat="49.88566" lon="2.24086">
        <ele>50.2</ele>
        <time>2021-09-05T10:04:32Z</time>
      </trkpt>
      <trkpt lat="49.88565" lon="2.24087">
        <ele>50.2</ele>
        <time>2021-09-05T10:04:33Z</time>
      </trkpt>
      <trkpt lat="49.88563" lon="2.24088">
        <ele>50.2</ele>
        <time>2021-09-05T10:04:35Z</time>
      </trkpt>
      <trkpt lat="49.88562" lon="2.24088">
        <ele>50.2</ele>
        <time>2021-09-05T10:04:36Z</time>
      </trkpt>
      <trkpt lat="49.8856" lon="2.24089">
        <ele>50.1</ele>
        <time>2021-09-05T10:04:37Z</time>
      </trkpt>
      <trkpt lat="49.88559" lon="2.2409">
        <ele>50.1</ele>
        <time>2021-09-05T10:04:38Z</time>
      </trkpt>
      <trkpt lat="49.88558" lon="2.2409">
        <ele>50.1</ele>
        <time>2021-09-05T10:04:39Z</time>
      </trkpt>
      <trkpt lat="49.88557" lon="2.24091">
        <ele>50.1</ele>
        <time>2021-09-05T10:04:40Z</time>
      </trkpt>
      <trkpt lat="49.88555" lon="2.24092">
        <ele>50</ele>
        <time>2021-09-05T10:04:41Z</time>
      </trkpt>
      <trkpt lat="49.88554" lon="2.24093">
        <ele>50</ele>
        <time>2021-09-05T10:04:43Z</time>
      </trkpt>
      <trkpt lat="49.88552" lon="2.24094">
        <ele>50</ele>
        <time>2021-09-05T10:04:44Z</time>
      </trkpt>
      <trkpt lat="49.88552" lon="2.24094">
        <ele>50</ele>
        <time>2021-09-05T10:04:45Z</time>
      </trkpt>
      <trkpt lat="49.8855" lon="2.24095">
        <ele>50</ele>
        <time>2021-09-05T10:04:46Z</time>
      </trkpt>
      <trkpt lat="49.88549" lon="2.24096">
        <ele>50</ele>
        <time>2021-09-05T10:04:47Z</time>
      </trkpt>
      <trkpt lat="49.88547" lon="2.24097">
        <ele>49.9</ele>
        <time>2021-09-05T10:04:48Z</time>
      </trkpt>
      <trkpt lat="49.88546" lon="2.24097">
        <ele>49.9</ele>
        <time>2021-09-05T10:04:49Z</time>
      </trkpt>
      <trkpt lat="49.88546" lon="2.24098">
        <ele>49.9</ele>
        <time>2021-09-05T10:04:50Z</time>
      </trkpt>
      <trkpt lat="49.88544" lon="2.24099">
        <ele>49.9</ele>
        <time>2021-09-05T10:04:51Z</time>
      </trkpt>
      <trkpt lat="49.88543" lon="2.241">
        <ele>49.9</ele>
        <time>2021-09-05T10:04:52Z</time>
      </trkpt>
      <trkpt lat="49.88542" lon="2.24101">
        <ele>49.9</ele>
        <time>2021-09-05T10:04:53Z</time>
      </trkpt>
      <trkpt lat="49.8854" lon="2.24102">
        <ele>49.9</ele>
        <time>2021-09-05T10:04:55Z</time>
      </trkpt>
      <trkpt lat="49.88539" lon="2.24103">
        <ele>49.9</ele>
        <time>2021-09-05T10:04:56Z</time>
      </trkpt>
      <trkpt lat="49.88539" lon="2.24103">
        <ele>49.9</ele>
        <time>2021-09-05T10:04:57Z</time>
      </trkpt>
      <trkpt lat="49.88538" lon="2.24104">
        <ele>49.9</ele>
        <time>2021-09-05T10:04:58Z</time>
      </trkpt>
      <trkpt lat="49.88537" lon="2.24105">
        <ele>49.8</ele>
        <time>2021-09-05T10:04:59Z</time>
      </trkpt>
      <trkpt lat="49.88536" lon="2.24105">
        <ele>49.8</ele>
        <time>2021-09-05T10:05:00Z</time>
      </trkpt>
      <trkpt lat="49.88534" lon="2.24106">
        <ele>49.8</ele>
        <time>2021-09-05T10:05:01Z</time>
      </trkpt>
      <trkpt lat="49.88533" lon="2.24107">
        <ele>49.8</ele>
        <time>2021-09-05T10:05:02Z</time>
      </trkpt>
      <trkpt lat="49.88531" lon="2.24107">
        <ele>49.8</ele>
        <time>2021-09-05T10:05:04Z</time>
      </trkpt>
      <trkpt lat="49.88529" lon="2.24108">
        <ele>49.8</ele>
        <time>2021-09-05T10:05:05Z</time>
      </trkpt>
      <trkpt lat="49.88528" lon="2.24108">
        <ele>49.8</ele>
        <time>2021-09-05T10:05:06Z</time>
      </trkpt>
      <trkpt lat="49.88527" lon="2.24108">
        <ele>49.8</ele>
        <time>2021-09-05T10:05:07Z</time>
      </trkpt>
      <trkpt lat="49.88526" lon="2.24109">
        <ele>49.8</ele>
        <time>2021-09-05T10:05:08Z</time>
      </trkpt>
      <trkpt lat="49.88525" lon="2.2411">
        <ele>49.8</ele>
        <time>2021-09-05T10:05:09Z</time>
      </trkpt>
      <trkpt lat="49.88524" lon="2.2411">
        <ele>49.8</ele>
        <time>2021-09-05T10:05:10Z</time>
      </trkpt>
      <trkpt lat="49.88523" lon="2.24111">
        <ele>49.7</ele>
        <time>2021-09-05T10:05:11Z</time>
      </trkpt>
      <trkpt lat="49.88522" lon="2.24112">
        <ele>49.7</ele>
        <time>2021-09-05T10:05:12Z</time>
      </trkpt>
      <trkpt lat="49.88521" lon="2.24112">
        <ele>49.7</ele>
        <time>2021-09-05T10:05:14Z</time>
      </trkpt>
      <trkpt lat="49.88519" lon="2.24113">
        <ele>49.7</ele>
        <time>2021-09-05T10:05:15Z</time>
      </trkpt>
      <trkpt lat="49.88518" lon="2.24113">
        <ele>49.7</ele>
        <time>2021-09-05T10:05:16Z</time>
      </trkpt>
      <trkpt lat="49.88515" lon="2.24114">
        <ele>49.7</ele>
        <time>2021-09-05T10:05:18Z</time>
      </trkpt>
      <trkpt lat="49.88514" lon="2.24114">
        <ele>49.7</ele>
        <time>2021-09-05T10:05:19Z</time>
      </trkpt>
      <trkpt lat="49.88513" lon="2.24115">
        <ele>49.6</ele>
        <time>2021-09-05T10:05:20Z</time>
      </trkpt>
      <trkpt lat="49.88511" lon="2.24115">
        <ele>49.6</ele>
        <time>2021-09-05T10:05:21Z</time>
      </trkpt>
      <trkpt lat="49.8851" lon="2.24116">
        <ele>49.6</ele>
        <time>2021-09-05T10:05:22Z</time>
      </trkpt>
      <trkpt lat="49.88509" lon="2.24117">
        <ele>49.6</ele>
        <time>2021-09-05T10:05:23Z</time>
      </trkpt>
      <trkpt lat="49.88507" lon="2.24118">
        <ele>49.5</ele>
        <time>2021-09-05T10:05:25Z</time>
      </trkpt>
      <trkpt lat="49.88506" lon="2.24119">
        <ele>49.5</ele>
        <time>2021-09-05T10:05:26Z</time>
      </trkpt>
      <trkpt lat="49.88505" lon="2.2412">
        <ele>49.5</ele>
        <time>2021-09-05T10:05:27Z</time>
      </trkpt>
      <trkpt lat="49.88504" lon="2.2412">
        <ele>49.5</ele>
        <time>2021-09-05T10:05:28Z</time>
      </trkpt>
      <trkpt lat="49.88503" lon="2.24121">
        <ele>49.5</ele>
        <time>2021-09-05T10:05:29Z</time>
      </trkpt>
      <trkpt lat="49.88502" lon="2.24121">
        <ele>49.5</ele>
        <time>2021-09-05T10:05:30Z</time>
      </trkpt>
      <trkpt lat="49.885" lon="2.24123">
        <ele>49.4</ele>
        <time>2021-09-05T10:05:32Z</time>
      </trkpt>
      <trkpt lat="49.88498" lon="2.24124">
        <ele>49.4</ele>
        <time>2021-09-05T10:05:33Z</time>
      </trkpt>
      <trkpt lat="49.88497" lon="2.24125">
        <ele>49.4</ele>
        <time>2021-09-05T10:05:34Z</time>
      </trkpt>
      <trkpt lat="49.88495" lon="2.24126">
        <ele>49.3</ele>
        <time>2021-09-05T10:05:35Z</time>
      </trkpt>
      <trkpt lat="49.88493" lon="2.24127">
        <ele>49.3</ele>
        <time>2021-09-05T10:05:36Z</time>
      </trkpt>
      <trkpt lat="49.88493" lon="2.24128">
        <ele>49.3</ele>
        <time>2021-09-05T10:05:38Z</time>
      </trkpt>
      <trkpt lat="49.88492" lon="2.24128">
        <ele>49.3</ele>
        <time>2021-09-05T10:05:39Z</time>
      </trkpt>
      <trkpt lat="49.88492" lon="2.24129">
        <ele>49.3</ele>
        <time>2021-09-05T10:05:40Z</time>
      </trkpt>
      <trkpt lat="49.88491" lon="2.24129">
        <ele>49.3</ele>
        <time>2021-09-05T10:05:41Z</time>
      </trkpt>
      <trkpt lat="49.8849" lon="2.2413">
        <ele>49.3</ele>
        <time>2021-09-05T10:05:42Z</time>
      </trkpt>
      <trkpt lat="49.88489" lon="2.24131">
        <ele>49.2</ele>
        <time>2021-09-05T10:05:43Z</time>
      </trkpt>
      <trkpt lat="49.88488" lon="2.24131">
        <ele>49.2</ele>
        <time>2021-09-05T10:05:44Z</time>
      </trkpt>
      <trkpt lat="49.88486" lon="2.24133">
        <ele>49.2</ele>
        <time>2021-09-05T10:05:45Z</time>
      </trkpt>
      <trkpt lat="49.88486" lon="2.24133">
        <ele>49.2</ele>
        <time>2021-09-05T10:05:47Z</time>
      </trkpt>
      <trkpt lat="49.88485" lon="2.24134">
        <ele>49.2</ele>
        <time>2021-09-05T10:05:48Z</time>
      </trkpt>
      <trkpt lat="49.88483" lon="2.24135">
        <ele>49.1</ele>
        <time>2021-09-05T10:05:49Z</time>
      </trkpt>
      <trkpt lat="49.88482" lon="2.24135">
        <ele>49.1</ele>
        <time>2021-09-05T10:05:50Z</time>
      </trkpt>
      <trkpt lat="49.88481" lon="2.24136">
        <ele>49.1</ele>
        <time>2021-09-05T10:05:51Z</time>
      </trkpt>
      <trkpt lat="49.88479" lon="2.24136">
        <ele>49.1</ele>
        <time>2021-09-05T10:05:52Z</time>
      </trkpt>
      <trkpt lat="49.88478" lon="2.24136">
        <ele>49.1</ele>
        <time>2021-09-05T10:05:53Z</time>
      </trkpt>
      <trkpt lat="49.88477" lon="2.24136">
        <ele>49.1</ele>
        <time>2021-09-05T10:05:54Z</time>
      </trkpt>
      <trkpt lat="49.88476" lon="2.24136">
        <ele>49</ele>
        <time>2021-09-05T10:05:55Z</time>
      </trkpt>
      <trkpt lat="49.88474" lon="2.24137">
        <ele>49</ele>
        <time>2021-09-05T10:05:57Z</time>
      </trkpt>
      <trkpt lat="49.88474" lon="2.24137">
        <ele>49</ele>
        <time>2021-09-05T10:05:58Z</time>
      </trkpt>
      <trkpt lat="49.88473" lon="2.24137">
        <ele>49</ele>
        <time>2021-09-05T10:05:59Z</time>
      </trkpt>
      <trkpt lat="49.88472" lon="2.24137">
        <ele>49</ele>
        <time>2021-09-05T10:06:00Z</time>
      </trkpt>
      <trkpt lat="49.8847" lon="2.24139">
        <ele>49</ele>
        <time>2021-09-05T10:06:02Z</time>
      </trkpt>
      <trkpt lat="49.8847" lon="2.24141">
        <ele>48.9</ele>
        <time>2021-09-05T10:06:04Z</time>
      </trkpt>
      <trkpt lat="49.88471" lon="2.24141">
        <ele>48.9</ele>
        <time>2021-09-05T10:06:06Z</time>
      </trkpt>
      <trkpt lat="49.88471" lon="2.24141">
        <ele>48.9</ele>
        <time>2021-09-05T10:06:07Z</time>
      </trkpt>
      <trkpt lat="49.88471" lon="2.24141">
        <ele>48.9</ele>
        <time>2021-09-05T10:06:09Z</time>
      </trkpt>
      <trkpt lat="49.88471" lon="2.24141">
        <ele>48.9</ele>
        <time>2021-09-05T10:06:10Z</time>
      </trkpt>
      <trkpt lat="49.88471" lon="2.24141">
        <ele>48.9</ele>
        <time>2021-09-05T10:06:12Z</time>
      </trkpt>
      <trkpt lat="49.88471" lon="2.24141">
        <ele>48.9</ele>
        <time>2021-09-05T10:06:13Z</time>
      </trkpt>
      <trkpt lat="49.88471" lon="2.24141">
        <ele>48.9</ele>
        <time>2021-09-05T10:06:15Z</time>
      </trkpt>
      <trkpt lat="49.88471" lon="2.2414">
        <ele>48.9</ele>
        <time>2021-09-05T10:06:16Z</time>
      </trkpt>
      <trkpt lat="49.88471" lon="2.2414">
        <ele>48.9</ele>
        <time>2021-09-05T10:06:18Z</time>
      </trkpt>
      <trkpt lat="49.8847" lon="2.24139">
        <ele>48.9</ele>
        <time>2021-09-05T10:06:19Z</time>
      </trkpt>
      <trkpt lat="49.8847" lon="2.24139">
        <ele>48.9</ele>
        <time>2021-09-05T10:06:20Z</time>
      </trkpt>
      <trkpt lat="49.8847" lon="2.24138">
        <ele>48.9</ele>
        <time>2021-09-05T10:06:21Z</time>
      </trkpt>
      <trkpt lat="49.8847" lon="2.24137">
        <ele>48.9</ele>
        <time>2021-09-05T10:06:22Z</time>
      </trkpt>
      <trkpt lat="49.8847" lon="2.24135">
        <ele>48.9</ele>
        <time>2021-09-05T10:06:23Z</time>
      </trkpt>
      <trkpt lat="49.88469" lon="2.24133">
        <ele>49</ele>
        <time>2021-09-05T10:06:25Z</time>
      </trkpt>
      <trkpt lat="49.88469" lon="2.2413">
        <ele>49.1</ele>
        <time>2021-09-05T10:06:26Z</time>
      </trkpt>
      <trkpt lat="49.88469" lon="2.24129">
        <ele>49.1</ele>
        <time>2021-09-05T10:06:27Z</time>
      </trkpt>
      <trkpt lat="49.88469" lon="2.24127">
        <ele>49.2</ele>
        <time>2021-09-05T10:06:28Z</time>
      </trkpt>
      <trkpt lat="49.88469" lon="2.24124">
        <ele>49.2</ele>
        <time>2021-09-05T10:06:29Z</time>
      </trkpt>
      <trkpt lat="49.8847" lon="2.24122">
        <ele>49.3</ele>
        <time>2021-09-05T10:06:30Z</time>
      </trkpt>
      <trkpt lat="49.8847" lon="2.2412">
        <ele>49.4</ele>
        <time>2021-09-05T10:06:31Z</time>
      </trkpt>
      <trkpt lat="49.88471" lon="2.24117">
        <ele>49.4</ele>
        <time>2021-09-05T10:06:32Z</time>
      </trkpt>
      <trkpt lat="49.88471" lon="2.24114">
        <ele>49.5</ele>
        <time>2021-09-05T10:06:33Z</time>
      </trkpt>
      <trkpt lat="49.88472" lon="2.24112">
        <ele>49.6</ele>
        <time>2021-09-05T10:06:35Z</time>
      </trkpt>
      <trkpt lat="49.88472" lon="2.24111">
        <ele>49.6</ele>
        <time>2021-09-05T10:06:36Z</time>
      </trkpt>
      <trkpt lat="49.88472" lon="2.24109">
        <ele>49.6</ele>
        <time>2021-09-05T10:06:37Z</time>
      </trkpt>
      <trkpt lat="49.88472" lon="2.24107">
        <ele>49.7</ele>
        <time>2021-09-05T10:06:38Z</time>
      </trkpt>
      <trkpt lat="49.88473" lon="2.24104">
        <ele>49.8</ele>
        <time>2021-09-05T10:06:39Z</time>
      </trkpt>
      <trkpt lat="49.88473" lon="2.24103">
        <ele>49.8</ele>
        <time>2021-09-05T10:06:40Z</time>
      </trkpt>
      <trkpt lat="49.88474" lon="2.24102">
        <ele>49.8</ele>
        <time>2021-09-05T10:06:41Z</time>
      </trkpt>
      <trkpt lat="49.88474" lon="2.24099">
        <ele>49.9</ele>
        <time>2021-09-05T10:06:42Z</time>
      </trkpt>
      <trkpt lat="49.88475" lon="2.24097">
        <ele>50</ele>
        <time>2021-09-05T10:06:43Z</time>
      </trkpt>
      <trkpt lat="49.88475" lon="2.24096">
        <ele>50</ele>
        <time>2021-09-05T10:06:44Z</time>
      </trkpt>
      <trkpt lat="49.88476" lon="2.24095">
        <ele>50</ele>
        <time>2021-09-05T10:06:46Z</time>
      </trkpt>
      <trkpt lat="49.88476" lon="2.24093">
        <ele>50.1</ele>
        <time>2021-09-05T10:06:47Z</time>
      </trkpt>
      <trkpt lat="49.88476" lon="2.24091">
        <ele>50.1</ele>
        <time>2021-09-05T10:06:48Z</time>
      </trkpt>
      <trkpt lat="49.88477" lon="2.24088">
        <ele>50.2</ele>
        <time>2021-09-05T10:06:49Z</time>
      </trkpt>
      <trkpt lat="49.88478" lon="2.24087">
        <ele>50.2</ele>
        <time>2021-09-05T10:06:50Z</time>
      </trkpt>
      <trkpt lat="49.88478" lon="2.24086">
        <ele>50.2</ele>
        <time>2021-09-05T10:06:51Z</time>
      </trkpt>
      <trkpt lat="49.88479" lon="2.24084">
        <ele>50.3</ele>
        <time>2021-09-05T10:06:52Z</time>
      </trkpt>
      <trkpt lat="49.88479" lon="2.24083">
        <ele>50.3</ele>
        <time>2021-09-05T10:06:53Z</time>
      </trkpt>
      <trkpt lat="49.88479" lon="2.24081">
        <ele>50.4</ele>
        <time>2021-09-05T10:06:54Z</time>
      </trkpt>
      <trkpt lat="49.88479" lon="2.24078">
        <ele>50.4</ele>
        <time>2021-09-05T10:06:55Z</time>
      </trkpt>
      <trkpt lat="49.88479" lon="2.24077">
        <ele>50.5</ele>
        <time>2021-09-05T10:06:56Z</time>
      </trkpt>
      <trkpt lat="49.8848" lon="2.24075">
        <ele>50.5</ele>
        <time>2021-09-05T10:06:57Z</time>
      </trkpt>
      <trkpt lat="49.8848" lon="2.24073">
        <ele>50.5</ele>
        <time>2021-09-05T10:06:59Z</time>
      </trkpt>
      <trkpt lat="49.8848" lon="2.24071">
        <ele>50.6</ele>
        <time>2021-09-05T10:07:00Z</time>
      </trkpt>
      <trkpt lat="49.8848" lon="2.24068">
        <ele>50.6</ele>
        <time>2021-09-05T10:07:01Z</time>
      </trkpt>
      <trkpt lat="49.8848" lon="2.24067">
        <ele>50.7</ele>
        <time>2021-09-05T10:07:02Z</time>
      </trkpt>
      <trkpt lat="49.8848" lon="2.24065">
        <ele>50.7</ele>
        <time>2021-09-05T10:07:03Z</time>
      </trkpt>
      <trkpt lat="49.88481" lon="2.24063">
        <ele>50.7</ele>
        <time>2021-09-05T10:07:04Z</time>
      </trkpt>
      <trkpt lat="49.88481" lon="2.24061">
        <ele>50.8</ele>
        <time>2021-09-05T10:07:05Z</time>
      </trkpt>
      <trkpt lat="49.88482" lon="2.24058">
        <ele>50.9</ele>
        <time>2021-09-05T10:07:06Z</time>
      </trkpt>
      <trkpt lat="49.88482" lon="2.24056">
        <ele>50.9</ele>
        <time>2021-09-05T10:07:08Z</time>
      </trkpt>
      <trkpt lat="49.88482" lon="2.24054">
        <ele>50.9</ele>
        <time>2021-09-05T10:07:09Z</time>
      </trkpt>
      <trkpt lat="49.88483" lon="2.24053">
        <ele>51</ele>
        <time>2021-09-05T10:07:10Z</time>
      </trkpt>
      <trkpt lat="49.88483" lon="2.24051">
        <ele>51</ele>
        <time>2021-09-05T10:07:11Z</time>
      </trkpt>
      <trkpt lat="49.88483" lon="2.2405">
        <ele>51</ele>
        <time>2021-09-05T10:07:12Z</time>
      </trkpt>
      <trkpt lat="49.88483" lon="2.24048">
        <ele>51.1</ele>
        <time>2021-09-05T10:07:13Z</time>
      </trkpt>
      <trkpt lat="49.88484" lon="2.24047">
        <ele>51.1</ele>
        <time>2021-09-05T10:07:14Z</time>
      </trkpt>
      <trkpt lat="49.88484" lon="2.24044">
        <ele>51.2</ele>
        <time>2021-09-05T10:07:16Z</time>
      </trkpt>
      <trkpt lat="49.88485" lon="2.24042">
        <ele>51.2</ele>
        <time>2021-09-05T10:07:17Z</time>
      </trkpt>
      <trkpt lat="49.88486" lon="2.24039">
        <ele>51.3</ele>
        <time>2021-09-05T10:07:18Z</time>
      </trkpt>
      <trkpt lat="49.88486" lon="2.24038">
        <ele>51.3</ele>
        <time>2021-09-05T10:07:19Z</time>
      </trkpt>
      <trkpt lat="49.88486" lon="2.24036">
        <ele>51.3</ele>
        <time>2021-09-05T10:07:20Z</time>
      </trkpt>
      <trkpt lat="49.88487" lon="2.24033">
        <ele>51.4</ele>
        <time>2021-09-05T10:07:21Z</time>
      </trkpt>
      <trkpt lat="49.88487" lon="2.24032">
        <ele>51.4</ele>
        <time>2021-09-05T10:07:22Z</time>
      </trkpt>
      <trkpt lat="49.88487" lon="2.24031">
        <ele>51.4</ele>
        <time>2021-09-05T10:07:23Z</time>
      </trkpt>
      <trkpt lat="49.88487" lon="2.24029">
        <ele>51.5</ele>
        <time>2021-09-05T10:07:24Z</time>
      </trkpt>
      <trkpt lat="49.88488" lon="2.24027">
        <ele>51.5</ele>
        <time>2021-09-05T10:07:25Z</time>
      </trkpt>
      <trkpt lat="49.88488" lon="2.24025">
        <ele>51.5</ele>
        <time>2021-09-05T10:07:26Z</time>
      </trkpt>
      <trkpt lat="49.88488" lon="2.24024">
        <ele>51.6</ele>
        <time>2021-09-05T10:07:27Z</time>
      </trkpt>
      <trkpt lat="49.88489" lon="2.24022">
        <ele>51.6</ele>
        <time>2021-09-05T10:07:29Z</time>
      </trkpt>
      <trkpt lat="49.88489" lon="2.2402">
        <ele>51.7</ele>
        <time>2021-09-05T10:07:30Z</time>
      </trkpt>
      <trkpt lat="49.88489" lon="2.24019">
        <ele>51.7</ele>
        <time>2021-09-05T10:07:31Z</time>
      </trkpt>
      <trkpt lat="49.88489" lon="2.24017">
        <ele>51.7</ele>
        <time>2021-09-05T10:07:32Z</time>
      </trkpt>
      <trkpt lat="49.8849" lon="2.24015">
        <ele>51.8</ele>
        <time>2021-09-05T10:07:33Z</time>
      </trkpt>
      <trkpt lat="49.8849" lon="2.24014">
        <ele>51.8</ele>
        <time>2021-09-05T10:07:34Z</time>
      </trkpt>
      <trkpt lat="49.88491" lon="2.24012">
        <ele>51.9</ele>
        <time>2021-09-05T10:07:35Z</time>
      </trkpt>
      <trkpt lat="49.88491" lon="2.2401">
        <ele>51.9</ele>
        <time>2021-09-05T10:07:36Z</time>
      </trkpt>
      <trkpt lat="49.88491" lon="2.24007">
        <ele>52</ele>
        <time>2021-09-05T10:07:37Z</time>
      </trkpt>
      <trkpt lat="49.88491" lon="2.24006">
        <ele>52</ele>
        <time>2021-09-05T10:07:38Z</time>
      </trkpt>
      <trkpt lat="49.88492" lon="2.24004">
        <ele>52</ele>
        <time>2021-09-05T10:07:39Z</time>
      </trkpt>
      <trkpt lat="49.88492" lon="2.24003">
        <ele>52.1</ele>
        <time>2021-09-05T10:07:41Z</time>
      </trkpt>
      <trkpt lat="49.88492" lon="2.24001">
        <ele>52.1</ele>
        <time>2021-09-05T10:07:42Z</time>
      </trkpt>
      <trkpt lat="49.88493" lon="2.23999">
        <ele>52.2</ele>
        <time>2021-09-05T10:07:43Z</time>
      </trkpt>
      <trkpt lat="49.88493" lon="2.23995">
        <ele>52.2</ele>
        <time>2021-09-05T10:07:44Z</time>
      </trkpt>
      <trkpt lat="49.88493" lon="2.23994">
        <ele>52.3</ele>
        <time>2021-09-05T10:07:45Z</time>
      </trkpt>
      <trkpt lat="49.88494" lon="2.23992">
        <ele>52.3</ele>
        <time>2021-09-05T10:07:46Z</time>
      </trkpt>
      <trkpt lat="49.88494" lon="2.23991">
        <ele>52.3</ele>
        <time>2021-09-05T10:07:47Z</time>
      </trkpt>
      <trkpt lat="49.88494" lon="2.23989">
        <ele>52.4</ele>
        <time>2021-09-05T10:07:48Z</time>
      </trkpt>
      <trkpt lat="49.88494" lon="2.23987">
        <ele>52.4</ele>
        <time>2021-09-05T10:07:49Z</time>
      </trkpt>
      <trkpt lat="49.88494" lon="2.23985">
        <ele>52.5</ele>
        <time>2021-09-05T10:07:50Z</time>
      </trkpt>
      <trkpt lat="49.88494" lon="2.23983">
        <ele>52.5</ele>
        <time>2021-09-05T10:07:51Z</time>
      </trkpt>
      <trkpt lat="49.88494" lon="2.23981">
        <ele>52.6</ele>
        <time>2021-09-05T10:07:52Z</time>
      </trkpt>
      <trkpt lat="49.88494" lon="2.23979">
        <ele>52.6</ele>
        <time>2021-09-05T10:07:54Z</time>
      </trkpt>
      <trkpt lat="49.88494" lon="2.23977">
        <ele>52.7</ele>
        <time>2021-09-05T10:07:55Z</time>
      </trkpt>
      <trkpt lat="49.88494" lon="2.23974">
        <ele>52.7</ele>
        <time>2021-09-05T10:07:56Z</time>
      </trkpt>
      <trkpt lat="49.88494" lon="2.23973">
        <ele>52.8</ele>
        <time>2021-09-05T10:07:57Z</time>
      </trkpt>
      <trkpt lat="49.88494" lon="2.23971">
        <ele>52.8</ele>
        <time>2021-09-05T10:07:58Z</time>
      </trkpt>
      <trkpt lat="49.88495" lon="2.23968">
        <ele>52.9</ele>
        <time>2021-09-05T10:07:59Z</time>
      </trkpt>
      <trkpt lat="49.88496" lon="2.23967">
        <ele>52.9</ele>
        <time>2021-09-05T10:08:00Z</time>
      </trkpt>
      <trkpt lat="49.88496" lon="2.23966">
        <ele>53</ele>
        <time>2021-09-05T10:08:01Z</time>
      </trkpt>
      <trkpt lat="49.88497" lon="2.23963">
        <ele>53</ele>
        <time>2021-09-05T10:08:02Z</time>
      </trkpt>
      <trkpt lat="49.88497" lon="2.23962">
        <ele>53.1</ele>
        <time>2021-09-05T10:08:03Z</time>
      </trkpt>
      <trkpt lat="49.88498" lon="2.2396">
        <ele>53.1</ele>
        <time>2021-09-05T10:08:04Z</time>
      </trkpt>
      <trkpt lat="49.88498" lon="2.23959">
        <ele>53.1</ele>
        <time>2021-09-05T10:08:05Z</time>
      </trkpt>
      <trkpt lat="49.88499" lon="2.23957">
        <ele>53.2</ele>
        <time>2021-09-05T10:08:07Z</time>
      </trkpt>
      <trkpt lat="49.88499" lon="2.23955">
        <ele>53.2</ele>
        <time>2021-09-05T10:08:08Z</time>
      </trkpt>
      <trkpt lat="49.885" lon="2.23954">
        <ele>53.3</ele>
        <time>2021-09-05T10:08:09Z</time>
      </trkpt>
      <trkpt lat="49.885" lon="2.23952">
        <ele>53.3</ele>
        <time>2021-09-05T10:08:10Z</time>
      </trkpt>
      <trkpt lat="49.88501" lon="2.2395">
        <ele>53.4</ele>
        <time>2021-09-05T10:08:11Z</time>
      </trkpt>
      <trkpt lat="49.88501" lon="2.23949">
        <ele>53.4</ele>
        <time>2021-09-05T10:08:12Z</time>
      </trkpt>
      <trkpt lat="49.88502" lon="2.23948">
        <ele>53.4</ele>
        <time>2021-09-05T10:08:13Z</time>
      </trkpt>
      <trkpt lat="49.88502" lon="2.23946">
        <ele>53.5</ele>
        <time>2021-09-05T10:08:14Z</time>
      </trkpt>
      <trkpt lat="49.88503" lon="2.23943">
        <ele>53.6</ele>
        <time>2021-09-05T10:08:15Z</time>
      </trkpt>
      <trkpt lat="49.88503" lon="2.23942">
        <ele>53.6</ele>
        <time>2021-09-05T10:08:16Z</time>
      </trkpt>
      <trkpt lat="49.88503" lon="2.2394">
        <ele>53.6</ele>
        <time>2021-09-05T10:08:17Z</time>
      </trkpt>
      <trkpt lat="49.88503" lon="2.23937">
        <ele>53.7</ele>
        <time>2021-09-05T10:08:19Z</time>
      </trkpt>
      <trkpt lat="49.88503" lon="2.23935">
        <ele>53.7</ele>
        <time>2021-09-05T10:08:20Z</time>
      </trkpt>
      <trkpt lat="49.88504" lon="2.23934">
        <ele>53.8</ele>
        <time>2021-09-05T10:08:21Z</time>
      </trkpt>
      <trkpt lat="49.88504" lon="2.23933">
        <ele>53.8</ele>
        <time>2021-09-05T10:08:22Z</time>
      </trkpt>
      <trkpt lat="49.88504" lon="2.23931">
        <ele>53.8</ele>
        <time>2021-09-05T10:08:23Z</time>
      </trkpt>
      <trkpt lat="49.88504" lon="2.23929">
        <ele>53.9</ele>
        <time>2021-09-05T10:08:24Z</time>
      </trkpt>
      <trkpt lat="49.88505" lon="2.23926">
        <ele>53.9</ele>
        <time>2021-09-05T10:08:25Z</time>
      </trkpt>
      <trkpt lat="49.88505" lon="2.23925">
        <ele>53.9</ele>
        <time>2021-09-05T10:08:26Z</time>
      </trkpt>
      <trkpt lat="49.88506" lon="2.23924">
        <ele>54</ele>
        <time>2021-09-05T10:08:27Z</time>
      </trkpt>
      <trkpt lat="49.88506" lon="2.23922">
        <ele>54</ele>
        <time>2021-09-05T10:08:28Z</time>
      </trkpt>
      <trkpt lat="49.88507" lon="2.23919">
        <ele>54.1</ele>
        <time>2021-09-05T10:08:29Z</time>
      </trkpt>
      <trkpt lat="49.88508" lon="2.23918">
        <ele>54.1</ele>
        <time>2021-09-05T10:08:31Z</time>
      </trkpt>
      <trkpt lat="49.88508" lon="2.23917">
        <ele>54.1</ele>
        <time>2021-09-05T10:08:32Z</time>
      </trkpt>
      <trkpt lat="49.88508" lon="2.23915">
        <ele>54.2</ele>
        <time>2021-09-05T10:08:33Z</time>
      </trkpt>
      <trkpt lat="49.88509" lon="2.23913">
        <ele>54.2</ele>
        <time>2021-09-05T10:08:34Z</time>
      </trkpt>
      <trkpt lat="49.88509" lon="2.23911">
        <ele>54.3</ele>
        <time>2021-09-05T10:08:35Z</time>
      </trkpt>
      <trkpt lat="49.8851" lon="2.2391">
        <ele>54.3</ele>
        <time>2021-09-05T10:08:36Z</time>
      </trkpt>
      <trkpt lat="49.8851" lon="2.23908">
        <ele>54.3</ele>
        <time>2021-09-05T10:08:37Z</time>
      </trkpt>
      <trkpt lat="49.8851" lon="2.23906">
        <ele>54.4</ele>
        <time>2021-09-05T10:08:38Z</time>
      </trkpt>
      <trkpt lat="49.8851" lon="2.23904">
        <ele>54.4</ele>
        <time>2021-09-05T10:08:39Z</time>
      </trkpt>
      <trkpt lat="49.88511" lon="2.23902">
        <ele>54.5</ele>
        <time>2021-09-05T10:08:41Z</time>
      </trkpt>
      <trkpt lat="49.88511" lon="2.23901">
        <ele>54.5</ele>
        <time>2021-09-05T10:08:42Z</time>
      </trkpt>
      <trkpt lat="49.88511" lon="2.23898">
        <ele>54.6</ele>
        <time>2021-09-05T10:08:43Z</time>
      </trkpt>
      <trkpt lat="49.88512" lon="2.23896">
        <ele>54.6</ele>
        <time>2021-09-05T10:08:44Z</time>
      </trkpt>
      <trkpt lat="49.88512" lon="2.23895">
        <ele>54.6</ele>
        <time>2021-09-05T10:08:45Z</time>
      </trkpt>
      <trkpt lat="49.88512" lon="2.23892">
        <ele>54.7</ele>
        <time>2021-09-05T10:08:46Z</time>
      </trkpt>
      <trkpt lat="49.88513" lon="2.23891">
        <ele>54.7</ele>
        <time>2021-09-05T10:08:47Z</time>
      </trkpt>
      <trkpt lat="49.88513" lon="2.2389">
        <ele>54.8</ele>
        <time>2021-09-05T10:08:48Z</time>
      </trkpt>
      <trkpt lat="49.88513" lon="2.23888">
        <ele>54.8</ele>
        <time>2021-09-05T10:08:49Z</time>
      </trkpt>
      <trkpt lat="49.88514" lon="2.23885">
        <ele>54.9</ele>
        <time>2021-09-05T10:08:51Z</time>
      </trkpt>
      <trkpt lat="49.88514" lon="2.23884">
        <ele>54.9</ele>
        <time>2021-09-05T10:08:52Z</time>
      </trkpt>
      <trkpt lat="49.88514" lon="2.23883">
        <ele>54.9</ele>
        <time>2021-09-05T10:08:53Z</time>
      </trkpt>
      <trkpt lat="49.88514" lon="2.23881">
        <ele>55</ele>
        <time>2021-09-05T10:08:54Z</time>
      </trkpt>
      <trkpt lat="49.88515" lon="2.2388">
        <ele>55</ele>
        <time>2021-09-05T10:08:55Z</time>
      </trkpt>
      <trkpt lat="49.88515" lon="2.23878">
        <ele>55</ele>
        <time>2021-09-05T10:08:56Z</time>
      </trkpt>
      <trkpt lat="49.88516" lon="2.23876">
        <ele>55.1</ele>
        <time>2021-09-05T10:08:57Z</time>
      </trkpt>
      <trkpt lat="49.88516" lon="2.23875">
        <ele>55.1</ele>
        <time>2021-09-05T10:08:58Z</time>
      </trkpt>
      <trkpt lat="49.88516" lon="2.23873">
        <ele>55.2</ele>
        <time>2021-09-05T10:08:59Z</time>
      </trkpt>
      <trkpt lat="49.88517" lon="2.23871">
        <ele>55.2</ele>
        <time>2021-09-05T10:09:01Z</time>
      </trkpt>
      <trkpt lat="49.88517" lon="2.2387">
        <ele>55.3</ele>
        <time>2021-09-05T10:09:02Z</time>
      </trkpt>
      <trkpt lat="49.88517" lon="2.23868">
        <ele>55.3</ele>
        <time>2021-09-05T10:09:03Z</time>
      </trkpt>
      <trkpt lat="49.88518" lon="2.23866">
        <ele>55.3</ele>
        <time>2021-09-05T10:09:04Z</time>
      </trkpt>
      <trkpt lat="49.88518" lon="2.23865">
        <ele>55.4</ele>
        <time>2021-09-05T10:09:05Z</time>
      </trkpt>
      <trkpt lat="49.88519" lon="2.23863">
        <ele>55.4</ele>
        <time>2021-09-05T10:09:06Z</time>
      </trkpt>
      <trkpt lat="49.88519" lon="2.23862">
        <ele>55.5</ele>
        <time>2021-09-05T10:09:07Z</time>
      </trkpt>
      <trkpt lat="49.8852" lon="2.23859">
        <ele>55.5</ele>
        <time>2021-09-05T10:09:08Z</time>
      </trkpt>
      <trkpt lat="49.8852" lon="2.23857">
        <ele>55.6</ele>
        <time>2021-09-05T10:09:09Z</time>
      </trkpt>
      <trkpt lat="49.8852" lon="2.23856">
        <ele>55.6</ele>
        <time>2021-09-05T10:09:11Z</time>
      </trkpt>
      <trkpt lat="49.88521" lon="2.23854">
        <ele>55.7</ele>
        <time>2021-09-05T10:09:12Z</time>
      </trkpt>
      <trkpt lat="49.88521" lon="2.23853">
        <ele>55.7</ele>
        <time>2021-09-05T10:09:13Z</time>
      </trkpt>
      <trkpt lat="49.88521" lon="2.23851">
        <ele>55.7</ele>
        <time>2021-09-05T10:09:14Z</time>
      </trkpt>
      <trkpt lat="49.88522" lon="2.23848">
        <ele>55.8</ele>
        <time>2021-09-05T10:09:15Z</time>
      </trkpt>
      <trkpt lat="49.88522" lon="2.23847">
        <ele>55.9</ele>
        <time>2021-09-05T10:09:16Z</time>
      </trkpt>
      <trkpt lat="49.88522" lon="2.23846">
        <ele>55.9</ele>
        <time>2021-09-05T10:09:17Z</time>
      </trkpt>
      <trkpt lat="49.88522" lon="2.23843">
        <ele>56</ele>
        <time>2021-09-05T10:09:18Z</time>
      </trkpt>
      <trkpt lat="49.88522" lon="2.23841">
        <ele>56</ele>
        <time>2021-09-05T10:09:19Z</time>
      </trkpt>
      <trkpt lat="49.88522" lon="2.23838">
        <ele>56.1</ele>
        <time>2021-09-05T10:09:21Z</time>
      </trkpt>
      <trkpt lat="49.88523" lon="2.23837">
        <ele>56.1</ele>
        <time>2021-09-05T10:09:22Z</time>
      </trkpt>
      <trkpt lat="49.88523" lon="2.23836">
        <ele>56.2</ele>
        <time>2021-09-05T10:09:23Z</time>
      </trkpt>
      <trkpt lat="49.88523" lon="2.23832">
        <ele>56.2</ele>
        <time>2021-09-05T10:09:24Z</time>
      </trkpt>
      <trkpt lat="49.88524" lon="2.23831">
        <ele>56.3</ele>
        <time>2021-09-05T10:09:25Z</time>
      </trkpt>
      <trkpt lat="49.88524" lon="2.2383">
        <ele>56.3</ele>
        <time>2021-09-05T10:09:26Z</time>
      </trkpt>
      <trkpt lat="49.88524" lon="2.23828">
        <ele>56.4</ele>
        <time>2021-09-05T10:09:27Z</time>
      </trkpt>
      <trkpt lat="49.88525" lon="2.23826">
        <ele>56.4</ele>
        <time>2021-09-05T10:09:28Z</time>
      </trkpt>
      <trkpt lat="49.88525" lon="2.23824">
        <ele>56.5</ele>
        <time>2021-09-05T10:09:30Z</time>
      </trkpt>
      <trkpt lat="49.88525" lon="2.23822">
        <ele>56.5</ele>
        <time>2021-09-05T10:09:31Z</time>
      </trkpt>
      <trkpt lat="49.88526" lon="2.23821">
        <ele>56.6</ele>
        <time>2021-09-05T10:09:32Z</time>
      </trkpt>
      <trkpt lat="49.88526" lon="2.23819">
        <ele>56.6</ele>
        <time>2021-09-05T10:09:33Z</time>
      </trkpt>
      <trkpt lat="49.88525" lon="2.23817">
        <ele>56.7</ele>
        <time>2021-09-05T10:09:34Z</time>
      </trkpt>
      <trkpt lat="49.88525" lon="2.23815">
        <ele>56.7</ele>
        <time>2021-09-05T10:09:36Z</time>
      </trkpt>
      <trkpt lat="49.88525" lon="2.23814">
        <ele>56.7</ele>
        <time>2021-09-05T10:09:37Z</time>
      </trkpt>
      <trkpt lat="49.88524" lon="2.23813">
        <ele>56.8</ele>
        <time>2021-09-05T10:09:39Z</time>
      </trkpt>
      <trkpt lat="49.88524" lon="2.23813">
        <ele>56.8</ele>
        <time>2021-09-05T10:09:40Z</time>
      </trkpt>
      <trkpt lat="49.88524" lon="2.23813">
        <ele>56.8</ele>
        <time>2021-09-05T10:09:41Z</time>
      </trkpt>
      <trkpt lat="49.88524" lon="2.23813">
        <ele>56.8</ele>
        <time>2021-09-05T10:09:42Z</time>
      </trkpt>
      <trkpt lat="49.88524" lon="2.23812">
        <ele>56.8</ele>
        <time>2021-09-05T10:09:43Z</time>
      </trkpt>
      <trkpt lat="49.88524" lon="2.23811">
        <ele>56.9</ele>
        <time>2021-09-05T10:09:45Z</time>
      </trkpt>
      <trkpt lat="49.88524" lon="2.2381">
        <ele>56.9</ele>
        <time>2021-09-05T10:09:46Z</time>
      </trkpt>
      <trkpt lat="49.88524" lon="2.23809">
        <ele>56.9</ele>
        <time>2021-09-05T10:09:47Z</time>
      </trkpt>
      <trkpt lat="49.88524" lon="2.23808">
        <ele>57</ele>
        <time>2021-09-05T10:09:48Z</time>
      </trkpt>
      <trkpt lat="49.88524" lon="2.23806">
        <ele>57</ele>
        <time>2021-09-05T10:09:49Z</time>
      </trkpt>
      <trkpt lat="49.88524" lon="2.23804">
        <ele>57</ele>
        <time>2021-09-05T10:09:50Z</time>
      </trkpt>
      <trkpt lat="49.88524" lon="2.23802">
        <ele>57.1</ele>
        <time>2021-09-05T10:09:51Z</time>
      </trkpt>
      <trkpt lat="49.88525" lon="2.238">
        <ele>57.1</ele>
        <time>2021-09-05T10:09:53Z</time>
      </trkpt>
      <trkpt lat="49.88525" lon="2.23797">
        <ele>57.2</ele>
        <time>2021-09-05T10:09:54Z</time>
      </trkpt>
      <trkpt lat="49.88525" lon="2.23796">
        <ele>57.2</ele>
        <time>2021-09-05T10:09:55Z</time>
      </trkpt>
      <trkpt lat="49.88526" lon="2.23795">
        <ele>57.3</ele>
        <time>2021-09-05T10:09:56Z</time>
      </trkpt>
      <trkpt lat="49.88526" lon="2.23793">
        <ele>57.3</ele>
        <time>2021-09-05T10:09:57Z</time>
      </trkpt>
      <trkpt lat="49.88526" lon="2.23791">
        <ele>57.4</ele>
        <time>2021-09-05T10:09:58Z</time>
      </trkpt>
      <trkpt lat="49.88526" lon="2.23789">
        <ele>57.4</ele>
        <time>2021-09-05T10:10:00Z</time>
      </trkpt>
      <trkpt lat="49.88526" lon="2.23788">
        <ele>57.4</ele>
        <time>2021-09-05T10:10:01Z</time>
      </trkpt>
      <trkpt lat="49.88526" lon="2.23786">
        <ele>57.5</ele>
        <time>2021-09-05T10:10:02Z</time>
      </trkpt>
      <trkpt lat="49.88526" lon="2.23784">
        <ele>57.5</ele>
        <time>2021-09-05T10:10:03Z</time>
      </trkpt>
      <trkpt lat="49.88527" lon="2.23783">
        <ele>57.6</ele>
        <time>2021-09-05T10:10:04Z</time>
      </trkpt>
      <trkpt lat="49.88527" lon="2.23781">
        <ele>57.6</ele>
        <time>2021-09-05T10:10:05Z</time>
      </trkpt>
      <trkpt lat="49.88527" lon="2.23779">
        <ele>57.6</ele>
        <time>2021-09-05T10:10:06Z</time>
      </trkpt>
      <trkpt lat="49.88528" lon="2.23777">
        <ele>57.7</ele>
        <time>2021-09-05T10:10:07Z</time>
      </trkpt>
      <trkpt lat="49.88528" lon="2.23776">
        <ele>57.7</ele>
        <time>2021-09-05T10:10:09Z</time>
      </trkpt>
      <trkpt lat="49.88528" lon="2.23774">
        <ele>57.7</ele>
        <time>2021-09-05T10:10:10Z</time>
      </trkpt>
      <trkpt lat="49.88528" lon="2.23772">
        <ele>57.8</ele>
        <time>2021-09-05T10:10:11Z</time>
      </trkpt>
      <trkpt lat="49.88528" lon="2.23771">
        <ele>57.8</ele>
        <time>2021-09-05T10:10:12Z</time>
      </trkpt>
      <trkpt lat="49.88528" lon="2.23769">
        <ele>57.9</ele>
        <time>2021-09-05T10:10:13Z</time>
      </trkpt>
      <trkpt lat="49.88528" lon="2.23766">
        <ele>57.9</ele>
        <time>2021-09-05T10:10:14Z</time>
      </trkpt>
      <trkpt lat="49.88528" lon="2.23764">
        <ele>58</ele>
        <time>2021-09-05T10:10:15Z</time>
      </trkpt>
      <trkpt lat="49.88528" lon="2.23763">
        <ele>58</ele>
        <time>2021-09-05T10:10:16Z</time>
      </trkpt>
      <trkpt lat="49.88528" lon="2.2376">
        <ele>58.1</ele>
        <time>2021-09-05T10:10:18Z</time>
      </trkpt>
      <trkpt lat="49.88528" lon="2.23758">
        <ele>58.1</ele>
        <time>2021-09-05T10:10:19Z</time>
      </trkpt>
      <trkpt lat="49.88528" lon="2.23757">
        <ele>58.1</ele>
        <time>2021-09-05T10:10:20Z</time>
      </trkpt>
      <trkpt lat="49.88528" lon="2.23755">
        <ele>58.2</ele>
        <time>2021-09-05T10:10:21Z</time>
      </trkpt>
      <trkpt lat="49.88528" lon="2.23753">
        <ele>58.2</ele>
        <time>2021-09-05T10:10:22Z</time>
      </trkpt>
      <trkpt lat="49.88527" lon="2.23751">
        <ele>58.2</ele>
        <time>2021-09-05T10:10:23Z</time>
      </trkpt>
      <trkpt lat="49.88527" lon="2.2375">
        <ele>58.3</ele>
        <time>2021-09-05T10:10:24Z</time>
      </trkpt>
      <trkpt lat="49.88527" lon="2.23748">
        <ele>58.3</ele>
        <time>2021-09-05T10:10:25Z</time>
      </trkpt>
      <trkpt lat="49.88527" lon="2.23746">
        <ele>58.3</ele>
        <time>2021-09-05T10:10:27Z</time>
      </trkpt>
      <trkpt lat="49.88527" lon="2.23744">
        <ele>58.4</ele>
        <time>2021-09-05T10:10:28Z</time>
      </trkpt>
      <trkpt lat="49.88527" lon="2.23743">
        <ele>58.4</ele>
        <time>2021-09-05T10:10:29Z</time>
      </trkpt>
      <trkpt lat="49.88528" lon="2.23741">
        <ele>58.5</ele>
        <time>2021-09-05T10:10:30Z</time>
      </trkpt>
      <trkpt lat="49.88528" lon="2.23739">
        <ele>58.5</ele>
        <time>2021-09-05T10:10:31Z</time>
      </trkpt>
      <trkpt lat="49.88528" lon="2.23738">
        <ele>58.5</ele>
        <time>2021-09-05T10:10:32Z</time>
      </trkpt>
      <trkpt lat="49.88528" lon="2.23736">
        <ele>58.6</ele>
        <time>2021-09-05T10:10:33Z</time>
      </trkpt>
      <trkpt lat="49.88528" lon="2.23734">
        <ele>58.6</ele>
        <time>2021-09-05T10:10:34Z</time>
      </trkpt>
      <trkpt lat="49.88528" lon="2.23732">
        <ele>58.6</ele>
        <time>2021-09-05T10:10:36Z</time>
      </trkpt>
      <trkpt lat="49.88528" lon="2.23731">
        <ele>58.7</ele>
        <time>2021-09-05T10:10:37Z</time>
      </trkpt>
      <trkpt lat="49.88527" lon="2.23727">
        <ele>58.8</ele>
        <time>2021-09-05T10:10:38Z</time>
      </trkpt>
      <trkpt lat="49.88527" lon="2.23726">
        <ele>58.8</ele>
        <time>2021-09-05T10:10:40Z</time>
      </trkpt>
      <trkpt lat="49.88526" lon="2.23725">
        <ele>58.8</ele>
        <time>2021-09-05T10:10:41Z</time>
      </trkpt>
      <trkpt lat="49.88525" lon="2.23724">
        <ele>58.9</ele>
        <time>2021-09-05T10:10:42Z</time>
      </trkpt>
      <trkpt lat="49.88525" lon="2.23723">
        <ele>58.9</ele>
        <time>2021-09-05T10:10:43Z</time>
      </trkpt>
      <trkpt lat="49.88524" lon="2.23723">
        <ele>58.9</ele>
        <time>2021-09-05T10:10:45Z</time>
      </trkpt>
      <trkpt lat="49.88523" lon="2.23722">
        <ele>59</ele>
        <time>2021-09-05T10:10:46Z</time>
      </trkpt>
      <trkpt lat="49.88522" lon="2.23721">
        <ele>59</ele>
        <time>2021-09-05T10:10:47Z</time>
      </trkpt>
      <trkpt lat="49.88521" lon="2.2372">
        <ele>59</ele>
        <time>2021-09-05T10:10:48Z</time>
      </trkpt>
      <trkpt lat="49.8852" lon="2.2372">
        <ele>59</ele>
        <time>2021-09-05T10:10:50Z</time>
      </trkpt>
      <trkpt lat="49.88519" lon="2.23719">
        <ele>59</ele>
        <time>2021-09-05T10:10:51Z</time>
      </trkpt>
      <trkpt lat="49.88519" lon="2.23718">
        <ele>59</ele>
        <time>2021-09-05T10:10:52Z</time>
      </trkpt>
      <trkpt lat="49.88517" lon="2.23717">
        <ele>59.1</ele>
        <time>2021-09-05T10:10:54Z</time>
      </trkpt>
      <trkpt lat="49.88516" lon="2.23716">
        <ele>59.1</ele>
        <time>2021-09-05T10:10:55Z</time>
      </trkpt>
      <trkpt lat="49.88515" lon="2.23715">
        <ele>59.1</ele>
        <time>2021-09-05T10:10:56Z</time>
      </trkpt>
      <trkpt lat="49.88514" lon="2.23714">
        <ele>59.1</ele>
        <time>2021-09-05T10:10:58Z</time>
      </trkpt>
      <trkpt lat="49.88513" lon="2.23713">
        <ele>59.2</ele>
        <time>2021-09-05T10:10:59Z</time>
      </trkpt>
      <trkpt lat="49.88512" lon="2.23712">
        <ele>59.2</ele>
        <time>2021-09-05T10:11:00Z</time>
      </trkpt>
      <trkpt lat="49.88511" lon="2.23712">
        <ele>59.2</ele>
        <time>2021-09-05T10:11:01Z</time>
      </trkpt>
      <trkpt lat="49.8851" lon="2.23711">
        <ele>59.2</ele>
        <time>2021-09-05T10:11:02Z</time>
      </trkpt>
      <trkpt lat="49.88509" lon="2.2371">
        <ele>59.2</ele>
        <time>2021-09-05T10:11:03Z</time>
      </trkpt>
      <trkpt lat="49.88508" lon="2.23709">
        <ele>59.3</ele>
        <time>2021-09-05T10:11:04Z</time>
      </trkpt>
      <trkpt lat="49.88507" lon="2.23708">
        <ele>59.3</ele>
        <time>2021-09-05T10:11:05Z</time>
      </trkpt>
      <trkpt lat="49.88506" lon="2.23707">
        <ele>59.3</ele>
        <time>2021-09-05T10:11:07Z</time>
      </trkpt>
      <trkpt lat="49.88505" lon="2.23706">
        <ele>59.3</ele>
        <time>2021-09-05T10:11:08Z</time>
      </trkpt>
      <trkpt lat="49.88504" lon="2.23705">
        <ele>59.4</ele>
        <time>2021-09-05T10:11:09Z</time>
      </trkpt>
      <trkpt lat="49.88503" lon="2.23704">
        <ele>59.4</ele>
        <time>2021-09-05T10:11:10Z</time>
      </trkpt>
      <trkpt lat="49.88502" lon="2.23703">
        <ele>59.4</ele>
        <time>2021-09-05T10:11:11Z</time>
      </trkpt>
      <trkpt lat="49.88501" lon="2.23702">
        <ele>59.4</ele>
        <time>2021-09-05T10:11:12Z</time>
      </trkpt>
      <trkpt lat="49.885" lon="2.23701">
        <ele>59.4</ele>
        <time>2021-09-05T10:11:13Z</time>
      </trkpt>
      <trkpt lat="49.88499" lon="2.23701">
        <ele>59.4</ele>
        <time>2021-09-05T10:11:14Z</time>
      </trkpt>
      <trkpt lat="49.88497" lon="2.23701">
        <ele>59.5</ele>
        <time>2021-09-05T10:11:16Z</time>
      </trkpt>
      <trkpt lat="49.88496" lon="2.237">
        <ele>59.5</ele>
        <time>2021-09-05T10:11:17Z</time>
      </trkpt>
      <trkpt lat="49.88494" lon="2.23698">
        <ele>59.4</ele>
        <time>2021-09-05T10:11:18Z</time>
      </trkpt>
      <trkpt lat="49.88494" lon="2.23697">
        <ele>59.4</ele>
        <time>2021-09-05T10:11:19Z</time>
      </trkpt>
      <trkpt lat="49.88493" lon="2.23697">
        <ele>59.4</ele>
        <time>2021-09-05T10:11:20Z</time>
      </trkpt>
      <trkpt lat="49.88491" lon="2.23695">
        <ele>59.5</ele>
        <time>2021-09-05T10:11:21Z</time>
      </trkpt>
      <trkpt lat="49.8849" lon="2.23694">
        <ele>59.5</ele>
        <time>2021-09-05T10:11:22Z</time>
      </trkpt>
      <trkpt lat="49.8849" lon="2.23693">
        <ele>59.5</ele>
        <time>2021-09-05T10:11:23Z</time>
      </trkpt>
      <trkpt lat="49.88489" lon="2.23691">
        <ele>59.6</ele>
        <time>2021-09-05T10:11:25Z</time>
      </trkpt>
      <trkpt lat="49.88489" lon="2.23689">
        <ele>59.6</ele>
        <time>2021-09-05T10:11:26Z</time>
      </trkpt>
      <trkpt lat="49.88488" lon="2.23687">
        <ele>59.7</ele>
        <time>2021-09-05T10:11:27Z</time>
      </trkpt>
      <trkpt lat="49.88487" lon="2.23685">
        <ele>59.7</ele>
        <time>2021-09-05T10:11:28Z</time>
      </trkpt>
      <trkpt lat="49.88486" lon="2.23683">
        <ele>59.8</ele>
        <time>2021-09-05T10:11:30Z</time>
      </trkpt>
      <trkpt lat="49.88485" lon="2.23681">
        <ele>59.8</ele>
        <time>2021-09-05T10:11:31Z</time>
      </trkpt>
      <trkpt lat="49.88484" lon="2.2368">
        <ele>59.8</ele>
        <time>2021-09-05T10:11:32Z</time>
      </trkpt>
      <trkpt lat="49.88482" lon="2.23678">
        <ele>59.9</ele>
        <time>2021-09-05T10:11:33Z</time>
      </trkpt>
      <trkpt lat="49.88481" lon="2.23676">
        <ele>59.9</ele>
        <time>2021-09-05T10:11:35Z</time>
      </trkpt>
      <trkpt lat="49.8848" lon="2.23675">
        <ele>59.9</ele>
        <time>2021-09-05T10:11:36Z</time>
      </trkpt>
      <trkpt lat="49.88479" lon="2.23674">
        <ele>59.9</ele>
        <time>2021-09-05T10:11:37Z</time>
      </trkpt>
      <trkpt lat="49.88477" lon="2.23672">
        <ele>59.9</ele>
        <time>2021-09-05T10:11:38Z</time>
      </trkpt>
      <trkpt lat="49.88476" lon="2.23671">
        <ele>59.9</ele>
        <time>2021-09-05T10:11:39Z</time>
      </trkpt>
      <trkpt lat="49.88475" lon="2.23669">
        <ele>60</ele>
        <time>2021-09-05T10:11:40Z</time>
      </trkpt>
      <trkpt lat="49.88474" lon="2.23668">
        <ele>60</ele>
        <time>2021-09-05T10:11:41Z</time>
      </trkpt>
      <trkpt lat="49.88473" lon="2.23666">
        <ele>60.1</ele>
        <time>2021-09-05T10:11:42Z</time>
      </trkpt>
      <trkpt lat="49.88472" lon="2.23664">
        <ele>60.1</ele>
        <time>2021-09-05T10:11:44Z</time>
      </trkpt>
      <trkpt lat="49.88471" lon="2.23663">
        <ele>60.1</ele>
        <time>2021-09-05T10:11:45Z</time>
      </trkpt>
      <trkpt lat="49.88469" lon="2.23661">
        <ele>60.2</ele>
        <time>2021-09-05T10:11:46Z</time>
      </trkpt>
      <trkpt lat="49.88468" lon="2.23661">
        <ele>60.2</ele>
        <time>2021-09-05T10:11:47Z</time>
      </trkpt>
      <trkpt lat="49.88467" lon="2.2366">
        <ele>60.2</ele>
        <time>2021-09-05T10:11:48Z</time>
      </trkpt>
      <trkpt lat="49.88466" lon="2.23659">
        <ele>60.2</ele>
        <time>2021-09-05T10:11:49Z</time>
      </trkpt>
      <trkpt lat="49.88465" lon="2.23657">
        <ele>60.3</ele>
        <time>2021-09-05T10:11:50Z</time>
      </trkpt>
      <trkpt lat="49.88465" lon="2.23656">
        <ele>60.3</ele>
        <time>2021-09-05T10:11:51Z</time>
      </trkpt>
      <trkpt lat="49.88464" lon="2.23655">
        <ele>60.3</ele>
        <time>2021-09-05T10:11:52Z</time>
      </trkpt>
      <trkpt lat="49.88462" lon="2.23653">
        <ele>60.2</ele>
        <time>2021-09-05T10:11:54Z</time>
      </trkpt>
      <trkpt lat="49.88462" lon="2.23653">
        <ele>60.4</ele>
        <time>2021-09-05T10:11:55Z</time>
      </trkpt>
      <trkpt lat="49.8846" lon="2.23651">
        <ele>60.4</ele>
        <time>2021-09-05T10:11:57Z</time>
      </trkpt>
      <trkpt lat="49.88459" lon="2.2365">
        <ele>60.3</ele>
        <time>2021-09-05T10:11:58Z</time>
      </trkpt>
      <trkpt lat="49.88458" lon="2.23648">
        <ele>60.5</ele>
        <time>2021-09-05T10:11:59Z</time>
      </trkpt>
      <trkpt lat="49.88458" lon="2.23647">
        <ele>60.5</ele>
        <time>2021-09-05T10:12:00Z</time>
      </trkpt>
      <trkpt lat="49.88458" lon="2.23646">
        <ele>60.5</ele>
        <time>2021-09-05T10:12:01Z</time>
      </trkpt>
      <trkpt lat="49.88457" lon="2.23644">
        <ele>60.6</ele>
        <time>2021-09-05T10:12:02Z</time>
      </trkpt>
      <trkpt lat="49.88456" lon="2.23643">
        <ele>60.6</ele>
        <time>2021-09-05T10:12:03Z</time>
      </trkpt>
      <trkpt lat="49.88456" lon="2.23641">
        <ele>60.6</ele>
        <time>2021-09-05T10:12:05Z</time>
      </trkpt>
      <trkpt lat="49.88455" lon="2.2364">
        <ele>60.7</ele>
        <time>2021-09-05T10:12:06Z</time>
      </trkpt>
      <trkpt lat="49.88454" lon="2.23639">
        <ele>60.7</ele>
        <time>2021-09-05T10:12:07Z</time>
      </trkpt>
      <trkpt lat="49.88453" lon="2.23638">
        <ele>60.7</ele>
        <time>2021-09-05T10:12:08Z</time>
      </trkpt>
      <trkpt lat="49.88452" lon="2.23637">
        <ele>60.7</ele>
        <time>2021-09-05T10:12:09Z</time>
      </trkpt>
      <trkpt lat="49.88451" lon="2.23637">
        <ele>60.7</ele>
        <time>2021-09-05T10:12:10Z</time>
      </trkpt>
      <trkpt lat="49.8845" lon="2.23636">
        <ele>60.8</ele>
        <time>2021-09-05T10:12:11Z</time>
      </trkpt>
      <trkpt lat="49.88448" lon="2.23635">
        <ele>60.8</ele>
        <time>2021-09-05T10:12:12Z</time>
      </trkpt>
      <trkpt lat="49.88447" lon="2.23635">
        <ele>60.8</ele>
        <time>2021-09-05T10:12:14Z</time>
      </trkpt>
      <trkpt lat="49.88445" lon="2.23634">
        <ele>60.8</ele>
        <time>2021-09-05T10:12:15Z</time>
      </trkpt>
      <trkpt lat="49.88444" lon="2.23633">
        <ele>60.8</ele>
        <time>2021-09-05T10:12:16Z</time>
      </trkpt>
      <trkpt lat="49.88444" lon="2.23633">
        <ele>60.8</ele>
        <time>2021-09-05T10:12:17Z</time>
      </trkpt>
      <trkpt lat="49.88442" lon="2.2363">
        <ele>60.9</ele>
        <time>2021-09-05T10:12:19Z</time>
      </trkpt>
      <trkpt lat="49.88441" lon="2.2363">
        <ele>60.9</ele>
        <time>2021-09-05T10:12:20Z</time>
      </trkpt>
      <trkpt lat="49.8844" lon="2.23629">
        <ele>60.9</ele>
        <time>2021-09-05T10:12:21Z</time>
      </trkpt>
      <trkpt lat="49.88439" lon="2.23628">
        <ele>61</ele>
        <time>2021-09-05T10:12:22Z</time>
      </trkpt>
      <trkpt lat="49.88438" lon="2.23626">
        <ele>61</ele>
        <time>2021-09-05T10:12:23Z</time>
      </trkpt>
      <trkpt lat="49.88437" lon="2.23624">
        <ele>61</ele>
        <time>2021-09-05T10:12:25Z</time>
      </trkpt>
      <trkpt lat="49.88436" lon="2.23623">
        <ele>61.1</ele>
        <time>2021-09-05T10:12:26Z</time>
      </trkpt>
      <trkpt lat="49.88434" lon="2.23622">
        <ele>61.1</ele>
        <time>2021-09-05T10:12:27Z</time>
      </trkpt>
      <trkpt lat="49.88433" lon="2.23621">
        <ele>61.1</ele>
        <time>2021-09-05T10:12:28Z</time>
      </trkpt>
      <trkpt lat="49.88432" lon="2.2362">
        <ele>61.1</ele>
        <time>2021-09-05T10:12:29Z</time>
      </trkpt>
      <trkpt lat="49.88432" lon="2.23619">
        <ele>61.2</ele>
        <time>2021-09-05T10:12:30Z</time>
      </trkpt>
      <trkpt lat="49.88431" lon="2.23618">
        <ele>61.2</ele>
        <time>2021-09-05T10:12:31Z</time>
      </trkpt>
      <trkpt lat="49.8843" lon="2.23617">
        <ele>61.2</ele>
        <time>2021-09-05T10:12:33Z</time>
      </trkpt>
      <trkpt lat="49.8843" lon="2.23615">
        <ele>61.2</ele>
        <time>2021-09-05T10:12:34Z</time>
      </trkpt>
      <trkpt lat="49.8843" lon="2.23613">
        <ele>61.3</ele>
        <time>2021-09-05T10:12:35Z</time>
      </trkpt>
      <trkpt lat="49.8843" lon="2.23612">
        <ele>61.3</ele>
        <time>2021-09-05T10:12:36Z</time>
      </trkpt>
      <trkpt lat="49.88431" lon="2.23609">
        <ele>61.5</ele>
        <time>2021-09-05T10:12:38Z</time>
      </trkpt>
      <trkpt lat="49.88431" lon="2.23608">
        <ele>61.5</ele>
        <time>2021-09-05T10:12:39Z</time>
      </trkpt>
      <trkpt lat="49.88432" lon="2.23607">
        <ele>61.5</ele>
        <time>2021-09-05T10:12:41Z</time>
      </trkpt>
      <trkpt lat="49.88432" lon="2.23607">
        <ele>61.5</ele>
        <time>2021-09-05T10:12:42Z</time>
      </trkpt>
      <trkpt lat="49.88432" lon="2.23607">
        <ele>61.5</ele>
        <time>2021-09-05T10:12:43Z</time>
      </trkpt>
      <trkpt lat="49.88432" lon="2.23607">
        <ele>61.5</ele>
        <time>2021-09-05T10:12:44Z</time>
      </trkpt>
      <trkpt lat="49.88432" lon="2.23606">
        <ele>61.6</ele>
        <time>2021-09-05T10:12:45Z</time>
      </trkpt>
      <trkpt lat="49.88431" lon="2.23605">
        <ele>61.6</ele>
        <time>2021-09-05T10:12:47Z</time>
      </trkpt>
      <trkpt lat="49.88431" lon="2.23605">
        <ele>61.6</ele>
        <time>2021-09-05T10:12:48Z</time>
      </trkpt>
      <trkpt lat="49.88429" lon="2.23603">
        <ele>61.6</ele>
        <time>2021-09-05T10:12:50Z</time>
      </trkpt>
      <trkpt lat="49.88428" lon="2.23602">
        <ele>61.7</ele>
        <time>2021-09-05T10:12:51Z</time>
      </trkpt>
      <trkpt lat="49.88427" lon="2.23601">
        <ele>61.7</ele>
        <time>2021-09-05T10:12:53Z</time>
      </trkpt>
      <trkpt lat="49.88426" lon="2.236">
        <ele>61.7</ele>
        <time>2021-09-05T10:12:54Z</time>
      </trkpt>
      <trkpt lat="49.88425" lon="2.23599">
        <ele>61.7</ele>
        <time>2021-09-05T10:12:55Z</time>
      </trkpt>
      <trkpt lat="49.88425" lon="2.23597">
        <ele>61.8</ele>
        <time>2021-09-05T10:12:57Z</time>
      </trkpt>
      <trkpt lat="49.88425" lon="2.23596">
        <ele>61.8</ele>
        <time>2021-09-05T10:12:58Z</time>
      </trkpt>
      <trkpt lat="49.88425" lon="2.23595">
        <ele>61.8</ele>
        <time>2021-09-05T10:13:00Z</time>
      </trkpt>
      <trkpt lat="49.88425" lon="2.23594">
        <ele>61.8</ele>
        <time>2021-09-05T10:13:02Z</time>
      </trkpt>
      <trkpt lat="49.88425" lon="2.23594">
        <ele>61.8</ele>
        <time>2021-09-05T10:13:04Z</time>
      </trkpt>
      <trkpt lat="49.88425" lon="2.23594">
        <ele>61.8</ele>
        <time>2021-09-05T10:13:05Z</time>
      </trkpt>
      <trkpt lat="49.88424" lon="2.23594">
        <ele>61.8</ele>
        <time>2021-09-05T10:13:07Z</time>
      </trkpt>
      <trkpt lat="49.88424" lon="2.23594">
        <ele>61.8</ele>
        <time>2021-09-05T10:13:08Z</time>
      </trkpt>
      <trkpt lat="49.88424" lon="2.23594">
        <ele>61.8</ele>
        <time>2021-09-05T10:13:10Z</time>
      </trkpt>
      <trkpt lat="49.88424" lon="2.23594">
        <ele>61.7</ele>
        <time>2021-09-05T10:13:11Z</time>
      </trkpt>
      <trkpt lat="49.88423" lon="2.23594">
        <ele>61.7</ele>
        <time>2021-09-05T10:13:12Z</time>
      </trkpt>
      <trkpt lat="49.88423" lon="2.23593">
        <ele>61.8</ele>
        <time>2021-09-05T10:13:13Z</time>
      </trkpt>
      <trkpt lat="49.88421" lon="2.23592">
        <ele>61.8</ele>
        <time>2021-09-05T10:13:14Z</time>
      </trkpt>
      <trkpt lat="49.88421" lon="2.23592">
        <ele>61.8</ele>
        <time>2021-09-05T10:13:16Z</time>
      </trkpt>
      <trkpt lat="49.8842" lon="2.23592">
        <ele>61.8</ele>
        <time>2021-09-05T10:13:17Z</time>
      </trkpt>
      <trkpt lat="49.88419" lon="2.23591">
        <ele>61.8</ele>
        <time>2021-09-05T10:13:18Z</time>
      </trkpt>
      <trkpt lat="49.88417" lon="2.23591">
        <ele>61.8</ele>
        <time>2021-09-05T10:13:19Z</time>
      </trkpt>
      <trkpt lat="49.88416" lon="2.2359">
        <ele>61.8</ele>
        <time>2021-09-05T10:13:20Z</time>
      </trkpt>
      <trkpt lat="49.88415" lon="2.2359">
        <ele>61.8</ele>
        <time>2021-09-05T10:13:21Z</time>
      </trkpt>
      <trkpt lat="49.88414" lon="2.2359">
        <ele>61.8</ele>
        <time>2021-09-05T10:13:22Z</time>
      </trkpt>
      <trkpt lat="49.88412" lon="2.2359">
        <ele>61.7</ele>
        <time>2021-09-05T10:13:23Z</time>
      </trkpt>
      <trkpt lat="49.8841" lon="2.2359">
        <ele>61.7</ele>
        <time>2021-09-05T10:13:25Z</time>
      </trkpt>
      <trkpt lat="49.88409" lon="2.2359">
        <ele>61.7</ele>
        <time>2021-09-05T10:13:26Z</time>
      </trkpt>
      <trkpt lat="49.88405" lon="2.23589">
        <ele>61.7</ele>
        <time>2021-09-05T10:13:28Z</time>
      </trkpt>
      <trkpt lat="49.88405" lon="2.23588">
        <ele>61.7</ele>
        <time>2021-09-05T10:13:29Z</time>
      </trkpt>
      <trkpt lat="49.88403" lon="2.23584">
        <ele>61.7</ele>
        <time>2021-09-05T10:13:30Z</time>
      </trkpt>
      <trkpt lat="49.884" lon="2.23581">
        <ele>61.7</ele>
        <time>2021-09-05T10:13:31Z</time>
      </trkpt>
      <trkpt lat="49.88399" lon="2.2358">
        <ele>61.8</ele>
        <time>2021-09-05T10:13:32Z</time>
      </trkpt>
      <trkpt lat="49.88398" lon="2.23579">
        <ele>61.7</ele>
        <time>2021-09-05T10:13:33Z</time>
      </trkpt>
      <trkpt lat="49.88396" lon="2.23578">
        <ele>61.7</ele>
        <time>2021-09-05T10:13:34Z</time>
      </trkpt>
      <trkpt lat="49.88394" lon="2.23578">
        <ele>61.7</ele>
        <time>2021-09-05T10:13:36Z</time>
      </trkpt>
      <trkpt lat="49.88392" lon="2.23578">
        <ele>61.6</ele>
        <time>2021-09-05T10:13:37Z</time>
      </trkpt>
      <trkpt lat="49.88391" lon="2.23578">
        <ele>61.6</ele>
        <time>2021-09-05T10:13:38Z</time>
      </trkpt>
      <trkpt lat="49.88389" lon="2.23578">
        <ele>61.6</ele>
        <time>2021-09-05T10:13:39Z</time>
      </trkpt>
      <trkpt lat="49.88388" lon="2.23578">
        <ele>61.6</ele>
        <time>2021-09-05T10:13:40Z</time>
      </trkpt>
      <trkpt lat="49.88387" lon="2.23578">
        <ele>61.5</ele>
        <time>2021-09-05T10:13:41Z</time>
      </trkpt>
      <trkpt lat="49.88384" lon="2.23578">
        <ele>61.4</ele>
        <time>2021-09-05T10:13:42Z</time>
      </trkpt>
      <trkpt lat="49.88383" lon="2.23578">
        <ele>61.4</ele>
        <time>2021-09-05T10:13:43Z</time>
      </trkpt>
      <trkpt lat="49.8838" lon="2.23577">
        <ele>61.4</ele>
        <time>2021-09-05T10:13:45Z</time>
      </trkpt>
      <trkpt lat="49.8838" lon="2.23577">
        <ele>61.3</ele>
        <time>2021-09-05T10:13:46Z</time>
      </trkpt>
      <trkpt lat="49.88379" lon="2.23576">
        <ele>61.3</ele>
        <time>2021-09-05T10:13:47Z</time>
      </trkpt>
      <trkpt lat="49.88377" lon="2.23573">
        <ele>61.4</ele>
        <time>2021-09-05T10:13:48Z</time>
      </trkpt>
      <trkpt lat="49.88375" lon="2.23572">
        <ele>61.3</ele>
        <time>2021-09-05T10:13:49Z</time>
      </trkpt>
      <trkpt lat="49.88374" lon="2.23571">
        <ele>61.4</ele>
        <time>2021-09-05T10:13:50Z</time>
      </trkpt>
      <trkpt lat="49.88372" lon="2.23571">
        <ele>61.3</ele>
        <time>2021-09-05T10:13:51Z</time>
      </trkpt>
      <trkpt lat="49.88371" lon="2.23572">
        <ele>61.2</ele>
        <time>2021-09-05T10:13:52Z</time>
      </trkpt>
      <trkpt lat="49.8837" lon="2.23573">
        <ele>61.2</ele>
        <time>2021-09-05T10:13:53Z</time>
      </trkpt>
      <trkpt lat="49.88368" lon="2.23573">
        <ele>61.1</ele>
        <time>2021-09-05T10:13:54Z</time>
      </trkpt>
      <trkpt lat="49.88367" lon="2.23572">
        <ele>61.2</ele>
        <time>2021-09-05T10:13:55Z</time>
      </trkpt>
      <trkpt lat="49.88366" lon="2.2357">
        <ele>61.2</ele>
        <time>2021-09-05T10:13:57Z</time>
      </trkpt>
      <trkpt lat="49.88365" lon="2.23566">
        <ele>61.2</ele>
        <time>2021-09-05T10:13:58Z</time>
      </trkpt>
      <trkpt lat="49.88364" lon="2.23565">
        <ele>61.2</ele>
        <time>2021-09-05T10:13:59Z</time>
      </trkpt>
      <trkpt lat="49.88363" lon="2.23561">
        <ele>61.1</ele>
        <time>2021-09-05T10:14:00Z</time>
      </trkpt>
      <trkpt lat="49.88363" lon="2.2356">
        <ele>61.1</ele>
        <time>2021-09-05T10:14:01Z</time>
      </trkpt>
      <trkpt lat="49.88362" lon="2.23558">
        <ele>61.2</ele>
        <time>2021-09-05T10:14:02Z</time>
      </trkpt>
      <trkpt lat="49.88361" lon="2.23555">
        <ele>61.2</ele>
        <time>2021-09-05T10:14:03Z</time>
      </trkpt>
      <trkpt lat="49.8836" lon="2.23554">
        <ele>61.2</ele>
        <time>2021-09-05T10:14:04Z</time>
      </trkpt>
      <trkpt lat="49.88359" lon="2.23553">
        <ele>61.2</ele>
        <time>2021-09-05T10:14:05Z</time>
      </trkpt>
      <trkpt lat="49.88358" lon="2.23552">
        <ele>61.2</ele>
        <time>2021-09-05T10:14:06Z</time>
      </trkpt>
      <trkpt lat="49.88356" lon="2.23552">
        <ele>61.1</ele>
        <time>2021-09-05T10:14:08Z</time>
      </trkpt>
      <trkpt lat="49.88354" lon="2.23551">
        <ele>61.1</ele>
        <time>2021-09-05T10:14:09Z</time>
      </trkpt>
      <trkpt lat="49.88354" lon="2.2355">
        <ele>61.1</ele>
        <time>2021-09-05T10:14:10Z</time>
      </trkpt>
      <trkpt lat="49.88353" lon="2.23549">
        <ele>61</ele>
        <time>2021-09-05T10:14:11Z</time>
      </trkpt>
      <trkpt lat="49.88352" lon="2.23549">
        <ele>61</ele>
        <time>2021-09-05T10:14:12Z</time>
      </trkpt>
      <trkpt lat="49.88351" lon="2.23547">
        <ele>61</ele>
        <time>2021-09-05T10:14:13Z</time>
      </trkpt>
      <trkpt lat="49.8835" lon="2.23548">
        <ele>60.9</ele>
        <time>2021-09-05T10:14:14Z</time>
      </trkpt>
      <trkpt lat="49.88348" lon="2.23549">
        <ele>60.9</ele>
        <time>2021-09-05T10:14:15Z</time>
      </trkpt>
      <trkpt lat="49.88347" lon="2.2355">
        <ele>60.9</ele>
        <time>2021-09-05T10:14:17Z</time>
      </trkpt>
      <trkpt lat="49.88347" lon="2.2355">
        <ele>60.8</ele>
        <time>2021-09-05T10:14:18Z</time>
      </trkpt>
      <trkpt lat="49.88346" lon="2.23551">
        <ele>60.8</ele>
        <time>2021-09-05T10:14:19Z</time>
      </trkpt>
      <trkpt lat="49.88345" lon="2.23552">
        <ele>60.8</ele>
        <time>2021-09-05T10:14:20Z</time>
      </trkpt>
      <trkpt lat="49.88344" lon="2.23554">
        <ele>60.7</ele>
        <time>2021-09-05T10:14:21Z</time>
      </trkpt>
      <trkpt lat="49.88344" lon="2.23558">
        <ele>60.7</ele>
        <time>2021-09-05T10:14:23Z</time>
      </trkpt>
      <trkpt lat="49.88343" lon="2.23559">
        <ele>60.6</ele>
        <time>2021-09-05T10:14:24Z</time>
      </trkpt>
      <trkpt lat="49.88342" lon="2.23562">
        <ele>60.6</ele>
        <time>2021-09-05T10:14:26Z</time>
      </trkpt>
      <trkpt lat="49.88341" lon="2.23564">
        <ele>60.5</ele>
        <time>2021-09-05T10:14:27Z</time>
      </trkpt>
      <trkpt lat="49.88341" lon="2.23566">
        <ele>60.5</ele>
        <time>2021-09-05T10:14:28Z</time>
      </trkpt>
      <trkpt lat="49.8834" lon="2.23567">
        <ele>60.4</ele>
        <time>2021-09-05T10:14:29Z</time>
      </trkpt>
      <trkpt lat="49.88339" lon="2.23569">
        <ele>60.4</ele>
        <time>2021-09-05T10:14:31Z</time>
      </trkpt>
      <trkpt lat="49.88338" lon="2.2357">
        <ele>60.4</ele>
        <time>2021-09-05T10:14:32Z</time>
      </trkpt>
      <trkpt lat="49.88337" lon="2.23571">
        <ele>60.3</ele>
        <time>2021-09-05T10:14:33Z</time>
      </trkpt>
      <trkpt lat="49.88335" lon="2.23572">
        <ele>60.3</ele>
        <time>2021-09-05T10:14:35Z</time>
      </trkpt>
      <trkpt lat="49.88334" lon="2.23573">
        <ele>60.2</ele>
        <time>2021-09-05T10:14:36Z</time>
      </trkpt>
      <trkpt lat="49.88333" lon="2.23574">
        <ele>60.2</ele>
        <time>2021-09-05T10:14:37Z</time>
      </trkpt>
      <trkpt lat="49.88332" lon="2.23572">
        <ele>60.1</ele>
        <time>2021-09-05T10:14:38Z</time>
      </trkpt>
      <trkpt lat="49.8833" lon="2.23573">
        <ele>60.1</ele>
        <time>2021-09-05T10:14:40Z</time>
      </trkpt>
      <trkpt lat="49.88329" lon="2.23574">
        <ele>60</ele>
        <time>2021-09-05T10:14:41Z</time>
      </trkpt>
      <trkpt lat="49.88327" lon="2.23575">
        <ele>60</ele>
        <time>2021-09-05T10:14:42Z</time>
      </trkpt>
      <trkpt lat="49.88322" lon="2.23573">
        <ele>59.8</ele>
        <time>2021-09-05T10:14:43Z</time>
      </trkpt>
      <trkpt lat="49.8832" lon="2.23573">
        <ele>59.8</ele>
        <time>2021-09-05T10:14:44Z</time>
      </trkpt>
      <trkpt lat="49.88319" lon="2.23573">
        <ele>59.8</ele>
        <time>2021-09-05T10:14:45Z</time>
      </trkpt>
      <trkpt lat="49.88317" lon="2.23571">
        <ele>59.7</ele>
        <time>2021-09-05T10:14:47Z</time>
      </trkpt>
      <trkpt lat="49.88316" lon="2.23569">
        <ele>59.7</ele>
        <time>2021-09-05T10:14:48Z</time>
      </trkpt>
      <trkpt lat="49.88314" lon="2.23569">
        <ele>59.7</ele>
        <time>2021-09-05T10:14:49Z</time>
      </trkpt>
      <trkpt lat="49.88313" lon="2.23569">
        <ele>59.6</ele>
        <time>2021-09-05T10:14:50Z</time>
      </trkpt>
      <trkpt lat="49.88312" lon="2.23569">
        <ele>59.6</ele>
        <time>2021-09-05T10:14:51Z</time>
      </trkpt>
      <trkpt lat="49.8831" lon="2.23569">
        <ele>59.6</ele>
        <time>2021-09-05T10:14:52Z</time>
      </trkpt>
      <trkpt lat="49.88308" lon="2.23568">
        <ele>59.5</ele>
        <time>2021-09-05T10:14:54Z</time>
      </trkpt>
      <trkpt lat="49.88307" lon="2.23568">
        <ele>59.5</ele>
        <time>2021-09-05T10:14:55Z</time>
      </trkpt>
      <trkpt lat="49.88306" lon="2.23567">
        <ele>59.5</ele>
        <time>2021-09-05T10:14:56Z</time>
      </trkpt>
      <trkpt lat="49.88305" lon="2.23566">
        <ele>59.5</ele>
        <time>2021-09-05T10:14:57Z</time>
      </trkpt>
      <trkpt lat="49.88304" lon="2.23563">
        <ele>59.5</ele>
        <time>2021-09-05T10:14:58Z</time>
      </trkpt>
      <trkpt lat="49.88303" lon="2.23563">
        <ele>59.5</ele>
        <time>2021-09-05T10:15:00Z</time>
      </trkpt>
      <trkpt lat="49.88302" lon="2.23564">
        <ele>59.5</ele>
        <time>2021-09-05T10:15:01Z</time>
      </trkpt>
      <trkpt lat="49.883" lon="2.23564">
        <ele>59.5</ele>
        <time>2021-09-05T10:15:02Z</time>
      </trkpt>
      <trkpt lat="49.88297" lon="2.23561">
        <ele>59.5</ele>
        <time>2021-09-05T10:15:03Z</time>
      </trkpt>
      <trkpt lat="49.88297" lon="2.23561">
        <ele>59.5</ele>
        <time>2021-09-05T10:15:04Z</time>
      </trkpt>
      <trkpt lat="49.88295" lon="2.23561">
        <ele>59.5</ele>
        <time>2021-09-05T10:15:05Z</time>
      </trkpt>
      <trkpt lat="49.88294" lon="2.23562">
        <ele>59.5</ele>
        <time>2021-09-05T10:15:06Z</time>
      </trkpt>
      <trkpt lat="49.88293" lon="2.23562">
        <ele>59.5</ele>
        <time>2021-09-05T10:15:07Z</time>
      </trkpt>
      <trkpt lat="49.88293" lon="2.23561">
        <ele>59.5</ele>
        <time>2021-09-05T10:15:08Z</time>
      </trkpt>
      <trkpt lat="49.88291" lon="2.23561">
        <ele>59.5</ele>
        <time>2021-09-05T10:15:10Z</time>
      </trkpt>
      <trkpt lat="49.8829" lon="2.23561">
        <ele>59.5</ele>
        <time>2021-09-05T10:15:11Z</time>
      </trkpt>
      <trkpt lat="49.88289" lon="2.23561">
        <ele>59.5</ele>
        <time>2021-09-05T10:15:12Z</time>
      </trkpt>
      <trkpt lat="49.88288" lon="2.23559">
        <ele>59.5</ele>
        <time>2021-09-05T10:15:13Z</time>
      </trkpt>
      <trkpt lat="49.88287" lon="2.23557">
        <ele>59.5</ele>
        <time>2021-09-05T10:15:14Z</time>
      </trkpt>
      <trkpt lat="49.88286" lon="2.23557">
        <ele>59.5</ele>
        <time>2021-09-05T10:15:15Z</time>
      </trkpt>
      <trkpt lat="49.88285" lon="2.23557">
        <ele>59.5</ele>
        <time>2021-09-05T10:15:17Z</time>
      </trkpt>
      <trkpt lat="49.88284" lon="2.23558">
        <ele>59.5</ele>
        <time>2021-09-05T10:15:18Z</time>
      </trkpt>
      <trkpt lat="49.88283" lon="2.2356">
        <ele>59.4</ele>
        <time>2021-09-05T10:15:19Z</time>
      </trkpt>
      <trkpt lat="49.88282" lon="2.23561">
        <ele>59.4</ele>
        <time>2021-09-05T10:15:20Z</time>
      </trkpt>
      <trkpt lat="49.88281" lon="2.23562">
        <ele>59.4</ele>
        <time>2021-09-05T10:15:21Z</time>
      </trkpt>
      <trkpt lat="49.88279" lon="2.23563">
        <ele>59.4</ele>
        <time>2021-09-05T10:15:22Z</time>
      </trkpt>
      <trkpt lat="49.8828" lon="2.23565">
        <ele>59.4</ele>
        <time>2021-09-05T10:15:23Z</time>
      </trkpt>
      <trkpt lat="49.88279" lon="2.23566">
        <ele>59.3</ele>
        <time>2021-09-05T10:15:24Z</time>
      </trkpt>
      <trkpt lat="49.88278" lon="2.23566">
        <ele>59.3</ele>
        <time>2021-09-05T10:15:25Z</time>
      </trkpt>
      <trkpt lat="49.88277" lon="2.23566">
        <ele>59.3</ele>
        <time>2021-09-05T10:15:26Z</time>
      </trkpt>
      <trkpt lat="49.88275" lon="2.23565">
        <ele>59.2</ele>
        <time>2021-09-05T10:15:28Z</time>
      </trkpt>
      <trkpt lat="49.88275" lon="2.23566">
        <ele>59.2</ele>
        <time>2021-09-05T10:15:29Z</time>
      </trkpt>
      <trkpt lat="49.88274" lon="2.23566">
        <ele>59.2</ele>
        <time>2021-09-05T10:15:30Z</time>
      </trkpt>
      <trkpt lat="49.88272" lon="2.23567">
        <ele>59.1</ele>
        <time>2021-09-05T10:15:31Z</time>
      </trkpt>
      <trkpt lat="49.88271" lon="2.23567">
        <ele>59.1</ele>
        <time>2021-09-05T10:15:32Z</time>
      </trkpt>
      <trkpt lat="49.8827" lon="2.23567">
        <ele>59.1</ele>
        <time>2021-09-05T10:15:33Z</time>
      </trkpt>
      <trkpt lat="49.88269" lon="2.23567">
        <ele>59.1</ele>
        <time>2021-09-05T10:15:34Z</time>
      </trkpt>
      <trkpt lat="49.88267" lon="2.23567">
        <ele>59</ele>
        <time>2021-09-05T10:15:35Z</time>
      </trkpt>
      <trkpt lat="49.88266" lon="2.23567">
        <ele>59</ele>
        <time>2021-09-05T10:15:37Z</time>
      </trkpt>
      <trkpt lat="49.88265" lon="2.23566">
        <ele>58.9</ele>
        <time>2021-09-05T10:15:39Z</time>
      </trkpt>
      <trkpt lat="49.88265" lon="2.23567">
        <ele>58.9</ele>
        <time>2021-09-05T10:15:40Z</time>
      </trkpt>
      <trkpt lat="49.88264" lon="2.23567">
        <ele>58.9</ele>
        <time>2021-09-05T10:15:41Z</time>
      </trkpt>
      <trkpt lat="49.88263" lon="2.23567">
        <ele>58.9</ele>
        <time>2021-09-05T10:15:42Z</time>
      </trkpt>
      <trkpt lat="49.88261" lon="2.23564">
        <ele>58.7</ele>
        <time>2021-09-05T10:15:43Z</time>
      </trkpt>
      <trkpt lat="49.8826" lon="2.23561">
        <ele>58.7</ele>
        <time>2021-09-05T10:15:44Z</time>
      </trkpt>
      <trkpt lat="49.88258" lon="2.2356">
        <ele>58.6</ele>
        <time>2021-09-05T10:15:45Z</time>
      </trkpt>
      <trkpt lat="49.88257" lon="2.2356">
        <ele>58.6</ele>
        <time>2021-09-05T10:15:46Z</time>
      </trkpt>
      <trkpt lat="49.88255" lon="2.2356">
        <ele>58.5</ele>
        <time>2021-09-05T10:15:47Z</time>
      </trkpt>
      <trkpt lat="49.88253" lon="2.23559">
        <ele>58.4</ele>
        <time>2021-09-05T10:15:49Z</time>
      </trkpt>
      <trkpt lat="49.88252" lon="2.23558">
        <ele>58.4</ele>
        <time>2021-09-05T10:15:50Z</time>
      </trkpt>
      <trkpt lat="49.88251" lon="2.23558">
        <ele>58.4</ele>
        <time>2021-09-05T10:15:51Z</time>
      </trkpt>
      <trkpt lat="49.8825" lon="2.23558">
        <ele>58.3</ele>
        <time>2021-09-05T10:15:52Z</time>
      </trkpt>
      <trkpt lat="49.88248" lon="2.23558">
        <ele>58.3</ele>
        <time>2021-09-05T10:15:53Z</time>
      </trkpt>
      <trkpt lat="49.88247" lon="2.23555">
        <ele>58.3</ele>
        <time>2021-09-05T10:15:55Z</time>
      </trkpt>
      <trkpt lat="49.88246" lon="2.23555">
        <ele>58.3</ele>
        <time>2021-09-05T10:15:56Z</time>
      </trkpt>
      <trkpt lat="49.88244" lon="2.23555">
        <ele>58.3</ele>
        <time>2021-09-05T10:15:57Z</time>
      </trkpt>
      <trkpt lat="49.88242" lon="2.23555">
        <ele>58.2</ele>
        <time>2021-09-05T10:15:58Z</time>
      </trkpt>
      <trkpt lat="49.88241" lon="2.23555">
        <ele>58.2</ele>
        <time>2021-09-05T10:15:59Z</time>
      </trkpt>
      <trkpt lat="49.88241" lon="2.23555">
        <ele>58.2</ele>
        <time>2021-09-05T10:16:00Z</time>
      </trkpt>
      <trkpt lat="49.88238" lon="2.23556">
        <ele>58.2</ele>
        <time>2021-09-05T10:16:02Z</time>
      </trkpt>
      <trkpt lat="49.88237" lon="2.23556">
        <ele>58.2</ele>
        <time>2021-09-05T10:16:03Z</time>
      </trkpt>
      <trkpt lat="49.88235" lon="2.23556">
        <ele>58.2</ele>
        <time>2021-09-05T10:16:05Z</time>
      </trkpt>
      <trkpt lat="49.88234" lon="2.23557">
        <ele>58.2</ele>
        <time>2021-09-05T10:16:06Z</time>
      </trkpt>
      <trkpt lat="49.88231" lon="2.23558">
        <ele>58.1</ele>
        <time>2021-09-05T10:16:07Z</time>
      </trkpt>
      <trkpt lat="49.8823" lon="2.23559">
        <ele>58.1</ele>
        <time>2021-09-05T10:16:08Z</time>
      </trkpt>
      <trkpt lat="49.88229" lon="2.2356">
        <ele>58.1</ele>
        <time>2021-09-05T10:16:10Z</time>
      </trkpt>
      <trkpt lat="49.88228" lon="2.2356">
        <ele>58.1</ele>
        <time>2021-09-05T10:16:11Z</time>
      </trkpt>
      <trkpt lat="49.88227" lon="2.23561">
        <ele>58.1</ele>
        <time>2021-09-05T10:16:12Z</time>
      </trkpt>
      <trkpt lat="49.88225" lon="2.23562">
        <ele>58</ele>
        <time>2021-09-05T10:16:13Z</time>
      </trkpt>
      <trkpt lat="49.88223" lon="2.23563">
        <ele>58</ele>
        <time>2021-09-05T10:16:14Z</time>
      </trkpt>
      <trkpt lat="49.88219" lon="2.23563">
        <ele>57.9</ele>
        <time>2021-09-05T10:16:16Z</time>
      </trkpt>
      <trkpt lat="49.88218" lon="2.23562">
        <ele>57.8</ele>
        <time>2021-09-05T10:16:18Z</time>
      </trkpt>
      <trkpt lat="49.88216" lon="2.23561">
        <ele>57.8</ele>
        <time>2021-09-05T10:16:19Z</time>
      </trkpt>
      <trkpt lat="49.88215" lon="2.23561">
        <ele>57.8</ele>
        <time>2021-09-05T10:16:20Z</time>
      </trkpt>
      <trkpt lat="49.88213" lon="2.23562">
        <ele>57.8</ele>
        <time>2021-09-05T10:16:21Z</time>
      </trkpt>
      <trkpt lat="49.88211" lon="2.23562">
        <ele>57.7</ele>
        <time>2021-09-05T10:16:23Z</time>
      </trkpt>
      <trkpt lat="49.88209" lon="2.23564">
        <ele>57.7</ele>
        <time>2021-09-05T10:16:24Z</time>
      </trkpt>
      <trkpt lat="49.88208" lon="2.23565">
        <ele>57.7</ele>
        <time>2021-09-05T10:16:26Z</time>
      </trkpt>
      <trkpt lat="49.88208" lon="2.23566">
        <ele>57.7</ele>
        <time>2021-09-05T10:16:27Z</time>
      </trkpt>
      <trkpt lat="49.88207" lon="2.23566">
        <ele>57.6</ele>
        <time>2021-09-05T10:16:28Z</time>
      </trkpt>
      <trkpt lat="49.88206" lon="2.23567">
        <ele>57.6</ele>
        <time>2021-09-05T10:16:29Z</time>
      </trkpt>
      <trkpt lat="49.88205" lon="2.23568">
        <ele>57.6</ele>
        <time>2021-09-05T10:16:30Z</time>
      </trkpt>
      <trkpt lat="49.88203" lon="2.23569">
        <ele>57.6</ele>
        <time>2021-09-05T10:16:31Z</time>
      </trkpt>
      <trkpt lat="49.88202" lon="2.23569">
        <ele>57.6</ele>
        <time>2021-09-05T10:16:32Z</time>
      </trkpt>
      <trkpt lat="49.88201" lon="2.23569">
        <ele>57.5</ele>
        <time>2021-09-05T10:16:33Z</time>
      </trkpt>
      <trkpt lat="49.882" lon="2.23571">
        <ele>57.5</ele>
        <time>2021-09-05T10:16:34Z</time>
      </trkpt>
      <trkpt lat="49.88199" lon="2.23572">
        <ele>57.5</ele>
        <time>2021-09-05T10:16:36Z</time>
      </trkpt>
      <trkpt lat="49.88197" lon="2.23573">
        <ele>57.5</ele>
        <time>2021-09-05T10:16:37Z</time>
      </trkpt>
      <trkpt lat="49.88195" lon="2.23574">
        <ele>57.4</ele>
        <time>2021-09-05T10:16:39Z</time>
      </trkpt>
      <trkpt lat="49.88193" lon="2.23575">
        <ele>57.4</ele>
        <time>2021-09-05T10:16:40Z</time>
      </trkpt>
      <trkpt lat="49.88192" lon="2.23575">
        <ele>56.8</ele>
        <time>2021-09-05T10:16:41Z</time>
      </trkpt>
      <trkpt lat="49.88191" lon="2.23575">
        <ele>56.7</ele>
        <time>2021-09-05T10:16:42Z</time>
      </trkpt>
      <trkpt lat="49.8819" lon="2.23576">
        <ele>56.5</ele>
        <time>2021-09-05T10:16:43Z</time>
      </trkpt>
      <trkpt lat="49.88191" lon="2.23579">
        <ele>56.2</ele>
        <time>2021-09-05T10:16:45Z</time>
      </trkpt>
      <trkpt lat="49.88191" lon="2.23581">
        <ele>56.1</ele>
        <time>2021-09-05T10:16:46Z</time>
      </trkpt>
      <trkpt lat="49.88191" lon="2.23583">
        <ele>55.8</ele>
        <time>2021-09-05T10:16:47Z</time>
      </trkpt>
      <trkpt lat="49.88192" lon="2.23584">
        <ele>55.7</ele>
        <time>2021-09-05T10:16:48Z</time>
      </trkpt>
      <trkpt lat="49.88193" lon="2.23586">
        <ele>55.5</ele>
        <time>2021-09-05T10:16:49Z</time>
      </trkpt>
      <trkpt lat="49.88191" lon="2.23587">
        <ele>55.2</ele>
        <time>2021-09-05T10:16:50Z</time>
      </trkpt>
      <trkpt lat="49.8819" lon="2.23588">
        <ele>55</ele>
        <time>2021-09-05T10:16:51Z</time>
      </trkpt>
      <trkpt lat="49.88189" lon="2.23588">
        <ele>54.8</ele>
        <time>2021-09-05T10:16:52Z</time>
      </trkpt>
      <trkpt lat="49.88185" lon="2.23586">
        <ele>54.3</ele>
        <time>2021-09-05T10:16:54Z</time>
      </trkpt>
      <trkpt lat="49.88183" lon="2.23581">
        <ele>53.7</ele>
        <time>2021-09-05T10:16:55Z</time>
      </trkpt>
      <trkpt lat="49.88181" lon="2.23579">
        <ele>53.4</ele>
        <time>2021-09-05T10:16:56Z</time>
      </trkpt>
      <trkpt lat="49.8818" lon="2.23578">
        <ele>53.1</ele>
        <time>2021-09-05T10:16:58Z</time>
      </trkpt>
      <trkpt lat="49.8818" lon="2.23578">
        <ele>53.1</ele>
        <time>2021-09-05T10:16:59Z</time>
      </trkpt>
      <trkpt lat="49.88179" lon="2.23579">
        <ele>52.9</ele>
        <time>2021-09-05T10:17:00Z</time>
      </trkpt>
      <trkpt lat="49.88178" lon="2.23582">
        <ele>52.7</ele>
        <time>2021-09-05T10:17:01Z</time>
      </trkpt>
      <trkpt lat="49.88177" lon="2.23583">
        <ele>52.5</ele>
        <time>2021-09-05T10:17:02Z</time>
      </trkpt>
      <trkpt lat="49.88177" lon="2.23586">
        <ele>52.3</ele>
        <time>2021-09-05T10:17:03Z</time>
      </trkpt>
      <trkpt lat="49.88176" lon="2.23588">
        <ele>52</ele>
        <time>2021-09-05T10:17:05Z</time>
      </trkpt>
      <trkpt lat="49.88176" lon="2.2359">
        <ele>51.9</ele>
        <time>2021-09-05T10:17:06Z</time>
      </trkpt>
      <trkpt lat="49.88176" lon="2.23592">
        <ele>51.5</ele>
        <time>2021-09-05T10:17:07Z</time>
      </trkpt>
      <trkpt lat="49.88176" lon="2.23595">
        <ele>51.4</ele>
        <time>2021-09-05T10:17:09Z</time>
      </trkpt>
      <trkpt lat="49.88176" lon="2.23596">
        <ele>51.4</ele>
        <time>2021-09-05T10:17:10Z</time>
      </trkpt>
      <trkpt lat="49.88176" lon="2.23597">
        <ele>51.4</ele>
        <time>2021-09-05T10:17:11Z</time>
      </trkpt>
      <trkpt lat="49.88176" lon="2.23598">
        <ele>51.3</ele>
        <time>2021-09-05T10:17:12Z</time>
      </trkpt>
      <trkpt lat="49.88176" lon="2.23599">
        <ele>51.3</ele>
        <time>2021-09-05T10:17:13Z</time>
      </trkpt>
      <trkpt lat="49.88177" lon="2.23602">
        <ele>51.2</ele>
        <time>2021-09-05T10:17:15Z</time>
      </trkpt>
      <trkpt lat="49.88177" lon="2.23604">
        <ele>51.2</ele>
        <time>2021-09-05T10:17:16Z</time>
      </trkpt>
      <trkpt lat="49.88177" lon="2.23606">
        <ele>51.1</ele>
        <time>2021-09-05T10:17:17Z</time>
      </trkpt>
      <trkpt lat="49.88178" lon="2.23608">
        <ele>51.1</ele>
        <time>2021-09-05T10:17:19Z</time>
      </trkpt>
      <trkpt lat="49.88178" lon="2.2361">
        <ele>51</ele>
        <time>2021-09-05T10:17:20Z</time>
      </trkpt>
      <trkpt lat="49.88179" lon="2.23612">
        <ele>51</ele>
        <time>2021-09-05T10:17:21Z</time>
      </trkpt>
      <trkpt lat="49.8818" lon="2.23614">
        <ele>50.9</ele>
        <time>2021-09-05T10:17:22Z</time>
      </trkpt>
      <trkpt lat="49.8818" lon="2.23617">
        <ele>50.8</ele>
        <time>2021-09-05T10:17:23Z</time>
      </trkpt>
      <trkpt lat="49.88181" lon="2.23621">
        <ele>50.7</ele>
        <time>2021-09-05T10:17:25Z</time>
      </trkpt>
      <trkpt lat="49.88181" lon="2.23622">
        <ele>50.7</ele>
        <time>2021-09-05T10:17:26Z</time>
      </trkpt>
      <trkpt lat="49.88181" lon="2.23625">
        <ele>50.6</ele>
        <time>2021-09-05T10:17:27Z</time>
      </trkpt>
      <trkpt lat="49.88182" lon="2.23627">
        <ele>50.6</ele>
        <time>2021-09-05T10:17:28Z</time>
      </trkpt>
      <trkpt lat="49.88183" lon="2.2363">
        <ele>50.5</ele>
        <time>2021-09-05T10:17:30Z</time>
      </trkpt>
      <trkpt lat="49.88183" lon="2.23631">
        <ele>50.5</ele>
        <time>2021-09-05T10:17:31Z</time>
      </trkpt>
      <trkpt lat="49.88184" lon="2.23635">
        <ele>50.4</ele>
        <time>2021-09-05T10:17:32Z</time>
      </trkpt>
      <trkpt lat="49.88185" lon="2.23637">
        <ele>50.3</ele>
        <time>2021-09-05T10:17:34Z</time>
      </trkpt>
      <trkpt lat="49.88185" lon="2.23638">
        <ele>50.3</ele>
        <time>2021-09-05T10:17:35Z</time>
      </trkpt>
      <trkpt lat="49.88185" lon="2.2364">
        <ele>50.2</ele>
        <time>2021-09-05T10:17:36Z</time>
      </trkpt>
      <trkpt lat="49.88186" lon="2.23642">
        <ele>50.2</ele>
        <time>2021-09-05T10:17:37Z</time>
      </trkpt>
      <trkpt lat="49.88186" lon="2.23644">
        <ele>50.2</ele>
        <time>2021-09-05T10:17:38Z</time>
      </trkpt>
      <trkpt lat="49.88186" lon="2.23646">
        <ele>50.1</ele>
        <time>2021-09-05T10:17:39Z</time>
      </trkpt>
      <trkpt lat="49.88187" lon="2.23649">
        <ele>50</ele>
        <time>2021-09-05T10:17:40Z</time>
      </trkpt>
      <trkpt lat="49.88187" lon="2.2365">
        <ele>50</ele>
        <time>2021-09-05T10:17:41Z</time>
      </trkpt>
      <trkpt lat="49.88187" lon="2.23652">
        <ele>50</ele>
        <time>2021-09-05T10:17:42Z</time>
      </trkpt>
      <trkpt lat="49.88188" lon="2.23654">
        <ele>49.9</ele>
        <time>2021-09-05T10:17:43Z</time>
      </trkpt>
      <trkpt lat="49.88188" lon="2.23656">
        <ele>49.9</ele>
        <time>2021-09-05T10:17:44Z</time>
      </trkpt>
      <trkpt lat="49.88189" lon="2.23659">
        <ele>49.8</ele>
        <time>2021-09-05T10:17:46Z</time>
      </trkpt>
      <trkpt lat="49.8819" lon="2.23661">
        <ele>49.7</ele>
        <time>2021-09-05T10:17:47Z</time>
      </trkpt>
      <trkpt lat="49.8819" lon="2.23662">
        <ele>49.7</ele>
        <time>2021-09-05T10:17:48Z</time>
      </trkpt>
      <trkpt lat="49.88191" lon="2.23665">
        <ele>49.7</ele>
        <time>2021-09-05T10:17:50Z</time>
      </trkpt>
      <trkpt lat="49.88191" lon="2.23667">
        <ele>49.7</ele>
        <time>2021-09-05T10:17:51Z</time>
      </trkpt>
      <trkpt lat="49.88191" lon="2.23669">
        <ele>49.7</ele>
        <time>2021-09-05T10:17:52Z</time>
      </trkpt>
      <trkpt lat="49.88191" lon="2.23671">
        <ele>49.7</ele>
        <time>2021-09-05T10:17:53Z</time>
      </trkpt>
      <trkpt lat="49.88188" lon="2.23673">
        <ele>49.7</ele>
        <time>2021-09-05T10:17:54Z</time>
      </trkpt>
      <trkpt lat="49.88187" lon="2.23673">
        <ele>49.7</ele>
        <time>2021-09-05T10:17:56Z</time>
      </trkpt>
      <trkpt lat="49.88185" lon="2.23674">
        <ele>49.7</ele>
        <time>2021-09-05T10:17:57Z</time>
      </trkpt>
      <trkpt lat="49.88184" lon="2.23674">
        <ele>49.7</ele>
        <time>2021-09-05T10:17:58Z</time>
      </trkpt>
      <trkpt lat="49.88181" lon="2.23674">
        <ele>49.8</ele>
        <time>2021-09-05T10:18:00Z</time>
      </trkpt>
      <trkpt lat="49.8818" lon="2.23674">
        <ele>49.8</ele>
        <time>2021-09-05T10:18:01Z</time>
      </trkpt>
      <trkpt lat="49.88179" lon="2.23675">
        <ele>49.8</ele>
        <time>2021-09-05T10:18:02Z</time>
      </trkpt>
      <trkpt lat="49.88178" lon="2.23676">
        <ele>49.9</ele>
        <time>2021-09-05T10:18:04Z</time>
      </trkpt>
      <trkpt lat="49.88177" lon="2.23678">
        <ele>49.9</ele>
        <time>2021-09-05T10:18:05Z</time>
      </trkpt>
      <trkpt lat="49.88176" lon="2.2368">
        <ele>50</ele>
        <time>2021-09-05T10:18:06Z</time>
      </trkpt>
      <trkpt lat="49.88175" lon="2.23682">
        <ele>50</ele>
        <time>2021-09-05T10:18:07Z</time>
      </trkpt>
      <trkpt lat="49.88175" lon="2.23684">
        <ele>50.1</ele>
        <time>2021-09-05T10:18:08Z</time>
      </trkpt>
      <trkpt lat="49.88174" lon="2.23686">
        <ele>50.2</ele>
        <time>2021-09-05T10:18:09Z</time>
      </trkpt>
      <trkpt lat="49.88174" lon="2.23688">
        <ele>50.2</ele>
        <time>2021-09-05T10:18:10Z</time>
      </trkpt>
      <trkpt lat="49.88173" lon="2.2369">
        <ele>50.3</ele>
        <time>2021-09-05T10:18:11Z</time>
      </trkpt>
      <trkpt lat="49.88173" lon="2.23693">
        <ele>50.4</ele>
        <time>2021-09-05T10:18:13Z</time>
      </trkpt>
      <trkpt lat="49.88172" lon="2.23695">
        <ele>50.5</ele>
        <time>2021-09-05T10:18:14Z</time>
      </trkpt>
      <trkpt lat="49.88171" lon="2.23697">
        <ele>50.6</ele>
        <time>2021-09-05T10:18:15Z</time>
      </trkpt>
      <trkpt lat="49.88171" lon="2.237">
        <ele>50.7</ele>
        <time>2021-09-05T10:18:16Z</time>
      </trkpt>
      <trkpt lat="49.8817" lon="2.23702">
        <ele>50.8</ele>
        <time>2021-09-05T10:18:17Z</time>
      </trkpt>
      <trkpt lat="49.8817" lon="2.23703">
        <ele>50.9</ele>
        <time>2021-09-05T10:18:18Z</time>
      </trkpt>
      <trkpt lat="49.88169" lon="2.23705">
        <ele>51</ele>
        <time>2021-09-05T10:18:19Z</time>
      </trkpt>
      <trkpt lat="49.88169" lon="2.23707">
        <ele>51.1</ele>
        <time>2021-09-05T10:18:20Z</time>
      </trkpt>
      <trkpt lat="49.88169" lon="2.2371">
        <ele>51.2</ele>
        <time>2021-09-05T10:18:22Z</time>
      </trkpt>
      <trkpt lat="49.88169" lon="2.23712">
        <ele>51.3</ele>
        <time>2021-09-05T10:18:23Z</time>
      </trkpt>
      <trkpt lat="49.88168" lon="2.23713">
        <ele>51.4</ele>
        <time>2021-09-05T10:18:24Z</time>
      </trkpt>
      <trkpt lat="49.88168" lon="2.23714">
        <ele>51.4</ele>
        <time>2021-09-05T10:18:25Z</time>
      </trkpt>
      <trkpt lat="49.88168" lon="2.23716">
        <ele>51.5</ele>
        <time>2021-09-05T10:18:26Z</time>
      </trkpt>
      <trkpt lat="49.88168" lon="2.23718">
        <ele>51.6</ele>
        <time>2021-09-05T10:18:27Z</time>
      </trkpt>
      <trkpt lat="49.88168" lon="2.2372">
        <ele>51.7</ele>
        <time>2021-09-05T10:18:28Z</time>
      </trkpt>
      <trkpt lat="49.88167" lon="2.23722">
        <ele>51.8</ele>
        <time>2021-09-05T10:18:29Z</time>
      </trkpt>
      <trkpt lat="49.88167" lon="2.23724">
        <ele>51.9</ele>
        <time>2021-09-05T10:18:31Z</time>
      </trkpt>
      <trkpt lat="49.88166" lon="2.23725">
        <ele>52</ele>
        <time>2021-09-05T10:18:32Z</time>
      </trkpt>
      <trkpt lat="49.88166" lon="2.23727">
        <ele>52.1</ele>
        <time>2021-09-05T10:18:33Z</time>
      </trkpt>
      <trkpt lat="49.88166" lon="2.23728">
        <ele>52.1</ele>
        <time>2021-09-05T10:18:34Z</time>
      </trkpt>
      <trkpt lat="49.88165" lon="2.2373">
        <ele>52.2</ele>
        <time>2021-09-05T10:18:35Z</time>
      </trkpt>
      <trkpt lat="49.88165" lon="2.23732">
        <ele>52.3</ele>
        <time>2021-09-05T10:18:36Z</time>
      </trkpt>
      <trkpt lat="49.88164" lon="2.23734">
        <ele>52.5</ele>
        <time>2021-09-05T10:18:37Z</time>
      </trkpt>
      <trkpt lat="49.88163" lon="2.23736">
        <ele>52.5</ele>
        <time>2021-09-05T10:18:39Z</time>
      </trkpt>
      <trkpt lat="49.88163" lon="2.23737">
        <ele>52.6</ele>
        <time>2021-09-05T10:18:40Z</time>
      </trkpt>
      <trkpt lat="49.88162" lon="2.23739">
        <ele>52.7</ele>
        <time>2021-09-05T10:18:41Z</time>
      </trkpt>
      <trkpt lat="49.88161" lon="2.2374">
        <ele>52.8</ele>
        <time>2021-09-05T10:18:42Z</time>
      </trkpt>
      <trkpt lat="49.88161" lon="2.23741">
        <ele>52.8</ele>
        <time>2021-09-05T10:18:43Z</time>
      </trkpt>
      <trkpt lat="49.88161" lon="2.23742">
        <ele>52.9</ele>
        <time>2021-09-05T10:18:44Z</time>
      </trkpt>
      <trkpt lat="49.8816" lon="2.23745">
        <ele>53</ele>
        <time>2021-09-05T10:18:45Z</time>
      </trkpt>
      <trkpt lat="49.88159" lon="2.23747">
        <ele>53.1</ele>
        <time>2021-09-05T10:18:47Z</time>
      </trkpt>
      <trkpt lat="49.88159" lon="2.23748">
        <ele>53.1</ele>
        <time>2021-09-05T10:18:48Z</time>
      </trkpt>
      <trkpt lat="49.88159" lon="2.2375">
        <ele>53.2</ele>
        <time>2021-09-05T10:18:49Z</time>
      </trkpt>
      <trkpt lat="49.88157" lon="2.2375">
        <ele>53.3</ele>
        <time>2021-09-05T10:18:50Z</time>
      </trkpt>
      <trkpt lat="49.88156" lon="2.23751">
        <ele>53.3</ele>
        <time>2021-09-05T10:18:51Z</time>
      </trkpt>
      <trkpt lat="49.88155" lon="2.23753">
        <ele>53.4</ele>
        <time>2021-09-05T10:18:52Z</time>
      </trkpt>
      <trkpt lat="49.88154" lon="2.23753">
        <ele>53.5</ele>
        <time>2021-09-05T10:18:53Z</time>
      </trkpt>
      <trkpt lat="49.88153" lon="2.23753">
        <ele>53.5</ele>
        <time>2021-09-05T10:18:54Z</time>
      </trkpt>
      <trkpt lat="49.88151" lon="2.23756">
        <ele>53.6</ele>
        <time>2021-09-05T10:18:55Z</time>
      </trkpt>
      <trkpt lat="49.88151" lon="2.23757">
        <ele>53.6</ele>
        <time>2021-09-05T10:18:57Z</time>
      </trkpt>
      <trkpt lat="49.88151" lon="2.23758">
        <ele>53.7</ele>
        <time>2021-09-05T10:18:58Z</time>
      </trkpt>
      <trkpt lat="49.8815" lon="2.23759">
        <ele>53.7</ele>
        <time>2021-09-05T10:18:59Z</time>
      </trkpt>
      <trkpt lat="49.88148" lon="2.23757">
        <ele>53.8</ele>
        <time>2021-09-05T10:19:00Z</time>
      </trkpt>
      <trkpt lat="49.88146" lon="2.23759">
        <ele>53.8</ele>
        <time>2021-09-05T10:19:01Z</time>
      </trkpt>
      <trkpt lat="49.88145" lon="2.2376">
        <ele>53.9</ele>
        <time>2021-09-05T10:19:02Z</time>
      </trkpt>
      <trkpt lat="49.88144" lon="2.2376">
        <ele>53.9</ele>
        <time>2021-09-05T10:19:03Z</time>
      </trkpt>
      <trkpt lat="49.88141" lon="2.23761">
        <ele>54</ele>
        <time>2021-09-05T10:19:04Z</time>
      </trkpt>
      <trkpt lat="49.88141" lon="2.23761">
        <ele>54</ele>
        <time>2021-09-05T10:19:05Z</time>
      </trkpt>
      <trkpt lat="49.8814" lon="2.23763">
        <ele>54.1</ele>
        <time>2021-09-05T10:19:06Z</time>
      </trkpt>
      <trkpt lat="49.88139" lon="2.23764">
        <ele>54.1</ele>
        <time>2021-09-05T10:19:08Z</time>
      </trkpt>
      <trkpt lat="49.88138" lon="2.23765">
        <ele>54.1</ele>
        <time>2021-09-05T10:19:09Z</time>
      </trkpt>
      <trkpt lat="49.88139" lon="2.23766">
        <ele>54.2</ele>
        <time>2021-09-05T10:19:10Z</time>
      </trkpt>
      <trkpt lat="49.88138" lon="2.23768">
        <ele>54.2</ele>
        <time>2021-09-05T10:19:11Z</time>
      </trkpt>
      <trkpt lat="49.88138" lon="2.2377">
        <ele>54.2</ele>
        <time>2021-09-05T10:19:12Z</time>
      </trkpt>
      <trkpt lat="49.88137" lon="2.23771">
        <ele>54.3</ele>
        <time>2021-09-05T10:19:13Z</time>
      </trkpt>
      <trkpt lat="49.88136" lon="2.23772">
        <ele>54.3</ele>
        <time>2021-09-05T10:19:14Z</time>
      </trkpt>
      <trkpt lat="49.88136" lon="2.23774">
        <ele>54.3</ele>
        <time>2021-09-05T10:19:15Z</time>
      </trkpt>
      <trkpt lat="49.88136" lon="2.23775">
        <ele>54.3</ele>
        <time>2021-09-05T10:19:16Z</time>
      </trkpt>
      <trkpt lat="49.88135" lon="2.23777">
        <ele>54.3</ele>
        <time>2021-09-05T10:19:17Z</time>
      </trkpt>
      <trkpt lat="49.88134" lon="2.23778">
        <ele>54.3</ele>
        <time>2021-09-05T10:19:18Z</time>
      </trkpt>
      <trkpt lat="49.88133" lon="2.23778">
        <ele>54.3</ele>
        <time>2021-09-05T10:19:19Z</time>
      </trkpt>
      <trkpt lat="49.88132" lon="2.23779">
        <ele>54.4</ele>
        <time>2021-09-05T10:19:21Z</time>
      </trkpt>
      <trkpt lat="49.88132" lon="2.2378">
        <ele>54.4</ele>
        <time>2021-09-05T10:19:22Z</time>
      </trkpt>
      <trkpt lat="49.8813" lon="2.23782">
        <ele>54.4</ele>
        <time>2021-09-05T10:19:23Z</time>
      </trkpt>
      <trkpt lat="49.8813" lon="2.23782">
        <ele>54.4</ele>
        <time>2021-09-05T10:19:24Z</time>
      </trkpt>
      <trkpt lat="49.88129" lon="2.23782">
        <ele>54.4</ele>
        <time>2021-09-05T10:19:25Z</time>
      </trkpt>
      <trkpt lat="49.88128" lon="2.23783">
        <ele>54.4</ele>
        <time>2021-09-05T10:19:26Z</time>
      </trkpt>
      <trkpt lat="49.88127" lon="2.23784">
        <ele>54.4</ele>
        <time>2021-09-05T10:19:27Z</time>
      </trkpt>
      <trkpt lat="49.88127" lon="2.23786">
        <ele>54.5</ele>
        <time>2021-09-05T10:19:28Z</time>
      </trkpt>
      <trkpt lat="49.88126" lon="2.23787">
        <ele>54.5</ele>
        <time>2021-09-05T10:19:29Z</time>
      </trkpt>
      <trkpt lat="49.88125" lon="2.23787">
        <ele>54.5</ele>
        <time>2021-09-05T10:19:30Z</time>
      </trkpt>
      <trkpt lat="49.88124" lon="2.23787">
        <ele>54.5</ele>
        <time>2021-09-05T10:19:31Z</time>
      </trkpt>
      <trkpt lat="49.88123" lon="2.23788">
        <ele>54.5</ele>
        <time>2021-09-05T10:19:32Z</time>
      </trkpt>
      <trkpt lat="49.88121" lon="2.23791">
        <ele>54.5</ele>
        <time>2021-09-05T10:19:34Z</time>
      </trkpt>
      <trkpt lat="49.8812" lon="2.23793">
        <ele>54.6</ele>
        <time>2021-09-05T10:19:35Z</time>
      </trkpt>
      <trkpt lat="49.88119" lon="2.23793">
        <ele>54.6</ele>
        <time>2021-09-05T10:19:36Z</time>
      </trkpt>
      <trkpt lat="49.88118" lon="2.23794">
        <ele>54.6</ele>
        <time>2021-09-05T10:19:37Z</time>
      </trkpt>
      <trkpt lat="49.88117" lon="2.23795">
        <ele>54.6</ele>
        <time>2021-09-05T10:19:38Z</time>
      </trkpt>
      <trkpt lat="49.88114" lon="2.23794">
        <ele>54.6</ele>
        <time>2021-09-05T10:19:39Z</time>
      </trkpt>
      <trkpt lat="49.88113" lon="2.23794">
        <ele>54.7</ele>
        <time>2021-09-05T10:19:40Z</time>
      </trkpt>
      <trkpt lat="49.88112" lon="2.23795">
        <ele>54.7</ele>
        <time>2021-09-05T10:19:41Z</time>
      </trkpt>
      <trkpt lat="49.8811" lon="2.23796">
        <ele>54.7</ele>
        <time>2021-09-05T10:19:43Z</time>
      </trkpt>
      <trkpt lat="49.88109" lon="2.23797">
        <ele>54.7</ele>
        <time>2021-09-05T10:19:44Z</time>
      </trkpt>
      <trkpt lat="49.88107" lon="2.23796">
        <ele>54.8</ele>
        <time>2021-09-05T10:19:45Z</time>
      </trkpt>
      <trkpt lat="49.88105" lon="2.23797">
        <ele>54.8</ele>
        <time>2021-09-05T10:19:47Z</time>
      </trkpt>
      <trkpt lat="49.88104" lon="2.23798">
        <ele>54.9</ele>
        <time>2021-09-05T10:19:48Z</time>
      </trkpt>
      <trkpt lat="49.88103" lon="2.23798">
        <ele>54.9</ele>
        <time>2021-09-05T10:19:49Z</time>
      </trkpt>
      <trkpt lat="49.88101" lon="2.23796">
        <ele>54.9</ele>
        <time>2021-09-05T10:19:50Z</time>
      </trkpt>
      <trkpt lat="49.88099" lon="2.23796">
        <ele>55</ele>
        <time>2021-09-05T10:19:51Z</time>
      </trkpt>
      <trkpt lat="49.88098" lon="2.23795">
        <ele>55</ele>
        <time>2021-09-05T10:19:52Z</time>
      </trkpt>
      <trkpt lat="49.88097" lon="2.23795">
        <ele>55</ele>
        <time>2021-09-05T10:19:53Z</time>
      </trkpt>
      <trkpt lat="49.88095" lon="2.23795">
        <ele>55.1</ele>
        <time>2021-09-05T10:19:55Z</time>
      </trkpt>
      <trkpt lat="49.88093" lon="2.23794">
        <ele>55.1</ele>
        <time>2021-09-05T10:19:56Z</time>
      </trkpt>
      <trkpt lat="49.88092" lon="2.23794">
        <ele>55.1</ele>
        <time>2021-09-05T10:19:57Z</time>
      </trkpt>
      <trkpt lat="49.88091" lon="2.23795">
        <ele>55.1</ele>
        <time>2021-09-05T10:19:58Z</time>
      </trkpt>
      <trkpt lat="49.88089" lon="2.23795">
        <ele>55.2</ele>
        <time>2021-09-05T10:19:59Z</time>
      </trkpt>
      <trkpt lat="49.88088" lon="2.23795">
        <ele>55.2</ele>
        <time>2021-09-05T10:20:00Z</time>
      </trkpt>
      <trkpt lat="49.88087" lon="2.23795">
        <ele>55.2</ele>
        <time>2021-09-05T10:20:02Z</time>
      </trkpt>
      <trkpt lat="49.88086" lon="2.23795">
        <ele>55.2</ele>
        <time>2021-09-05T10:20:03Z</time>
      </trkpt>
      <trkpt lat="49.88085" lon="2.23795">
        <ele>55.3</ele>
        <time>2021-09-05T10:20:04Z</time>
      </trkpt>
      <trkpt lat="49.88084" lon="2.23795">
        <ele>55.3</ele>
        <time>2021-09-05T10:20:05Z</time>
      </trkpt>
      <trkpt lat="49.88082" lon="2.23794">
        <ele>55.3</ele>
        <time>2021-09-05T10:20:06Z</time>
      </trkpt>
      <trkpt lat="49.88081" lon="2.23793">
        <ele>55.3</ele>
        <time>2021-09-05T10:20:07Z</time>
      </trkpt>
      <trkpt lat="49.88081" lon="2.23792">
        <ele>55.4</ele>
        <time>2021-09-05T10:20:08Z</time>
      </trkpt>
      <trkpt lat="49.8808" lon="2.23789">
        <ele>55.4</ele>
        <time>2021-09-05T10:20:10Z</time>
      </trkpt>
      <trkpt lat="49.88079" lon="2.23788">
        <ele>55.4</ele>
        <time>2021-09-05T10:20:11Z</time>
      </trkpt>
      <trkpt lat="49.88078" lon="2.23787">
        <ele>55.4</ele>
        <time>2021-09-05T10:20:12Z</time>
      </trkpt>
      <trkpt lat="49.88078" lon="2.23785">
        <ele>55.5</ele>
        <time>2021-09-05T10:20:13Z</time>
      </trkpt>
      <trkpt lat="49.88077" lon="2.23784">
        <ele>55.5</ele>
        <time>2021-09-05T10:20:14Z</time>
      </trkpt>
      <trkpt lat="49.88075" lon="2.23782">
        <ele>55.5</ele>
        <time>2021-09-05T10:20:15Z</time>
      </trkpt>
      <trkpt lat="49.88075" lon="2.23781">
        <ele>55.6</ele>
        <time>2021-09-05T10:20:16Z</time>
      </trkpt>
      <trkpt lat="49.88074" lon="2.2378">
        <ele>55.6</ele>
        <time>2021-09-05T10:20:17Z</time>
      </trkpt>
      <trkpt lat="49.88073" lon="2.23776">
        <ele>55.6</ele>
        <time>2021-09-05T10:20:18Z</time>
      </trkpt>
      <trkpt lat="49.88072" lon="2.23775">
        <ele>55.7</ele>
        <time>2021-09-05T10:20:20Z</time>
      </trkpt>
      <trkpt lat="49.88072" lon="2.23773">
        <ele>55.7</ele>
        <time>2021-09-05T10:20:21Z</time>
      </trkpt>
      <trkpt lat="49.88071" lon="2.23772">
        <ele>55.7</ele>
        <time>2021-09-05T10:20:22Z</time>
      </trkpt>
      <trkpt lat="49.88071" lon="2.2377">
        <ele>55.7</ele>
        <time>2021-09-05T10:20:23Z</time>
      </trkpt>
      <trkpt lat="49.8807" lon="2.23768">
        <ele>55.8</ele>
        <time>2021-09-05T10:20:24Z</time>
      </trkpt>
      <trkpt lat="49.88071" lon="2.23765">
        <ele>55.8</ele>
        <time>2021-09-05T10:20:25Z</time>
      </trkpt>
      <trkpt lat="49.88072" lon="2.23763">
        <ele>55.9</ele>
        <time>2021-09-05T10:20:26Z</time>
      </trkpt>
      <trkpt lat="49.88072" lon="2.23761">
        <ele>55.9</ele>
        <time>2021-09-05T10:20:27Z</time>
      </trkpt>
      <trkpt lat="49.88072" lon="2.23758">
        <ele>55.9</ele>
        <time>2021-09-05T10:20:28Z</time>
      </trkpt>
      <trkpt lat="49.88072" lon="2.23756">
        <ele>55.9</ele>
        <time>2021-09-05T10:20:29Z</time>
      </trkpt>
      <trkpt lat="49.88071" lon="2.23755">
        <ele>56</ele>
        <time>2021-09-05T10:20:31Z</time>
      </trkpt>
      <trkpt lat="49.88071" lon="2.23754">
        <ele>56</ele>
        <time>2021-09-05T10:20:32Z</time>
      </trkpt>
      <trkpt lat="49.88071" lon="2.23752">
        <ele>56</ele>
        <time>2021-09-05T10:20:33Z</time>
      </trkpt>
      <trkpt lat="49.8807" lon="2.23751">
        <ele>56</ele>
        <time>2021-09-05T10:20:34Z</time>
      </trkpt>
      <trkpt lat="49.8807" lon="2.23748">
        <ele>56.1</ele>
        <time>2021-09-05T10:20:35Z</time>
      </trkpt>
      <trkpt lat="49.88069" lon="2.23746">
        <ele>56.1</ele>
        <time>2021-09-05T10:20:36Z</time>
      </trkpt>
      <trkpt lat="49.88068" lon="2.23743">
        <ele>56.1</ele>
        <time>2021-09-05T10:20:37Z</time>
      </trkpt>
      <trkpt lat="49.88067" lon="2.23742">
        <ele>56.1</ele>
        <time>2021-09-05T10:20:38Z</time>
      </trkpt>
      <trkpt lat="49.88066" lon="2.23742">
        <ele>56.2</ele>
        <time>2021-09-05T10:20:39Z</time>
      </trkpt>
      <trkpt lat="49.88064" lon="2.23741">
        <ele>56.2</ele>
        <time>2021-09-05T10:20:40Z</time>
      </trkpt>
      <trkpt lat="49.88063" lon="2.23741">
        <ele>56.2</ele>
        <time>2021-09-05T10:20:41Z</time>
      </trkpt>
      <trkpt lat="49.88062" lon="2.23741">
        <ele>56.2</ele>
        <time>2021-09-05T10:20:43Z</time>
      </trkpt>
      <trkpt lat="49.88061" lon="2.23741">
        <ele>56.2</ele>
        <time>2021-09-05T10:20:44Z</time>
      </trkpt>
      <trkpt lat="49.8806" lon="2.23743">
        <ele>56.3</ele>
        <time>2021-09-05T10:20:45Z</time>
      </trkpt>
      <trkpt lat="49.88059" lon="2.23743">
        <ele>56.3</ele>
        <time>2021-09-05T10:20:46Z</time>
      </trkpt>
      <trkpt lat="49.88058" lon="2.23743">
        <ele>56.3</ele>
        <time>2021-09-05T10:20:47Z</time>
      </trkpt>
      <trkpt lat="49.88056" lon="2.23744">
        <ele>56.4</ele>
        <time>2021-09-05T10:20:48Z</time>
      </trkpt>
      <trkpt lat="49.88055" lon="2.23744">
        <ele>56.4</ele>
        <time>2021-09-05T10:20:49Z</time>
      </trkpt>
      <trkpt lat="49.88053" lon="2.23744">
        <ele>56.4</ele>
        <time>2021-09-05T10:20:50Z</time>
      </trkpt>
      <trkpt lat="49.88052" lon="2.23745">
        <ele>56.4</ele>
        <time>2021-09-05T10:20:51Z</time>
      </trkpt>
      <trkpt lat="49.88051" lon="2.23745">
        <ele>56.5</ele>
        <time>2021-09-05T10:20:52Z</time>
      </trkpt>
      <trkpt lat="49.88049" lon="2.23746">
        <ele>56.5</ele>
        <time>2021-09-05T10:20:53Z</time>
      </trkpt>
      <trkpt lat="49.88048" lon="2.23746">
        <ele>56.5</ele>
        <time>2021-09-05T10:20:55Z</time>
      </trkpt>
      <trkpt lat="49.88047" lon="2.23746">
        <ele>56.5</ele>
        <time>2021-09-05T10:20:56Z</time>
      </trkpt>
      <trkpt lat="49.88045" lon="2.23746">
        <ele>56.5</ele>
        <time>2021-09-05T10:20:57Z</time>
      </trkpt>
      <trkpt lat="49.88044" lon="2.23746">
        <ele>56.6</ele>
        <time>2021-09-05T10:20:58Z</time>
      </trkpt>
      <trkpt lat="49.88043" lon="2.23745">
        <ele>56.6</ele>
        <time>2021-09-05T10:20:59Z</time>
      </trkpt>
      <trkpt lat="49.8804" lon="2.23745">
        <ele>56.6</ele>
        <time>2021-09-05T10:21:00Z</time>
      </trkpt>
      <trkpt lat="49.88039" lon="2.23745">
        <ele>56.6</ele>
        <time>2021-09-05T10:21:01Z</time>
      </trkpt>
      <trkpt lat="49.88038" lon="2.23745">
        <ele>56.6</ele>
        <time>2021-09-05T10:21:02Z</time>
      </trkpt>
      <trkpt lat="49.88036" lon="2.23746">
        <ele>56.6</ele>
        <time>2021-09-05T10:21:03Z</time>
      </trkpt>
      <trkpt lat="49.88035" lon="2.23745">
        <ele>56.6</ele>
        <time>2021-09-05T10:21:05Z</time>
      </trkpt>
      <trkpt lat="49.88033" lon="2.23746">
        <ele>56.7</ele>
        <time>2021-09-05T10:21:06Z</time>
      </trkpt>
      <trkpt lat="49.88031" lon="2.23746">
        <ele>56.7</ele>
        <time>2021-09-05T10:21:07Z</time>
      </trkpt>
      <trkpt lat="49.8803" lon="2.23747">
        <ele>56.7</ele>
        <time>2021-09-05T10:21:08Z</time>
      </trkpt>
      <trkpt lat="49.88029" lon="2.23747">
        <ele>56.7</ele>
        <time>2021-09-05T10:21:09Z</time>
      </trkpt>
      <trkpt lat="49.88027" lon="2.23746">
        <ele>56.7</ele>
        <time>2021-09-05T10:21:10Z</time>
      </trkpt>
      <trkpt lat="49.88026" lon="2.23747">
        <ele>56.7</ele>
        <time>2021-09-05T10:21:11Z</time>
      </trkpt>
      <trkpt lat="49.88025" lon="2.23747">
        <ele>56.8</ele>
        <time>2021-09-05T10:21:12Z</time>
      </trkpt>
      <trkpt lat="49.88024" lon="2.23746">
        <ele>56.8</ele>
        <time>2021-09-05T10:21:13Z</time>
      </trkpt>
      <trkpt lat="49.88023" lon="2.23746">
        <ele>56.8</ele>
        <time>2021-09-05T10:21:14Z</time>
      </trkpt>
      <trkpt lat="49.88021" lon="2.23742">
        <ele>56.8</ele>
        <time>2021-09-05T10:21:16Z</time>
      </trkpt>
      <trkpt lat="49.8802" lon="2.23739">
        <ele>56.9</ele>
        <time>2021-09-05T10:21:17Z</time>
      </trkpt>
      <trkpt lat="49.88019" lon="2.23736">
        <ele>56.9</ele>
        <time>2021-09-05T10:21:19Z</time>
      </trkpt>
      <trkpt lat="49.88018" lon="2.23733">
        <ele>56.9</ele>
        <time>2021-09-05T10:21:20Z</time>
      </trkpt>
      <trkpt lat="49.88017" lon="2.23734">
        <ele>56.9</ele>
        <time>2021-09-05T10:21:21Z</time>
      </trkpt>
      <trkpt lat="49.88016" lon="2.23734">
        <ele>57</ele>
        <time>2021-09-05T10:21:22Z</time>
      </trkpt>
      <trkpt lat="49.88014" lon="2.23733">
        <ele>57</ele>
        <time>2021-09-05T10:21:23Z</time>
      </trkpt>
      <trkpt lat="49.88013" lon="2.23733">
        <ele>57</ele>
        <time>2021-09-05T10:21:24Z</time>
      </trkpt>
      <trkpt lat="49.88012" lon="2.23735">
        <ele>57</ele>
        <time>2021-09-05T10:21:26Z</time>
      </trkpt>
      <trkpt lat="49.88011" lon="2.23734">
        <ele>57</ele>
        <time>2021-09-05T10:21:27Z</time>
      </trkpt>
      <trkpt lat="49.8801" lon="2.23734">
        <ele>57</ele>
        <time>2021-09-05T10:21:28Z</time>
      </trkpt>
      <trkpt lat="49.88008" lon="2.23731">
        <ele>57.1</ele>
        <time>2021-09-05T10:21:29Z</time>
      </trkpt>
      <trkpt lat="49.88007" lon="2.23729">
        <ele>57.1</ele>
        <time>2021-09-05T10:21:30Z</time>
      </trkpt>
      <trkpt lat="49.88006" lon="2.23727">
        <ele>57.1</ele>
        <time>2021-09-05T10:21:31Z</time>
      </trkpt>
      <trkpt lat="49.88005" lon="2.23725">
        <ele>57.1</ele>
        <time>2021-09-05T10:21:32Z</time>
      </trkpt>
      <trkpt lat="49.88004" lon="2.23724">
        <ele>57.1</ele>
        <time>2021-09-05T10:21:33Z</time>
      </trkpt>
      <trkpt lat="49.88003" lon="2.23723">
        <ele>57.1</ele>
        <time>2021-09-05T10:21:35Z</time>
      </trkpt>
      <trkpt lat="49.88001" lon="2.23722">
        <ele>57.2</ele>
        <time>2021-09-05T10:21:36Z</time>
      </trkpt>
      <trkpt lat="49.88" lon="2.23722">
        <ele>57.2</ele>
        <time>2021-09-05T10:21:37Z</time>
      </trkpt>
      <trkpt lat="49.87997" lon="2.23722">
        <ele>57.2</ele>
        <time>2021-09-05T10:21:38Z</time>
      </trkpt>
      <trkpt lat="49.87996" lon="2.23722">
        <ele>57.2</ele>
        <time>2021-09-05T10:21:39Z</time>
      </trkpt>
      <trkpt lat="49.87995" lon="2.23722">
        <ele>57.2</ele>
        <time>2021-09-05T10:21:40Z</time>
      </trkpt>
      <trkpt lat="49.87995" lon="2.23721">
        <ele>57.2</ele>
        <time>2021-09-05T10:21:41Z</time>
      </trkpt>
      <trkpt lat="49.87994" lon="2.23721">
        <ele>57.2</ele>
        <time>2021-09-05T10:21:42Z</time>
      </trkpt>
      <trkpt lat="49.87993" lon="2.23721">
        <ele>57.3</ele>
        <time>2021-09-05T10:21:43Z</time>
      </trkpt>
      <trkpt lat="49.87991" lon="2.23721">
        <ele>57.3</ele>
        <time>2021-09-05T10:21:44Z</time>
      </trkpt>
      <trkpt lat="49.87989" lon="2.23716">
        <ele>57.3</ele>
        <time>2021-09-05T10:21:46Z</time>
      </trkpt>
      <trkpt lat="49.87988" lon="2.23716">
        <ele>57.3</ele>
        <time>2021-09-05T10:21:47Z</time>
      </trkpt>
      <trkpt lat="49.87987" lon="2.23716">
        <ele>57.3</ele>
        <time>2021-09-05T10:21:48Z</time>
      </trkpt>
      <trkpt lat="49.87986" lon="2.23716">
        <ele>57.3</ele>
        <time>2021-09-05T10:21:49Z</time>
      </trkpt>
      <trkpt lat="49.87983" lon="2.23718">
        <ele>57.4</ele>
        <time>2021-09-05T10:21:50Z</time>
      </trkpt>
      <trkpt lat="49.87982" lon="2.2372">
        <ele>57.4</ele>
        <time>2021-09-05T10:21:51Z</time>
      </trkpt>
      <trkpt lat="49.8798" lon="2.2372">
        <ele>57.4</ele>
        <time>2021-09-05T10:21:53Z</time>
      </trkpt>
      <trkpt lat="49.87979" lon="2.23721">
        <ele>57.4</ele>
        <time>2021-09-05T10:21:54Z</time>
      </trkpt>
      <trkpt lat="49.87978" lon="2.23721">
        <ele>57.4</ele>
        <time>2021-09-05T10:21:55Z</time>
      </trkpt>
      <trkpt lat="49.87976" lon="2.23723">
        <ele>57.4</ele>
        <time>2021-09-05T10:21:57Z</time>
      </trkpt>
      <trkpt lat="49.87975" lon="2.23723">
        <ele>57.4</ele>
        <time>2021-09-05T10:21:58Z</time>
      </trkpt>
      <trkpt lat="49.87974" lon="2.23724">
        <ele>57.4</ele>
        <time>2021-09-05T10:21:59Z</time>
      </trkpt>
      <trkpt lat="49.87973" lon="2.23724">
        <ele>57.4</ele>
        <time>2021-09-05T10:22:00Z</time>
      </trkpt>
      <trkpt lat="49.87971" lon="2.2373">
        <ele>57.4</ele>
        <time>2021-09-05T10:22:01Z</time>
      </trkpt>
      <trkpt lat="49.8797" lon="2.23731">
        <ele>57.4</ele>
        <time>2021-09-05T10:22:02Z</time>
      </trkpt>
      <trkpt lat="49.87969" lon="2.23732">
        <ele>57.5</ele>
        <time>2021-09-05T10:22:03Z</time>
      </trkpt>
      <trkpt lat="49.87967" lon="2.23733">
        <ele>57.5</ele>
        <time>2021-09-05T10:22:05Z</time>
      </trkpt>
      <trkpt lat="49.87964" lon="2.23733">
        <ele>57.5</ele>
        <time>2021-09-05T10:22:06Z</time>
      </trkpt>
      <trkpt lat="49.87963" lon="2.23734">
        <ele>57.5</ele>
        <time>2021-09-05T10:22:07Z</time>
      </trkpt>
      <trkpt lat="49.87962" lon="2.23735">
        <ele>57.5</ele>
        <time>2021-09-05T10:22:08Z</time>
      </trkpt>
      <trkpt lat="49.87961" lon="2.23735">
        <ele>57.5</ele>
        <time>2021-09-05T10:22:09Z</time>
      </trkpt>
      <trkpt lat="49.87959" lon="2.23734">
        <ele>57.5</ele>
        <time>2021-09-05T10:22:10Z</time>
      </trkpt>
      <trkpt lat="49.87957" lon="2.23732">
        <ele>57.5</ele>
        <time>2021-09-05T10:22:11Z</time>
      </trkpt>
      <trkpt lat="49.87956" lon="2.23732">
        <ele>57.5</ele>
        <time>2021-09-05T10:22:12Z</time>
      </trkpt>
      <trkpt lat="49.87955" lon="2.23732">
        <ele>57.5</ele>
        <time>2021-09-05T10:22:13Z</time>
      </trkpt>
      <trkpt lat="49.87954" lon="2.23732">
        <ele>57.5</ele>
        <time>2021-09-05T10:22:15Z</time>
      </trkpt>
      <trkpt lat="49.87952" lon="2.23729">
        <ele>57.5</ele>
        <time>2021-09-05T10:22:16Z</time>
      </trkpt>
      <trkpt lat="49.87951" lon="2.23729">
        <ele>57.5</ele>
        <time>2021-09-05T10:22:17Z</time>
      </trkpt>
      <trkpt lat="49.8795" lon="2.2373">
        <ele>57.5</ele>
        <time>2021-09-05T10:22:18Z</time>
      </trkpt>
      <trkpt lat="49.87949" lon="2.2373">
        <ele>57.5</ele>
        <time>2021-09-05T10:22:19Z</time>
      </trkpt>
      <trkpt lat="49.87948" lon="2.2373">
        <ele>57.5</ele>
        <time>2021-09-05T10:22:20Z</time>
      </trkpt>
      <trkpt lat="49.87946" lon="2.23727">
        <ele>57.5</ele>
        <time>2021-09-05T10:22:21Z</time>
      </trkpt>
      <trkpt lat="49.87945" lon="2.23726">
        <ele>57.5</ele>
        <time>2021-09-05T10:22:22Z</time>
      </trkpt>
      <trkpt lat="49.87943" lon="2.23726">
        <ele>57.5</ele>
        <time>2021-09-05T10:22:24Z</time>
      </trkpt>
      <trkpt lat="49.87941" lon="2.23726">
        <ele>57.4</ele>
        <time>2021-09-05T10:22:25Z</time>
      </trkpt>
      <trkpt lat="49.8794" lon="2.23728">
        <ele>57.4</ele>
        <time>2021-09-05T10:22:26Z</time>
      </trkpt>
      <trkpt lat="49.87939" lon="2.23728">
        <ele>57.4</ele>
        <time>2021-09-05T10:22:27Z</time>
      </trkpt>
      <trkpt lat="49.87938" lon="2.23728">
        <ele>57.4</ele>
        <time>2021-09-05T10:22:28Z</time>
      </trkpt>
      <trkpt lat="49.87936" lon="2.23729">
        <ele>57.3</ele>
        <time>2021-09-05T10:22:29Z</time>
      </trkpt>
      <trkpt lat="49.87936" lon="2.23728">
        <ele>57.3</ele>
        <time>2021-09-05T10:22:31Z</time>
      </trkpt>
      <trkpt lat="49.87935" lon="2.23729">
        <ele>57.3</ele>
        <time>2021-09-05T10:22:32Z</time>
      </trkpt>
      <trkpt lat="49.87933" lon="2.23731">
        <ele>57.2</ele>
        <time>2021-09-05T10:22:33Z</time>
      </trkpt>
      <trkpt lat="49.87933" lon="2.23732">
        <ele>57.2</ele>
        <time>2021-09-05T10:22:34Z</time>
      </trkpt>
      <trkpt lat="49.87934" lon="2.23736">
        <ele>57.1</ele>
        <time>2021-09-05T10:22:36Z</time>
      </trkpt>
      <trkpt lat="49.87933" lon="2.2374">
        <ele>57</ele>
        <time>2021-09-05T10:22:37Z</time>
      </trkpt>
      <trkpt lat="49.87933" lon="2.23741">
        <ele>56.9</ele>
        <time>2021-09-05T10:22:38Z</time>
      </trkpt>
      <trkpt lat="49.87933" lon="2.23742">
        <ele>56.9</ele>
        <time>2021-09-05T10:22:39Z</time>
      </trkpt>
      <trkpt lat="49.87933" lon="2.23744">
        <ele>56.9</ele>
        <time>2021-09-05T10:22:40Z</time>
      </trkpt>
      <trkpt lat="49.87934" lon="2.23746">
        <ele>56.8</ele>
        <time>2021-09-05T10:22:41Z</time>
      </trkpt>
      <trkpt lat="49.87934" lon="2.23748">
        <ele>56.7</ele>
        <time>2021-09-05T10:22:42Z</time>
      </trkpt>
      <trkpt lat="49.87934" lon="2.2375">
        <ele>56.7</ele>
        <time>2021-09-05T10:22:43Z</time>
      </trkpt>
      <trkpt lat="49.87934" lon="2.23751">
        <ele>56.6</ele>
        <time>2021-09-05T10:22:45Z</time>
      </trkpt>
      <trkpt lat="49.87934" lon="2.23753">
        <ele>56.6</ele>
        <time>2021-09-05T10:22:46Z</time>
      </trkpt>
      <trkpt lat="49.87935" lon="2.23753">
        <ele>56.5</ele>
        <time>2021-09-05T10:22:47Z</time>
      </trkpt>
      <trkpt lat="49.87935" lon="2.23756">
        <ele>56.4</ele>
        <time>2021-09-05T10:22:48Z</time>
      </trkpt>
      <trkpt lat="49.87935" lon="2.2376">
        <ele>56.3</ele>
        <time>2021-09-05T10:22:49Z</time>
      </trkpt>
      <trkpt lat="49.87935" lon="2.23761">
        <ele>56.3</ele>
        <time>2021-09-05T10:22:51Z</time>
      </trkpt>
      <trkpt lat="49.87935" lon="2.23763">
        <ele>56.3</ele>
        <time>2021-09-05T10:22:52Z</time>
      </trkpt>
      <trkpt lat="49.87935" lon="2.23765">
        <ele>56.3</ele>
        <time>2021-09-05T10:22:54Z</time>
      </trkpt>
      <trkpt lat="49.87935" lon="2.23767">
        <ele>56.2</ele>
        <time>2021-09-05T10:22:55Z</time>
      </trkpt>
      <trkpt lat="49.87934" lon="2.23769">
        <ele>56.1</ele>
        <time>2021-09-05T10:22:56Z</time>
      </trkpt>
      <trkpt lat="49.87934" lon="2.23771">
        <ele>56</ele>
        <time>2021-09-05T10:22:57Z</time>
      </trkpt>
      <trkpt lat="49.87933" lon="2.23774">
        <ele>55.9</ele>
        <time>2021-09-05T10:22:58Z</time>
      </trkpt>
      <trkpt lat="49.87932" lon="2.23777">
        <ele>55.9</ele>
        <time>2021-09-05T10:23:00Z</time>
      </trkpt>
      <trkpt lat="49.87931" lon="2.2378">
        <ele>55.7</ele>
        <time>2021-09-05T10:23:01Z</time>
      </trkpt>
      <trkpt lat="49.8793" lon="2.23782">
        <ele>55.6</ele>
        <time>2021-09-05T10:23:02Z</time>
      </trkpt>
      <trkpt lat="49.8793" lon="2.23786">
        <ele>55.4</ele>
        <time>2021-09-05T10:23:04Z</time>
      </trkpt>
      <trkpt lat="49.87929" lon="2.23788">
        <ele>55.3</ele>
        <time>2021-09-05T10:23:05Z</time>
      </trkpt>
      <trkpt lat="49.87926" lon="2.23792">
        <ele>55.1</ele>
        <time>2021-09-05T10:23:07Z</time>
      </trkpt>
      <trkpt lat="49.87924" lon="2.23793">
        <ele>54.9</ele>
        <time>2021-09-05T10:23:08Z</time>
      </trkpt>
      <trkpt lat="49.87923" lon="2.23796">
        <ele>54.8</ele>
        <time>2021-09-05T10:23:10Z</time>
      </trkpt>
      <trkpt lat="49.87922" lon="2.23799">
        <ele>54.6</ele>
        <time>2021-09-05T10:23:11Z</time>
      </trkpt>
      <trkpt lat="49.87922" lon="2.23799">
        <ele>54.6</ele>
        <time>2021-09-05T10:23:12Z</time>
      </trkpt>
      <trkpt lat="49.87922" lon="2.23801">
        <ele>54.5</ele>
        <time>2021-09-05T10:23:13Z</time>
      </trkpt>
      <trkpt lat="49.87921" lon="2.23803">
        <ele>54.3</ele>
        <time>2021-09-05T10:23:14Z</time>
      </trkpt>
      <trkpt lat="49.8792" lon="2.23805">
        <ele>54.2</ele>
        <time>2021-09-05T10:23:16Z</time>
      </trkpt>
      <trkpt lat="49.8792" lon="2.23806">
        <ele>54.2</ele>
        <time>2021-09-05T10:23:17Z</time>
      </trkpt>
      <trkpt lat="49.87919" lon="2.23808">
        <ele>54.1</ele>
        <time>2021-09-05T10:23:18Z</time>
      </trkpt>
      <trkpt lat="49.87919" lon="2.2381">
        <ele>53.9</ele>
        <time>2021-09-05T10:23:19Z</time>
      </trkpt>
      <trkpt lat="49.87919" lon="2.23813">
        <ele>53.8</ele>
        <time>2021-09-05T10:23:20Z</time>
      </trkpt>
      <trkpt lat="49.87918" lon="2.23816">
        <ele>53.6</ele>
        <time>2021-09-05T10:23:22Z</time>
      </trkpt>
      <trkpt lat="49.87918" lon="2.23817">
        <ele>53.6</ele>
        <time>2021-09-05T10:23:23Z</time>
      </trkpt>
      <trkpt lat="49.87918" lon="2.23819">
        <ele>53.5</ele>
        <time>2021-09-05T10:23:24Z</time>
      </trkpt>
      <trkpt lat="49.87918" lon="2.23822">
        <ele>53.3</ele>
        <time>2021-09-05T10:23:26Z</time>
      </trkpt>
      <trkpt lat="49.87918" lon="2.23825">
        <ele>53.2</ele>
        <time>2021-09-05T10:23:27Z</time>
      </trkpt>
      <trkpt lat="49.87918" lon="2.23826">
        <ele>53.1</ele>
        <time>2021-09-05T10:23:28Z</time>
      </trkpt>
      <trkpt lat="49.87918" lon="2.23828">
        <ele>53</ele>
        <time>2021-09-05T10:23:29Z</time>
      </trkpt>
      <trkpt lat="49.87918" lon="2.23832">
        <ele>52.8</ele>
        <time>2021-09-05T10:23:31Z</time>
      </trkpt>
      <trkpt lat="49.87918" lon="2.23834">
        <ele>52.8</ele>
        <time>2021-09-05T10:23:32Z</time>
      </trkpt>
      <trkpt lat="49.87918" lon="2.23836">
        <ele>52.7</ele>
        <time>2021-09-05T10:23:33Z</time>
      </trkpt>
      <trkpt lat="49.87918" lon="2.23837">
        <ele>52.6</ele>
        <time>2021-09-05T10:23:34Z</time>
      </trkpt>
      <trkpt lat="49.87919" lon="2.23839">
        <ele>52.5</ele>
        <time>2021-09-05T10:23:35Z</time>
      </trkpt>
      <trkpt lat="49.87918" lon="2.23842">
        <ele>52.3</ele>
        <time>2021-09-05T10:23:36Z</time>
      </trkpt>
      <trkpt lat="49.87918" lon="2.23844">
        <ele>52.3</ele>
        <time>2021-09-05T10:23:37Z</time>
      </trkpt>
      <trkpt lat="49.87919" lon="2.23847">
        <ele>52.1</ele>
        <time>2021-09-05T10:23:38Z</time>
      </trkpt>
      <trkpt lat="49.87919" lon="2.23849">
        <ele>52</ele>
        <time>2021-09-05T10:23:39Z</time>
      </trkpt>
      <trkpt lat="49.87919" lon="2.2385">
        <ele>51.9</ele>
        <time>2021-09-05T10:23:40Z</time>
      </trkpt>
      <trkpt lat="49.87918" lon="2.23851">
        <ele>51.9</ele>
        <time>2021-09-05T10:23:41Z</time>
      </trkpt>
      <trkpt lat="49.87917" lon="2.23853">
        <ele>51.9</ele>
        <time>2021-09-05T10:23:43Z</time>
      </trkpt>
      <trkpt lat="49.87917" lon="2.23855">
        <ele>51.8</ele>
        <time>2021-09-05T10:23:44Z</time>
      </trkpt>
      <trkpt lat="49.87917" lon="2.23859">
        <ele>51.8</ele>
        <time>2021-09-05T10:23:46Z</time>
      </trkpt>
      <trkpt lat="49.87916" lon="2.23861">
        <ele>51.7</ele>
        <time>2021-09-05T10:23:47Z</time>
      </trkpt>
      <trkpt lat="49.87915" lon="2.23863">
        <ele>51.7</ele>
        <time>2021-09-05T10:23:48Z</time>
      </trkpt>
      <trkpt lat="49.87916" lon="2.23866">
        <ele>51.6</ele>
        <time>2021-09-05T10:23:49Z</time>
      </trkpt>
      <trkpt lat="49.87916" lon="2.23868">
        <ele>51.6</ele>
        <time>2021-09-05T10:23:50Z</time>
      </trkpt>
      <trkpt lat="49.87917" lon="2.2387">
        <ele>51.6</ele>
        <time>2021-09-05T10:23:51Z</time>
      </trkpt>
      <trkpt lat="49.87918" lon="2.23871">
        <ele>51.5</ele>
        <time>2021-09-05T10:23:52Z</time>
      </trkpt>
      <trkpt lat="49.87919" lon="2.23873">
        <ele>51.5</ele>
        <time>2021-09-05T10:23:53Z</time>
      </trkpt>
      <trkpt lat="49.87919" lon="2.23876">
        <ele>51.4</ele>
        <time>2021-09-05T10:23:54Z</time>
      </trkpt>
      <trkpt lat="49.87919" lon="2.23877">
        <ele>51.4</ele>
        <time>2021-09-05T10:23:56Z</time>
      </trkpt>
      <trkpt lat="49.87919" lon="2.23879">
        <ele>51.4</ele>
        <time>2021-09-05T10:23:57Z</time>
      </trkpt>
      <trkpt lat="49.87919" lon="2.23881">
        <ele>51.3</ele>
        <time>2021-09-05T10:23:59Z</time>
      </trkpt>
      <trkpt lat="49.87919" lon="2.23884">
        <ele>51.3</ele>
        <time>2021-09-05T10:24:00Z</time>
      </trkpt>
      <trkpt lat="49.87916" lon="2.2389">
        <ele>51.1</ele>
        <time>2021-09-05T10:24:02Z</time>
      </trkpt>
      <trkpt lat="49.87914" lon="2.23892">
        <ele>51.1</ele>
        <time>2021-09-05T10:24:04Z</time>
      </trkpt>
      <trkpt lat="49.87913" lon="2.23894">
        <ele>51</ele>
        <time>2021-09-05T10:24:05Z</time>
      </trkpt>
      <trkpt lat="49.87912" lon="2.23896">
        <ele>51</ele>
        <time>2021-09-05T10:24:06Z</time>
      </trkpt>
      <trkpt lat="49.8791" lon="2.23898">
        <ele>50.9</ele>
        <time>2021-09-05T10:24:07Z</time>
      </trkpt>
      <trkpt lat="49.8791" lon="2.23899">
        <ele>50.9</ele>
        <time>2021-09-05T10:24:09Z</time>
      </trkpt>
      <trkpt lat="49.8791" lon="2.23901">
        <ele>50.8</ele>
        <time>2021-09-05T10:24:10Z</time>
      </trkpt>
      <trkpt lat="49.87908" lon="2.23901">
        <ele>50.8</ele>
        <time>2021-09-05T10:24:11Z</time>
      </trkpt>
      <trkpt lat="49.87907" lon="2.23904">
        <ele>50.7</ele>
        <time>2021-09-05T10:24:13Z</time>
      </trkpt>
      <trkpt lat="49.87906" lon="2.23906">
        <ele>50.7</ele>
        <time>2021-09-05T10:24:14Z</time>
      </trkpt>
      <trkpt lat="49.87906" lon="2.23907">
        <ele>50.6</ele>
        <time>2021-09-05T10:24:15Z</time>
      </trkpt>
      <trkpt lat="49.87906" lon="2.23909">
        <ele>50.6</ele>
        <time>2021-09-05T10:24:16Z</time>
      </trkpt>
      <trkpt lat="49.87905" lon="2.2391">
        <ele>50.6</ele>
        <time>2021-09-05T10:24:17Z</time>
      </trkpt>
      <trkpt lat="49.87904" lon="2.23913">
        <ele>50.5</ele>
        <time>2021-09-05T10:24:19Z</time>
      </trkpt>
      <trkpt lat="49.87904" lon="2.23915">
        <ele>50.5</ele>
        <time>2021-09-05T10:24:20Z</time>
      </trkpt>
      <trkpt lat="49.87904" lon="2.23917">
        <ele>50.4</ele>
        <time>2021-09-05T10:24:21Z</time>
      </trkpt>
      <trkpt lat="49.87903" lon="2.23918">
        <ele>50.4</ele>
        <time>2021-09-05T10:24:23Z</time>
      </trkpt>
      <trkpt lat="49.87903" lon="2.2392">
        <ele>50.3</ele>
        <time>2021-09-05T10:24:24Z</time>
      </trkpt>
      <trkpt lat="49.87902" lon="2.23922">
        <ele>50.3</ele>
        <time>2021-09-05T10:24:25Z</time>
      </trkpt>
      <trkpt lat="49.87902" lon="2.23924">
        <ele>50.2</ele>
        <time>2021-09-05T10:24:26Z</time>
      </trkpt>
      <trkpt lat="49.879" lon="2.23925">
        <ele>50.2</ele>
        <time>2021-09-05T10:24:27Z</time>
      </trkpt>
      <trkpt lat="49.87899" lon="2.23926">
        <ele>50.1</ele>
        <time>2021-09-05T10:24:28Z</time>
      </trkpt>
      <trkpt lat="49.87899" lon="2.23928">
        <ele>50.1</ele>
        <time>2021-09-05T10:24:29Z</time>
      </trkpt>
      <trkpt lat="49.87899" lon="2.2393">
        <ele>50.1</ele>
        <time>2021-09-05T10:24:30Z</time>
      </trkpt>
      <trkpt lat="49.87899" lon="2.23935">
        <ele>50</ele>
        <time>2021-09-05T10:24:32Z</time>
      </trkpt>
      <trkpt lat="49.87898" lon="2.23936">
        <ele>49.9</ele>
        <time>2021-09-05T10:24:33Z</time>
      </trkpt>
      <trkpt lat="49.87898" lon="2.23938">
        <ele>49.9</ele>
        <time>2021-09-05T10:24:34Z</time>
      </trkpt>
      <trkpt lat="49.87898" lon="2.2394">
        <ele>49.9</ele>
        <time>2021-09-05T10:24:36Z</time>
      </trkpt>
      <trkpt lat="49.879" lon="2.23942">
        <ele>49.8</ele>
        <time>2021-09-05T10:24:37Z</time>
      </trkpt>
      <trkpt lat="49.879" lon="2.23945">
        <ele>49.7</ele>
        <time>2021-09-05T10:24:38Z</time>
      </trkpt>
      <trkpt lat="49.879" lon="2.23949">
        <ele>49.7</ele>
        <time>2021-09-05T10:24:39Z</time>
      </trkpt>
      <trkpt lat="49.879" lon="2.23951">
        <ele>49.6</ele>
        <time>2021-09-05T10:24:41Z</time>
      </trkpt>
      <trkpt lat="49.879" lon="2.23953">
        <ele>49.6</ele>
        <time>2021-09-05T10:24:42Z</time>
      </trkpt>
      <trkpt lat="49.879" lon="2.23954">
        <ele>49.6</ele>
        <time>2021-09-05T10:24:43Z</time>
      </trkpt>
      <trkpt lat="49.879" lon="2.23956">
        <ele>49.5</ele>
        <time>2021-09-05T10:24:44Z</time>
      </trkpt>
      <trkpt lat="49.87899" lon="2.2396">
        <ele>49.5</ele>
        <time>2021-09-05T10:24:45Z</time>
      </trkpt>
      <trkpt lat="49.87899" lon="2.23961">
        <ele>49.4</ele>
        <time>2021-09-05T10:24:46Z</time>
      </trkpt>
      <trkpt lat="49.87898" lon="2.23963">
        <ele>49.4</ele>
        <time>2021-09-05T10:24:48Z</time>
      </trkpt>
      <trkpt lat="49.87898" lon="2.23964">
        <ele>49.4</ele>
        <time>2021-09-05T10:24:49Z</time>
      </trkpt>
      <trkpt lat="49.87897" lon="2.23966">
        <ele>49.4</ele>
        <time>2021-09-05T10:24:50Z</time>
      </trkpt>
      <trkpt lat="49.87897" lon="2.23967">
        <ele>49.3</ele>
        <time>2021-09-05T10:24:51Z</time>
      </trkpt>
      <trkpt lat="49.87892" lon="2.23964">
        <ele>49.2</ele>
        <time>2021-09-05T10:24:53Z</time>
      </trkpt>
      <trkpt lat="49.87891" lon="2.23965">
        <ele>49.2</ele>
        <time>2021-09-05T10:24:54Z</time>
      </trkpt>
      <trkpt lat="49.87889" lon="2.23967">
        <ele>49.1</ele>
        <time>2021-09-05T10:24:56Z</time>
      </trkpt>
      <trkpt lat="49.87887" lon="2.23966">
        <ele>49.1</ele>
        <time>2021-09-05T10:24:57Z</time>
      </trkpt>
      <trkpt lat="49.87886" lon="2.23965">
        <ele>49.1</ele>
        <time>2021-09-05T10:24:58Z</time>
      </trkpt>
      <trkpt lat="49.87885" lon="2.23965">
        <ele>49.1</ele>
        <time>2021-09-05T10:24:59Z</time>
      </trkpt>
      <trkpt lat="49.87884" lon="2.23966">
        <ele>49.1</ele>
        <time>2021-09-05T10:25:00Z</time>
      </trkpt>
      <trkpt lat="49.87881" lon="2.23962">
        <ele>49</ele>
        <time>2021-09-05T10:25:02Z</time>
      </trkpt>
      <trkpt lat="49.87879" lon="2.23965">
        <ele>49</ele>
        <time>2021-09-05T10:25:03Z</time>
      </trkpt>
      <trkpt lat="49.87878" lon="2.23967">
        <ele>49</ele>
        <time>2021-09-05T10:25:05Z</time>
      </trkpt>
      <trkpt lat="49.87877" lon="2.23971">
        <ele>49</ele>
        <time>2021-09-05T10:25:06Z</time>
      </trkpt>
      <trkpt lat="49.87877" lon="2.23974">
        <ele>49</ele>
        <time>2021-09-05T10:25:07Z</time>
      </trkpt>
      <trkpt lat="49.87876" lon="2.23976">
        <ele>49</ele>
        <time>2021-09-05T10:25:08Z</time>
      </trkpt>
      <trkpt lat="49.87876" lon="2.23978">
        <ele>49</ele>
        <time>2021-09-05T10:25:09Z</time>
      </trkpt>
      <trkpt lat="49.87874" lon="2.23981">
        <ele>49</ele>
        <time>2021-09-05T10:25:11Z</time>
      </trkpt>
      <trkpt lat="49.87876" lon="2.23983">
        <ele>48.9</ele>
        <time>2021-09-05T10:25:12Z</time>
      </trkpt>
      <trkpt lat="49.87875" lon="2.23986">
        <ele>48.9</ele>
        <time>2021-09-05T10:25:13Z</time>
      </trkpt>
      <trkpt lat="49.87875" lon="2.23988">
        <ele>48.9</ele>
        <time>2021-09-05T10:25:14Z</time>
      </trkpt>
      <trkpt lat="49.87875" lon="2.23991">
        <ele>48.9</ele>
        <time>2021-09-05T10:25:15Z</time>
      </trkpt>
      <trkpt lat="49.8788" lon="2.23994">
        <ele>48.9</ele>
        <time>2021-09-05T10:25:17Z</time>
      </trkpt>
      <trkpt lat="49.8788" lon="2.23997">
        <ele>48.9</ele>
        <time>2021-09-05T10:25:18Z</time>
      </trkpt>
      <trkpt lat="49.8788" lon="2.23999">
        <ele>48.8</ele>
        <time>2021-09-05T10:25:19Z</time>
      </trkpt>
      <trkpt lat="49.8788" lon="2.24001">
        <ele>48.8</ele>
        <time>2021-09-05T10:25:20Z</time>
      </trkpt>
      <trkpt lat="49.87879" lon="2.24007">
        <ele>48.8</ele>
        <time>2021-09-05T10:25:22Z</time>
      </trkpt>
      <trkpt lat="49.8788" lon="2.24007">
        <ele>48.8</ele>
        <time>2021-09-05T10:25:23Z</time>
      </trkpt>
      <trkpt lat="49.87881" lon="2.24006">
        <ele>48.8</ele>
        <time>2021-09-05T10:25:24Z</time>
      </trkpt>
      <trkpt lat="49.87881" lon="2.24006">
        <ele>48.8</ele>
        <time>2021-09-05T10:25:25Z</time>
      </trkpt>
      <trkpt lat="49.87882" lon="2.24005">
        <ele>48.8</ele>
        <time>2021-09-05T10:25:26Z</time>
      </trkpt>
      <trkpt lat="49.87883" lon="2.24005">
        <ele>48.8</ele>
        <time>2021-09-05T10:25:27Z</time>
      </trkpt>
      <trkpt lat="49.87885" lon="2.24005">
        <ele>48.8</ele>
        <time>2021-09-05T10:25:29Z</time>
      </trkpt>
      <trkpt lat="49.87886" lon="2.24005">
        <ele>48.8</ele>
        <time>2021-09-05T10:25:30Z</time>
      </trkpt>
      <trkpt lat="49.87888" lon="2.24005">
        <ele>48.8</ele>
        <time>2021-09-05T10:25:31Z</time>
      </trkpt>
      <trkpt lat="49.87889" lon="2.24008">
        <ele>48.8</ele>
        <time>2021-09-05T10:25:32Z</time>
      </trkpt>
      <trkpt lat="49.87889" lon="2.2401">
        <ele>48.8</ele>
        <time>2021-09-05T10:25:34Z</time>
      </trkpt>
      <trkpt lat="49.87888" lon="2.24012">
        <ele>48.8</ele>
        <time>2021-09-05T10:25:35Z</time>
      </trkpt>
      <trkpt lat="49.87888" lon="2.24013">
        <ele>48.8</ele>
        <time>2021-09-05T10:25:36Z</time>
      </trkpt>
      <trkpt lat="49.87887" lon="2.24012">
        <ele>48.8</ele>
        <time>2021-09-05T10:25:37Z</time>
      </trkpt>
      <trkpt lat="49.87888" lon="2.24012">
        <ele>48.8</ele>
        <time>2021-09-05T10:25:39Z</time>
      </trkpt>
      <trkpt lat="49.87888" lon="2.24012">
        <ele>48.8</ele>
        <time>2021-09-05T10:25:40Z</time>
      </trkpt>
      <trkpt lat="49.87887" lon="2.24012">
        <ele>48.8</ele>
        <time>2021-09-05T10:25:42Z</time>
      </trkpt>
      <trkpt lat="49.87887" lon="2.24012">
        <ele>48.8</ele>
        <time>2021-09-05T10:25:43Z</time>
      </trkpt>
      <trkpt lat="49.87886" lon="2.24012">
        <ele>48.8</ele>
        <time>2021-09-05T10:25:44Z</time>
      </trkpt>
      <trkpt lat="49.87885" lon="2.24011">
        <ele>48.7</ele>
        <time>2021-09-05T10:25:45Z</time>
      </trkpt>
      <trkpt lat="49.87883" lon="2.24011">
        <ele>48.7</ele>
        <time>2021-09-05T10:25:47Z</time>
      </trkpt>
      <trkpt lat="49.87881" lon="2.2401">
        <ele>48.7</ele>
        <time>2021-09-05T10:25:49Z</time>
      </trkpt>
      <trkpt lat="49.87879" lon="2.24009">
        <ele>48.7</ele>
        <time>2021-09-05T10:25:50Z</time>
      </trkpt>
      <trkpt lat="49.87878" lon="2.24008">
        <ele>48.7</ele>
        <time>2021-09-05T10:25:52Z</time>
      </trkpt>
      <trkpt lat="49.87876" lon="2.24008">
        <ele>48.7</ele>
        <time>2021-09-05T10:25:53Z</time>
      </trkpt>
      <trkpt lat="49.87875" lon="2.24008">
        <ele>48.7</ele>
        <time>2021-09-05T10:25:54Z</time>
      </trkpt>
      <trkpt lat="49.87875" lon="2.24009">
        <ele>48.7</ele>
        <time>2021-09-05T10:25:55Z</time>
      </trkpt>
      <trkpt lat="49.87874" lon="2.24009">
        <ele>48.7</ele>
        <time>2021-09-05T10:25:56Z</time>
      </trkpt>
      <trkpt lat="49.87874" lon="2.24009">
        <ele>48.7</ele>
        <time>2021-09-05T10:25:58Z</time>
      </trkpt>
      <trkpt lat="49.87873" lon="2.24007">
        <ele>48.7</ele>
        <time>2021-09-05T10:25:59Z</time>
      </trkpt>
      <trkpt lat="49.87873" lon="2.24007">
        <ele>48.7</ele>
        <time>2021-09-05T10:26:01Z</time>
      </trkpt>
      <trkpt lat="49.87872" lon="2.24008">
        <ele>48.7</ele>
        <time>2021-09-05T10:26:03Z</time>
      </trkpt>
      <trkpt lat="49.87872" lon="2.24008">
        <ele>48.7</ele>
        <time>2021-09-05T10:26:04Z</time>
      </trkpt>
      <trkpt lat="49.87872" lon="2.24009">
        <ele>48.7</ele>
        <time>2021-09-05T10:26:06Z</time>
      </trkpt>
      <trkpt lat="49.87873" lon="2.24008">
        <ele>48.7</ele>
        <time>2021-09-05T10:26:08Z</time>
      </trkpt>
      <trkpt lat="49.87873" lon="2.24008">
        <ele>48.7</ele>
        <time>2021-09-05T10:26:09Z</time>
      </trkpt>
      <trkpt lat="49.87874" lon="2.24007">
        <ele>48.7</ele>
        <time>2021-09-05T10:26:10Z</time>
      </trkpt>
      <trkpt lat="49.87875" lon="2.24007">
        <ele>48.7</ele>
        <time>2021-09-05T10:26:12Z</time>
      </trkpt>
      <trkpt lat="49.87876" lon="2.24006">
        <ele>48.7</ele>
        <time>2021-09-05T10:26:13Z</time>
      </trkpt>
      <trkpt lat="49.87877" lon="2.24006">
        <ele>48.7</ele>
        <time>2021-09-05T10:26:14Z</time>
      </trkpt>
      <trkpt lat="49.87877" lon="2.24006">
        <ele>48.7</ele>
        <time>2021-09-05T10:26:15Z</time>
      </trkpt>
      <trkpt lat="49.8788" lon="2.24006">
        <ele>48.7</ele>
        <time>2021-09-05T10:26:17Z</time>
      </trkpt>
      <trkpt lat="49.87882" lon="2.24005">
        <ele>48.7</ele>
        <time>2021-09-05T10:26:18Z</time>
      </trkpt>
      <trkpt lat="49.87884" lon="2.24007">
        <ele>48.7</ele>
        <time>2021-09-05T10:26:20Z</time>
      </trkpt>
      <trkpt lat="49.87885" lon="2.24008">
        <ele>48.7</ele>
        <time>2021-09-05T10:26:21Z</time>
      </trkpt>
      <trkpt lat="49.87887" lon="2.24006">
        <ele>48.7</ele>
        <time>2021-09-05T10:26:22Z</time>
      </trkpt>
      <trkpt lat="49.87888" lon="2.24007">
        <ele>48.7</ele>
        <time>2021-09-05T10:26:23Z</time>
      </trkpt>
      <trkpt lat="49.87889" lon="2.24007">
        <ele>48.7</ele>
        <time>2021-09-05T10:26:24Z</time>
      </trkpt>
      <trkpt lat="49.87891" lon="2.24006">
        <ele>48.7</ele>
        <time>2021-09-05T10:26:26Z</time>
      </trkpt>
      <trkpt lat="49.87893" lon="2.24006">
        <ele>48.7</ele>
        <time>2021-09-05T10:26:27Z</time>
      </trkpt>
      <trkpt lat="49.87894" lon="2.24006">
        <ele>48.7</ele>
        <time>2021-09-05T10:26:28Z</time>
      </trkpt>
      <trkpt lat="49.87895" lon="2.24007">
        <ele>48.7</ele>
        <time>2021-09-05T10:26:29Z</time>
      </trkpt>
      <trkpt lat="49.87896" lon="2.24007">
        <ele>48.7</ele>
        <time>2021-09-05T10:26:31Z</time>
      </trkpt>
      <trkpt lat="49.87898" lon="2.24006">
        <ele>48.7</ele>
        <time>2021-09-05T10:26:32Z</time>
      </trkpt>
      <trkpt lat="49.87899" lon="2.24005">
        <ele>48.7</ele>
        <time>2021-09-05T10:26:33Z</time>
      </trkpt>
      <trkpt lat="49.879" lon="2.24004">
        <ele>48.8</ele>
        <time>2021-09-05T10:26:34Z</time>
      </trkpt>
      <trkpt lat="49.87902" lon="2.24003">
        <ele>48.8</ele>
        <time>2021-09-05T10:26:35Z</time>
      </trkpt>
      <trkpt lat="49.87905" lon="2.24002">
        <ele>48.8</ele>
        <time>2021-09-05T10:26:36Z</time>
      </trkpt>
      <trkpt lat="49.87907" lon="2.24001">
        <ele>48.8</ele>
        <time>2021-09-05T10:26:37Z</time>
      </trkpt>
      <trkpt lat="49.87909" lon="2.24">
        <ele>48.8</ele>
        <time>2021-09-05T10:26:38Z</time>
      </trkpt>
      <trkpt lat="49.8791" lon="2.23999">
        <ele>48.8</ele>
        <time>2021-09-05T10:26:40Z</time>
      </trkpt>
      <trkpt lat="49.87912" lon="2.23999">
        <ele>48.8</ele>
        <time>2021-09-05T10:26:41Z</time>
      </trkpt>
      <trkpt lat="49.87913" lon="2.24">
        <ele>48.8</ele>
        <time>2021-09-05T10:26:42Z</time>
      </trkpt>
      <trkpt lat="49.87915" lon="2.24003">
        <ele>48.9</ele>
        <time>2021-09-05T10:26:43Z</time>
      </trkpt>
      <trkpt lat="49.87916" lon="2.24008">
        <ele>48.9</ele>
        <time>2021-09-05T10:26:44Z</time>
      </trkpt>
      <trkpt lat="49.87916" lon="2.24011">
        <ele>48.9</ele>
        <time>2021-09-05T10:26:45Z</time>
      </trkpt>
      <trkpt lat="49.87917" lon="2.24017">
        <ele>48.9</ele>
        <time>2021-09-05T10:26:46Z</time>
      </trkpt>
      <trkpt lat="49.87918" lon="2.24021">
        <ele>48.9</ele>
        <time>2021-09-05T10:26:47Z</time>
      </trkpt>
      <trkpt lat="49.87918" lon="2.24022">
        <ele>49</ele>
        <time>2021-09-05T10:26:48Z</time>
      </trkpt>
      <trkpt lat="49.87919" lon="2.24023">
        <ele>49</ele>
        <time>2021-09-05T10:26:49Z</time>
      </trkpt>
      <trkpt lat="49.8792" lon="2.24024">
        <ele>49</ele>
        <time>2021-09-05T10:26:51Z</time>
      </trkpt>
      <trkpt lat="49.8792" lon="2.24026">
        <ele>49</ele>
        <time>2021-09-05T10:26:52Z</time>
      </trkpt>
      <trkpt lat="49.87922" lon="2.24021">
        <ele>49</ele>
        <time>2021-09-05T10:26:53Z</time>
      </trkpt>
      <trkpt lat="49.87924" lon="2.2402">
        <ele>49</ele>
        <time>2021-09-05T10:26:54Z</time>
      </trkpt>
      <trkpt lat="49.87925" lon="2.2402">
        <ele>49</ele>
        <time>2021-09-05T10:26:55Z</time>
      </trkpt>
      <trkpt lat="49.87928" lon="2.24016">
        <ele>49.1</ele>
        <time>2021-09-05T10:26:56Z</time>
      </trkpt>
      <trkpt lat="49.87929" lon="2.24012">
        <ele>49.1</ele>
        <time>2021-09-05T10:26:57Z</time>
      </trkpt>
      <trkpt lat="49.87931" lon="2.24012">
        <ele>49.1</ele>
        <time>2021-09-05T10:26:58Z</time>
      </trkpt>
      <trkpt lat="49.87932" lon="2.24011">
        <ele>49.1</ele>
        <time>2021-09-05T10:26:59Z</time>
      </trkpt>
      <trkpt lat="49.87933" lon="2.24013">
        <ele>49.1</ele>
        <time>2021-09-05T10:27:01Z</time>
      </trkpt>
      <trkpt lat="49.87934" lon="2.24014">
        <ele>49.1</ele>
        <time>2021-09-05T10:27:02Z</time>
      </trkpt>
      <trkpt lat="49.87932" lon="2.24017">
        <ele>49.1</ele>
        <time>2021-09-05T10:27:03Z</time>
      </trkpt>
      <trkpt lat="49.87933" lon="2.24018">
        <ele>49.2</ele>
        <time>2021-09-05T10:27:04Z</time>
      </trkpt>
      <trkpt lat="49.87935" lon="2.2402">
        <ele>49.2</ele>
        <time>2021-09-05T10:27:05Z</time>
      </trkpt>
      <trkpt lat="49.87936" lon="2.24021">
        <ele>49.2</ele>
        <time>2021-09-05T10:27:06Z</time>
      </trkpt>
      <trkpt lat="49.87936" lon="2.24023">
        <ele>49.2</ele>
        <time>2021-09-05T10:27:07Z</time>
      </trkpt>
      <trkpt lat="49.87937" lon="2.24025">
        <ele>49.2</ele>
        <time>2021-09-05T10:27:08Z</time>
      </trkpt>
      <trkpt lat="49.87938" lon="2.24026">
        <ele>49.2</ele>
        <time>2021-09-05T10:27:10Z</time>
      </trkpt>
      <trkpt lat="49.87939" lon="2.24027">
        <ele>49.2</ele>
        <time>2021-09-05T10:27:11Z</time>
      </trkpt>
      <trkpt lat="49.8794" lon="2.24028">
        <ele>49.2</ele>
        <time>2021-09-05T10:27:12Z</time>
      </trkpt>
      <trkpt lat="49.8794" lon="2.24027">
        <ele>49.2</ele>
        <time>2021-09-05T10:27:13Z</time>
      </trkpt>
      <trkpt lat="49.8794" lon="2.24027">
        <ele>49.2</ele>
        <time>2021-09-05T10:27:15Z</time>
      </trkpt>
      <trkpt lat="49.8794" lon="2.24027">
        <ele>49.2</ele>
        <time>2021-09-05T10:27:17Z</time>
      </trkpt>
      <trkpt lat="49.8794" lon="2.24026">
        <ele>49.2</ele>
        <time>2021-09-05T10:27:18Z</time>
      </trkpt>
      <trkpt lat="49.8794" lon="2.24026">
        <ele>49.2</ele>
        <time>2021-09-05T10:27:20Z</time>
      </trkpt>
      <trkpt lat="49.87939" lon="2.24025">
        <ele>49.2</ele>
        <time>2021-09-05T10:27:21Z</time>
      </trkpt>
      <trkpt lat="49.87939" lon="2.24025">
        <ele>49.2</ele>
        <time>2021-09-05T10:27:22Z</time>
      </trkpt>
      <trkpt lat="49.87939" lon="2.24024">
        <ele>49.2</ele>
        <time>2021-09-05T10:27:24Z</time>
      </trkpt>
      <trkpt lat="49.87939" lon="2.24024">
        <ele>49.2</ele>
        <time>2021-09-05T10:27:25Z</time>
      </trkpt>
      <trkpt lat="49.87939" lon="2.24023">
        <ele>49.3</ele>
        <time>2021-09-05T10:27:27Z</time>
      </trkpt>
      <trkpt lat="49.87938" lon="2.24023">
        <ele>49.3</ele>
        <time>2021-09-05T10:27:29Z</time>
      </trkpt>
      <trkpt lat="49.87938" lon="2.24023">
        <ele>49.3</ele>
        <time>2021-09-05T10:27:30Z</time>
      </trkpt>
      <trkpt lat="49.87938" lon="2.24022">
        <ele>49.3</ele>
        <time>2021-09-05T10:27:32Z</time>
      </trkpt>
      <trkpt lat="49.87938" lon="2.24022">
        <ele>49.3</ele>
        <time>2021-09-05T10:27:33Z</time>
      </trkpt>
      <trkpt lat="49.87938" lon="2.24021">
        <ele>49.3</ele>
        <time>2021-09-05T10:27:34Z</time>
      </trkpt>
      <trkpt lat="49.87937" lon="2.24021">
        <ele>49.3</ele>
        <time>2021-09-05T10:27:36Z</time>
      </trkpt>
      <trkpt lat="49.87937" lon="2.2402">
        <ele>49.3</ele>
        <time>2021-09-05T10:27:37Z</time>
      </trkpt>
      <trkpt lat="49.87937" lon="2.2402">
        <ele>49.3</ele>
        <time>2021-09-05T10:27:39Z</time>
      </trkpt>
      <trkpt lat="49.87937" lon="2.24019">
        <ele>49.3</ele>
        <time>2021-09-05T10:27:40Z</time>
      </trkpt>
      <trkpt lat="49.87937" lon="2.24019">
        <ele>49.3</ele>
        <time>2021-09-05T10:27:41Z</time>
      </trkpt>
      <trkpt lat="49.87936" lon="2.24019">
        <ele>49.3</ele>
        <time>2021-09-05T10:27:43Z</time>
      </trkpt>
      <trkpt lat="49.87936" lon="2.24018">
        <ele>49.3</ele>
        <time>2021-09-05T10:27:44Z</time>
      </trkpt>
      <trkpt lat="49.87936" lon="2.24018">
        <ele>49.3</ele>
        <time>2021-09-05T10:27:45Z</time>
      </trkpt>
      <trkpt lat="49.87936" lon="2.24017">
        <ele>49.3</ele>
        <time>2021-09-05T10:27:47Z</time>
      </trkpt>
      <trkpt lat="49.87936" lon="2.24017">
        <ele>49.3</ele>
        <time>2021-09-05T10:27:48Z</time>
      </trkpt>
      <trkpt lat="49.87936" lon="2.24016">
        <ele>49.3</ele>
        <time>2021-09-05T10:27:49Z</time>
      </trkpt>
      <trkpt lat="49.87935" lon="2.24016">
        <ele>49.3</ele>
        <time>2021-09-05T10:27:50Z</time>
      </trkpt>
      <trkpt lat="49.87935" lon="2.24015">
        <ele>49.3</ele>
        <time>2021-09-05T10:27:52Z</time>
      </trkpt>
      <trkpt lat="49.87935" lon="2.24015">
        <ele>49.3</ele>
        <time>2021-09-05T10:27:53Z</time>
      </trkpt>
      <trkpt lat="49.87935" lon="2.24015">
        <ele>49.3</ele>
        <time>2021-09-05T10:27:55Z</time>
      </trkpt>
      <trkpt lat="49.87935" lon="2.24014">
        <ele>49.3</ele>
        <time>2021-09-05T10:27:56Z</time>
      </trkpt>
      <trkpt lat="49.87934" lon="2.24014">
        <ele>49.3</ele>
        <time>2021-09-05T10:27:57Z</time>
      </trkpt>
      <trkpt lat="49.87934" lon="2.24013">
        <ele>49.3</ele>
        <time>2021-09-05T10:27:59Z</time>
      </trkpt>
      <trkpt lat="49.87934" lon="2.24013">
        <ele>49.3</ele>
        <time>2021-09-05T10:28:00Z</time>
      </trkpt>
      <trkpt lat="49.87934" lon="2.24012">
        <ele>49.3</ele>
        <time>2021-09-05T10:28:01Z</time>
      </trkpt>
      <trkpt lat="49.87934" lon="2.24012">
        <ele>49.3</ele>
        <time>2021-09-05T10:28:03Z</time>
      </trkpt>
      <trkpt lat="49.87933" lon="2.24011">
        <ele>49.3</ele>
        <time>2021-09-05T10:28:04Z</time>
      </trkpt>
      <trkpt lat="49.87933" lon="2.24011">
        <ele>49.3</ele>
        <time>2021-09-05T10:28:06Z</time>
      </trkpt>
      <trkpt lat="49.87933" lon="2.24011">
        <ele>49.3</ele>
        <time>2021-09-05T10:28:08Z</time>
      </trkpt>
      <trkpt lat="49.87933" lon="2.2401">
        <ele>49.3</ele>
        <time>2021-09-05T10:28:10Z</time>
      </trkpt>
      <trkpt lat="49.87933" lon="2.2401">
        <ele>49.3</ele>
        <time>2021-09-05T10:28:11Z</time>
      </trkpt>
      <trkpt lat="49.87932" lon="2.24009">
        <ele>49.3</ele>
        <time>2021-09-05T10:28:13Z</time>
      </trkpt>
      <trkpt lat="49.87932" lon="2.24009">
        <ele>49.3</ele>
        <time>2021-09-05T10:28:14Z</time>
      </trkpt>
      <trkpt lat="49.87932" lon="2.24008">
        <ele>49.3</ele>
        <time>2021-09-05T10:28:16Z</time>
      </trkpt>
      <trkpt lat="49.87932" lon="2.24008">
        <ele>49.3</ele>
        <time>2021-09-05T10:28:17Z</time>
      </trkpt>
      <trkpt lat="49.87932" lon="2.24007">
        <ele>49.3</ele>
        <time>2021-09-05T10:28:18Z</time>
      </trkpt>
      <trkpt lat="49.87932" lon="2.24007">
        <ele>49.3</ele>
        <time>2021-09-05T10:28:19Z</time>
      </trkpt>
      <trkpt lat="49.87931" lon="2.24007">
        <ele>49.4</ele>
        <time>2021-09-05T10:28:20Z</time>
      </trkpt>
      <trkpt lat="49.87935" lon="2.2401">
        <ele>49.4</ele>
        <time>2021-09-05T10:28:21Z</time>
      </trkpt>
      <trkpt lat="49.87938" lon="2.24012">
        <ele>49.4</ele>
        <time>2021-09-05T10:28:23Z</time>
      </trkpt>
      <trkpt lat="49.87941" lon="2.24014">
        <ele>49.4</ele>
        <time>2021-09-05T10:28:24Z</time>
      </trkpt>
      <trkpt lat="49.87942" lon="2.24014">
        <ele>49.5</ele>
        <time>2021-09-05T10:28:26Z</time>
      </trkpt>
      <trkpt lat="49.87944" lon="2.24014">
        <ele>49.5</ele>
        <time>2021-09-05T10:28:28Z</time>
      </trkpt>
      <trkpt lat="49.87945" lon="2.24015">
        <ele>49.5</ele>
        <time>2021-09-05T10:28:30Z</time>
      </trkpt>
      <trkpt lat="49.87945" lon="2.24015">
        <ele>49.5</ele>
        <time>2021-09-05T10:28:31Z</time>
      </trkpt>
      <trkpt lat="49.87945" lon="2.24015">
        <ele>49.5</ele>
        <time>2021-09-05T10:28:33Z</time>
      </trkpt>
      <trkpt lat="49.87945" lon="2.24015">
        <ele>49.5</ele>
        <time>2021-09-05T10:28:34Z</time>
      </trkpt>
      <trkpt lat="49.87945" lon="2.24014">
        <ele>49.5</ele>
        <time>2021-09-05T10:28:36Z</time>
      </trkpt>
      <trkpt lat="49.87945" lon="2.24014">
        <ele>49.5</ele>
        <time>2021-09-05T10:28:38Z</time>
      </trkpt>
      <trkpt lat="49.87945" lon="2.24014">
        <ele>49.5</ele>
        <time>2021-09-05T10:28:40Z</time>
      </trkpt>
      <trkpt lat="49.87945" lon="2.24013">
        <ele>49.5</ele>
        <time>2021-09-05T10:28:42Z</time>
      </trkpt>
      <trkpt lat="49.87945" lon="2.24013">
        <ele>49.5</ele>
        <time>2021-09-05T10:28:43Z</time>
      </trkpt>
      <trkpt lat="49.87945" lon="2.24014">
        <ele>49.5</ele>
        <time>2021-09-05T10:28:45Z</time>
      </trkpt>
      <trkpt lat="49.87945" lon="2.24014">
        <ele>49.5</ele>
        <time>2021-09-05T10:28:47Z</time>
      </trkpt>
      <trkpt lat="49.87945" lon="2.24014">
        <ele>49.5</ele>
        <time>2021-09-05T10:28:48Z</time>
      </trkpt>
      <trkpt lat="49.87945" lon="2.24014">
        <ele>49.5</ele>
        <time>2021-09-05T10:28:49Z</time>
      </trkpt>
      <trkpt lat="49.87945" lon="2.24014">
        <ele>49.5</ele>
        <time>2021-09-05T10:28:50Z</time>
      </trkpt>
      <trkpt lat="49.87945" lon="2.24014">
        <ele>49.5</ele>
        <time>2021-09-05T10:28:52Z</time>
      </trkpt>
      <trkpt lat="49.87945" lon="2.24014">
        <ele>49.5</ele>
        <time>2021-09-05T10:28:54Z</time>
      </trkpt>
      <trkpt lat="49.87945" lon="2.24014">
        <ele>49.5</ele>
        <time>2021-09-05T10:28:55Z</time>
      </trkpt>
      <trkpt lat="49.87945" lon="2.24014">
        <ele>49.5</ele>
        <time>2021-09-05T10:28:57Z</time>
      </trkpt>
      <trkpt lat="49.87945" lon="2.24014">
        <ele>49.5</ele>
        <time>2021-09-05T10:28:59Z</time>
      </trkpt>
      <trkpt lat="49.87945" lon="2.24014">
        <ele>49.5</ele>
        <time>2021-09-05T10:29:00Z</time>
      </trkpt>
      <trkpt lat="49.87945" lon="2.24014">
        <ele>49.5</ele>
        <time>2021-09-05T10:29:01Z</time>
      </trkpt>
      <trkpt lat="49.87945" lon="2.24014">
        <ele>49.5</ele>
        <time>2021-09-05T10:29:03Z</time>
      </trkpt>
      <trkpt lat="49.87945" lon="2.24014">
        <ele>49.5</ele>
        <time>2021-09-05T10:29:05Z</time>
      </trkpt>
      <trkpt lat="49.87945" lon="2.24014">
        <ele>49.5</ele>
        <time>2021-09-05T10:29:06Z</time>
      </trkpt>
      <trkpt lat="49.87945" lon="2.24014">
        <ele>49.5</ele>
        <time>2021-09-05T10:29:08Z</time>
      </trkpt>
      <trkpt lat="49.87945" lon="2.24014">
        <ele>49.5</ele>
        <time>2021-09-05T10:29:10Z</time>
      </trkpt>
      <trkpt lat="49.87945" lon="2.24014">
        <ele>49.5</ele>
        <time>2021-09-05T10:29:12Z</time>
      </trkpt>
      <trkpt lat="49.87945" lon="2.24014">
        <ele>49.5</ele>
        <time>2021-09-05T10:29:14Z</time>
      </trkpt>
      <trkpt lat="49.87945" lon="2.24014">
        <ele>49.5</ele>
        <time>2021-09-05T10:29:15Z</time>
      </trkpt>
      <trkpt lat="49.87945" lon="2.24014">
        <ele>49.5</ele>
        <time>2021-09-05T10:29:17Z</time>
      </trkpt>
      <trkpt lat="49.87946" lon="2.24013">
        <ele>49.5</ele>
        <time>2021-09-05T10:29:18Z</time>
      </trkpt>
      <trkpt lat="49.87946" lon="2.24012">
        <ele>49.5</ele>
        <time>2021-09-05T10:29:20Z</time>
      </trkpt>
      <trkpt lat="49.87946" lon="2.24012">
        <ele>49.5</ele>
        <time>2021-09-05T10:29:21Z</time>
      </trkpt>
      <trkpt lat="49.87948" lon="2.24013">
        <ele>49.5</ele>
        <time>2021-09-05T10:29:22Z</time>
      </trkpt>
      <trkpt lat="49.8795" lon="2.24014">
        <ele>49.5</ele>
        <time>2021-09-05T10:29:24Z</time>
      </trkpt>
      <trkpt lat="49.87953" lon="2.24014">
        <ele>49.6</ele>
        <time>2021-09-05T10:29:25Z</time>
      </trkpt>
      <trkpt lat="49.87954" lon="2.24015">
        <ele>49.6</ele>
        <time>2021-09-05T10:29:26Z</time>
      </trkpt>
      <trkpt lat="49.87955" lon="2.24014">
        <ele>49.6</ele>
        <time>2021-09-05T10:29:27Z</time>
      </trkpt>
      <trkpt lat="49.87957" lon="2.24014">
        <ele>49.6</ele>
        <time>2021-09-05T10:29:29Z</time>
      </trkpt>
      <trkpt lat="49.87958" lon="2.24013">
        <ele>49.6</ele>
        <time>2021-09-05T10:29:30Z</time>
      </trkpt>
      <trkpt lat="49.8796" lon="2.24013">
        <ele>49.6</ele>
        <time>2021-09-05T10:29:31Z</time>
      </trkpt>
      <trkpt lat="49.87963" lon="2.24013">
        <ele>49.7</ele>
        <time>2021-09-05T10:29:32Z</time>
      </trkpt>
      <trkpt lat="49.87965" lon="2.24013">
        <ele>49.7</ele>
        <time>2021-09-05T10:29:34Z</time>
      </trkpt>
      <trkpt lat="49.87966" lon="2.24014">
        <ele>49.7</ele>
        <time>2021-09-05T10:29:35Z</time>
      </trkpt>
      <trkpt lat="49.87967" lon="2.24014">
        <ele>49.7</ele>
        <time>2021-09-05T10:29:36Z</time>
      </trkpt>
      <trkpt lat="49.87968" lon="2.24014">
        <ele>49.7</ele>
        <time>2021-09-05T10:29:37Z</time>
      </trkpt>
      <trkpt lat="49.87969" lon="2.24013">
        <ele>49.8</ele>
        <time>2021-09-05T10:29:38Z</time>
      </trkpt>
      <trkpt lat="49.8797" lon="2.24013">
        <ele>49.8</ele>
        <time>2021-09-05T10:29:39Z</time>
      </trkpt>
      <trkpt lat="49.87972" lon="2.24012">
        <ele>49.8</ele>
        <time>2021-09-05T10:29:40Z</time>
      </trkpt>
      <trkpt lat="49.87973" lon="2.24012">
        <ele>49.8</ele>
        <time>2021-09-05T10:29:41Z</time>
      </trkpt>
      <trkpt lat="49.87975" lon="2.24011">
        <ele>49.8</ele>
        <time>2021-09-05T10:29:42Z</time>
      </trkpt>
      <trkpt lat="49.87976" lon="2.24011">
        <ele>49.9</ele>
        <time>2021-09-05T10:29:43Z</time>
      </trkpt>
      <trkpt lat="49.87977" lon="2.24011">
        <ele>49.9</ele>
        <time>2021-09-05T10:29:44Z</time>
      </trkpt>
      <trkpt lat="49.87978" lon="2.2401">
        <ele>49.9</ele>
        <time>2021-09-05T10:29:46Z</time>
      </trkpt>
      <trkpt lat="49.87979" lon="2.2401">
        <ele>49.9</ele>
        <time>2021-09-05T10:29:47Z</time>
      </trkpt>
      <trkpt lat="49.8798" lon="2.2401">
        <ele>49.9</ele>
        <time>2021-09-05T10:29:48Z</time>
      </trkpt>
      <trkpt lat="49.87982" lon="2.24009">
        <ele>49.9</ele>
        <time>2021-09-05T10:29:49Z</time>
      </trkpt>
      <trkpt lat="49.87983" lon="2.24009">
        <ele>50</ele>
        <time>2021-09-05T10:29:50Z</time>
      </trkpt>
      <trkpt lat="49.87984" lon="2.24009">
        <ele>50</ele>
        <time>2021-09-05T10:29:52Z</time>
      </trkpt>
      <trkpt lat="49.87985" lon="2.24009">
        <ele>50</ele>
        <time>2021-09-05T10:29:53Z</time>
      </trkpt>
      <trkpt lat="49.87986" lon="2.24009">
        <ele>50</ele>
        <time>2021-09-05T10:29:54Z</time>
      </trkpt>
      <trkpt lat="49.87988" lon="2.24009">
        <ele>50</ele>
        <time>2021-09-05T10:29:55Z</time>
      </trkpt>
      <trkpt lat="49.87989" lon="2.24009">
        <ele>50.1</ele>
        <time>2021-09-05T10:29:56Z</time>
      </trkpt>
      <trkpt lat="49.8799" lon="2.2401">
        <ele>50.1</ele>
        <time>2021-09-05T10:29:57Z</time>
      </trkpt>
      <trkpt lat="49.87992" lon="2.2401">
        <ele>50.1</ele>
        <time>2021-09-05T10:29:58Z</time>
      </trkpt>
      <trkpt lat="49.87993" lon="2.2401">
        <ele>50.2</ele>
        <time>2021-09-05T10:29:59Z</time>
      </trkpt>
      <trkpt lat="49.87996" lon="2.2401">
        <ele>50.2</ele>
        <time>2021-09-05T10:30:01Z</time>
      </trkpt>
      <trkpt lat="49.87997" lon="2.24011">
        <ele>50.2</ele>
        <time>2021-09-05T10:30:02Z</time>
      </trkpt>
      <trkpt lat="49.87999" lon="2.24011">
        <ele>50.2</ele>
        <time>2021-09-05T10:30:03Z</time>
      </trkpt>
      <trkpt lat="49.88" lon="2.24011">
        <ele>50.2</ele>
        <time>2021-09-05T10:30:04Z</time>
      </trkpt>
      <trkpt lat="49.88001" lon="2.24011">
        <ele>50.2</ele>
        <time>2021-09-05T10:30:05Z</time>
      </trkpt>
      <trkpt lat="49.88002" lon="2.24012">
        <ele>50.3</ele>
        <time>2021-09-05T10:30:06Z</time>
      </trkpt>
      <trkpt lat="49.88003" lon="2.24012">
        <ele>50.3</ele>
        <time>2021-09-05T10:30:07Z</time>
      </trkpt>
      <trkpt lat="49.88005" lon="2.24013">
        <ele>50.3</ele>
        <time>2021-09-05T10:30:08Z</time>
      </trkpt>
      <trkpt lat="49.88006" lon="2.24013">
        <ele>50.4</ele>
        <time>2021-09-05T10:30:09Z</time>
      </trkpt>
      <trkpt lat="49.88008" lon="2.24014">
        <ele>50.4</ele>
        <time>2021-09-05T10:30:11Z</time>
      </trkpt>
      <trkpt lat="49.88009" lon="2.24014">
        <ele>50.4</ele>
        <time>2021-09-05T10:30:12Z</time>
      </trkpt>
      <trkpt lat="49.88011" lon="2.24014">
        <ele>50.4</ele>
        <time>2021-09-05T10:30:13Z</time>
      </trkpt>
      <trkpt lat="49.88012" lon="2.24014">
        <ele>50.4</ele>
        <time>2021-09-05T10:30:14Z</time>
      </trkpt>
      <trkpt lat="49.88013" lon="2.24015">
        <ele>50.4</ele>
        <time>2021-09-05T10:30:15Z</time>
      </trkpt>
      <trkpt lat="49.88015" lon="2.24016">
        <ele>50.5</ele>
        <time>2021-09-05T10:30:16Z</time>
      </trkpt>
      <trkpt lat="49.88016" lon="2.24017">
        <ele>50.5</ele>
        <time>2021-09-05T10:30:17Z</time>
      </trkpt>
      <trkpt lat="49.88017" lon="2.24017">
        <ele>50.5</ele>
        <time>2021-09-05T10:30:18Z</time>
      </trkpt>
      <trkpt lat="49.88019" lon="2.24017">
        <ele>50.5</ele>
        <time>2021-09-05T10:30:19Z</time>
      </trkpt>
      <trkpt lat="49.8802" lon="2.24018">
        <ele>50.6</ele>
        <time>2021-09-05T10:30:20Z</time>
      </trkpt>
      <trkpt lat="49.88023" lon="2.24018">
        <ele>50.6</ele>
        <time>2021-09-05T10:30:22Z</time>
      </trkpt>
      <trkpt lat="49.88026" lon="2.24018">
        <ele>50.7</ele>
        <time>2021-09-05T10:30:24Z</time>
      </trkpt>
      <trkpt lat="49.88027" lon="2.24018">
        <ele>50.7</ele>
        <time>2021-09-05T10:30:25Z</time>
      </trkpt>
      <trkpt lat="49.88029" lon="2.24019">
        <ele>50.7</ele>
        <time>2021-09-05T10:30:26Z</time>
      </trkpt>
      <trkpt lat="49.8803" lon="2.24019">
        <ele>50.7</ele>
        <time>2021-09-05T10:30:27Z</time>
      </trkpt>
      <trkpt lat="49.88033" lon="2.2402">
        <ele>50.8</ele>
        <time>2021-09-05T10:30:29Z</time>
      </trkpt>
      <trkpt lat="49.88033" lon="2.2402">
        <ele>50.8</ele>
        <time>2021-09-05T10:30:30Z</time>
      </trkpt>
      <trkpt lat="49.88035" lon="2.24021">
        <ele>50.8</ele>
        <time>2021-09-05T10:30:31Z</time>
      </trkpt>
      <trkpt lat="49.88036" lon="2.24021">
        <ele>50.8</ele>
        <time>2021-09-05T10:30:32Z</time>
      </trkpt>
      <trkpt lat="49.88038" lon="2.24022">
        <ele>50.9</ele>
        <time>2021-09-05T10:30:34Z</time>
      </trkpt>
      <trkpt lat="49.88038" lon="2.24022">
        <ele>50.9</ele>
        <time>2021-09-05T10:30:35Z</time>
      </trkpt>
      <trkpt lat="49.88039" lon="2.24023">
        <ele>50.9</ele>
        <time>2021-09-05T10:30:36Z</time>
      </trkpt>
      <trkpt lat="49.8804" lon="2.24024">
        <ele>50.9</ele>
        <time>2021-09-05T10:30:37Z</time>
      </trkpt>
      <trkpt lat="49.88042" lon="2.24024">
        <ele>50.9</ele>
        <time>2021-09-05T10:30:38Z</time>
      </trkpt>
      <trkpt lat="49.88045" lon="2.24026">
        <ele>51</ele>
        <time>2021-09-05T10:30:39Z</time>
      </trkpt>
      <trkpt lat="49.88046" lon="2.24027">
        <ele>51</ele>
        <time>2021-09-05T10:30:40Z</time>
      </trkpt>
      <trkpt lat="49.88047" lon="2.24027">
        <ele>51</ele>
        <time>2021-09-05T10:30:41Z</time>
      </trkpt>
      <trkpt lat="49.88048" lon="2.24026">
        <ele>51</ele>
        <time>2021-09-05T10:30:42Z</time>
      </trkpt>
      <trkpt lat="49.88049" lon="2.24027">
        <ele>51</ele>
        <time>2021-09-05T10:30:44Z</time>
      </trkpt>
      <trkpt lat="49.88052" lon="2.24028">
        <ele>51.1</ele>
        <time>2021-09-05T10:30:45Z</time>
      </trkpt>
      <trkpt lat="49.88053" lon="2.24029">
        <ele>51.1</ele>
        <time>2021-09-05T10:30:46Z</time>
      </trkpt>
      <trkpt lat="49.88054" lon="2.24029">
        <ele>51.1</ele>
        <time>2021-09-05T10:30:47Z</time>
      </trkpt>
      <trkpt lat="49.88055" lon="2.24029">
        <ele>51.1</ele>
        <time>2021-09-05T10:30:48Z</time>
      </trkpt>
      <trkpt lat="49.88056" lon="2.2403">
        <ele>51.1</ele>
        <time>2021-09-05T10:30:49Z</time>
      </trkpt>
      <trkpt lat="49.88057" lon="2.24029">
        <ele>51.1</ele>
        <time>2021-09-05T10:30:51Z</time>
      </trkpt>
      <trkpt lat="49.88059" lon="2.24029">
        <ele>51.1</ele>
        <time>2021-09-05T10:30:52Z</time>
      </trkpt>
      <trkpt lat="49.8806" lon="2.24028">
        <ele>51.1</ele>
        <time>2021-09-05T10:30:53Z</time>
      </trkpt>
      <trkpt lat="49.88061" lon="2.24028">
        <ele>51.1</ele>
        <time>2021-09-05T10:30:54Z</time>
      </trkpt>
      <trkpt lat="49.88062" lon="2.24029">
        <ele>51.1</ele>
        <time>2021-09-05T10:30:55Z</time>
      </trkpt>
      <trkpt lat="49.88063" lon="2.2403">
        <ele>51.1</ele>
        <time>2021-09-05T10:30:56Z</time>
      </trkpt>
      <trkpt lat="49.88064" lon="2.2403">
        <ele>51.1</ele>
        <time>2021-09-05T10:30:57Z</time>
      </trkpt>
      <trkpt lat="49.88065" lon="2.24031">
        <ele>51.1</ele>
        <time>2021-09-05T10:30:59Z</time>
      </trkpt>
      <trkpt lat="49.88066" lon="2.24032">
        <ele>51.1</ele>
        <time>2021-09-05T10:31:00Z</time>
      </trkpt>
      <trkpt lat="49.88067" lon="2.24032">
        <ele>51.1</ele>
        <time>2021-09-05T10:31:01Z</time>
      </trkpt>
      <trkpt lat="49.88068" lon="2.24032">
        <ele>51.1</ele>
        <time>2021-09-05T10:31:02Z</time>
      </trkpt>
      <trkpt lat="49.88068" lon="2.24032">
        <ele>51.1</ele>
        <time>2021-09-05T10:31:03Z</time>
      </trkpt>
      <trkpt lat="49.88069" lon="2.24032">
        <ele>51.1</ele>
        <time>2021-09-05T10:31:04Z</time>
      </trkpt>
      <trkpt lat="49.88071" lon="2.24033">
        <ele>51.1</ele>
        <time>2021-09-05T10:31:05Z</time>
      </trkpt>
      <trkpt lat="49.88072" lon="2.24034">
        <ele>51.1</ele>
        <time>2021-09-05T10:31:06Z</time>
      </trkpt>
      <trkpt lat="49.88073" lon="2.24035">
        <ele>51</ele>
        <time>2021-09-05T10:31:07Z</time>
      </trkpt>
      <trkpt lat="49.88075" lon="2.24036">
        <ele>51.1</ele>
        <time>2021-09-05T10:31:09Z</time>
      </trkpt>
      <trkpt lat="49.88076" lon="2.24036">
        <ele>51</ele>
        <time>2021-09-05T10:31:10Z</time>
      </trkpt>
      <trkpt lat="49.88077" lon="2.24037">
        <ele>51</ele>
        <time>2021-09-05T10:31:11Z</time>
      </trkpt>
      <trkpt lat="49.88077" lon="2.24037">
        <ele>51</ele>
        <time>2021-09-05T10:31:12Z</time>
      </trkpt>
      <trkpt lat="49.88078" lon="2.24038">
        <ele>51</ele>
        <time>2021-09-05T10:31:13Z</time>
      </trkpt>
      <trkpt lat="49.88079" lon="2.24038">
        <ele>51</ele>
        <time>2021-09-05T10:31:14Z</time>
      </trkpt>
      <trkpt lat="49.8808" lon="2.24038">
        <ele>51</ele>
        <time>2021-09-05T10:31:15Z</time>
      </trkpt>
      <trkpt lat="49.88081" lon="2.24038">
        <ele>51</ele>
        <time>2021-09-05T10:31:16Z</time>
      </trkpt>
      <trkpt lat="49.88081" lon="2.24037">
        <ele>51</ele>
        <time>2021-09-05T10:31:18Z</time>
      </trkpt>
      <trkpt lat="49.88082" lon="2.24036">
        <ele>51</ele>
        <time>2021-09-05T10:31:19Z</time>
      </trkpt>
      <trkpt lat="49.88082" lon="2.24036">
        <ele>51</ele>
        <time>2021-09-05T10:31:20Z</time>
      </trkpt>
      <trkpt lat="49.88083" lon="2.24037">
        <ele>50.9</ele>
        <time>2021-09-05T10:31:21Z</time>
      </trkpt>
      <trkpt lat="49.88083" lon="2.24037">
        <ele>50.9</ele>
        <time>2021-09-05T10:31:22Z</time>
      </trkpt>
      <trkpt lat="49.88084" lon="2.24038">
        <ele>50.9</ele>
        <time>2021-09-05T10:31:23Z</time>
      </trkpt>
      <trkpt lat="49.88085" lon="2.24038">
        <ele>50.9</ele>
        <time>2021-09-05T10:31:24Z</time>
      </trkpt>
      <trkpt lat="49.88085" lon="2.24038">
        <ele>50.9</ele>
        <time>2021-09-05T10:31:25Z</time>
      </trkpt>
      <trkpt lat="49.88086" lon="2.24039">
        <ele>50.9</ele>
        <time>2021-09-05T10:31:27Z</time>
      </trkpt>
      <trkpt lat="49.88087" lon="2.2404">
        <ele>50.9</ele>
        <time>2021-09-05T10:31:28Z</time>
      </trkpt>
      <trkpt lat="49.8809" lon="2.24041">
        <ele>50.8</ele>
        <time>2021-09-05T10:31:29Z</time>
      </trkpt>
      <trkpt lat="49.8809" lon="2.24041">
        <ele>50.8</ele>
        <time>2021-09-05T10:31:30Z</time>
      </trkpt>
      <trkpt lat="49.88091" lon="2.24042">
        <ele>50.8</ele>
        <time>2021-09-05T10:31:31Z</time>
      </trkpt>
      <trkpt lat="49.88092" lon="2.24042">
        <ele>50.8</ele>
        <time>2021-09-05T10:31:32Z</time>
      </trkpt>
      <trkpt lat="49.88094" lon="2.24043">
        <ele>50.8</ele>
        <time>2021-09-05T10:31:33Z</time>
      </trkpt>
      <trkpt lat="49.88094" lon="2.24043">
        <ele>50.8</ele>
        <time>2021-09-05T10:31:34Z</time>
      </trkpt>
      <trkpt lat="49.88094" lon="2.24043">
        <ele>50.8</ele>
        <time>2021-09-05T10:31:35Z</time>
      </trkpt>
      <trkpt lat="49.88094" lon="2.24043">
        <ele>50.8</ele>
        <time>2021-09-05T10:31:36Z</time>
      </trkpt>
      <trkpt lat="49.88096" lon="2.24044">
        <ele>50.7</ele>
        <time>2021-09-05T10:31:38Z</time>
      </trkpt>
      <trkpt lat="49.88098" lon="2.24045">
        <ele>50.7</ele>
        <time>2021-09-05T10:31:40Z</time>
      </trkpt>
      <trkpt lat="49.88099" lon="2.24046">
        <ele>50.7</ele>
        <time>2021-09-05T10:31:41Z</time>
      </trkpt>
      <trkpt lat="49.88101" lon="2.24046">
        <ele>50.6</ele>
        <time>2021-09-05T10:31:42Z</time>
      </trkpt>
      <trkpt lat="49.88102" lon="2.24047">
        <ele>50.6</ele>
        <time>2021-09-05T10:31:43Z</time>
      </trkpt>
      <trkpt lat="49.88104" lon="2.24047">
        <ele>50.5</ele>
        <time>2021-09-05T10:31:44Z</time>
      </trkpt>
      <trkpt lat="49.88105" lon="2.24047">
        <ele>50.5</ele>
        <time>2021-09-05T10:31:45Z</time>
      </trkpt>
      <trkpt lat="49.88107" lon="2.24048">
        <ele>50.4</ele>
        <time>2021-09-05T10:31:46Z</time>
      </trkpt>
      <trkpt lat="49.8811" lon="2.24049">
        <ele>50.4</ele>
        <time>2021-09-05T10:31:47Z</time>
      </trkpt>
      <trkpt lat="49.88111" lon="2.2405">
        <ele>50.4</ele>
        <time>2021-09-05T10:31:49Z</time>
      </trkpt>
      <trkpt lat="49.88112" lon="2.2405">
        <ele>50.3</ele>
        <time>2021-09-05T10:31:50Z</time>
      </trkpt>
      <trkpt lat="49.88113" lon="2.2405">
        <ele>50.3</ele>
        <time>2021-09-05T10:31:51Z</time>
      </trkpt>
      <trkpt lat="49.88114" lon="2.24051">
        <ele>50.3</ele>
        <time>2021-09-05T10:31:52Z</time>
      </trkpt>
      <trkpt lat="49.88116" lon="2.24051">
        <ele>50.2</ele>
        <time>2021-09-05T10:31:53Z</time>
      </trkpt>
      <trkpt lat="49.88116" lon="2.24052">
        <ele>50.2</ele>
        <time>2021-09-05T10:31:54Z</time>
      </trkpt>
      <trkpt lat="49.88117" lon="2.24052">
        <ele>50.2</ele>
        <time>2021-09-05T10:31:55Z</time>
      </trkpt>
      <trkpt lat="49.88119" lon="2.24052">
        <ele>50.2</ele>
        <time>2021-09-05T10:31:57Z</time>
      </trkpt>
      <trkpt lat="49.8812" lon="2.24053">
        <ele>50.1</ele>
        <time>2021-09-05T10:31:58Z</time>
      </trkpt>
      <trkpt lat="49.88122" lon="2.24054">
        <ele>50.1</ele>
        <time>2021-09-05T10:31:59Z</time>
      </trkpt>
      <trkpt lat="49.88124" lon="2.24054">
        <ele>50.1</ele>
        <time>2021-09-05T10:32:00Z</time>
      </trkpt>
      <trkpt lat="49.88125" lon="2.24054">
        <ele>50.1</ele>
        <time>2021-09-05T10:32:01Z</time>
      </trkpt>
      <trkpt lat="49.88126" lon="2.24055">
        <ele>50</ele>
        <time>2021-09-05T10:32:02Z</time>
      </trkpt>
      <trkpt lat="49.88127" lon="2.24055">
        <ele>50</ele>
        <time>2021-09-05T10:32:03Z</time>
      </trkpt>
      <trkpt lat="49.88128" lon="2.24056">
        <ele>49.9</ele>
        <time>2021-09-05T10:32:04Z</time>
      </trkpt>
      <trkpt lat="49.88131" lon="2.24054">
        <ele>49.8</ele>
        <time>2021-09-05T10:32:06Z</time>
      </trkpt>
      <trkpt lat="49.88132" lon="2.24052">
        <ele>49.7</ele>
        <time>2021-09-05T10:32:07Z</time>
      </trkpt>
      <trkpt lat="49.88134" lon="2.24052">
        <ele>49.7</ele>
        <time>2021-09-05T10:32:08Z</time>
      </trkpt>
      <trkpt lat="49.88135" lon="2.24053">
        <ele>49.7</ele>
        <time>2021-09-05T10:32:09Z</time>
      </trkpt>
      <trkpt lat="49.88138" lon="2.24054">
        <ele>49.7</ele>
        <time>2021-09-05T10:32:10Z</time>
      </trkpt>
      <trkpt lat="49.88139" lon="2.24055">
        <ele>49.7</ele>
        <time>2021-09-05T10:32:11Z</time>
      </trkpt>
      <trkpt lat="49.88139" lon="2.24056">
        <ele>49.6</ele>
        <time>2021-09-05T10:32:12Z</time>
      </trkpt>
      <trkpt lat="49.8814" lon="2.24057">
        <ele>49.6</ele>
        <time>2021-09-05T10:32:13Z</time>
      </trkpt>
      <trkpt lat="49.88142" lon="2.24058">
        <ele>49.6</ele>
        <time>2021-09-05T10:32:15Z</time>
      </trkpt>
      <trkpt lat="49.88144" lon="2.24061">
        <ele>49.6</ele>
        <time>2021-09-05T10:32:16Z</time>
      </trkpt>
      <trkpt lat="49.88145" lon="2.24062">
        <ele>49.5</ele>
        <time>2021-09-05T10:32:17Z</time>
      </trkpt>
      <trkpt lat="49.88147" lon="2.24064">
        <ele>49.5</ele>
        <time>2021-09-05T10:32:18Z</time>
      </trkpt>
      <trkpt lat="49.88147" lon="2.24064">
        <ele>49.5</ele>
        <time>2021-09-05T10:32:19Z</time>
      </trkpt>
      <trkpt lat="49.88148" lon="2.24065">
        <ele>49.4</ele>
        <time>2021-09-05T10:32:20Z</time>
      </trkpt>
      <trkpt lat="49.88151" lon="2.24067">
        <ele>49.4</ele>
        <time>2021-09-05T10:32:21Z</time>
      </trkpt>
      <trkpt lat="49.88151" lon="2.24067">
        <ele>49.4</ele>
        <time>2021-09-05T10:32:23Z</time>
      </trkpt>
      <trkpt lat="49.88152" lon="2.24068">
        <ele>49.4</ele>
        <time>2021-09-05T10:32:24Z</time>
      </trkpt>
      <trkpt lat="49.88153" lon="2.24069">
        <ele>49.3</ele>
        <time>2021-09-05T10:32:25Z</time>
      </trkpt>
      <trkpt lat="49.88154" lon="2.2407">
        <ele>49.3</ele>
        <time>2021-09-05T10:32:26Z</time>
      </trkpt>
      <trkpt lat="49.88156" lon="2.24071">
        <ele>49.3</ele>
        <time>2021-09-05T10:32:27Z</time>
      </trkpt>
      <trkpt lat="49.88156" lon="2.24071">
        <ele>49.3</ele>
        <time>2021-09-05T10:32:28Z</time>
      </trkpt>
      <trkpt lat="49.88157" lon="2.24072">
        <ele>49.3</ele>
        <time>2021-09-05T10:32:29Z</time>
      </trkpt>
      <trkpt lat="49.88158" lon="2.24074">
        <ele>49.3</ele>
        <time>2021-09-05T10:32:31Z</time>
      </trkpt>
      <trkpt lat="49.88159" lon="2.24075">
        <ele>49.2</ele>
        <time>2021-09-05T10:32:32Z</time>
      </trkpt>
      <trkpt lat="49.8816" lon="2.24076">
        <ele>49.2</ele>
        <time>2021-09-05T10:32:33Z</time>
      </trkpt>
      <trkpt lat="49.88161" lon="2.24076">
        <ele>49.1</ele>
        <time>2021-09-05T10:32:34Z</time>
      </trkpt>
      <trkpt lat="49.88163" lon="2.24077">
        <ele>49.1</ele>
        <time>2021-09-05T10:32:36Z</time>
      </trkpt>
      <trkpt lat="49.88164" lon="2.24077">
        <ele>49.1</ele>
        <time>2021-09-05T10:32:37Z</time>
      </trkpt>
      <trkpt lat="49.88165" lon="2.24077">
        <ele>49</ele>
        <time>2021-09-05T10:32:38Z</time>
      </trkpt>
      <trkpt lat="49.88166" lon="2.24077">
        <ele>49</ele>
        <time>2021-09-05T10:32:39Z</time>
      </trkpt>
      <trkpt lat="49.88167" lon="2.24077">
        <ele>48.9</ele>
        <time>2021-09-05T10:32:40Z</time>
      </trkpt>
      <trkpt lat="49.88168" lon="2.24077">
        <ele>48.9</ele>
        <time>2021-09-05T10:32:41Z</time>
      </trkpt>
      <trkpt lat="49.8817" lon="2.24078">
        <ele>48.8</ele>
        <time>2021-09-05T10:32:43Z</time>
      </trkpt>
      <trkpt lat="49.88171" lon="2.24078">
        <ele>48.8</ele>
        <time>2021-09-05T10:32:44Z</time>
      </trkpt>
      <trkpt lat="49.88172" lon="2.24079">
        <ele>48.7</ele>
        <time>2021-09-05T10:32:45Z</time>
      </trkpt>
      <trkpt lat="49.88173" lon="2.24079">
        <ele>48.6</ele>
        <time>2021-09-05T10:32:46Z</time>
      </trkpt>
      <trkpt lat="49.88174" lon="2.24081">
        <ele>48.6</ele>
        <time>2021-09-05T10:32:48Z</time>
      </trkpt>
      <trkpt lat="49.88175" lon="2.24081">
        <ele>48.5</ele>
        <time>2021-09-05T10:32:49Z</time>
      </trkpt>
      <trkpt lat="49.88177" lon="2.24082">
        <ele>48.5</ele>
        <time>2021-09-05T10:32:50Z</time>
      </trkpt>
      <trkpt lat="49.88178" lon="2.24082">
        <ele>48.5</ele>
        <time>2021-09-05T10:32:51Z</time>
      </trkpt>
      <trkpt lat="49.88177" lon="2.24081">
        <ele>48.5</ele>
        <time>2021-09-05T10:32:52Z</time>
      </trkpt>
      <trkpt lat="49.88177" lon="2.2408">
        <ele>48.5</ele>
        <time>2021-09-05T10:32:54Z</time>
      </trkpt>
      <trkpt lat="49.88176" lon="2.24079">
        <ele>48.5</ele>
        <time>2021-09-05T10:32:55Z</time>
      </trkpt>
      <trkpt lat="49.88175" lon="2.24078">
        <ele>48.5</ele>
        <time>2021-09-05T10:32:56Z</time>
      </trkpt>
      <trkpt lat="49.88175" lon="2.24077">
        <ele>48.5</ele>
        <time>2021-09-05T10:32:58Z</time>
      </trkpt>
      <trkpt lat="49.88175" lon="2.24077">
        <ele>48.6</ele>
        <time>2021-09-05T10:32:59Z</time>
      </trkpt>
      <trkpt lat="49.88175" lon="2.24076">
        <ele>48.6</ele>
        <time>2021-09-05T10:33:01Z</time>
      </trkpt>
      <trkpt lat="49.88175" lon="2.24076">
        <ele>48.6</ele>
        <time>2021-09-05T10:33:03Z</time>
      </trkpt>
      <trkpt lat="49.88175" lon="2.24076">
        <ele>48.6</ele>
        <time>2021-09-05T10:33:05Z</time>
      </trkpt>
      <trkpt lat="49.88175" lon="2.24076">
        <ele>48.6</ele>
        <time>2021-09-05T10:33:06Z</time>
      </trkpt>
      <trkpt lat="49.88175" lon="2.24076">
        <ele>48.6</ele>
        <time>2021-09-05T10:33:08Z</time>
      </trkpt>
      <trkpt lat="49.88175" lon="2.24076">
        <ele>48.6</ele>
        <time>2021-09-05T10:33:09Z</time>
      </trkpt>
      <trkpt lat="49.88175" lon="2.24076">
        <ele>48.6</ele>
        <time>2021-09-05T10:33:11Z</time>
      </trkpt>
      <trkpt lat="49.88175" lon="2.24077">
        <ele>48.6</ele>
        <time>2021-09-05T10:33:12Z</time>
      </trkpt>
      <trkpt lat="49.88175" lon="2.24077">
        <ele>48.6</ele>
        <time>2021-09-05T10:33:14Z</time>
      </trkpt>
      <trkpt lat="49.88175" lon="2.24077">
        <ele>48.6</ele>
        <time>2021-09-05T10:33:15Z</time>
      </trkpt>
      <trkpt lat="49.88175" lon="2.24077">
        <ele>48.6</ele>
        <time>2021-09-05T10:33:16Z</time>
      </trkpt>
      <trkpt lat="49.88175" lon="2.24077">
        <ele>48.6</ele>
        <time>2021-09-05T10:33:18Z</time>
      </trkpt>
      <trkpt lat="49.88175" lon="2.24077">
        <ele>48.6</ele>
        <time>2021-09-05T10:33:20Z</time>
      </trkpt>
      <trkpt lat="49.88175" lon="2.24077">
        <ele>48.6</ele>
        <time>2021-09-05T10:33:21Z</time>
      </trkpt>
      <trkpt lat="49.88175" lon="2.24077">
        <ele>48.6</ele>
        <time>2021-09-05T10:33:23Z</time>
      </trkpt>
      <trkpt lat="49.88175" lon="2.24077">
        <ele>48.6</ele>
        <time>2021-09-05T10:33:25Z</time>
      </trkpt>
      <trkpt lat="49.88175" lon="2.24077">
        <ele>48.6</ele>
        <time>2021-09-05T10:33:26Z</time>
      </trkpt>
      <trkpt lat="49.88175" lon="2.24077">
        <ele>48.6</ele>
        <time>2021-09-05T10:33:28Z</time>
      </trkpt>
      <trkpt lat="49.88175" lon="2.24077">
        <ele>48.6</ele>
        <time>2021-09-05T10:33:29Z</time>
      </trkpt>
      <trkpt lat="49.88175" lon="2.24077">
        <ele>48.6</ele>
        <time>2021-09-05T10:33:30Z</time>
      </trkpt>
      <trkpt lat="49.88175" lon="2.24077">
        <ele>48.6</ele>
        <time>2021-09-05T10:33:32Z</time>
      </trkpt>
      <trkpt lat="49.88175" lon="2.24077">
        <ele>48.6</ele>
        <time>2021-09-05T10:33:33Z</time>
      </trkpt>
      <trkpt lat="49.88175" lon="2.24077">
        <ele>48.6</ele>
        <time>2021-09-05T10:33:34Z</time>
      </trkpt>
      <trkpt lat="49.88175" lon="2.24077">
        <ele>48.6</ele>
        <time>2021-09-05T10:33:36Z</time>
      </trkpt>
      <trkpt lat="49.88175" lon="2.24077">
        <ele>48.6</ele>
        <time>2021-09-05T10:33:37Z</time>
      </trkpt>
      <trkpt lat="49.88175" lon="2.24077">
        <ele>48.6</ele>
        <time>2021-09-05T10:33:39Z</time>
      </trkpt>
      <trkpt lat="49.88175" lon="2.24077">
        <ele>48.6</ele>
        <time>2021-09-05T10:33:41Z</time>
      </trkpt>
      <trkpt lat="49.88175" lon="2.24077">
        <ele>48.6</ele>
        <time>2021-09-05T10:33:42Z</time>
      </trkpt>
      <trkpt lat="49.88175" lon="2.24077">
        <ele>48.6</ele>
        <time>2021-09-05T10:33:43Z</time>
      </trkpt>
      <trkpt lat="49.88175" lon="2.24077">
        <ele>48.6</ele>
        <time>2021-09-05T10:33:45Z</time>
      </trkpt>
      <trkpt lat="49.88175" lon="2.24076">
        <ele>48.5</ele>
        <time>2021-09-05T10:33:46Z</time>
      </trkpt>
      <trkpt lat="49.88176" lon="2.24077">
        <ele>48.5</ele>
        <time>2021-09-05T10:33:47Z</time>
      </trkpt>
      <trkpt lat="49.88177" lon="2.24077">
        <ele>48.5</ele>
        <time>2021-09-05T10:33:49Z</time>
      </trkpt>
      <trkpt lat="49.88178" lon="2.24078">
        <ele>48.4</ele>
        <time>2021-09-05T10:33:50Z</time>
      </trkpt>
      <trkpt lat="49.88179" lon="2.24079">
        <ele>48.4</ele>
        <time>2021-09-05T10:33:51Z</time>
      </trkpt>
      <trkpt lat="49.8818" lon="2.24081">
        <ele>48.4</ele>
        <time>2021-09-05T10:33:52Z</time>
      </trkpt>
      <trkpt lat="49.88181" lon="2.24083">
        <ele>48.2</ele>
        <time>2021-09-05T10:33:53Z</time>
      </trkpt>
      <trkpt lat="49.88182" lon="2.24084">
        <ele>48.2</ele>
        <time>2021-09-05T10:33:54Z</time>
      </trkpt>
      <trkpt lat="49.88183" lon="2.24085">
        <ele>48.2</ele>
        <time>2021-09-05T10:33:55Z</time>
      </trkpt>
      <trkpt lat="49.88184" lon="2.24086">
        <ele>48.1</ele>
        <time>2021-09-05T10:33:57Z</time>
      </trkpt>
      <trkpt lat="49.88185" lon="2.24087">
        <ele>48</ele>
        <time>2021-09-05T10:33:58Z</time>
      </trkpt>
      <trkpt lat="49.88187" lon="2.2409">
        <ele>47.9</ele>
        <time>2021-09-05T10:33:59Z</time>
      </trkpt>
      <trkpt lat="49.88188" lon="2.24091">
        <ele>47.9</ele>
        <time>2021-09-05T10:34:00Z</time>
      </trkpt>
      <trkpt lat="49.88189" lon="2.24092">
        <ele>47.7</ele>
        <time>2021-09-05T10:34:01Z</time>
      </trkpt>
      <trkpt lat="49.8819" lon="2.24094">
        <ele>47.7</ele>
        <time>2021-09-05T10:34:03Z</time>
      </trkpt>
      <trkpt lat="49.88191" lon="2.24095">
        <ele>47.7</ele>
        <time>2021-09-05T10:34:04Z</time>
      </trkpt>
      <trkpt lat="49.88192" lon="2.24097">
        <ele>47.4</ele>
        <time>2021-09-05T10:34:05Z</time>
      </trkpt>
      <trkpt lat="49.88194" lon="2.241">
        <ele>47.4</ele>
        <time>2021-09-05T10:34:07Z</time>
      </trkpt>
      <trkpt lat="49.88194" lon="2.24102">
        <ele>47.3</ele>
        <time>2021-09-05T10:34:08Z</time>
      </trkpt>
      <trkpt lat="49.88195" lon="2.24103">
        <ele>47.2</ele>
        <time>2021-09-05T10:34:09Z</time>
      </trkpt>
      <trkpt lat="49.88197" lon="2.24105">
        <ele>47.1</ele>
        <time>2021-09-05T10:34:11Z</time>
      </trkpt>
      <trkpt lat="49.88198" lon="2.24106">
        <ele>47</ele>
        <time>2021-09-05T10:34:12Z</time>
      </trkpt>
      <trkpt lat="49.88199" lon="2.24108">
        <ele>46.9</ele>
        <time>2021-09-05T10:34:14Z</time>
      </trkpt>
      <trkpt lat="49.88201" lon="2.24108">
        <ele>46.7</ele>
        <time>2021-09-05T10:34:15Z</time>
      </trkpt>
      <trkpt lat="49.88202" lon="2.24109">
        <ele>46.7</ele>
        <time>2021-09-05T10:34:16Z</time>
      </trkpt>
      <trkpt lat="49.88203" lon="2.2411">
        <ele>46.6</ele>
        <time>2021-09-05T10:34:17Z</time>
      </trkpt>
      <trkpt lat="49.88205" lon="2.24111">
        <ele>46.6</ele>
        <time>2021-09-05T10:34:18Z</time>
      </trkpt>
      <trkpt lat="49.88206" lon="2.24113">
        <ele>46.4</ele>
        <time>2021-09-05T10:34:19Z</time>
      </trkpt>
      <trkpt lat="49.88207" lon="2.24114">
        <ele>46.3</ele>
        <time>2021-09-05T10:34:20Z</time>
      </trkpt>
      <trkpt lat="49.88208" lon="2.24115">
        <ele>46.2</ele>
        <time>2021-09-05T10:34:21Z</time>
      </trkpt>
      <trkpt lat="49.88209" lon="2.24116">
        <ele>46.2</ele>
        <time>2021-09-05T10:34:22Z</time>
      </trkpt>
      <trkpt lat="49.88211" lon="2.24117">
        <ele>45.9</ele>
        <time>2021-09-05T10:34:24Z</time>
      </trkpt>
      <trkpt lat="49.88212" lon="2.24118">
        <ele>45.9</ele>
        <time>2021-09-05T10:34:25Z</time>
      </trkpt>
      <trkpt lat="49.88213" lon="2.24118">
        <ele>45.9</ele>
        <time>2021-09-05T10:34:26Z</time>
      </trkpt>
      <trkpt lat="49.88214" lon="2.24119">
        <ele>45.8</ele>
        <time>2021-09-05T10:34:27Z</time>
      </trkpt>
      <trkpt lat="49.88217" lon="2.24119">
        <ele>45.7</ele>
        <time>2021-09-05T10:34:28Z</time>
      </trkpt>
      <trkpt lat="49.88218" lon="2.2412">
        <ele>45.7</ele>
        <time>2021-09-05T10:34:29Z</time>
      </trkpt>
      <trkpt lat="49.88218" lon="2.2412">
        <ele>45.7</ele>
        <time>2021-09-05T10:34:30Z</time>
      </trkpt>
      <trkpt lat="49.8822" lon="2.2412">
        <ele>45.6</ele>
        <time>2021-09-05T10:34:32Z</time>
      </trkpt>
      <trkpt lat="49.88222" lon="2.2412">
        <ele>45.6</ele>
        <time>2021-09-05T10:34:33Z</time>
      </trkpt>
      <trkpt lat="49.88224" lon="2.24119">
        <ele>45.5</ele>
        <time>2021-09-05T10:34:34Z</time>
      </trkpt>
      <trkpt lat="49.88225" lon="2.24119">
        <ele>45.5</ele>
        <time>2021-09-05T10:34:35Z</time>
      </trkpt>
      <trkpt lat="49.88227" lon="2.24117">
        <ele>45.5</ele>
        <time>2021-09-05T10:34:37Z</time>
      </trkpt>
      <trkpt lat="49.88228" lon="2.24116">
        <ele>45.6</ele>
        <time>2021-09-05T10:34:38Z</time>
      </trkpt>
      <trkpt lat="49.88229" lon="2.24116">
        <ele>45.6</ele>
        <time>2021-09-05T10:34:39Z</time>
      </trkpt>
      <trkpt lat="49.88231" lon="2.24116">
        <ele>45.5</ele>
        <time>2021-09-05T10:34:40Z</time>
      </trkpt>
      <trkpt lat="49.88232" lon="2.24115">
        <ele>45.5</ele>
        <time>2021-09-05T10:34:42Z</time>
      </trkpt>
      <trkpt lat="49.88233" lon="2.24115">
        <ele>45.5</ele>
        <time>2021-09-05T10:34:43Z</time>
      </trkpt>
      <trkpt lat="49.88235" lon="2.24114">
        <ele>45.5</ele>
        <time>2021-09-05T10:34:44Z</time>
      </trkpt>
      <trkpt lat="49.88236" lon="2.24114">
        <ele>45.5</ele>
        <time>2021-09-05T10:34:45Z</time>
      </trkpt>
      <trkpt lat="49.88237" lon="2.24114">
        <ele>45.5</ele>
        <time>2021-09-05T10:34:46Z</time>
      </trkpt>
      <trkpt lat="49.88238" lon="2.24114">
        <ele>45.5</ele>
        <time>2021-09-05T10:34:47Z</time>
      </trkpt>
      <trkpt lat="49.88239" lon="2.24114">
        <ele>45.5</ele>
        <time>2021-09-05T10:34:48Z</time>
      </trkpt>
      <trkpt lat="49.88241" lon="2.24115">
        <ele>45.5</ele>
        <time>2021-09-05T10:34:50Z</time>
      </trkpt>
      <trkpt lat="49.88241" lon="2.24115">
        <ele>45.5</ele>
        <time>2021-09-05T10:34:51Z</time>
      </trkpt>
      <trkpt lat="49.88243" lon="2.24115">
        <ele>45.5</ele>
        <time>2021-09-05T10:34:52Z</time>
      </trkpt>
      <trkpt lat="49.88244" lon="2.24115">
        <ele>45.5</ele>
        <time>2021-09-05T10:34:53Z</time>
      </trkpt>
      <trkpt lat="49.88248" lon="2.24115">
        <ele>45.6</ele>
        <time>2021-09-05T10:34:55Z</time>
      </trkpt>
      <trkpt lat="49.88249" lon="2.24115">
        <ele>45.6</ele>
        <time>2021-09-05T10:34:56Z</time>
      </trkpt>
      <trkpt lat="49.8825" lon="2.24115">
        <ele>45.6</ele>
        <time>2021-09-05T10:34:57Z</time>
      </trkpt>
      <trkpt lat="49.88251" lon="2.24114">
        <ele>45.6</ele>
        <time>2021-09-05T10:34:59Z</time>
      </trkpt>
      <trkpt lat="49.88252" lon="2.24114">
        <ele>45.6</ele>
        <time>2021-09-05T10:35:00Z</time>
      </trkpt>
      <trkpt lat="49.88253" lon="2.24113">
        <ele>45.7</ele>
        <time>2021-09-05T10:35:01Z</time>
      </trkpt>
      <trkpt lat="49.88253" lon="2.24113">
        <ele>45.7</ele>
        <time>2021-09-05T10:35:02Z</time>
      </trkpt>
      <trkpt lat="49.88255" lon="2.24113">
        <ele>45.7</ele>
        <time>2021-09-05T10:35:03Z</time>
      </trkpt>
      <trkpt lat="49.88257" lon="2.24113">
        <ele>45.7</ele>
        <time>2021-09-05T10:35:05Z</time>
      </trkpt>
      <trkpt lat="49.88258" lon="2.24114">
        <ele>45.7</ele>
        <time>2021-09-05T10:35:06Z</time>
      </trkpt>
      <trkpt lat="49.88258" lon="2.24114">
        <ele>45.8</ele>
        <time>2021-09-05T10:35:07Z</time>
      </trkpt>
      <trkpt lat="49.88259" lon="2.24114">
        <ele>45.8</ele>
        <time>2021-09-05T10:35:08Z</time>
      </trkpt>
      <trkpt lat="49.88261" lon="2.24114">
        <ele>45.8</ele>
        <time>2021-09-05T10:35:10Z</time>
      </trkpt>
      <trkpt lat="49.88262" lon="2.24114">
        <ele>45.9</ele>
        <time>2021-09-05T10:35:11Z</time>
      </trkpt>
      <trkpt lat="49.88262" lon="2.24114">
        <ele>45.9</ele>
        <time>2021-09-05T10:35:12Z</time>
      </trkpt>
      <trkpt lat="49.88262" lon="2.24115">
        <ele>45.9</ele>
        <time>2021-09-05T10:35:14Z</time>
      </trkpt>
      <trkpt lat="49.88262" lon="2.24116">
        <ele>45.9</ele>
        <time>2021-09-05T10:35:15Z</time>
      </trkpt>
      <trkpt lat="49.88264" lon="2.24117">
        <ele>46</ele>
        <time>2021-09-05T10:35:17Z</time>
      </trkpt>
      <trkpt lat="49.88266" lon="2.24118">
        <ele>45.8</ele>
        <time>2021-09-05T10:35:18Z</time>
      </trkpt>
      <trkpt lat="49.88266" lon="2.24119">
        <ele>45.9</ele>
        <time>2021-09-05T10:35:19Z</time>
      </trkpt>
      <trkpt lat="49.88267" lon="2.24119">
        <ele>45.9</ele>
        <time>2021-09-05T10:35:20Z</time>
      </trkpt>
      <trkpt lat="49.88269" lon="2.2412">
        <ele>45.9</ele>
        <time>2021-09-05T10:35:22Z</time>
      </trkpt>
      <trkpt lat="49.8827" lon="2.24121">
        <ele>46</ele>
        <time>2021-09-05T10:35:23Z</time>
      </trkpt>
      <trkpt lat="49.88272" lon="2.24121">
        <ele>45.7</ele>
        <time>2021-09-05T10:35:24Z</time>
      </trkpt>
      <trkpt lat="49.88273" lon="2.24122">
        <ele>45.9</ele>
        <time>2021-09-05T10:35:25Z</time>
      </trkpt>
      <trkpt lat="49.88274" lon="2.24122">
        <ele>45.9</ele>
        <time>2021-09-05T10:35:26Z</time>
      </trkpt>
      <trkpt lat="49.88275" lon="2.24122">
        <ele>46</ele>
        <time>2021-09-05T10:35:27Z</time>
      </trkpt>
      <trkpt lat="49.88276" lon="2.24122">
        <ele>46</ele>
        <time>2021-09-05T10:35:29Z</time>
      </trkpt>
      <trkpt lat="49.88278" lon="2.24122">
        <ele>46.1</ele>
        <time>2021-09-05T10:35:30Z</time>
      </trkpt>
      <trkpt lat="49.88279" lon="2.24121">
        <ele>46.1</ele>
        <time>2021-09-05T10:35:31Z</time>
      </trkpt>
      <trkpt lat="49.88279" lon="2.24121">
        <ele>46.1</ele>
        <time>2021-09-05T10:35:32Z</time>
      </trkpt>
      <trkpt lat="49.8828" lon="2.24121">
        <ele>46.5</ele>
        <time>2021-09-05T10:35:33Z</time>
      </trkpt>
      <trkpt lat="49.88281" lon="2.2412">
        <ele>46.4</ele>
        <time>2021-09-05T10:35:34Z</time>
      </trkpt>
      <trkpt lat="49.88283" lon="2.2412">
        <ele>46.4</ele>
        <time>2021-09-05T10:35:36Z</time>
      </trkpt>
      <trkpt lat="49.88284" lon="2.2412">
        <ele>46.6</ele>
        <time>2021-09-05T10:35:37Z</time>
      </trkpt>
      <trkpt lat="49.88285" lon="2.2412">
        <ele>46.6</ele>
        <time>2021-09-05T10:35:38Z</time>
      </trkpt>
      <trkpt lat="49.88286" lon="2.2412">
        <ele>46.7</ele>
        <time>2021-09-05T10:35:39Z</time>
      </trkpt>
      <trkpt lat="49.88287" lon="2.24121">
        <ele>46.7</ele>
        <time>2021-09-05T10:35:40Z</time>
      </trkpt>
      <trkpt lat="49.88289" lon="2.24121">
        <ele>46.8</ele>
        <time>2021-09-05T10:35:41Z</time>
      </trkpt>
      <trkpt lat="49.8829" lon="2.24121">
        <ele>46.6</ele>
        <time>2021-09-05T10:35:43Z</time>
      </trkpt>
      <trkpt lat="49.88291" lon="2.24122">
        <ele>46.7</ele>
        <time>2021-09-05T10:35:44Z</time>
      </trkpt>
      <trkpt lat="49.88293" lon="2.24122">
        <ele>46.7</ele>
        <time>2021-09-05T10:35:45Z</time>
      </trkpt>
      <trkpt lat="49.88295" lon="2.24122">
        <ele>46.8</ele>
        <time>2021-09-05T10:35:46Z</time>
      </trkpt>
      <trkpt lat="49.88296" lon="2.24122">
        <ele>46.8</ele>
        <time>2021-09-05T10:35:47Z</time>
      </trkpt>
      <trkpt lat="49.88298" lon="2.24122">
        <ele>46.9</ele>
        <time>2021-09-05T10:35:48Z</time>
      </trkpt>
      <trkpt lat="49.88301" lon="2.24121">
        <ele>47</ele>
        <time>2021-09-05T10:35:50Z</time>
      </trkpt>
      <trkpt lat="49.88302" lon="2.24121">
        <ele>47</ele>
        <time>2021-09-05T10:35:51Z</time>
      </trkpt>
      <trkpt lat="49.88302" lon="2.24122">
        <ele>47.1</ele>
        <time>2021-09-05T10:35:52Z</time>
      </trkpt>
      <trkpt lat="49.88304" lon="2.24123">
        <ele>47.1</ele>
        <time>2021-09-05T10:35:54Z</time>
      </trkpt>
      <trkpt lat="49.88305" lon="2.24124">
        <ele>47.2</ele>
        <time>2021-09-05T10:35:55Z</time>
      </trkpt>
      <trkpt lat="49.88306" lon="2.24124">
        <ele>47.2</ele>
        <time>2021-09-05T10:35:56Z</time>
      </trkpt>
      <trkpt lat="49.88306" lon="2.24124">
        <ele>47.2</ele>
        <time>2021-09-05T10:35:57Z</time>
      </trkpt>
      <trkpt lat="49.88307" lon="2.24124">
        <ele>47.2</ele>
        <time>2021-09-05T10:35:58Z</time>
      </trkpt>
      <trkpt lat="49.88308" lon="2.24124">
        <ele>47.3</ele>
        <time>2021-09-05T10:35:59Z</time>
      </trkpt>
      <trkpt lat="49.88309" lon="2.24124">
        <ele>47.3</ele>
        <time>2021-09-05T10:36:01Z</time>
      </trkpt>
      <trkpt lat="49.8831" lon="2.24124">
        <ele>47.3</ele>
        <time>2021-09-05T10:36:02Z</time>
      </trkpt>
      <trkpt lat="49.8831" lon="2.24125">
        <ele>47.3</ele>
        <time>2021-09-05T10:36:03Z</time>
      </trkpt>
      <trkpt lat="49.88311" lon="2.24126">
        <ele>47.3</ele>
        <time>2021-09-05T10:36:04Z</time>
      </trkpt>
      <trkpt lat="49.88311" lon="2.24127">
        <ele>47.3</ele>
        <time>2021-09-05T10:36:05Z</time>
      </trkpt>
      <trkpt lat="49.88312" lon="2.24127">
        <ele>47.3</ele>
        <time>2021-09-05T10:36:06Z</time>
      </trkpt>
      <trkpt lat="49.88313" lon="2.24128">
        <ele>47.3</ele>
        <time>2021-09-05T10:36:08Z</time>
      </trkpt>
      <trkpt lat="49.88314" lon="2.24128">
        <ele>47.4</ele>
        <time>2021-09-05T10:36:09Z</time>
      </trkpt>
      <trkpt lat="49.88316" lon="2.24129">
        <ele>47.4</ele>
        <time>2021-09-05T10:36:10Z</time>
      </trkpt>
      <trkpt lat="49.88317" lon="2.24129">
        <ele>47.4</ele>
        <time>2021-09-05T10:36:11Z</time>
      </trkpt>
      <trkpt lat="49.88318" lon="2.2413">
        <ele>47.3</ele>
        <time>2021-09-05T10:36:12Z</time>
      </trkpt>
      <trkpt lat="49.8832" lon="2.24131">
        <ele>47.4</ele>
        <time>2021-09-05T10:36:13Z</time>
      </trkpt>
      <trkpt lat="49.88321" lon="2.24131">
        <ele>47.4</ele>
        <time>2021-09-05T10:36:15Z</time>
      </trkpt>
      <trkpt lat="49.88322" lon="2.24131">
        <ele>47.5</ele>
        <time>2021-09-05T10:36:16Z</time>
      </trkpt>
      <trkpt lat="49.88324" lon="2.24131">
        <ele>47.5</ele>
        <time>2021-09-05T10:36:17Z</time>
      </trkpt>
      <trkpt lat="49.88325" lon="2.24132">
        <ele>47.5</ele>
        <time>2021-09-05T10:36:18Z</time>
      </trkpt>
      <trkpt lat="49.88326" lon="2.2413">
        <ele>47.5</ele>
        <time>2021-09-05T10:36:19Z</time>
      </trkpt>
      <trkpt lat="49.88327" lon="2.2413">
        <ele>47.5</ele>
        <time>2021-09-05T10:36:20Z</time>
      </trkpt>
      <trkpt lat="49.88328" lon="2.24131">
        <ele>47.6</ele>
        <time>2021-09-05T10:36:22Z</time>
      </trkpt>
      <trkpt lat="49.8833" lon="2.24131">
        <ele>47.6</ele>
        <time>2021-09-05T10:36:23Z</time>
      </trkpt>
      <trkpt lat="49.88333" lon="2.24132">
        <ele>47.8</ele>
        <time>2021-09-05T10:36:24Z</time>
      </trkpt>
      <trkpt lat="49.88335" lon="2.24132">
        <ele>47.8</ele>
        <time>2021-09-05T10:36:25Z</time>
      </trkpt>
      <trkpt lat="49.88336" lon="2.24133">
        <ele>47.8</ele>
        <time>2021-09-05T10:36:26Z</time>
      </trkpt>
      <trkpt lat="49.88337" lon="2.24133">
        <ele>47.8</ele>
        <time>2021-09-05T10:36:27Z</time>
      </trkpt>
      <trkpt lat="49.88339" lon="2.24134">
        <ele>47.8</ele>
        <time>2021-09-05T10:36:29Z</time>
      </trkpt>
      <trkpt lat="49.8834" lon="2.24136">
        <ele>47.8</ele>
        <time>2021-09-05T10:36:30Z</time>
      </trkpt>
      <trkpt lat="49.88341" lon="2.24138">
        <ele>47.8</ele>
        <time>2021-09-05T10:36:31Z</time>
      </trkpt>
      <trkpt lat="49.88342" lon="2.24139">
        <ele>47.7</ele>
        <time>2021-09-05T10:36:32Z</time>
      </trkpt>
      <trkpt lat="49.88343" lon="2.2414">
        <ele>47.7</ele>
        <time>2021-09-05T10:36:33Z</time>
      </trkpt>
      <trkpt lat="49.88344" lon="2.24141">
        <ele>47.7</ele>
        <time>2021-09-05T10:36:34Z</time>
      </trkpt>
      <trkpt lat="49.88345" lon="2.24141">
        <ele>47.7</ele>
        <time>2021-09-05T10:36:35Z</time>
      </trkpt>
      <trkpt lat="49.88345" lon="2.24139">
        <ele>47.7</ele>
        <time>2021-09-05T10:36:37Z</time>
      </trkpt>
      <trkpt lat="49.88346" lon="2.24138">
        <ele>47.7</ele>
        <time>2021-09-05T10:36:38Z</time>
      </trkpt>
      <trkpt lat="49.88347" lon="2.24138">
        <ele>47.9</ele>
        <time>2021-09-05T10:36:39Z</time>
      </trkpt>
      <trkpt lat="49.88347" lon="2.24137">
        <ele>47.9</ele>
        <time>2021-09-05T10:36:40Z</time>
      </trkpt>
      <trkpt lat="49.88348" lon="2.24137">
        <ele>47.9</ele>
        <time>2021-09-05T10:36:41Z</time>
      </trkpt>
      <trkpt lat="49.88349" lon="2.24136">
        <ele>47.9</ele>
        <time>2021-09-05T10:36:42Z</time>
      </trkpt>
      <trkpt lat="49.8835" lon="2.24136">
        <ele>48</ele>
        <time>2021-09-05T10:36:43Z</time>
      </trkpt>
      <trkpt lat="49.88351" lon="2.24136">
        <ele>48</ele>
        <time>2021-09-05T10:36:44Z</time>
      </trkpt>
      <trkpt lat="49.88352" lon="2.24135">
        <ele>48</ele>
        <time>2021-09-05T10:36:46Z</time>
      </trkpt>
      <trkpt lat="49.88353" lon="2.24134">
        <ele>48</ele>
        <time>2021-09-05T10:36:47Z</time>
      </trkpt>
      <trkpt lat="49.88354" lon="2.24134">
        <ele>48.2</ele>
        <time>2021-09-05T10:36:48Z</time>
      </trkpt>
      <trkpt lat="49.88355" lon="2.24133">
        <ele>48.2</ele>
        <time>2021-09-05T10:36:49Z</time>
      </trkpt>
      <trkpt lat="49.88356" lon="2.24132">
        <ele>48.2</ele>
        <time>2021-09-05T10:36:50Z</time>
      </trkpt>
      <trkpt lat="49.88357" lon="2.24133">
        <ele>48.2</ele>
        <time>2021-09-05T10:36:51Z</time>
      </trkpt>
      <trkpt lat="49.88357" lon="2.24133">
        <ele>48.2</ele>
        <time>2021-09-05T10:36:52Z</time>
      </trkpt>
      <trkpt lat="49.88358" lon="2.24133">
        <ele>48.3</ele>
        <time>2021-09-05T10:36:54Z</time>
      </trkpt>
      <trkpt lat="49.88359" lon="2.24133">
        <ele>48.3</ele>
        <time>2021-09-05T10:36:55Z</time>
      </trkpt>
      <trkpt lat="49.8836" lon="2.24133">
        <ele>48.3</ele>
        <time>2021-09-05T10:36:56Z</time>
      </trkpt>
      <trkpt lat="49.88362" lon="2.24133">
        <ele>48.3</ele>
        <time>2021-09-05T10:36:58Z</time>
      </trkpt>
      <trkpt lat="49.88363" lon="2.24134">
        <ele>48.4</ele>
        <time>2021-09-05T10:36:59Z</time>
      </trkpt>
      <trkpt lat="49.88365" lon="2.24134">
        <ele>48.2</ele>
        <time>2021-09-05T10:37:00Z</time>
      </trkpt>
      <trkpt lat="49.88365" lon="2.24138">
        <ele>48.2</ele>
        <time>2021-09-05T10:37:02Z</time>
      </trkpt>
      <trkpt lat="49.88365" lon="2.24139">
        <ele>48.1</ele>
        <time>2021-09-05T10:37:03Z</time>
      </trkpt>
      <trkpt lat="49.88365" lon="2.24141">
        <ele>48.1</ele>
        <time>2021-09-05T10:37:04Z</time>
      </trkpt>
      <trkpt lat="49.88365" lon="2.24143">
        <ele>48</ele>
        <time>2021-09-05T10:37:05Z</time>
      </trkpt>
      <trkpt lat="49.88365" lon="2.24144">
        <ele>48</ele>
        <time>2021-09-05T10:37:06Z</time>
      </trkpt>
      <trkpt lat="49.88365" lon="2.24146">
        <ele>48</ele>
        <time>2021-09-05T10:37:07Z</time>
      </trkpt>
      <trkpt lat="49.88366" lon="2.24148">
        <ele>48</ele>
        <time>2021-09-05T10:37:08Z</time>
      </trkpt>
      <trkpt lat="49.88366" lon="2.2415">
        <ele>48</ele>
        <time>2021-09-05T10:37:10Z</time>
      </trkpt>
      <trkpt lat="49.88366" lon="2.24152">
        <ele>47.9</ele>
        <time>2021-09-05T10:37:11Z</time>
      </trkpt>
      <trkpt lat="49.88367" lon="2.24154">
        <ele>47.9</ele>
        <time>2021-09-05T10:37:13Z</time>
      </trkpt>
      <trkpt lat="49.88367" lon="2.24155">
        <ele>47.9</ele>
        <time>2021-09-05T10:37:14Z</time>
      </trkpt>
      <trkpt lat="49.88367" lon="2.24157">
        <ele>47.9</ele>
        <time>2021-09-05T10:37:16Z</time>
      </trkpt>
      <trkpt lat="49.88367" lon="2.24159">
        <ele>47.9</ele>
        <time>2021-09-05T10:37:17Z</time>
      </trkpt>
      <trkpt lat="49.88366" lon="2.24161">
        <ele>47.9</ele>
        <time>2021-09-05T10:37:19Z</time>
      </trkpt>
      <trkpt lat="49.88365" lon="2.2416">
        <ele>47.9</ele>
        <time>2021-09-05T10:37:21Z</time>
      </trkpt>
      <trkpt lat="49.88365" lon="2.24158">
        <ele>47.9</ele>
        <time>2021-09-05T10:37:23Z</time>
      </trkpt>
      <trkpt lat="49.88365" lon="2.24158">
        <ele>47.9</ele>
        <time>2021-09-05T10:37:24Z</time>
      </trkpt>
      <trkpt lat="49.88365" lon="2.24158">
        <ele>47.9</ele>
        <time>2021-09-05T10:37:26Z</time>
      </trkpt>
      <trkpt lat="49.88365" lon="2.24158">
        <ele>47.9</ele>
        <time>2021-09-05T10:37:27Z</time>
      </trkpt>
      <trkpt lat="49.88365" lon="2.24158">
        <ele>47.9</ele>
        <time>2021-09-05T10:37:28Z</time>
      </trkpt>
      <trkpt lat="49.88364" lon="2.24158">
        <ele>47.9</ele>
        <time>2021-09-05T10:37:29Z</time>
      </trkpt>
      <trkpt lat="49.88364" lon="2.24158">
        <ele>47.9</ele>
        <time>2021-09-05T10:37:30Z</time>
      </trkpt>
      <trkpt lat="49.88364" lon="2.24158">
        <ele>47.9</ele>
        <time>2021-09-05T10:37:32Z</time>
      </trkpt>
      <trkpt lat="49.88364" lon="2.24158">
        <ele>47.9</ele>
        <time>2021-09-05T10:37:33Z</time>
      </trkpt>
      <trkpt lat="49.88364" lon="2.24158">
        <ele>47.9</ele>
        <time>2021-09-05T10:37:34Z</time>
      </trkpt>
      <trkpt lat="49.88364" lon="2.24157">
        <ele>47.9</ele>
        <time>2021-09-05T10:37:36Z</time>
      </trkpt>
      <trkpt lat="49.88365" lon="2.24157">
        <ele>47.9</ele>
        <time>2021-09-05T10:37:37Z</time>
      </trkpt>
      <trkpt lat="49.88365" lon="2.24157">
        <ele>47.9</ele>
        <time>2021-09-05T10:37:39Z</time>
      </trkpt>
      <trkpt lat="49.88365" lon="2.24157">
        <ele>47.9</ele>
        <time>2021-09-05T10:37:40Z</time>
      </trkpt>
      <trkpt lat="49.88366" lon="2.24154">
        <ele>47.9</ele>
        <time>2021-09-05T10:37:42Z</time>
      </trkpt>
      <trkpt lat="49.88364" lon="2.24155">
        <ele>47.9</ele>
        <time>2021-09-05T10:37:44Z</time>
      </trkpt>
      <trkpt lat="49.88363" lon="2.24154">
        <ele>47.9</ele>
        <time>2021-09-05T10:37:46Z</time>
      </trkpt>
      <trkpt lat="49.88363" lon="2.24153">
        <ele>47.9</ele>
        <time>2021-09-05T10:37:48Z</time>
      </trkpt>
      <trkpt lat="49.88363" lon="2.24152">
        <ele>47.9</ele>
        <time>2021-09-05T10:37:50Z</time>
      </trkpt>
      <trkpt lat="49.88363" lon="2.24152">
        <ele>47.9</ele>
        <time>2021-09-05T10:37:52Z</time>
      </trkpt>
    </trkseg>
  </trk>
</gpx>